# Wetter Temperatur Luftdruck Luftfeuchtigkeit Sichtweite Windgeschwindigkeit Windrichtung Zeit
1 Rain 19 1011 89 10000 8.75 10 15:55 01.02.2023
2 Clouds 20 1011 89 10000 5.66 20 13:42 01.02.2023
3 Clouds 20 1011 89 10000 4.12 20 13:19 01.02.2023
4 Clouds 19 1011 90 10000 4.12 350 12:26 01.02.2023
5 Clouds 19 1011 93 10000 5.14 20 09:54 01.02.2023
6 Rain 21 1011 85 10000 2.06 20 06:19 01.02.2023
7 Rain 20 1015 80 10000 2.57 340 22:21 31.01.2023
8 Rain 18 1015 88 10000 2.06 10 20:29 31.01.2023
9 Clouds 18 1015 88 10000 0.51 40 19:24 31.01.2023
10 Clouds 18 1015 90 10000 0.51 50 16:41 31.01.2023
11 Clouds 18 1016 89 10000 0.51 360 15:36 31.01.2023
12 Clouds 18 1016 90 10000 0.51 360 15:18 31.01.2023
13 Clouds 18 1017 89 10000 1.54 350 12:48 31.01.2023
14 Rain 18 1017 92 10000 1.03 30 11:21 31.01.2023
15 Clouds 19 1017 90 10000 1.03 200 09:54 31.01.2023
16 Clouds 19 1017 89 10000 1.54 200 09:24 31.01.2023
17 Clouds 20 1017 88 10000 1.03 210 08:35 31.01.2023
18 Clouds 20 1017 88 10000 2.57 160 06:18 31.01.2023
19 Fog 21 1020 85 250 2.57 200 23:59 30.01.2023
20 Drizzle 19 1020 91 750 3.09 200 23:23 30.01.2023
21 Rain 18 1020 91 2200 1.54 200 22:32 30.01.2023
22 Fog 18 1020 95 800 1.03 220 21:23 30.01.2023
23 Fog 17 1019 95 550 1.54 190 20:35 30.01.2023
24 Rain 17 1019 96 9000 3.09 200 18:25 30.01.2023
25 Fog 17 1019 95 1000 4.12 190 16:48 30.01.2023
26 Fog 17 1020 94 550 4.12 210 14:28 30.01.2023
27 Clouds 19 1020 84 10000 1.03 50 12:45 30.01.2023
28 Clouds 19 1020 84 10000 2.06 10 11:28 30.01.2023
29 Clouds 20 1020 81 10000 2.57 10 09:54 30.01.2023
30 Clouds 20 1020 78 10000 4.12 10 08:57 30.01.2023
31 Rain 21 1019 77 10000 4.12 360 07:29 30.01.2023
32 Rain 24 1019 69 10000 6.69 360 01:42 30.01.2023
33 Clouds 23 1020 77 10000 4.63 350 23:35 29.01.2023
34 Clouds 22 1019 80 10000 4.63 360 22:37 29.01.2023
35 Clouds 21 1019 80 10000 5.14 360 21:41 29.01.2023
36 Clouds 21 1019 81 10000 4.63 20 20:41 29.01.2023
37 Clouds 21 1018 82 10000 4.12 360 19:48 29.01.2023
38 Clouds 21 1018 84 10000 4.63 360 19:27 29.01.2023
39 Rain 21 1017 84 10000 4.63 20 17:49 29.01.2023
40 Clouds 21 1017 85 10000 5.66 10 16:21 29.01.2023
41 Clouds 21 1018 87 10000 5.66 10 14:53 29.01.2023
42 Clouds 21 1018 88 10000 2.57 10 13:30 29.01.2023
43 Rain 20 1018 91 10000 4.12 10 12:44 29.01.2023
44 Clouds 20 1018 90 10000 4.12 350 12:23 29.01.2023
45 Clouds 20 1018 90 10000 4.63 10 11:51 29.01.2023
46 Clouds 20 1018 90 10000 4.63 360 11:26 29.01.2023
47 Clouds 21 1018 88 10000 4.12 20 09:57 29.01.2023
48 Rain 21 1017 82 10000 1.54 230 07:19 29.01.2023
49 Clouds 22 1018 84 10000 4.12 200 03:40 29.01.2023
50 Clouds 18 1019 97 10000 5.66 220 23:27 28.01.2023
51 Rain 16 1017 98 7000 6.69 230 20:38 28.01.2023
52 Clouds 16 1017 99 8000 7.72 230 19:52 28.01.2023
53 Clouds 16 1017 99 10000 2.57 250 18:35 28.01.2023
54 Clouds 16 1015 99 8000 5.66 230 17:20 28.01.2023
55 Clouds 16 1015 99 8000 6.69 230 16:25 28.01.2023
56 Clouds 16 1015 99 7000 6.69 230 15:49 28.01.2023
57 Mist 17 1015 99 5000 5.14 230 14:53 28.01.2023
58 Mist 16 1016 98 3600 4.63 190 13:30 28.01.2023
59 Mist 15 1017 98 3500 12.35 190 11:55 28.01.2023
60 Rain 15 1017 98 1200 11.32 200 10:34 28.01.2023
61 Mist 15 1017 98 2900 12.35 180 08:39 28.01.2023
62 Clouds 16 1016 89 10000 12.86 170 01:45 28.01.2023
63 Clouds 15 1017 92 9000 11.83 170 00:26 28.01.2023
64 Clouds 16 1016 94 9000 12.35 170 21:48 27.01.2023
65 Drizzle 17 1014 97 10000 7.72 190 18:53 27.01.2023
66 Clouds 17 1014 96 10000 6.17 180 17:58 27.01.2023
67 Clouds 17 1013 95 10000 5.66 180 17:19 27.01.2023
68 Mist 17 1013 95 4600 3.6 200 16:35 27.01.2023
69 Rain 17 1013 95 7000 1.54 170 15:24 27.01.2023
70 Rain 17 1014 95 10000 2.57 160 14:25 27.01.2023
71 Clouds 17 1014 95 10000 4.12 210 13:31 27.01.2023
72 Clouds 17 1012 94 10000 5.66 350 08:47 27.01.2023
73 Rain 17 1012 93 10000 3.6 20 06:21 27.01.2023
74 Rain 20 1015 64 10000 3.6 320 00:27 27.01.2023
75 Clouds 20 1015 65 10000 5.14 20 21:52 26.01.2023
76 Clouds 19 1015 71 10000 4.63 20 20:40 26.01.2023
77 Clouds 18 1015 75 10000 4.12 10 19:57 26.01.2023
78 Clouds 17 1015 78 10000 2.57 20 17:56 26.01.2023
79 Clouds 17 1016 81 10000 4.63 30 16:30 26.01.2023
80 Clouds 18 1016 77 10000 4.12 30 15:59 26.01.2023
81 Clouds 18 1016 76 10000 5.66 40 15:40 26.01.2023
82 Clouds 18 1016 76 10000 5.66 40 15:22 26.01.2023
83 Clouds 18 1017 77 10000 5.66 20 13:47 26.01.2023
84 Clouds 18 1018 78 10000 3.6 30 12:31 26.01.2023
85 Clouds 18 1019 77 10000 6.69 20 10:34 26.01.2023
86 Clouds 18 1019 74 10000 6.17 20 09:44 26.01.2023
87 Clouds 18 1019 74 10000 6.17 20 09:44 26.01.2023
88 Clouds 18 1018 72 10000 6.17 10 09:19 26.01.2023
89 Clouds 23 1018 53 10000 7.2 360 06:27 26.01.2023
90 Clouds 21 1023 72 10000 9.26 360 23:41 25.01.2023
91 Clouds 21 1023 76 10000 8.75 360 22:47 25.01.2023
92 Clear 21 1022 74 10000 7.2 340 21:26 25.01.2023
93 Clear 19 1023 81 10000 8.23 350 20:59 25.01.2023
94 Clouds 17 1022 92 10000 5.14 350 18:29 25.01.2023
95 Clouds 17 1022 92 10000 7.2 10 16:22 25.01.2023
96 Clouds 17 1023 91 10000 6.17 30 14:57 25.01.2023
97 Clouds 17 1023 91 10000 7.2 10 12:29 25.01.2023
98 Clouds 17 1023 85 10000 5.66 360 09:53 25.01.2023
99 Clouds 17 1023 85 10000 5.14 10 09:29 25.01.2023
100 Clouds 21 1023 69 9000 5.66 310 06:52 25.01.2023
101 Clear 22 1025 64 10000 4.63 190 00:31 25.01.2023
102 Clear 17 1024 78 10000 1.03 350 21:56 24.01.2023
103 Clear 15 1024 82 10000 2.06 360 21:28 24.01.2023
104 Clear 13 1023 88 10000 0.51 30 19:38 24.01.2023
105 Clear 12 1023 87 10000 1.03 80 18:30 24.01.2023
106 Clear 12 1023 88 9000 1.03 50 17:18 24.01.2023
107 Clear 12 1023 88 10000 1.03 70 16:52 24.01.2023
108 Clear 13 1022 84 10000 1.54 20 14:49 24.01.2023
109 Clear 15 1023 79 10000 1.54 10 12:28 24.01.2023
110 Clear 16 1022 80 10000 1.54 50 10:36 24.01.2023
111 Clear 20 1019 69 10000 3.6 240 08:21 24.01.2023
112 Clear 20 1020 68 10000 3.09 170 07:50 24.01.2023
113 Clear 19 1020 72 10000 6.17 180 05:21 24.01.2023
114 Clear 21 1021 62 10000 6.17 170 00:44 24.01.2023
115 Clear 21 1023 56 10000 4.12 200 23:35 23.01.2023
116 Clear 16 1021 69 10000 2.57 170 21:50 23.01.2023
117 Clear 12 1020 91 10000 2.4 110 19:44 23.01.2023
118 Clouds 11 1021 92 10000 0.51 100 17:43 23.01.2023
119 Clouds 13 1020 86 10000 2.57 100 15:33 23.01.2023
120 Clouds 13 1020 85 10000 1.54 360 13:58 23.01.2023
121 Clouds 14 1020 84 10000 2.57 100 13:22 23.01.2023
122 Clouds 14 1020 83 10000 2.06 120 12:45 23.01.2023
123 Clouds 15 1020 82 10000 3.6 140 11:42 23.01.2023
124 Clouds 16 1019 73 10000 7.72 160 08:27 23.01.2023
125 Clear 20 1019 65 10000 6.17 180 02:49 23.01.2023
126 Clouds 17 1020 75 10000 5.14 170 23:22 22.01.2023
127 Clouds 17 1019 79 10000 5.14 170 21:19 22.01.2023
128 Clouds 16 1019 82 10000 5.14 180 20:48 22.01.2023
129 Clouds 15 1018 86 10000 3.6 180 19:47 22.01.2023
130 Clouds 15 1018 85 10000 4.12 170 19:19 22.01.2023
131 Clouds 15 1017 84 10000 5.14 170 17:57 22.01.2023
132 Clouds 15 1017 84 10000 5.14 170 17:57 22.01.2023
133 Clouds 15 1017 82 10000 6.17 170 17:26 22.01.2023
134 Clouds 15 1017 83 10000 6.17 170 16:24 22.01.2023
135 Clouds 16 1017 85 10000 5.14 210 14:55 22.01.2023
136 Clouds 16 1017 86 10000 5.14 190 13:48 22.01.2023
137 Clouds 16 1017 87 10000 3.09 210 12:49 22.01.2023
138 Clouds 16 1017 90 10000 4.12 160 11:38 22.01.2023
139 Clouds 18 1015 79 10000 5.14 360 09:36 22.01.2023
140 Clouds 18 1014 75 10000 4.63 20 08:34 22.01.2023
141 Clear 21 1013 66 10000 9.26 350 02:51 22.01.2023
142 Clouds 20 1015 73 10000 6.69 350 23:41 21.01.2023
143 Clouds 20 1014 69 10000 4.12 360 22:41 21.01.2023
144 Clouds 15 1013 88 10000 3.09 30 20:27 21.01.2023
145 Clouds 13 1013 90 10000 1.54 20 17:59 21.01.2023
146 Clouds 13 1015 92 10000 0.51 100 14:57 21.01.2023
147 Clouds 14 1015 85 10000 1.03 20 12:59 21.01.2023
148 Clouds 14 1015 84 10000 0.51 340 12:40 21.01.2023
149 Clear 15 1015 84 10000 2.06 250 11:27 21.01.2023
150 Clouds 15 1015 83 10000 2.06 250 10:46 21.01.2023
151 Clouds 15 1015 83 10000 2.06 250 10:46 21.01.2023
152 Clouds 20 1013 67 10000 6.69 170 04:51 21.01.2023
153 Clouds 19 1012 76 10000 4.63 180 22:47 20.01.2023
154 Clouds 18 1011 79 10000 5.14 170 22:25 20.01.2023
155 Clouds 17 1011 82 10000 5.14 180 21:34 20.01.2023
156 Clouds 17 1010 85 10000 6.17 190 20:39 20.01.2023
157 Haze 16 1008 92 3000 6.69 190 17:54 20.01.2023
158 Clouds 17 1006 91 10000 5.66 20 15:26 20.01.2023
159 Clouds 18 1004 86 10000 6.69 30 14:32 20.01.2023
160 Clouds 18 1003 83 10000 6.17 20 11:18 20.01.2023
161 Clouds 19 1002 82 10000 9.77 10 08:59 20.01.2023
162 Clouds 20 1001 75 10000 10.29 10 07:40 20.01.2023
163 Clouds 22 1002 76 10000 11.32 360 02:32 20.01.2023
164 Clouds 22 1004 71 10000 8.75 10 22:37 19.01.2023
165 Clouds 20 1004 79 10000 9.26 10 21:47 19.01.2023
166 Clouds 18 1004 86 10000 6.17 20 19:38 19.01.2023
167 Clouds 17 1004 91 10000 7.2 10 18:56 19.01.2023
168 Clouds 17 1005 82 10000 3.09 10 14:26 19.01.2023
169 Clouds 18 1006 78 10000 1.54 60 10:26 19.01.2023
170 Clouds 19 1005 76 10000 2.06 180 08:58 19.01.2023
171 Clouds 20 1009 72 10000 2.57 190 22:41 18.01.2023
172 Clouds 16 1009 84 10000 1.03 60 20:36 18.01.2023
173 Clouds 16 1008 86 10000 1.03 60 20:18 18.01.2023
174 Clouds 13 1009 93 10000 1.03 90 19:35 18.01.2023
175 Clear 13 1009 89 10000 2.06 150 16:47 18.01.2023
176 Clear 14 1010 84 10000 1.03 120 14:21 18.01.2023
177 Clear 15 1012 84 10000 1.54 10 12:50 18.01.2023
178 Clear 18 1011 72 10000 3.6 20 10:29 18.01.2023
179 Clouds 24 1009 55 10000 3.09 130 07:24 18.01.2023
180 Clear 18 1014 82 10000 7.2 220 01:25 18.01.2023
181 Clear 18 1014 82 10000 7.2 220 01:25 18.01.2023
182 Clear 18 1017 81 10000 3.09 210 22:30 17.01.2023
183 Clouds 16 1015 89 10000 2.57 190 20:25 17.01.2023
184 Clouds 15 1015 93 9000 4.63 200 19:18 17.01.2023
185 Clouds 16 1015 94 10000 6.17 230 17:47 17.01.2023
186 Clouds 16 1016 91 10000 5.66 220 15:35 17.01.2023
187 Clouds 16 1016 91 10000 5.14 210 14:51 17.01.2023
188 Clear 16 1017 93 10000 0.89 168 13:34 17.01.2023
189 Clouds 16 1017 92 10000 6.17 220 11:50 17.01.2023
190 Clouds 16 1016 91 10000 4.12 210 10:35 17.01.2023
191 Clouds 17 1016 88 10000 3.6 190 09:27 17.01.2023
192 Clouds 19 1015 83 10000 5.66 180 07:38 17.01.2023
193 Clouds 23 1016 56 10000 5.66 330 03:52 17.01.2023
194 Clouds 22 1017 64 10000 8.75 10 00:51 17.01.2023
195 Clouds 20 1018 77 10000 8.75 10 22:40 16.01.2023
196 Clouds 20 1018 75 10000 9.26 10 21:47 16.01.2023
197 Clouds 18 1017 84 10000 8.75 20 19:59 16.01.2023
198 Clouds 17 1017 85 10000 8.23 20 19:26 16.01.2023
199 Clouds 17 1017 85 10000 7.72 20 18:49 16.01.2023
200 Clouds 17 1016 88 10000 7.72 20 18:19 16.01.2023
201 Clouds 17 1017 86 10000 8.75 10 17:20 16.01.2023
202 Clouds 18 1018 87 10000 10.29 10 14:28 16.01.2023
203 Clouds 18 1018 86 10000 8.75 20 13:37 16.01.2023
204 Clouds 18 1020 83 10000 8.23 10 10:27 16.01.2023
205 Clouds 18 1020 78 10000 8.75 20 08:44 16.01.2023
206 Clear 21 1024 60 10000 7.2 360 23:21 15.01.2023
207 Clear 19 1024 74 10000 6.69 10 21:32 15.01.2023
208 Clear 17 1024 81 10000 4.63 360 20:32 15.01.2023
209 Clear 15 1025 89 10000 5.14 20 19:38 15.01.2023
210 Clear 13 1024 89 10000 3.09 10 17:38 15.01.2023
211 Clear 13 1024 90 10000 3.6 10 15:18 15.01.2023
212 Clear 14 1025 86 10000 1.54 190 12:29 15.01.2023
213 Clear 14 1025 86 10000 1.54 250 11:29 15.01.2023
214 Clear 16 1026 79 10000 0.51 280 10:27 15.01.2023
215 Clear 18 1026 70 10000 2.06 210 08:54 15.01.2023
216 Clear 20 1027 60 10000 4.12 200 01:42 15.01.2023
217 Clear 20 1027 63 10000 3.09 190 22:44 14.01.2023
218 Clear 18 1027 68 10000 2.57 200 21:55 14.01.2023
219 Clear 18 1027 71 10000 3.09 200 21:36 14.01.2023
220 Clear 17 1027 73 10000 3.09 200 21:18 14.01.2023
221 Clear 17 1027 73 10000 3.09 200 21:18 14.01.2023
222 Clear 15 1027 84 10000 1.03 230 20:28 14.01.2023
223 Clear 11 1026 88 10000 2.06 190 18:19 14.01.2023
224 Clouds 12 1026 88 10000 1.54 180 15:43 14.01.2023
225 Clouds 11 1025 90 10000 1.54 180 15:24 14.01.2023
226 Clouds 12 1026 88 10000 2.06 170 14:22 14.01.2023
227 Clouds 13 1026 86 10000 0.51 270 13:32 14.01.2023
228 Clear 14 1026 79 10000 2.57 160 10:51 14.01.2023
229 Clear 15 1024 78 10000 5.14 150 09:43 14.01.2023
230 Clouds 19 1024 66 10000 6.17 180 02:50 14.01.2023
231 Clear 19 1024 66 10000 4.12 210 23:21 13.01.2023
232 Clear 18 1024 68 10000 4.12 200 22:42 13.01.2023
233 Clear 17 1023 72 10000 3.09 200 21:58 13.01.2023
234 Clear 16 1023 75 10000 3.09 200 20:52 13.01.2023
235 Clear 13 1022 86 10000 1.54 180 19:34 13.01.2023
236 Clouds 12 1021 87 10000 2.57 180 17:43 13.01.2023
237 Clouds 11 1021 89 10000 3.09 170 16:24 13.01.2023
238 Clear 13 1021 84 10000 1.03 230 12:36 13.01.2023
239 Clear 13 1021 83 10000 1.03 230 12:18 13.01.2023
240 Clouds 15 1021 78 10000 3.09 140 10:23 13.01.2023
241 Clouds 15 1020 75 10000 4.63 150 09:45 13.01.2023
242 Clear 16 1020 72 10000 4.63 180 08:52 13.01.2023
243 Clear 18 1019 68 10000 6.17 180 07:43 13.01.2023
244 Clear 18 1019 66 10000 6.69 170 06:49 13.01.2023
245 Clear 19 1019 53 10000 4.12 180 03:26 13.01.2023
246 Clouds 19 1020 52 10000 5.66 150 23:43 12.01.2023
247 Clouds 18 1019 64 10000 4.63 180 22:31 12.01.2023
248 Clouds 17 1018 72 10000 5.14 150 20:55 12.01.2023
249 Clouds 14 1016 86 10000 4.12 180 18:52 12.01.2023
250 Clouds 14 1017 86 10000 4.12 170 17:33 12.01.2023
251 Clouds 14 1017 86 10000 4.12 170 17:33 12.01.2023
252 Clouds 14 1016 85 10000 4.63 180 15:53 12.01.2023
253 Clouds 15 1016 85 10000 5.14 170 14:44 12.01.2023
254 Clouds 15 1016 83 10000 5.14 170 14:21 12.01.2023
255 Clouds 15 1016 82 10000 5.66 170 12:45 12.01.2023
256 Clouds 15 1015 81 10000 5.66 160 10:34 12.01.2023
257 Clouds 16 1013 78 10000 6.17 150 08:21 12.01.2023
258 Clouds 17 1009 75 9000 9.77 180 01:49 12.01.2023
259 Clouds 17 1008 79 9000 11.83 190 23:59 11.01.2023
260 Clouds 16 1008 80 8000 11.83 190 23:39 11.01.2023
261 Clouds 16 1008 79 8000 11.83 190 23:20 11.01.2023
262 Clouds 14 1006 85 7000 12.86 190 21:44 11.01.2023
263 Mist 13 1004 94 2600 14.4 190 19:47 11.01.2023
264 Clouds 14 1003 94 6000 13.38 190 18:35 11.01.2023
265 Rain 15 1001 95 10000 9.26 170 16:42 11.01.2023
266 Clouds 15 1001 97 8000 7.2 180 14:44 11.01.2023
267 Clouds 14 1001 98 10000 8.75 180 12:43 11.01.2023
268 Drizzle 14 1001 96 10000 11.83 170 11:54 11.01.2023
269 Rain 14 1000 98 3000 12.35 170 10:20 11.01.2023
270 Rain 15 997 98 2600 10.8 180 07:59 11.01.2023
271 Rain 15 997 98 2500 11.83 170 07:22 11.01.2023
272 Rain 15 997 98 2500 11.83 170 07:22 11.01.2023
273 Clouds 16 994 91 9000 12.35 160 00:34 11.01.2023
274 Clouds 18 994 86 10000 10.29 160 22:45 10.01.2023
275 Clouds 17 995 90 7000 11.32 160 21:32 10.01.2023
276 Clouds 16 995 91 10000 9.26 160 20:37 10.01.2023
277 Clouds 16 995 93 8000 9.77 150 19:38 10.01.2023
278 Clouds 16 997 92 10000 8.23 150 18:47 10.01.2023
279 Rain 16 996 91 10000 7.72 170 17:58 10.01.2023
280 Clouds 16 997 87 10000 6.17 170 16:39 10.01.2023
281 Rain 17 999 77 10000 4.63 150 15:24 10.01.2023
282 Rain 17 999 80 10000 5.14 150 14:30 10.01.2023
283 Clouds 16 1003 85 10000 4.63 180 12:21 10.01.2023
284 Rain 18 1005 76 10000 2.06 90 09:21 10.01.2023
285 Clouds 19 1005 71 10000 4.12 70 08:29 10.01.2023
286 Rain 20 1005 67 10000 4.63 70 07:26 10.01.2023
287 Clouds 21 1007 65 10000 4.12 80 04:53 10.01.2023
288 Rain 18 1010 77 10000 2.06 190 23:28 09.01.2023
289 Clouds 19 1008 75 10000 2.57 80 21:51 09.01.2023
290 Clouds 18 1010 75 10000 2.06 70 20:44 09.01.2023
291 Clouds 16 1010 81 10000 0.51 50 19:21 09.01.2023
292 Clouds 16 1010 84 10000 0.51 320 17:54 09.01.2023
293 Clouds 16 1010 84 10000 1.54 160 17:24 09.01.2023
294 Clouds 16 1010 81 10000 1.03 180 16:32 09.01.2023
295 Clouds 17 1011 79 10000 2.06 120 15:26 09.01.2023
296 Clouds 17 1011 79 10000 2.06 140 14:44 09.01.2023
297 Clouds 17 1013 78 10000 3.09 200 13:25 09.01.2023
298 Clouds 16 1013 81 10000 2.57 210 12:49 09.01.2023
299 Clouds 16 1012 79 10000 1.54 150 11:21 09.01.2023
300 Clouds 18 1013 71 10000 4.12 90 08:43 09.01.2023
301 Clouds 20 1013 66 10000 6.17 150 06:39 09.01.2023
302 Clouds 22 1015 64 10000 7.2 150 02:54 09.01.2023
303 Clouds 17 1018 71 10000 5.14 150 22:55 08.01.2023
304 Clouds 16 1017 75 10000 5.14 160 21:24 08.01.2023
305 Clouds 16 1018 73 10000 6.69 150 20:58 08.01.2023
306 Clouds 15 1017 80 10000 7.2 140 19:48 08.01.2023
307 Clouds 14 1018 80 10000 5.14 150 17:42 08.01.2023
308 Clouds 14 1018 80 10000 5.14 150 17:19 08.01.2023
309 Clouds 14 1019 81 10000 7.72 150 15:39 08.01.2023
310 Clouds 14 1019 81 10000 8.23 150 14:35 08.01.2023
311 Clouds 14 1020 81 10000 9.77 140 13:55 08.01.2023
312 Clouds 15 1020 81 10000 9.26 150 13:21 08.01.2023
313 Clouds 15 1020 79 10000 9.26 160 11:50 08.01.2023
314 Clouds 14 1020 82 10000 10.8 170 09:38 08.01.2023
315 Clouds 14 1020 83 10000 11.83 160 08:42 08.01.2023
316 Clouds 15 1019 80 10000 11.32 170 06:20 08.01.2023
317 Clouds 14 1019 86 10000 13.38 160 23:25 07.01.2023
318 Clouds 13 1019 92 6000 12.35 170 22:44 07.01.2023
319 Clouds 13 1019 93 6000 13.38 170 21:59 07.01.2023
320 Clouds 13 1019 95 9000 14.4 170 21:32 07.01.2023
321 Rain 12 1018 96 3200 14.4 170 20:29 07.01.2023
322 Rain 12 1018 96 7000 14.92 170 19:25 07.01.2023
323 Rain 12 1017 96 6000 13.89 180 18:21 07.01.2023
324 Rain 12 1017 98 2300 13.89 190 17:41 07.01.2023
325 Rain 13 1015 97 1900 14.92 190 16:49 07.01.2023
326 Rain 13 1016 97 3700 13.89 190 16:28 07.01.2023
327 Rain 13 1016 98 2200 13.89 190 15:40 07.01.2023
328 Mist 13 1016 98 2200 13.89 190 15:22 07.01.2023
329 Rain 13 1015 98 1100 14.4 190 13:59 07.01.2023
330 Rain 13 1015 98 2000 14.92 190 13:41 07.01.2023
331 Fog 13 1015 98 1000 13.89 180 12:58 07.01.2023
332 Rain 13 1015 98 1200 13.89 180 12:21 07.01.2023
333 Rain 14 1014 98 2300 14.92 180 10:29 07.01.2023
334 Rain 14 1014 98 2800 13.89 180 09:23 07.01.2023
335 Rain 14 1013 98 2500 13.89 180 08:18 07.01.2023
336 Mist 14 1013 97 2800 13.38 180 07:41 07.01.2023
337 Rain 14 1013 97 2600 12.86 180 06:22 07.01.2023
338 Rain 16 1012 94 10000 8.75 170 23:24 06.01.2023
339 Rain 16 1012 95 10000 7.72 160 22:21 06.01.2023
340 Clouds 16 1012 95 10000 7.72 160 21:50 06.01.2023
341 Clouds 16 1012 95 10000 7.72 160 20:38 06.01.2023
342 Clouds 16 1011 95 10000 7.2 170 19:55 06.01.2023
343 Clouds 17 1011 95 10000 7.2 160 19:37 06.01.2023
344 Clouds 17 1011 95 10000 7.2 160 19:19 06.01.2023
345 Clouds 17 1010 95 10000 6.17 220 17:55 06.01.2023
346 Clouds 18 1010 95 10000 1.54 290 16:52 06.01.2023
347 Clouds 18 1010 95 10000 1.54 320 16:22 06.01.2023
348 Clouds 18 1010 96 10000 3.09 350 15:51 06.01.2023
349 Clouds 18 1010 96 10000 2.06 350 15:29 06.01.2023
350 Clouds 19 1010 96 10000 2.57 10 13:42 06.01.2023
351 Rain 19 1010 96 10000 4.63 10 11:50 06.01.2023
352 Rain 19 1010 94 10000 4.63 40 10:34 06.01.2023
353 Rain 19 1009 93 10000 5.14 20 08:42 06.01.2023
354 Rain 21 1010 77 10000 7.72 360 05:20 06.01.2023
355 Rain 18 1012 91 10000 5.66 10 22:56 05.01.2023
356 Clouds 19 1012 88 10000 5.14 360 22:20 05.01.2023
357 Clouds 18 1011 92 10000 0.51 190 20:24 05.01.2023
358 Rain 17 1011 94 10000 1.54 350 17:30 05.01.2023
359 Rain 17 1011 94 10000 2.06 20 16:38 05.01.2023
360 Clouds 17 1012 94 10000 2.06 360 15:48 05.01.2023
361 Rain 18 1012 96 10000 2.57 40 14:56 05.01.2023
362 Rain 18 1012 94 7000 4.63 10 13:34 05.01.2023
363 Rain 18 1013 94 10000 4.12 20 12:39 05.01.2023
364 Rain 18 1013 91 5000 5.66 360 10:19 05.01.2023
365 Rain 18 1011 87 10000 4.63 340 09:36 05.01.2023
366 Clouds 19 1012 88 10000 4.12 180 07:26 05.01.2023
367 Clouds 20 1012 83 10000 2.06 170 06:38 05.01.2023
368 Rain 18 1014 91 10000 1.54 340 00:28 05.01.2023
369 Rain 18 1012 90 10000 3.09 360 22:23 04.01.2023
370 Clouds 17 1014 90 9000 5.14 360 21:30 04.01.2023
371 Rain 16 1013 87 10000 3.6 20 19:58 04.01.2023
372 Rain 16 1012 87 10000 4.12 30 19:36 04.01.2023
373 Rain 17 1013 87 10000 4.12 30 19:18 04.01.2023
374 Rain 17 1012 85 10000 1.03 40 16:58 04.01.2023
375 Rain 17 1013 85 10000 1.54 10 16:30 04.01.2023
376 Clouds 18 1013 80 10000 3.09 350 14:49 04.01.2023
377 Clouds 18 1014 75 10000 3.09 350 11:56 04.01.2023
378 Clouds 18 1014 75 10000 2.06 20 11:22 04.01.2023
379 Clouds 19 1014 74 10000 2.06 10 10:44 04.01.2023
380 Clouds 19 1014 73 10000 3.09 30 10:24 04.01.2023
381 Rain 20 1014 71 10000 3.6 40 09:19 04.01.2023
382 Rain 20 1015 68 10000 2.57 180 05:38 04.01.2023
383 Clouds 24 1014 60 10000 4.63 200 01:20 04.01.2023
384 Clouds 22 1017 56 10000 4.12 30 23:37 03.01.2023
385 Clouds 22 1017 55 10000 5.14 50 22:55 03.01.2023
386 Clouds 21 1017 67 10000 3.6 350 21:36 03.01.2023
387 Clouds 19 1017 73 10000 4.63 360 20:28 03.01.2023
388 Clouds 17 1016 77 10000 5.66 20 18:22 03.01.2023
389 Clouds 17 1016 79 10000 4.63 20 16:39 03.01.2023
390 Clouds 16 1017 82 10000 5.14 360 14:21 03.01.2023
391 Clouds 17 1017 81 10000 3.6 340 13:32 03.01.2023
392 Clouds 17 1017 81 10000 3.6 340 13:32 03.01.2023
393 Clouds 16 1017 83 10000 3.6 360 12:59 03.01.2023
394 Clouds 16 1017 81 10000 2.06 10 12:31 03.01.2023
395 Clouds 17 1017 79 10000 1.03 350 11:53 03.01.2023
396 Clouds 21 1018 59 10000 2.57 200 08:23 03.01.2023
397 Clouds 21 1019 60 10000 3.09 190 04:26 03.01.2023
398 Clouds 21 1019 60 10000 4.12 190 03:46 03.01.2023
399 Clouds 22 1019 56 10000 4.12 200 03:27 03.01.2023
400 Clouds 18 1021 77 10000 4.12 190 23:19 02.01.2023
401 Clouds 21 1022 52 10000 2.57 350 22:26 02.01.2023
402 Clouds 18 1021 74 10000 3.09 20 20:51 02.01.2023
403 Clouds 16 1021 79 10000 2.06 10 20:26 02.01.2023
404 Clouds 13 1021 85 10000 1.03 50 18:40 02.01.2023
405 Clouds 13 1021 86 10000 0.51 80 15:43 02.01.2023
406 Clouds 14 1020 84 10000 2.57 350 13:39 02.01.2023
407 Clouds 16 1022 76 10000 3.6 360 12:19 02.01.2023
408 Clouds 17 1022 75 10000 4.12 20 10:57 02.01.2023
409 Clouds 19 1022 69 10000 4.12 100 08:38 02.01.2023
410 Clouds 21 1022 69 10000 7.2 160 03:32 02.01.2023
411 Clouds 19 1025 67 10000 3.6 190 23:18 01.01.2023
412 Clouds 18 1025 73 10000 3.6 180 21:46 01.01.2023
413 Clouds 17 1025 75 10000 5.14 150 20:48 01.01.2023
414 Clouds 16 1025 76 10000 5.14 150 20:18 01.01.2023
415 Clouds 14 1025 83 10000 4.63 150 18:47 01.01.2023
416 Clouds 14 1023 82 10000 4.12 140 17:23 01.01.2023
417 Clouds 14 1024 80 10000 4.63 140 16:34 01.01.2023
418 Clouds 15 1026 77 10000 3.6 140 15:28 01.01.2023
419 Clouds 15 1026 75 10000 1.54 140 13:42 01.01.2023
420 Clouds 15 1025 77 10000 2.57 140 12:45 01.01.2023
421 Clouds 15 1026 73 10000 2.06 130 11:39 01.01.2023
422 Clouds 15 1026 73 10000 3.09 140 10:53 01.01.2023
423 Clouds 16 1026 71 10000 4.12 140 09:23 01.01.2023
424 Clouds 16 1024 72 10000 5.14 150 08:24 01.01.2023
425 Clouds 17 1025 72 10000 7.72 150 07:29 01.01.2023
426 Clouds 18 1025 66 10000 8.23 150 05:58 01.01.2023
427 Clouds 16 1026 70 10000 6.69 160 23:44 31.12.2022
428 Clouds 16 1025 73 10000 6.17 150 22:59 31.12.2022
429 Clouds 15 1026 70 10000 7.72 170 21:42 31.12.2022
430 Clouds 15 1026 71 10000 7.72 170 21:20 31.12.2022
431 Clouds 15 1025 74 10000 8.23 170 20:20 31.12.2022
432 Clouds 14 1025 78 10000 8.23 150 18:45 31.12.2022
433 Clouds 14 1026 79 10000 6.69 150 18:20 31.12.2022
434 Clouds 14 1025 81 10000 5.66 150 17:55 31.12.2022
435 Clouds 14 1024 79 10000 5.14 150 17:00 31.12.2022
436 Clear 13 1025 77 10000 5.14 160 16:30 31.12.2022
437 Clouds 13 1025 78 10000 3.6 150 15:19 31.12.2022
438 Clear 13 1024 77 10000 5.66 150 13:53 31.12.2022
439 Clear 13 1026 74 10000 5.14 140 12:47 31.12.2022
440 Clear 13 1026 77 10000 4.12 140 12:21 31.12.2022
441 Clear 13 1025 79 10000 3.6 140 11:51 31.12.2022
442 Clear 14 1026 73 10000 3.09 140 10:37 31.12.2022
443 Clear 14 1025 68 10000 4.63 150 09:55 31.12.2022
444 Clear 15 1025 68 10000 3.6 140 09:36 31.12.2022
445 Clear 16 1024 64 10000 7.72 140 07:51 31.12.2022
446 Clear 18 1024 56 10000 6.69 160 00:59 31.12.2022
447 Clear 18 1025 52 10000 7.2 160 23:50 30.12.2022
448 Clear 18 1025 52 10000 7.72 140 22:50 30.12.2022
449 Clouds 16 1025 59 10000 7.72 160 21:50 30.12.2022
450 Clear 16 1025 62 10000 7.72 150 21:30 30.12.2022
451 Clouds 14 1024 70 10000 8.75 170 19:24 30.12.2022
452 Clouds 13 1024 73 10000 9.26 170 17:52 30.12.2022
453 Clouds 13 1024 73 10000 8.75 170 17:33 30.12.2022
454 Clouds 13 1024 73 10000 10.29 170 15:58 30.12.2022
455 Clouds 14 1024 74 10000 9.26 170 14:54 30.12.2022
456 Clouds 14 1024 82 10000 8.75 160 12:50 30.12.2022
457 Rain 15 1023 78 10000 9.77 170 08:22 30.12.2022
458 Clouds 16 1022 81 10000 10.29 180 03:40 30.12.2022
459 Clouds 17 1020 80 10000 10.8 170 01:53 30.12.2022
460 Clouds 18 1020 80 10000 7.72 180 22:58 29.12.2022
461 Clear 21 1019 68 10000 2.06 350 21:32 29.12.2022
462 Clear 20 1017 72 10000 5.66 360 20:54 29.12.2022
463 Clear 19 1017 74 10000 5.66 360 20:25 29.12.2022
464 Clear 18 1014 82 10000 7.72 20 18:30 29.12.2022
465 Clear 18 1013 86 10000 7.72 20 17:33 29.12.2022
466 Clear 18 1014 84 10000 7.72 20 16:56 29.12.2022
467 Clear 18 1015 85 10000 7.72 20 16:33 29.12.2022
468 Clouds 18 1015 84 10000 8.75 20 15:37 29.12.2022
469 Clouds 18 1016 82 10000 8.75 20 13:34 29.12.2022
470 Clear 18 1017 78 10000 10.29 360 11:33 29.12.2022
471 Clear 19 1016 78 10000 11.83 360 09:18 29.12.2022
472 Clear 22 1020 64 10000 10.8 360 00:23 29.12.2022
473 Clear 22 1021 68 10000 10.29 360 23:28 28.12.2022
474 Clear 20 1020 76 10000 9.26 10 21:22 28.12.2022
475 Clear 20 1021 77 10000 7.72 10 20:50 28.12.2022
476 Clear 17 1019 87 10000 5.14 30 19:38 28.12.2022
477 Clouds 16 1021 84 10000 4.63 20 16:57 28.12.2022
478 Clouds 15 1020 86 10000 4.12 30 15:25 28.12.2022
479 Clear 16 1022 86 10000 2.57 360 12:56 28.12.2022
480 Clear 16 1022 86 10000 2.06 30 12:23 28.12.2022
481 Clouds 17 1022 82 10000 1.54 20 11:29 28.12.2022
482 Clouds 18 1022 79 10000 2.57 160 09:18 28.12.2022
483 Clear 20 1022 73 10000 3.6 210 07:27 28.12.2022
484 Clear 20 1022 71 10000 4.63 210 06:43 28.12.2022
485 Clouds 19 1025 75 10000 5.66 200 23:36 27.12.2022
486 Clouds 17 1024 80 10000 4.12 210 20:30 27.12.2022
487 Clouds 17 1023 83 10000 5.66 210 19:40 27.12.2022
488 Clouds 15 1022 84 10000 6.17 230 17:47 27.12.2022
489 Clouds 15 1023 86 10000 5.14 210 16:43 27.12.2022
490 Clouds 15 1024 86 10000 5.14 200 15:30 27.12.2022
491 Clouds 15 1024 88 10000 4.63 160 12:36 27.12.2022
492 Clouds 16 1023 86 10000 6.17 190 11:29 27.12.2022
493 Clouds 16 1023 83 10000 4.12 160 09:46 27.12.2022
494 Clouds 16 1023 82 10000 5.14 190 09:23 27.12.2022
495 Clouds 19 1022 68 10000 6.69 160 06:51 27.12.2022
496 Clouds 20 1023 64 10000 7.2 150 04:31 27.12.2022
497 Clear 18 1022 77 10000 7.72 180 22:28 26.12.2022
498 Clear 19 1020 75 10000 5.66 170 21:24 26.12.2022
499 Clear 17 1021 82 10000 3.6 210 20:39 26.12.2022
500 Clouds 13 1020 92 10000 1.03 80 18:44 26.12.2022
501 Clouds 12 1019 92 10000 1.54 10 17:46 26.12.2022
502 Clouds 13 1020 89 10000 2.06 190 16:20 26.12.2022
503 Clouds 15 1020 83 10000 1.54 40 13:54 26.12.2022
504 Clouds 16 1020 82 10000 1.03 60 12:45 26.12.2022
505 Clear 24 1018 62 10000 5.14 200 07:29 26.12.2022
506 Clear 18 1020 82 10000 5.14 210 23:56 25.12.2022
507 Clear 18 1020 82 10000 4.63 200 23:38 25.12.2022
508 Clear 21 1018 73 10000 3.6 190 22:27 25.12.2022
509 Clear 21 1018 73 10000 3.6 190 22:27 25.12.2022
510 Clear 19 1019 83 10000 2.57 180 21:37 25.12.2022
511 Clouds 14 1018 93 9000 0.51 300 18:50 25.12.2022
512 Clouds 14 1018 92 10000 0.51 280 17:52 25.12.2022
513 Clouds 14 1018 92 10000 1.03 90 17:34 25.12.2022
514 Clouds 15 1018 88 10000 2.06 40 15:21 25.12.2022
515 Clouds 16 1017 85 10000 1.54 330 12:26 25.12.2022
516 Clouds 18 1016 76 10000 4.12 360 08:44 25.12.2022
517 Clouds 21 1016 68 10000 7.72 10 23:40 24.12.2022
518 Clouds 20 1013 80 10000 5.14 20 21:41 24.12.2022
519 Clouds 16 1013 87 10000 3.6 20 18:18 24.12.2022
520 Clouds 16 1013 86 10000 5.66 20 16:45 24.12.2022
521 Clouds 17 1013 86 10000 6.17 10 14:53 24.12.2022
522 Clouds 17 1014 85 10000 5.66 20 12:43 24.12.2022
523 Clouds 17 1013 88 10000 5.66 20 10:45 24.12.2022
524 Clouds 17 1013 87 10000 6.17 10 10:20 24.12.2022
525 Clouds 18 1012 86 10000 6.17 10 09:36 24.12.2022
526 Clouds 20 1013 72 10000 5.66 10 06:21 24.12.2022
527 Clouds 20 1013 78 10000 4.63 170 02:24 24.12.2022
528 Clouds 20 1013 77 10000 3.09 60 23:37 23.12.2022
529 Clouds 19 1013 83 10000 1.54 20 22:27 23.12.2022
530 Clouds 17 1013 88 10000 0.51 250 20:41 23.12.2022
531 Clouds 17 1012 90 10000 2.06 230 19:39 23.12.2022
532 Clouds 16 1013 92 10000 2.06 230 19:21 23.12.2022
533 Clouds 16 1013 94 10000 1.54 330 18:46 23.12.2022
534 Clouds 15 1013 94 10000 1.03 260 18:19 23.12.2022
535 Clouds 16 1012 94 10000 3.09 230 16:34 23.12.2022
536 Fog 16 1011 94 550 5.14 220 15:30 23.12.2022
537 Clouds 16 1011 93 10000 1.03 250 11:47 23.12.2022
538 Clouds 17 1011 91 10000 4.12 20 09:37 23.12.2022
539 Haze 17 1011 91 5000 3.09 360 07:59 23.12.2022
540 Clouds 18 1010 85 10000 3.09 190 06:52 23.12.2022
541 Clouds 19 1010 80 10000 2.57 180 06:23 23.12.2022
542 Clouds 18 1014 82 10000 3.6 190 23:23 22.12.2022
543 Clouds 17 1014 83 10000 4.12 190 22:57 22.12.2022
544 Clouds 18 1014 82 10000 2.06 350 21:23 22.12.2022
545 Clouds 15 1014 93 10000 1.03 210 19:26 22.12.2022
546 Clouds 14 1014 93 10000 0.51 230 18:41 22.12.2022
547 Clouds 14 1014 93 10000 1.54 260 17:23 22.12.2022
548 Clouds 14 1014 93 10000 1.54 260 17:23 22.12.2022
549 Clouds 15 1012 94 10000 2.06 230 16:38 22.12.2022
550 Clouds 14 1014 93 10000 5.14 230 15:34 22.12.2022
551 Clouds 14 1014 93 10000 3.6 210 14:51 22.12.2022
552 Clouds 14 1014 92 10000 3.09 230 13:33 22.12.2022
553 Clouds 15 1015 90 10000 1.54 250 12:59 22.12.2022
554 Clouds 15 1014 90 10000 4.63 160 10:44 22.12.2022
555 Clouds 15 1015 89 10000 4.63 160 10:22 22.12.2022
556 Clouds 15 1014 87 10000 6.17 150 09:20 22.12.2022
557 Clouds 16 1014 85 10000 6.69 150 08:26 22.12.2022
558 Clouds 18 1015 75 10000 9.26 150 05:28 22.12.2022
559 Clouds 19 1014 78 10000 9.26 150 04:18 22.12.2022
560 Clouds 16 1017 77 10000 6.17 170 23:50 21.12.2022
561 Rain 16 1016 76 10000 5.14 170 21:58 21.12.2022
562 Rain 16 1016 77 10000 5.66 160 21:23 21.12.2022
563 Rain 16 1016 77 10000 4.63 160 20:50 21.12.2022
564 Clouds 15 1016 78 10000 5.66 160 20:18 21.12.2022
565 Rain 15 1016 81 10000 4.63 160 19:42 21.12.2022
566 Clouds 15 1016 81 10000 4.63 160 19:22 21.12.2022
567 Rain 14 1016 81 10000 4.12 140 18:45 21.12.2022
568 Clouds 14 1015 80 10000 6.69 160 17:36 21.12.2022
569 Clouds 14 1016 76 10000 5.66 150 14:41 21.12.2022
570 Rain 14 1016 74 10000 5.66 150 12:58 21.12.2022
571 Clouds 15 1017 77 10000 3.6 140 11:42 21.12.2022
572 Clouds 15 1017 78 10000 3.6 140 11:19 21.12.2022
573 Clouds 15 1016 80 10000 6.69 150 09:25 21.12.2022
574 Clouds 16 1015 77 10000 8.75 150 07:32 21.12.2022
575 Clouds 15 1015 84 10000 9.26 160 01:56 21.12.2022
576 Clouds 14 1014 94 10000 9.26 160 22:43 20.12.2022
577 Clouds 13 1013 94 10000 10.8 170 21:21 20.12.2022
578 Rain 13 1013 96 10000 11.32 170 20:22 20.12.2022
579 Drizzle 13 1013 95 10000 10.29 170 19:33 20.12.2022
580 Clouds 13 1012 95 6000 11.32 170 18:29 20.12.2022
581 Clouds 13 1011 95 7000 10.29 170 17:55 20.12.2022
582 Mist 13 1011 96 3600 11.32 180 17:32 20.12.2022
583 Rain 13 1011 96 4600 10.8 170 16:32 20.12.2022
584 Clouds 14 1010 96 10000 9.77 170 15:29 20.12.2022
585 Drizzle 14 1011 95 7000 9.77 160 14:43 20.12.2022
586 Drizzle 14 1011 95 7000 9.77 160 14:25 20.12.2022
587 Clouds 15 1011 94 8000 10.29 160 12:44 20.12.2022
588 Drizzle 15 1010 94 6000 10.29 150 12:25 20.12.2022
589 Clouds 15 1011 93 10000 9.77 150 11:31 20.12.2022
590 Rain 15 1009 95 9000 10.8 150 08:27 20.12.2022
591 Clouds 21 1007 72 10000 8.75 150 00:32 20.12.2022
592 Clouds 20 1008 76 10000 2.57 190 22:36 19.12.2022
593 Rain 19 1007 84 10000 1.54 200 21:41 19.12.2022
594 Rain 16 1007 94 10000 1.54 340 19:55 19.12.2022
595 Rain 15 1006 94 8000 1.54 320 19:37 19.12.2022
596 Clouds 14 1006 93 10000 1.54 310 18:24 19.12.2022
597 Clouds 15 1006 92 10000 2.06 20 16:35 19.12.2022
598 Clouds 15 1006 92 10000 2.06 20 16:35 19.12.2022
599 Clouds 16 1007 91 10000 1.54 10 13:26 19.12.2022
600 Clouds 16 1007 89 10000 0.51 180 11:55 19.12.2022
601 Clouds 17 1006 88 10000 3.09 170 09:19 19.12.2022
602 Clouds 18 1006 84 10000 5.14 150 07:40 19.12.2022
603 Clouds 20 1007 76 10000 7.72 160 02:48 19.12.2022
604 Rain 17 1008 87 10000 7.2 150 22:20 18.12.2022
605 Rain 17 1008 86 10000 7.72 150 21:41 18.12.2022
606 Clouds 16 1008 87 10000 7.72 150 21:20 18.12.2022
607 Clouds 16 1007 90 10000 7.72 150 19:49 18.12.2022
608 Clouds 16 1007 90 10000 7.2 150 19:31 18.12.2022
609 Clouds 15 1007 91 10000 7.72 160 17:53 18.12.2022
610 Clouds 15 1007 92 10000 7.2 170 16:27 18.12.2022
611 Rain 15 1008 91 10000 7.72 160 15:39 18.12.2022
612 Clouds 15 1008 91 10000 7.72 160 15:18 18.12.2022
613 Clouds 15 1009 89 10000 7.2 170 13:37 18.12.2022
614 Clouds 15 1009 88 10000 7.2 170 12:52 18.12.2022
615 Clouds 15 1009 89 10000 7.2 170 12:19 18.12.2022
616 Clouds 15 1010 90 10000 7.2 160 10:20 18.12.2022
617 Clouds 16 1009 90 10000 7.72 170 08:47 18.12.2022
618 Clouds 16 1008 90 10000 8.23 170 07:20 18.12.2022
619 Clouds 17 1008 84 10000 6.17 170 06:20 18.12.2022
620 Clouds 16 1008 93 10000 7.72 170 03:38 18.12.2022
621 Clouds 16 1008 94 10000 4.63 190 23:40 17.12.2022
622 Rain 15 1008 96 10000 4.63 180 21:47 17.12.2022
623 Rain 16 1006 97 3400 1.54 270 18:54 17.12.2022
624 Rain 15 1005 96 7000 2.06 40 16:41 17.12.2022
625 Rain 15 1006 95 10000 3.09 320 14:30 17.12.2022
626 Mist 15 1008 95 5000 3.6 330 11:38 17.12.2022
627 Rain 15 1008 94 7000 3.09 350 10:47 17.12.2022
628 Rain 16 1008 94 10000 4.12 340 09:46 17.12.2022
629 Rain 16 1008 91 10000 5.14 20 07:28 17.12.2022
630 Clouds 16 1008 92 10000 6.17 30 06:45 17.12.2022
631 Rain 19 1009 90 10000 7.2 350 23:57 16.12.2022
632 Clouds 17 1009 93 10000 4.12 350 21:22 16.12.2022
633 Clouds 18 1009 93 10000 5.14 360 19:57 16.12.2022
634 Clouds 18 1007 95 10000 7.2 10 16:40 16.12.2022
635 Clouds 18 1007 95 10000 6.17 20 14:48 16.12.2022
636 Clouds 18 1008 93 10000 9.26 360 13:45 16.12.2022
637 Clouds 18 1008 91 10000 8.75 350 11:59 16.12.2022
638 Clouds 18 1008 93 10000 9.26 10 10:22 16.12.2022
639 Clouds 18 1008 94 10000 10.8 360 09:25 16.12.2022
640 Clouds 18 1007 94 10000 9.77 360 08:25 16.12.2022
641 Clouds 19 1007 92 10000 9.77 350 07:53 16.12.2022
642 Rain 20 1006 92 10000 6.69 10 23:31 15.12.2022
643 Rain 20 1006 90 10000 7.2 360 22:27 15.12.2022
644 Rain 20 1006 91 10000 6.69 10 20:40 15.12.2022
645 Clouds 20 1005 92 10000 6.69 10 19:37 15.12.2022
646 Clouds 18 1005 95 10000 3.6 50 18:24 15.12.2022
647 Clouds 18 1005 95 10000 3.6 30 17:25 15.12.2022
648 Clouds 18 1005 94 10000 3.09 20 15:35 15.12.2022
649 Clouds 18 1005 94 10000 3.09 20 15:35 15.12.2022
650 Clouds 19 1006 92 10000 2.57 340 13:36 15.12.2022
651 Clouds 19 1007 92 10000 2.57 350 12:34 15.12.2022
652 Clouds 19 1006 92 10000 0.51 200 09:41 15.12.2022
653 Clouds 18 1007 94 10000 2.06 170 08:54 15.12.2022
654 Clouds 19 1007 88 10000 2.06 200 06:24 15.12.2022
655 Clouds 19 1006 94 10000 2.57 200 04:54 15.12.2022
656 Rain 17 1009 94 10000 2.57 20 21:25 14.12.2022
657 Rain 17 1009 92 10000 3.09 20 20:59 14.12.2022
658 Rain 17 1009 91 10000 2.06 30 20:31 14.12.2022
659 Rain 17 1009 92 10000 1.03 210 18:26 14.12.2022
660 Rain 17 1009 91 10000 2.06 140 16:57 14.12.2022
661 Rain 18 1010 89 8000 3.09 20 15:40 14.12.2022
662 Rain 18 1010 90 10000 2.57 10 14:22 14.12.2022
663 Rain 19 1013 81 10000 4.12 350 12:21 14.12.2022
664 Clouds 20 1012 71 10000 1.79 179 10:36 14.12.2022
665 Clouds 20 1010 67 10000 1.79 179 09:25 14.12.2022
666 Clouds 23 1014 56 10000 4.12 340 00:51 14.12.2022
667 Clouds 21 1014 80 10000 6.17 10 21:49 13.12.2022
668 Clouds 19 1014 80 10000 8.23 10 21:19 13.12.2022
669 Clouds 19 1014 87 10000 7.2 360 20:46 13.12.2022
670 Clouds 17 1013 92 8000 4.12 10 17:55 13.12.2022
671 Clouds 18 1013 87 10000 5.66 360 15:58 13.12.2022
672 Clouds 18 1014 88 10000 6.69 360 14:52 13.12.2022
673 Clouds 19 1014 75 10000 6.69 360 12:27 13.12.2022
674 Clouds 19 1013 69 10000 5.36 179 10:38 13.12.2022
675 Clouds 20 1012 60 10000 4.63 350 09:44 13.12.2022
676 Clear 24 1013 43 10000 2.57 270 07:43 13.12.2022
677 Clear 20 1015 75 10000 5.66 200 22:23 12.12.2022
678 Clear 19 1015 76 10000 2.57 190 21:28 12.12.2022
679 Clear 15 1016 83 10000 1.54 50 19:28 12.12.2022
680 Clear 13 1015 83 10000 1.03 20 17:21 12.12.2022
681 Clear 14 1015 78 10000 2.06 30 15:23 12.12.2022
682 Clear 15 1017 81 10000 1.54 360 12:26 12.12.2022
683 Clear 17 1016 75 10000 2.57 320 09:20 12.12.2022
684 Clear 21 1013 67 10000 5.66 330 05:42 12.12.2022
685 Clear 21 1014 62 10000 7.2 360 03:51 12.12.2022
686 Clouds 19 1015 72 10000 8.23 360 23:20 11.12.2022
687 Clouds 18 1013 81 10000 6.69 350 21:29 11.12.2022
688 Clouds 16 1013 85 10000 6.17 350 19:54 11.12.2022
689 Clouds 17 1013 85 10000 7.72 350 19:36 11.12.2022
690 Clouds 16 1012 86 10000 5.66 340 18:24 11.12.2022
691 Clouds 16 1012 87 10000 4.12 350 17:33 11.12.2022
692 Clouds 16 1011 87 10000 5.14 350 16:52 11.12.2022
693 Clouds 16 1011 86 10000 5.14 350 15:47 11.12.2022
694 Clouds 17 1011 85 10000 4.12 340 14:50 11.12.2022
695 Clouds 16 1012 86 10000 5.14 340 13:21 11.12.2022
696 Clouds 17 1011 88 10000 5.14 350 12:40 11.12.2022
697 Clouds 17 1010 82 10000 7.72 360 08:56 11.12.2022
698 Clouds 19 1012 68 10000 8.23 360 00:35 11.12.2022
699 Clear 18 1010 77 10000 8.23 360 23:32 10.12.2022
700 Clouds 18 1011 77 10000 8.23 360 22:33 10.12.2022
701 Clouds 17 1011 80 10000 7.2 350 21:20 10.12.2022
702 Clouds 17 1011 81 10000 6.69 360 20:39 10.12.2022
703 Clear 16 1010 84 10000 6.69 10 19:54 10.12.2022
704 Clouds 15 1010 90 10000 5.66 360 16:59 10.12.2022
705 Clouds 15 1010 88 10000 5.14 360 16:34 10.12.2022
706 Clouds 15 1010 88 10000 6.69 350 15:39 10.12.2022
707 Clouds 15 1010 90 10000 6.69 350 14:49 10.12.2022
708 Clouds 16 1010 87 10000 6.17 40 12:54 10.12.2022
709 Clouds 15 1010 89 10000 6.69 10 11:46 10.12.2022
710 Clouds 16 1010 89 10000 8.75 360 10:43 10.12.2022
711 Rain 16 1009 88 10000 7.72 10 09:18 10.12.2022
712 Rain 17 1010 80 10000 9.77 360 07:20 10.12.2022
713 Clouds 21 1011 60 10000 7.72 360 01:58 10.12.2022
714 Rain 18 1011 93 10000 5.66 10 23:19 09.12.2022
715 Rain 17 1011 95 10000 5.66 10 22:40 09.12.2022
716 Clouds 17 1010 97 9000 5.66 360 21:26 09.12.2022
717 Clouds 17 1010 96 10000 5.66 350 20:42 09.12.2022
718 Clouds 17 1010 95 10000 6.69 10 18:59 09.12.2022
719 Clouds 17 1010 95 10000 6.17 10 17:55 09.12.2022
720 Clouds 17 1010 95 10000 6.69 360 16:32 09.12.2022
721 Clouds 16 1010 95 10000 6.17 350 15:45 09.12.2022
722 Clouds 17 1010 94 10000 6.69 350 15:18 09.12.2022
723 Mist 17 1010 97 2900 5.66 20 11:34 09.12.2022
724 Rain 18 1010 95 3000 5.66 20 10:37 09.12.2022
725 Mist 18 1008 94 3700 3.09 170 08:55 09.12.2022
726 Rain 17 1011 94 10000 2.57 360 03:19 09.12.2022
727 Haze 15 1011 91 5000 5.14 360 00:32 09.12.2022
728 Rain 18 1013 63 10000 4.12 10 22:20 08.12.2022
729 Clouds 18 1013 59 10000 4.12 10 20:51 08.12.2022
730 Clouds 15 1010 73 10000 4.12 30 17:51 08.12.2022
731 Clouds 16 1010 71 10000 3.09 10 15:39 08.12.2022
732 Clouds 15 1011 74 10000 4.12 360 14:25 08.12.2022
733 Clouds 14 1012 76 10000 1.54 30 11:32 08.12.2022
734 Clouds 15 1011 71 10000 1.03 220 09:51 08.12.2022
735 Clouds 15 1011 69 10000 1.54 210 09:23 08.12.2022
736 Clouds 16 1014 63 10000 5.14 210 02:26 08.12.2022
737 Clouds 17 1015 48 10000 2.06 50 22:19 07.12.2022
738 Clouds 16 1012 63 10000 2.06 40 21:49 07.12.2022
739 Clouds 16 1012 65 10000 3.6 360 21:29 07.12.2022
740 Clouds 12 1012 76 10000 1.03 30 19:38 07.12.2022
741 Clouds 11 1012 72 10000 3.6 30 17:27 07.12.2022
742 Clouds 9 1013 75 10000 2.57 70 14:41 07.12.2022
743 Clouds 12 1014 71 10000 1.54 130 11:43 07.12.2022
744 Clouds 12 1014 68 10000 2.57 120 10:40 07.12.2022
745 Clouds 13 1014 67 10000 2.57 120 09:48 07.12.2022
746 Clouds 13 1013 65 10000 4.63 90 08:46 07.12.2022
747 Clouds 16 1012 61 10000 9.26 160 06:48 07.12.2022
748 Clouds 17 1012 56 10000 10.8 160 05:23 07.12.2022
749 Clouds 15 1014 64 10000 8.75 140 22:40 06.12.2022
750 Clouds 13 1013 80 10000 9.77 150 20:35 06.12.2022
751 Clouds 13 1012 78 10000 8.75 160 18:21 06.12.2022
752 Clouds 13 1012 77 10000 8.23 160 16:41 06.12.2022
753 Clouds 13 1012 79 10000 7.72 160 15:51 06.12.2022
754 Clouds 13 1012 79 10000 7.2 160 15:20 06.12.2022
755 Clouds 13 1012 81 10000 6.69 160 14:25 06.12.2022
756 Clouds 13 1012 77 10000 7.72 150 12:58 06.12.2022
757 Clouds 13 1012 78 10000 8.23 150 12:40 06.12.2022
758 Clouds 15 1010 83 10000 5.66 200 08:44 06.12.2022
759 Clouds 19 1010 63 10000 5.14 360 05:57 06.12.2022
760 Clouds 19 1008 71 10000 9.77 360 01:25 06.12.2022
761 Clouds 18 1008 73 10000 10.8 350 22:34 05.12.2022
762 Clouds 17 1007 77 10000 9.77 350 20:55 05.12.2022
763 Clouds 17 1007 77 10000 9.77 360 20:26 05.12.2022
764 Clouds 16 1008 79 10000 12.35 360 19:45 05.12.2022
765 Clouds 15 1008 83 10000 10.8 10 17:49 05.12.2022
766 Clouds 15 1009 80 10000 12.86 360 16:42 05.12.2022
767 Clouds 15 1009 78 10000 13.38 360 15:22 05.12.2022
768 Clouds 15 1011 79 10000 10.8 360 12:59 05.12.2022
769 Clouds 15 1011 80 10000 11.32 360 12:40 05.12.2022
770 Clouds 15 1011 80 10000 11.32 360 12:19 05.12.2022
771 Clouds 15 1012 77 10000 11.83 350 10:58 05.12.2022
772 Clouds 17 1015 77 10000 4.12 190 00:21 05.12.2022
773 Clouds 18 1013 78 10000 4.12 190 22:45 04.12.2022
774 Clouds 18 1013 76 10000 3.6 200 22:20 04.12.2022
775 Clouds 18 1013 79 10000 3.6 200 21:59 04.12.2022
776 Clouds 17 1014 77 10000 2.06 260 20:49 04.12.2022
777 Clouds 15 1013 80 10000 1.54 340 19:28 04.12.2022
778 Clouds 15 1013 84 10000 2.06 20 18:59 04.12.2022
779 Clear 14 1011 85 10000 4.12 350 17:23 04.12.2022
780 Clear 14 1010 86 10000 5.14 360 16:54 04.12.2022
781 Clear 14 1010 85 10000 5.66 20 16:36 04.12.2022
782 Clear 15 1009 85 10000 5.66 20 16:18 04.12.2022
783 Clear 15 1010 84 10000 8.75 20 14:43 04.12.2022
784 Clouds 15 1010 83 10000 8.75 20 13:37 04.12.2022
785 Clouds 15 1010 83 10000 9.26 20 12:44 04.12.2022
786 Clouds 15 1009 86 10000 10.8 10 11:58 04.12.2022
787 Clouds 15 1010 81 10000 9.77 20 09:33 04.12.2022
788 Clear 17 1009 74 10000 10.8 20 07:31 04.12.2022
789 Clouds 19 1013 69 10000 10.29 10 00:55 04.12.2022
790 Clouds 18 1014 71 10000 9.26 10 23:43 03.12.2022
791 Clouds 18 1012 76 10000 9.26 10 22:22 03.12.2022
792 Clouds 16 1013 75 10000 8.23 10 21:21 03.12.2022
793 Clouds 15 1013 78 10000 6.69 20 20:23 03.12.2022
794 Clouds 12 1012 86 10000 6.69 30 18:40 03.12.2022
795 Clouds 11 1012 85 10000 5.66 20 16:45 03.12.2022
796 Clouds 11 1013 82 10000 4.63 30 14:28 03.12.2022
797 Clouds 11 1014 80 10000 3.09 20 12:55 03.12.2022
798 Clouds 11 1014 78 10000 1.54 10 12:24 03.12.2022
799 Clouds 12 1013 75 10000 1.03 200 10:26 03.12.2022
800 Clouds 14 1013 65 10000 3.09 180 07:39 03.12.2022
801 Clouds 16 1012 62 10000 5.66 160 01:30 03.12.2022
802 Clouds 15 1013 63 10000 6.17 170 22:50 02.12.2022
803 Clouds 12 1013 72 10000 7.2 170 20:54 02.12.2022
804 Clouds 12 1013 72 10000 7.2 170 20:54 02.12.2022
805 Clouds 12 1011 68 10000 7.2 170 19:26 02.12.2022
806 Clouds 12 1010 71 10000 7.72 170 15:59 02.12.2022
807 Clouds 12 1010 71 10000 6.69 170 14:43 02.12.2022
808 Clouds 12 1010 69 10000 7.2 160 14:25 02.12.2022
809 Clouds 12 1010 70 10000 7.2 160 13:26 02.12.2022
810 Clouds 12 1008 69 10000 7.72 170 11:41 02.12.2022
811 Clouds 13 1008 69 10000 7.72 170 08:48 02.12.2022
812 Clouds 14 1006 71 10000 7.72 170 07:24 02.12.2022
813 Clouds 15 1004 79 10000 7.72 160 23:54 01.12.2022
814 Haze 13 1005 90 5000 5.14 140 21:49 01.12.2022
815 Clouds 13 1003 89 10000 7.72 160 21:31 01.12.2022
816 Clouds 14 1003 85 10000 3.6 180 20:18 01.12.2022
817 Clouds 12 1001 90 10000 1.54 350 18:23 01.12.2022
818 Clouds 13 1000 89 10000 3.6 30 15:59 01.12.2022
819 Clouds 13 1003 83 10000 2.06 20 11:55 01.12.2022
820 Clouds 13 1002 84 10000 0.51 300 10:28 01.12.2022
821 Clouds 13 1003 79 10000 1.03 180 09:54 01.12.2022
822 Clouds 14 1003 79 10000 0.51 310 09:36 01.12.2022
823 Clouds 15 1002 75 10000 4.63 170 02:00 01.12.2022
824 Clouds 14 1004 77 10000 5.66 180 22:38 30.11.2022
825 Clouds 14 1003 77 10000 7.72 180 21:19 30.11.2022
826 Clouds 13 1003 80 10000 7.72 190 20:45 30.11.2022
827 Clouds 13 1003 79 10000 7.72 180 20:22 30.11.2022
828 Clouds 13 1001 84 10000 10.8 190 18:33 30.11.2022
829 Clouds 13 1000 85 10000 11.32 190 17:36 30.11.2022
830 Clouds 13 999 80 10000 11.83 200 16:19 30.11.2022
831 Clouds 13 998 84 10000 11.83 190 14:27 30.11.2022
832 Clouds 13 998 89 10000 14.92 200 13:48 30.11.2022
833 Clouds 15 996 78 10000 4.12 320 10:42 30.11.2022
834 Rain 15 995 72 10000 8.75 350 08:39 30.11.2022
835 Clouds 16 995 69 10000 8.23 340 07:57 30.11.2022
836 Clouds 18 998 77 10000 9.26 360 23:39 29.11.2022
837 Clouds 18 998 79 10000 8.75 350 22:51 29.11.2022
838 Clouds 18 999 81 10000 10.29 340 21:36 29.11.2022
839 Clouds 17 999 86 10000 10.29 340 20:37 29.11.2022
840 Clouds 16 999 91 10000 8.75 340 19:18 29.11.2022
841 Clouds 16 999 92 10000 8.23 340 17:18 29.11.2022
842 Clouds 16 999 94 10000 9.26 350 16:25 29.11.2022
843 Rain 16 1000 94 3800 9.26 10 14:50 29.11.2022
844 Rain 15 1001 91 10000 8.23 360 13:20 29.11.2022
845 Drizzle 16 1004 88 4300 8.23 10 11:44 29.11.2022
846 Rain 16 1004 84 10000 8.75 350 11:18 29.11.2022
847 Clouds 16 1005 86 10000 8.75 360 09:47 29.11.2022
848 Clouds 16 1006 82 10000 9.77 340 08:42 29.11.2022
849 Rain 18 1008 71 10000 11.32 360 00:36 29.11.2022
850 Rain 18 1008 71 10000 11.32 360 00:36 29.11.2022
851 Clouds 18 1009 71 10000 10.8 360 23:35 28.11.2022
852 Clouds 17 1010 70 10000 9.77 360 22:52 28.11.2022
853 Clouds 16 1009 72 10000 11.83 360 21:44 28.11.2022
854 Clouds 16 1009 71 10000 11.83 360 21:21 28.11.2022
855 Clouds 14 1008 73 10000 11.83 10 19:39 28.11.2022
856 Clouds 14 1008 74 10000 9.77 360 18:29 28.11.2022
857 Clouds 14 1006 75 10000 9.26 350 17:51 28.11.2022
858 Clouds 14 1007 74 10000 10.29 350 16:25 28.11.2022
859 Clouds 14 1007 77 10000 9.77 360 14:24 28.11.2022
860 Clouds 14 1008 75 10000 11.32 350 13:51 28.11.2022
861 Clouds 14 1006 80 10000 9.26 360 12:35 28.11.2022
862 Clouds 15 1006 83 10000 6.69 20 09:27 28.11.2022
863 Clouds 16 1004 80 10000 8.75 10 07:19 28.11.2022
864 Clouds 18 1007 64 10000 7.72 350 04:42 28.11.2022
865 Clouds 18 1007 60 10000 6.17 320 03:58 28.11.2022
866 Clouds 17 1007 59 10000 3.09 180 01:27 28.11.2022
867 Clouds 15 1006 69 10000 6.17 190 22:42 27.11.2022
868 Clouds 14 1005 77 10000 7.72 180 21:28 27.11.2022
869 Clouds 11 1002 91 10000 12.35 200 19:30 27.11.2022
870 Clouds 11 1002 92 7000 13.38 210 16:47 27.11.2022
871 Clouds 11 1001 89 10000 14.92 220 14:30 27.11.2022
872 Rain 12 1000 90 10000 13.38 210 12:32 27.11.2022
873 Clouds 13 1000 93 10000 3.09 230 10:44 27.11.2022
874 Haze 14 998 91 4500 3.09 340 07:57 27.11.2022
875 Rain 14 1000 91 10000 4.63 10 00:36 27.11.2022
876 Rain 14 999 93 5000 3.6 20 21:58 26.11.2022
877 Rain 14 999 93 4600 4.12 30 20:51 26.11.2022
878 Rain 13 999 93 10000 4.63 30 19:22 26.11.2022
879 Clouds 14 999 91 10000 5.66 360 16:59 26.11.2022
880 Rain 15 1000 90 6000 7.2 340 15:38 26.11.2022
881 Rain 15 1001 83 10000 7.72 360 12:55 26.11.2022
882 Clouds 15 1001 84 10000 6.69 340 11:24 26.11.2022
883 Clouds 15 1001 81 10000 6.69 340 09:44 26.11.2022
884 Clouds 15 1001 80 10000 8.75 330 08:49 26.11.2022
885 Clouds 18 1001 66 10000 7.72 350 00:20 26.11.2022
886 Clouds 18 1000 66 10000 3.6 340 21:41 25.11.2022
887 Clouds 17 1000 69 10000 3.6 340 21:19 25.11.2022
888 Clear 14 999 71 10000 5.14 340 19:44 25.11.2022
889 Clear 13 998 68 10000 4.12 350 16:40 25.11.2022
890 Clear 13 998 64 10000 2.06 340 13:43 25.11.2022
891 Clouds 15 997 69 10000 4.63 360 09:19 25.11.2022
892 Clouds 15 998 64 10000 4.63 340 08:38 25.11.2022
893 Clouds 18 997 63 10000 6.17 330 06:52 25.11.2022
894 Clouds 19 999 48 10000 5.14 10 01:54 25.11.2022
895 Clouds 15 999 63 10000 1.54 200 23:47 24.11.2022
896 Clouds 17 996 60 10000 1.54 170 22:42 24.11.2022
897 Clouds 16 996 66 10000 2.06 160 21:45 24.11.2022
898 Clouds 12 995 80 10000 5.66 180 19:49 24.11.2022
899 Clouds 10 991 80 10000 2.06 240 17:48 24.11.2022
900 Clouds 10 991 79 10000 1.03 30 17:24 24.11.2022
901 Clouds 10 990 76 10000 1.54 360 16:40 24.11.2022
902 Clouds 12 991 71 10000 1.54 310 14:26 24.11.2022
903 Clouds 13 991 74 10000 2.57 330 13:19 24.11.2022
904 Clouds 13 991 74 10000 4.63 340 11:38 24.11.2022
905 Clouds 14 990 73 10000 7.2 340 08:59 24.11.2022
906 Clouds 16 991 63 10000 8.23 340 06:22 24.11.2022
907 Clear 18 992 61 10000 9.77 330 00:41 24.11.2022
908 Clouds 18 993 60 10000 9.77 330 23:32 23.11.2022
909 Clouds 17 994 69 10000 8.23 330 21:48 23.11.2022
910 Clear 16 993 70 10000 5.66 330 20:52 23.11.2022
911 Clear 15 992 72 10000 7.72 350 19:40 23.11.2022
912 Clouds 14 992 74 10000 5.66 340 18:56 23.11.2022
913 Clouds 14 992 75 10000 7.2 330 17:35 23.11.2022
914 Clouds 14 992 86 10000 8.75 330 14:19 23.11.2022
915 Clouds 14 992 88 10000 12.35 340 13:24 23.11.2022
916 Clouds 13 993 89 10000 11.32 330 12:41 23.11.2022
917 Haze 13 994 88 5000 12.35 340 11:46 23.11.2022
918 Rain 15 994 85 8000 11.32 340 10:48 23.11.2022
919 Rain 15 994 86 5000 10.29 340 10:18 23.11.2022
920 Clouds 15 994 75 10000 10.8 350 09:40 23.11.2022
921 Clouds 15 994 74 10000 10.8 350 09:21 23.11.2022
922 Clouds 15 995 73 10000 12.35 340 08:36 23.11.2022
923 Clear 19 992 53 10000 9.26 330 05:20 23.11.2022
924 Clear 21 991 35 10000 4.63 290 01:53 23.11.2022
925 Clouds 17 988 62 10000 4.12 340 22:37 22.11.2022
926 Clouds 17 987 69 10000 1.34 279 21:51 22.11.2022
927 Clouds 16 987 72 10000 2.57 360 21:31 22.11.2022
928 Clouds 15 986 81 10000 3.09 350 20:44 22.11.2022
929 Clouds 14 985 89 10000 3.09 350 19:47 22.11.2022
930 Rain 14 984 90 10000 4.12 340 17:54 22.11.2022
931 Rain 14 984 91 10000 5.14 20 16:48 22.11.2022
932 Clouds 14 986 88 10000 6.69 350 14:43 22.11.2022
933 Clouds 14 986 91 10000 5.14 10 12:56 22.11.2022
934 Rain 16 990 81 10000 5.14 360 09:41 22.11.2022
935 Rain 16 990 76 10000 6.17 10 08:58 22.11.2022
936 Clear 18 990 76 10000 7.72 360 06:45 22.11.2022
937 Clouds 19 997 74 10000 11.83 360 00:59 22.11.2022
938 Clouds 19 997 77 10000 9.26 350 23:23 21.11.2022
939 Clouds 18 998 77 10000 11.83 350 22:24 21.11.2022
940 Clouds 17 998 80 10000 8.75 340 21:33 21.11.2022
941 Clouds 17 997 82 10000 7.2 340 20:34 21.11.2022
942 Clouds 16 997 85 10000 6.17 340 19:39 21.11.2022
943 Clouds 16 996 85 10000 7.72 350 18:52 21.11.2022
944 Clouds 15 996 86 10000 7.2 340 17:32 21.11.2022
945 Clouds 15 996 85 10000 5.14 350 16:43 21.11.2022
946 Clouds 15 996 86 10000 8.23 330 16:19 21.11.2022
947 Clouds 16 996 86 10000 7.2 350 15:23 21.11.2022
948 Clouds 16 997 86 10000 9.77 330 13:54 21.11.2022
949 Clouds 16 997 85 10000 10.8 330 13:27 21.11.2022
950 Clouds 16 996 88 10000 9.77 340 10:19 21.11.2022
951 Clouds 17 994 88 10000 10.29 340 07:52 21.11.2022
952 Rain 18 997 83 10000 11.83 360 00:50 21.11.2022
953 Rain 17 999 84 10000 8.75 340 21:47 20.11.2022
954 Clouds 18 999 83 10000 7.72 350 20:48 20.11.2022
955 Clouds 17 999 86 10000 6.69 350 19:57 20.11.2022
956 Clouds 16 998 88 10000 5.66 350 17:43 20.11.2022
957 Clouds 16 998 90 10000 5.66 360 15:50 20.11.2022
958 Clouds 16 998 90 10000 5.66 360 15:23 20.11.2022
959 Clouds 16 998 91 10000 4.12 350 14:18 20.11.2022
960 Clouds 16 998 92 10000 5.14 360 13:32 20.11.2022
961 Clouds 16 998 92 10000 5.14 360 13:32 20.11.2022
962 Clouds 16 998 92 10000 5.14 360 13:32 20.11.2022
963 Clouds 16 999 92 10000 5.66 10 12:23 20.11.2022
964 Clouds 16 1000 87 10000 6.69 10 10:58 20.11.2022
965 Clouds 17 999 87 10000 6.69 360 09:44 20.11.2022
966 Clouds 18 999 85 10000 7.2 360 08:55 20.11.2022
967 Clouds 18 999 82 10000 6.69 360 08:32 20.11.2022
968 Clouds 18 999 82 10000 6.69 360 08:32 20.11.2022
969 Rain 19 999 78 10000 6.17 10 07:27 20.11.2022
970 Clouds 20 1002 73 10000 9.77 360 01:30 20.11.2022
971 Clouds 19 1000 80 10000 7.72 10 00:57 20.11.2022
972 Clouds 19 1000 80 10000 6.69 10 00:38 20.11.2022
973 Clouds 18 1000 83 10000 6.69 10 00:19 20.11.2022
974 Clouds 18 1001 83 10000 8.75 360 23:34 19.11.2022
975 Clouds 20 1001 76 10000 7.72 350 22:49 19.11.2022
976 Clouds 19 1001 78 10000 6.69 10 22:18 19.11.2022
977 Clouds 19 1000 80 10000 4.12 30 21:28 19.11.2022
978 Clouds 16 1000 87 10000 3.6 20 20:41 19.11.2022
979 Clouds 16 999 88 10000 3.6 20 20:22 19.11.2022
980 Clouds 14 999 92 10000 5.66 20 18:54 19.11.2022
981 Clouds 15 999 93 10000 4.63 20 17:39 19.11.2022
982 Clouds 15 999 92 10000 4.63 20 17:18 19.11.2022
983 Clouds 15 999 93 10000 1.54 350 15:33 19.11.2022
984 Rain 16 1000 90 10000 4.12 40 13:36 19.11.2022
985 Clouds 17 1000 89 10000 5.14 40 11:56 19.11.2022
986 Clouds 16 1000 88 10000 3.09 30 10:18 19.11.2022
987 Clouds 17 1000 86 10000 5.14 360 08:19 19.11.2022
988 Clouds 17 1000 86 10000 5.14 360 08:19 19.11.2022
989 Clouds 20 998 73 10000 6.17 330 04:45 19.11.2022
990 Clouds 20 999 79 10000 8.23 350 01:50 19.11.2022
991 Haze 15 999 92 5000 7.2 360 23:35 18.11.2022
992 Rain 15 998 93 6000 7.2 360 22:25 18.11.2022
993 Clouds 16 998 93 10000 5.14 30 21:36 18.11.2022
994 Clouds 16 997 95 10000 5.14 20 20:58 18.11.2022
995 Clouds 16 997 94 10000 4.12 30 20:25 18.11.2022
996 Clouds 15 997 95 10000 3.6 40 19:44 18.11.2022
997 Clouds 14 996 94 10000 4.12 30 17:46 18.11.2022
998 Rain 15 997 95 10000 3.6 30 16:37 18.11.2022
999 Rain 16 998 94 10000 0 0 13:36 18.11.2022
1000 Clouds 16 999 96 10000 1.03 200 11:22 18.11.2022
1001 Rain 18 999 90 10000 4.12 40 07:58 18.11.2022
1002 Rain 20 998 81 10000 5.14 50 06:18 18.11.2022
1003 Clouds 22 1001 68 10000 1.03 200 04:53 18.11.2022
1004 Clouds 19 1004 72 10000 6.17 230 23:52 17.11.2022
1005 Clouds 17 1003 92 10000 1.54 30 20:48 17.11.2022
1006 Clouds 16 1003 94 10000 1.54 350 20:25 17.11.2022
1007 Clouds 15 1003 95 10000 1.54 10 19:49 17.11.2022
1008 Clouds 13 1002 95 10000 2.57 20 18:34 17.11.2022
1009 Clouds 13 1002 94 10000 2.57 360 17:32 17.11.2022
1010 Clouds 14 1002 94 10000 2.57 360 16:33 17.11.2022
1011 Rain 16 1004 93 10000 2.57 360 12:27 17.11.2022
1012 Rain 16 1003 92 10000 3.6 20 11:20 17.11.2022
1013 Rain 18 1002 89 10000 2.06 10 07:59 17.11.2022
1014 Rain 20 1004 84 10000 4.12 10 01:39 17.11.2022
1015 Clouds 20 1004 82 10000 3.6 10 23:33 16.11.2022
1016 Rain 18 1005 87 10000 3.09 350 22:25 16.11.2022
1017 Rain 16 1004 94 10000 3.6 360 20:35 16.11.2022
1018 Rain 15 1004 94 10000 3.09 10 19:29 16.11.2022
1019 Clouds 14 1004 93 10000 4.12 360 18:33 16.11.2022
1020 Rain 14 1005 91 4000 4.63 350 16:36 16.11.2022
1021 Clouds 15 1006 85 10000 5.14 10 12:56 16.11.2022
1022 Clouds 17 1005 65 10000 6.17 20 08:27 16.11.2022
1023 Clouds 21 1009 56 10000 9.26 350 01:49 16.11.2022
1024 Clear 20 1008 68 10000 7.2 10 23:50 15.11.2022
1025 Clear 19 1009 75 10000 8.23 10 21:54 15.11.2022
1026 Clear 17 1008 81 10000 7.72 360 20:32 15.11.2022
1027 Clear 16 1008 85 10000 6.17 20 19:18 15.11.2022
1028 Clouds 15 1007 89 10000 7.2 20 17:38 15.11.2022
1029 Clouds 15 1007 88 10000 6.17 20 16:52 15.11.2022
1030 Clouds 15 1008 88 10000 6.17 20 16:18 15.11.2022
1031 Clouds 15 1008 88 10000 8.23 10 14:41 15.11.2022
1032 Clear 15 1009 88 10000 7.72 10 12:59 15.11.2022
1033 Clouds 15 1009 89 10000 9.26 10 11:22 15.11.2022
1034 Clear 16 1009 89 10000 7.72 20 10:35 15.11.2022
1035 Clear 23 1009 53 10000 8.23 350 05:19 15.11.2022
1036 Clear 22 1012 60 10000 5.14 340 00:28 15.11.2022
1037 Clear 21 1013 60 10000 5.66 360 22:52 14.11.2022
1038 Clear 17 1011 80 10000 4.63 10 20:53 14.11.2022
1039 Clear 15 1011 83 10000 4.63 360 20:30 14.11.2022
1040 Clear 12 1013 76 10000 2.57 30 18:28 14.11.2022
1041 Clear 11 1012 86 10000 1.03 40 14:59 14.11.2022
1042 Clear 11 1014 88 10000 1.54 30 11:49 14.11.2022
1043 Clear 13 1015 83 10000 0.51 200 11:28 14.11.2022
1044 Clear 15 1014 81 10000 2.57 180 08:48 14.11.2022
1045 Clear 18 1014 71 10000 3.6 220 07:53 14.11.2022
1046 Clear 20 1015 68 10000 5.66 210 05:46 14.11.2022
1047 Clouds 17 1018 69 10000 7.2 190 23:24 13.11.2022
1048 Clouds 16 1019 77 10000 6.17 170 21:43 13.11.2022
1049 Clouds 15 1018 84 10000 6.69 180 20:54 13.11.2022
1050 Clouds 14 1016 91 10000 5.66 170 18:59 13.11.2022
1051 Clouds 13 1016 93 10000 5.66 170 17:50 13.11.2022
1052 Clouds 14 1016 94 10000 6.17 190 16:25 13.11.2022
1053 Rain 15 1015 92 10000 5.14 170 14:44 13.11.2022
1054 Clouds 14 1015 92 10000 3.6 210 12:58 13.11.2022
1055 Clouds 13 1015 92 10000 4.12 220 12:24 13.11.2022
1056 Clouds 14 1013 89 10000 0.51 150 10:42 13.11.2022
1057 Clouds 20 1012 73 10000 6.17 360 06:29 13.11.2022
1058 Clouds 16 1011 94 10000 2.06 190 23:58 12.11.2022
1059 Drizzle 16 1008 95 3800 2.06 170 21:42 12.11.2022
1060 Drizzle 16 1008 95 3800 2.06 170 21:19 12.11.2022
1061 Clouds 16 1007 95 10000 2.57 190 19:46 12.11.2022
1062 Clouds 15 1006 94 10000 3.09 10 16:58 12.11.2022
1063 Rain 15 1006 93 10000 4.12 350 15:59 12.11.2022
1064 Rain 16 1007 93 6000 1.54 320 14:45 12.11.2022
1065 Clouds 16 1006 89 10000 7.2 350 09:43 12.11.2022
1066 Clouds 17 1006 85 10000 6.17 10 07:48 12.11.2022
1067 Clouds 19 1007 89 10000 5.14 20 00:40 12.11.2022
1068 Clouds 15 1007 93 10000 1.54 40 21:21 11.11.2022
1069 Rain 15 1006 94 10000 1.03 130 20:44 11.11.2022
1070 Clouds 14 1007 95 10000 1.54 20 19:27 11.11.2022
1071 Clouds 13 1006 95 10000 1.03 60 18:40 11.11.2022
1072 Clouds 13 1007 94 10000 2.06 190 17:40 11.11.2022
1073 Clouds 13 1007 94 10000 2.06 190 17:40 11.11.2022
1074 Clouds 13 1007 94 10000 2.06 190 17:40 11.11.2022
1075 Rain 13 1007 94 10000 1.03 110 15:21 11.11.2022
1076 Clouds 13 1008 94 10000 0.51 210 13:57 11.11.2022
1077 Rain 13 1009 93 10000 3.6 230 12:45 11.11.2022
1078 Rain 14 1012 89 10000 1.54 100 09:32 11.11.2022
1079 Rain 14 1012 89 10000 1.54 100 09:32 11.11.2022
1080 Clouds 14 1012 88 10000 3.09 240 08:27 11.11.2022
1081 Clouds 16 1019 63 10000 4.63 60 00:40 11.11.2022
1082 Clouds 16 1020 63 10000 4.63 50 22:54 10.11.2022
1083 Clouds 15 1020 63 10000 3.6 70 21:51 10.11.2022
1084 Clouds 15 1021 65 10000 3.6 60 21:29 10.11.2022
1085 Clouds 14 1021 68 10000 4.12 90 20:47 10.11.2022
1086 Clouds 13 1021 70 10000 3.09 110 20:20 10.11.2022
1087 Clouds 12 1021 69 10000 3.09 120 18:59 10.11.2022
1088 Clouds 12 1022 68 10000 4.12 70 17:59 10.11.2022
1089 Clouds 12 1022 68 10000 2.06 130 16:25 10.11.2022
1090 Clouds 12 1025 67 10000 4.12 90 13:40 10.11.2022
1091 Clouds 11 1026 65 10000 3.09 130 11:29 10.11.2022
1092 Clear 12 1025 66 10000 9.26 140 08:21 10.11.2022
1093 Clouds 14 1027 61 10000 10.8 160 01:26 10.11.2022
1094 Clouds 15 1025 65 10000 11.32 160 23:21 09.11.2022
1095 Clouds 14 1024 66 10000 10.8 160 21:59 09.11.2022
1096 Clouds 13 1024 70 10000 11.32 160 20:47 09.11.2022
1097 Clouds 13 1023 69 10000 11.83 160 20:29 09.11.2022
1098 Clouds 13 1022 73 10000 11.32 160 19:30 09.11.2022
1099 Clouds 13 1020 81 10000 11.32 160 18:39 09.11.2022
1100 Clouds 13 1020 81 10000 11.32 160 18:39 09.11.2022
1101 Clouds 14 1018 94 10000 10.29 170 15:53 09.11.2022
1102 Clouds 14 1017 95 9000 9.77 180 14:42 09.11.2022
1103 Clouds 14 1017 95 9000 9.77 180 14:23 09.11.2022
1104 Clouds 15 1018 93 8000 10.29 190 12:58 09.11.2022
1105 Clouds 15 1015 83 10000 3.09 200 10:29 09.11.2022
1106 Clouds 17 1014 73 10000 5.66 230 08:32 09.11.2022
1107 Clouds 18 1014 62 10000 5.66 230 07:41 09.11.2022
1108 Clear 17 1016 65 10000 3.6 180 23:29 08.11.2022
1109 Clear 17 1015 77 10000 1.54 10 21:44 08.11.2022
1110 Clear 15 1015 79 10000 3.09 360 21:23 08.11.2022
1111 Clouds 13 1016 85 10000 3.09 360 20:40 08.11.2022
1112 Clouds 11 1016 90 10000 2.06 30 19:36 08.11.2022
1113 Clouds 10 1016 93 10000 1.54 10 18:23 08.11.2022
1114 Clear 10 1017 92 10000 1.03 340 16:20 08.11.2022
1115 Clear 10 1018 90 10000 2.06 30 14:55 08.11.2022
1116 Clouds 11 1019 89 10000 1.54 10 13:36 08.11.2022
1117 Clear 11 1020 87 10000 1.03 50 12:40 08.11.2022
1118 Clear 14 1019 82 10000 6.69 180 08:57 08.11.2022
1119 Clear 15 1019 75 10000 7.2 180 07:25 08.11.2022
1120 Clouds 19 1019 69 10000 7.2 210 00:33 08.11.2022
1121 Clouds 16 1020 73 10000 3.6 350 22:24 07.11.2022
1122 Clouds 16 1019 80 10000 3.6 10 21:21 07.11.2022
1123 Clouds 14 1018 83 10000 4.12 20 20:33 07.11.2022
1124 Clouds 13 1018 85 10000 5.66 20 17:52 07.11.2022
1125 Clouds 13 1017 86 10000 6.17 30 16:39 07.11.2022
1126 Clouds 13 1017 86 10000 6.17 40 15:35 07.11.2022
1127 Clouds 13 1018 83 10000 7.2 20 14:44 07.11.2022
1128 Clear 13 1019 81 10000 8.75 10 12:35 07.11.2022
1129 Clear 14 1019 79 10000 8.75 20 10:55 07.11.2022
1130 Clouds 14 1019 81 10000 9.26 360 09:29 07.11.2022
1131 Clouds 16 1018 77 10000 9.26 350 07:31 07.11.2022
1132 Clear 18 1019 65 10000 9.26 350 04:18 07.11.2022
1133 Clouds 19 1019 73 10000 9.77 350 01:20 07.11.2022
1134 Clouds 17 1022 67 10000 7.2 360 22:18 06.11.2022
1135 Clouds 17 1020 77 10000 7.2 10 21:19 06.11.2022
1136 Clouds 15 1022 77 10000 6.17 10 20:23 06.11.2022
1137 Clouds 14 1021 85 10000 5.14 20 19:34 06.11.2022
1138 Clouds 13 1021 89 10000 4.63 30 18:39 06.11.2022
1139 Clouds 13 1022 89 10000 4.63 30 18:19 06.11.2022
1140 Clouds 13 1022 89 10000 4.12 30 17:20 06.11.2022
1141 Clear 13 1022 89 10000 3.6 40 16:40 06.11.2022
1142 Clear 13 1023 89 10000 3.6 40 15:43 06.11.2022
1143 Clouds 12 1024 84 10000 3.6 10 12:49 06.11.2022
1144 Clouds 11 1024 85 10000 3.6 10 12:28 06.11.2022
1145 Clouds 12 1024 82 10000 1.54 20 10:45 06.11.2022
1146 Clouds 15 1024 68 10000 1.54 230 08:29 06.11.2022
1147 Clouds 16 1027 72 10000 5.66 170 00:50 06.11.2022
1148 Clouds 18 1025 58 10000 3.6 170 22:54 05.11.2022
1149 Clouds 12 1026 84 10000 2.06 350 19:37 05.11.2022
1150 Clouds 11 1025 86 10000 1.54 120 17:45 05.11.2022
1151 Clouds 12 1024 79 10000 2.06 10 16:21 05.11.2022
1152 Clouds 13 1024 78 10000 2.57 20 14:33 05.11.2022
1153 Clouds 13 1026 73 10000 2.57 350 12:51 05.11.2022
1154 Clouds 13 1026 73 10000 2.57 350 12:51 05.11.2022
1155 Clouds 14 1025 73 10000 3.09 360 10:31 05.11.2022
1156 Clouds 14 1024 70 10000 4.12 30 08:47 05.11.2022
1157 Clouds 17 1021 67 10000 3.6 140 06:57 05.11.2022
1158 Clouds 17 1021 63 10000 8.75 160 03:49 05.11.2022
1159 Clouds 16 1020 72 10000 7.2 150 23:35 04.11.2022
1160 Clouds 18 1018 67 10000 1.03 120 22:28 04.11.2022
1161 Clouds 14 1017 76 10000 4.63 50 20:20 04.11.2022
1162 Clear 10 1013 87 10000 4.63 20 17:46 04.11.2022
1163 Clear 11 1014 79 10000 3.6 20 16:34 04.11.2022
1164 Clear 14 1013 64 10000 5.14 360 13:39 04.11.2022
1165 Clear 15 1013 67 10000 5.14 350 12:23 04.11.2022
1166 Clear 15 1012 75 10000 8.23 350 09:40 04.11.2022
1167 Clear 15 1011 74 10000 7.72 360 08:21 04.11.2022
1168 Clear 17 1009 70 10000 7.72 330 07:41 04.11.2022
1169 Clear 19 1011 48 10000 7.2 340 01:35 04.11.2022
1170 Clear 18 1010 59 10000 7.2 340 22:30 03.11.2022
1171 Clear 16 1009 80 10000 6.69 350 20:49 03.11.2022
1172 Clouds 15 1009 86 10000 8.23 350 19:44 03.11.2022
1173 Clouds 14 1008 86 10000 7.72 350 18:46 03.11.2022
1174 Clouds 15 1006 88 10000 5.66 350 17:40 03.11.2022
1175 Clouds 15 1007 85 10000 9.26 350 15:49 03.11.2022
1176 Clouds 15 1008 87 10000 9.26 350 13:51 03.11.2022
1177 Clouds 15 1006 90 10000 11.32 350 12:35 03.11.2022
1178 Clouds 16 1007 86 10000 8.23 340 11:44 03.11.2022
1179 Clouds 16 1006 82 10000 8.75 340 08:51 03.11.2022
1180 Clouds 17 1005 77 10000 10.29 340 06:47 03.11.2022
1181 Haze 16 999 94 2500 13.38 340 20:57 02.11.2022
1182 Rain 16 999 94 3200 14.92 360 20:34 02.11.2022
1183 Rain 16 997 94 2200 13.38 360 19:47 02.11.2022
1184 Rain 17 999 76 10000 15.43 350 16:34 02.11.2022
1185 Rain 17 999 78 10000 14.92 340 15:35 02.11.2022
1186 Clouds 17 1001 76 10000 12.35 350 14:25 02.11.2022
1187 Clouds 17 1003 80 10000 9.26 350 12:38 02.11.2022
1188 Clouds 16 1003 84 10000 9.77 10 10:45 02.11.2022
1189 Clouds 16 1005 82 10000 10.29 360 08:48 02.11.2022
1190 Rain 18 1006 82 10000 11.83 350 03:39 02.11.2022
1191 Clouds 15 1006 89 10000 11.32 360 23:27 01.11.2022
1192 Clouds 15 1006 83 10000 12.35 20 22:18 01.11.2022
1193 Rain 15 1004 86 10000 11.83 10 21:26 01.11.2022
1194 Clouds 15 1006 85 10000 12.86 360 20:23 01.11.2022
1195 Clouds 15 1005 86 10000 12.86 340 19:42 01.11.2022
1196 Rain 15 1005 86 10000 13.38 350 18:32 01.11.2022
1197 Clouds 15 1005 85 10000 11.83 360 16:56 01.11.2022
1198 Clouds 15 1006 82 10000 9.77 340 15:53 01.11.2022
1199 Clouds 15 1006 85 10000 10.8 360 13:24 01.11.2022
1200 Clouds 15 1007 83 10000 9.77 350 12:27 01.11.2022
1201 Clouds 15 1008 84 10000 11.32 350 11:21 01.11.2022
1202 Clouds 15 1007 83 10000 9.77 350 09:37 01.11.2022
1203 Clouds 15 1008 80 10000 10.29 350 08:26 01.11.2022
1204 Clouds 15 1008 80 10000 9.77 340 07:29 01.11.2022
1205 Clouds 16 1008 77 10000 10.8 350 06:46 01.11.2022
1206 Clouds 17 1006 77 10000 10.8 350 05:52 01.11.2022
1207 Clouds 17 1010 71 10000 9.26 350 23:47 31.10.2022
1208 Clouds 16 1009 81 10000 7.72 350 21:34 31.10.2022
1209 Clouds 15 1008 84 10000 6.17 330 20:18 31.10.2022
1210 Clouds 14 1008 86 10000 7.72 360 18:47 31.10.2022
1211 Clouds 13 1007 86 10000 7.72 360 16:45 31.10.2022
1212 Clouds 14 1006 88 10000 7.2 360 15:52 31.10.2022
1213 Clear 14 1009 88 10000 6.69 360 13:22 31.10.2022
1214 Clear 15 1008 87 10000 6.69 360 09:54 31.10.2022
1215 Clouds 16 1007 88 10000 6.69 360 08:24 31.10.2022
1216 Clouds 20 1006 78 10000 8.23 360 02:51 31.10.2022
1217 Clouds 20 1007 76 10000 7.72 360 01:49 31.10.2022
1218 Clouds 18 1007 85 10000 6.69 360 22:33 30.10.2022
1219 Clouds 17 1007 90 10000 5.14 360 20:46 30.10.2022
1220 Clouds 15 1005 95 10000 5.66 360 19:54 30.10.2022
1221 Clear 15 1005 91 10000 6.17 350 17:53 30.10.2022
1222 Clear 14 1004 91 10000 6.69 10 15:28 30.10.2022
1223 Clear 14 1004 90 10000 7.72 360 13:52 30.10.2022
1224 Clouds 14 1004 88 10000 8.23 350 12:46 30.10.2022
1225 Clouds 15 1003 88 10000 10.29 360 11:21 30.10.2022
1226 Clouds 15 1004 85 10000 7.2 360 09:36 30.10.2022
1227 Clouds 15 1004 83 10000 7.2 360 08:20 30.10.2022
1228 Clouds 17 1004 85 10000 10.8 360 00:30 30.10.2022
1229 Clouds 16 1004 89 10000 9.26 10 23:48 29.10.2022
1230 Clouds 16 1004 91 10000 9.26 360 22:53 29.10.2022
1231 Clouds 15 1004 95 10000 8.75 360 20:54 29.10.2022
1232 Clouds 16 1004 95 10000 9.26 360 17:34 29.10.2022
1233 Clouds 16 1004 95 6000 8.75 340 15:51 29.10.2022
1234 Clouds 16 1004 95 10000 9.77 340 15:24 29.10.2022
1235 Clouds 16 1004 93 10000 12.35 340 14:43 29.10.2022
1236 Clouds 16 1003 93 9000 11.83 340 12:34 29.10.2022
1237 Clouds 17 1003 92 10000 12.86 350 10:40 29.10.2022
1238 Clouds 17 1004 89 10000 13.38 350 07:37 29.10.2022
1239 Clouds 18 1004 87 10000 11.32 350 05:56 29.10.2022
1240 Rain 16 1005 91 10000 11.83 360 03:54 29.10.2022
1241 Clouds 16 1007 92 10000 11.83 350 22:34 28.10.2022
1242 Rain 16 1007 93 2400 10.8 360 20:46 28.10.2022
1243 Rain 16 1007 91 10000 10.73 179 19:26 28.10.2022
1244 Clouds 16 1007 91 8000 11.32 360 18:31 28.10.2022
1245 Clouds 16 1007 93 10000 9.77 350 15:31 28.10.2022
1246 Clouds 16 1007 93 10000 9.77 350 14:43 28.10.2022
1247 Haze 16 1009 91 5000 10.8 350 12:53 28.10.2022
1248 Clouds 16 1010 87 9000 11.32 350 11:34 28.10.2022
1249 Rain 16 1009 86 10000 12.86 350 10:59 28.10.2022
1250 Rain 17 1009 85 10000 9.26 350 09:48 28.10.2022
1251 Rain 17 1009 83 10000 10.29 340 08:28 28.10.2022
1252 Rain 17 1013 75 10000 9.77 350 03:43 28.10.2022
1253 Clouds 16 1013 78 10000 7.72 360 23:49 27.10.2022
1254 Clouds 15 1014 83 10000 7.72 10 22:40 27.10.2022
1255 Clouds 14 1014 85 10000 6.69 10 21:35 27.10.2022
1256 Clouds 14 1013 88 7000 7.72 360 20:28 27.10.2022
1257 Clouds 14 1013 85 10000 6.17 10 18:22 27.10.2022
1258 Clouds 14 1013 89 10000 4.63 350 14:30 27.10.2022
1259 Clouds 15 1014 85 9000 6.17 330 11:29 27.10.2022
1260 Clouds 16 1013 80 10000 7.2 340 07:29 27.10.2022
1261 Clouds 17 1015 76 10000 8.23 360 00:22 27.10.2022
1262 Clouds 16 1014 78 10000 7.72 350 23:44 26.10.2022
1263 Clouds 16 1013 81 10000 7.2 360 22:37 26.10.2022
1264 Clouds 13 1014 85 10000 7.72 10 19:57 26.10.2022
1265 Clouds 14 1014 86 10000 10.29 360 16:53 26.10.2022
1266 Clouds 14 1014 86 10000 9.77 10 14:53 26.10.2022
1267 Clouds 14 1013 88 10000 9.26 360 12:39 26.10.2022
1268 Clouds 14 1014 86 10000 9.26 350 11:32 26.10.2022
1269 Clouds 14 1013 83 10000 9.77 350 09:18 26.10.2022
1270 Clouds 14 1013 82 10000 9.26 350 08:43 26.10.2022
1271 Clouds 15 1016 69 10000 10.8 350 00:48 26.10.2022
1272 Clouds 13 1015 78 10000 10.29 340 00:29 26.10.2022
1273 Clouds 13 1017 77 10000 7.72 10 21:57 25.10.2022
1274 Clouds 12 1017 81 10000 7.2 30 21:24 25.10.2022
1275 Clouds 10 1017 87 10000 5.66 30 20:26 25.10.2022
1276 Clouds 8 1020 88 10000 4.12 20 18:38 25.10.2022
1277 Clouds 7 1021 86 10000 2.57 10 15:28 25.10.2022
1278 Clouds 9 1024 78 10000 1.54 10 11:40 25.10.2022
1279 Clouds 10 1024 76 10000 1.54 30 10:46 25.10.2022
1280 Clouds 10 1024 76 10000 1.54 280 10:28 25.10.2022
1281 Clouds 11 1025 69 10000 5.14 160 08:19 25.10.2022
1282 Clouds 11 1025 67 10000 5.14 160 07:54 25.10.2022
1283 Clouds 11 1025 68 10000 5.66 160 07:26 25.10.2022
1284 Rain 11 1028 70 10000 6.17 150 04:26 25.10.2022
1285 Clouds 10 1028 66 10000 4.63 150 00:40 25.10.2022
1286 Clouds 11 1030 64 10000 6.17 140 23:50 24.10.2022
1287 Rain 10 1030 67 10000 7.2 150 22:24 24.10.2022
1288 Clouds 10 1030 69 10000 8.23 140 21:34 24.10.2022
1289 Clouds 10 1030 69 10000 8.23 140 21:34 24.10.2022
1290 Clouds 10 1029 70 10000 8.23 150 20:44 24.10.2022
1291 Clouds 10 1029 70 10000 8.23 150 20:44 24.10.2022
1292 Clouds 10 1029 70 10000 8.23 150 20:44 24.10.2022
1293 Clouds 10 1028 69 10000 4.92 179 19:36 24.10.2022
1294 Clouds 10 1027 78 10000 9.26 160 17:53 24.10.2022
1295 Clouds 10 1029 83 10000 7.72 160 16:54 24.10.2022
1296 Clouds 11 1030 76 10000 9.26 160 14:31 24.10.2022
1297 Clouds 11 1030 76 10000 10.29 160 13:41 24.10.2022
1298 Clouds 11 1028 81 10000 9.77 170 11:55 24.10.2022
1299 Clouds 12 1025 78 10000 10.8 180 08:50 24.10.2022
1300 Clouds 17 1020 60 10000 10.8 10 00:52 24.10.2022
1301 Clouds 15 1022 69 10000 9.26 20 21:24 23.10.2022
1302 Clouds 14 1021 76 10000 8.75 20 19:53 23.10.2022
1303 Clear 14 1021 76 10000 7.72 30 18:25 23.10.2022
1304 Clear 14 1022 72 10000 11.32 10 17:27 23.10.2022
1305 Clear 13 1023 82 10000 11.83 10 15:21 23.10.2022
1306 Clouds 13 1024 86 10000 12.86 10 13:22 23.10.2022
1307 Clouds 14 1025 85 10000 10.29 10 11:18 23.10.2022
1308 Clouds 14 1024 79 10000 12.35 360 08:19 23.10.2022
1309 Clouds 14 1030 76 10000 9.26 10 23:56 22.10.2022
1310 Clouds 14 1029 78 10000 10.29 10 22:31 22.10.2022
1311 Clouds 13 1029 81 10000 8.23 20 21:42 22.10.2022
1312 Clouds 12 1029 84 10000 7.2 30 20:49 22.10.2022
1313 Clouds 11 1028 83 10000 6.69 30 19:45 22.10.2022
1314 Clouds 11 1028 83 10000 6.69 30 19:24 22.10.2022
1315 Clear 11 1028 82 10000 7.72 30 17:37 22.10.2022
1316 Clear 10 1029 81 10000 5.81 179 15:57 22.10.2022
1317 Clear 10 1029 79 10000 5.14 20 14:42 22.10.2022
1318 Clear 10 1029 76 10000 4.63 30 13:45 22.10.2022
1319 Clear 11 1029 71 10000 4.12 360 09:59 22.10.2022
1320 Clear 11 1029 72 10000 2.57 350 09:36 22.10.2022
1321 Clear 14 1029 62 10000 2.57 200 07:45 22.10.2022
1322 Clear 13 1031 54 10000 4.12 180 02:55 22.10.2022
1323 Clear 13 1030 56 10000 2.06 200 23:46 21.10.2022
1324 Clear 8 1029 82 10000 2.57 30 21:35 21.10.2022
1325 Clear 7 1030 80 10000 2.06 40 20:56 21.10.2022
1326 Clear 5 1027 84 10000 2.57 30 19:26 21.10.2022
1327 Clouds 7 1027 76 10000 2.06 90 16:51 21.10.2022
1328 Clouds 8 1026 68 10000 6.17 160 13:57 21.10.2022
1329 Clouds 9 1025 67 10000 6.69 160 12:56 21.10.2022
1330 Clouds 9 1025 65 10000 8.75 150 10:40 21.10.2022
1331 Clouds 10 1025 64 10000 10.29 150 09:42 21.10.2022
1332 Clouds 10 1023 63 10000 10.29 150 08:38 21.10.2022
1333 Clouds 12 1022 62 10000 10.8 150 06:46 21.10.2022
1334 Clouds 10 1019 71 10000 10.8 170 00:24 21.10.2022
1335 Clouds 10 1017 67 10000 11.83 180 22:23 20.10.2022
1336 Clouds 10 1015 64 10000 11.83 170 20:35 20.10.2022
1337 Clouds 10 1012 65 10000 11.83 170 19:33 20.10.2022
1338 Clouds 11 1011 68 10000 12.35 170 17:52 20.10.2022
1339 Clouds 11 1010 71 10000 12.35 170 16:30 20.10.2022
1340 Clear 12 1004 79 10000 4.63 20 12:36 20.10.2022
1341 Clear 12 1004 78 10000 4.63 20 12:18 20.10.2022
1342 Clear 13 1002 77 10000 6.69 10 10:59 20.10.2022
1343 Clear 14 1002 77 10000 7.72 360 10:27 20.10.2022
1344 Clouds 16 1001 71 10000 10.29 10 07:45 20.10.2022
1345 Clouds 16 1002 74 10000 9.77 360 04:58 20.10.2022
1346 Clouds 16 1007 60 10000 8.23 350 00:58 20.10.2022
1347 Clear 15 1007 63 10000 7.2 360 22:45 19.10.2022
1348 Clear 14 1008 67 10000 6.17 40 21:55 19.10.2022
1349 Clear 11 1006 77 10000 4.63 20 20:52 19.10.2022
1350 Clouds 9 1007 74 10000 2.57 10 18:36 19.10.2022
1351 Clouds 10 1007 69 10000 1.54 30 17:37 19.10.2022
1352 Clouds 12 1006 65 10000 3.6 40 15:23 19.10.2022
1353 Clouds 12 1008 81 10000 5.14 30 12:58 19.10.2022
1354 Clouds 13 1009 74 10000 7.2 20 09:34 19.10.2022
1355 Clouds 13 1009 67 10000 8.75 10 08:28 19.10.2022
1356 Clouds 15 1011 67 10000 3.6 190 04:56 19.10.2022
1357 Clouds 14 1012 74 10000 5.14 230 00:59 19.10.2022
1358 Clouds 13 1010 86 10000 1.54 250 22:57 18.10.2022
1359 Clouds 12 1011 85 10000 2.06 160 21:38 18.10.2022
1360 Clouds 10 1009 92 10000 3.09 180 20:44 18.10.2022
1361 Clouds 10 1009 92 10000 3.6 180 19:51 18.10.2022
1362 Haze 11 1009 92 5000 7.72 190 17:34 18.10.2022
1363 Clouds 10 1008 89 10000 6.69 210 16:20 18.10.2022
1364 Rain 12 1009 87 10000 6.17 200 14:19 18.10.2022
1365 Rain 13 1009 78 10000 2.57 60 12:32 18.10.2022
1366 Rain 13 1007 82 10000 4.12 20 11:21 18.10.2022
1367 Clouds 13 1007 81 10000 8.75 360 09:28 18.10.2022
1368 Clouds 14 1007 77 10000 8.23 350 07:54 18.10.2022
1369 Clear 17 1009 48 10000 8.75 360 02:29 18.10.2022
1370 Clear 15 1008 69 10000 6.17 30 22:19 17.10.2022
1371 Clear 11 1008 82 10000 3.6 40 20:51 17.10.2022
1372 Clear 11 1007 86 10000 2.57 40 20:31 17.10.2022
1373 Clouds 10 1007 86 10000 2.57 40 19:51 17.10.2022
1374 Clouds 11 1006 90 10000 2.57 320 18:51 17.10.2022
1375 Clouds 12 1006 90 10000 1.03 10 16:49 17.10.2022
1376 Clouds 13 1006 89 10000 6.69 10 15:29 17.10.2022
1377 Clouds 13 1007 87 10000 7.2 10 14:34 17.10.2022
1378 Clouds 13 1009 84 10000 9.77 10 10:30 17.10.2022
1379 Clouds 16 1008 77 10000 9.26 360 06:36 17.10.2022
1380 Clouds 15 1009 81 10000 7.72 360 23:30 16.10.2022
1381 Clouds 15 1008 86 10000 6.17 10 21:48 16.10.2022
1382 Clouds 13 1007 90 10000 6.17 30 20:43 16.10.2022
1383 Clouds 12 1007 89 10000 5.66 20 19:46 16.10.2022
1384 Clouds 12 1007 89 10000 3.09 50 17:52 16.10.2022
1385 Clouds 12 1007 89 10000 6.69 20 17:30 16.10.2022
1386 Clouds 12 1007 88 10000 5.14 30 15:57 16.10.2022
1387 Clouds 12 1007 88 10000 5.66 20 14:33 16.10.2022
1388 Clouds 12 1007 87 10000 5.66 10 12:23 16.10.2022
1389 Clear 12 1008 81 10000 5.66 20 10:27 16.10.2022
1390 Clear 13 1007 77 10000 5.66 340 08:44 16.10.2022
1391 Clouds 15 1011 71 10000 5.66 360 01:26 16.10.2022
1392 Clouds 13 1010 83 10000 6.17 30 22:43 15.10.2022
1393 Clouds 9 1012 95 10000 3.09 20 21:25 15.10.2022
1394 Clouds 9 1013 87 10000 2.57 10 20:55 15.10.2022
1395 Clouds 7 1009 87 10000 2.57 20 18:44 15.10.2022
1396 Clouds 7 1009 87 10000 2.57 20 18:44 15.10.2022
1397 Clouds 7 1013 90 10000 2.06 10 15:49 15.10.2022
1398 Clouds 8 1013 90 10000 2.26 15 14:55 15.10.2022
1399 Clouds 10 1015 86 10000 3.6 360 11:58 15.10.2022
1400 Clouds 10 1015 85 10000 2.06 10 10:47 15.10.2022
1401 Clouds 12 1016 76 10000 2.57 90 08:54 15.10.2022
1402 Rain 15 1019 65 10000 3.09 40 02:42 15.10.2022
1403 Clouds 12 1020 70 10000 3.09 50 23:56 14.10.2022
1404 Clouds 11 1020 78 10000 2.06 120 22:23 14.10.2022
1405 Clouds 9 1021 83 10000 1.54 140 21:29 14.10.2022
1406 Clouds 7 1020 85 10000 2.57 140 20:18 14.10.2022
1407 Clouds 8 1022 80 10000 2.57 140 16:49 14.10.2022
1408 Clouds 10 1024 76 10000 2.57 120 13:28 14.10.2022
1409 Clouds 10 1024 77 10000 1.54 140 12:19 14.10.2022
1410 Clouds 10 1024 77 10000 1.54 140 12:19 14.10.2022
1411 Clouds 10 1024 77 10000 4.63 150 09:40 14.10.2022
1412 Clouds 11 1025 76 10000 6.69 140 07:47 14.10.2022
1413 Clouds 11 1024 75 10000 7.72 140 06:18 14.10.2022
1414 Clouds 12 1025 74 10000 7.72 150 05:42 14.10.2022
1415 Clouds 12 1025 74 10000 7.2 160 04:29 14.10.2022
1416 Clouds 11 1027 67 10000 8.23 150 23:58 13.10.2022
1417 Clouds 10 1026 70 10000 8.23 150 22:22 13.10.2022
1418 Clouds 10 1027 77 10000 8.75 150 21:26 13.10.2022
1419 Clouds 10 1026 75 10000 7.72 150 20:18 13.10.2022
1420 Clouds 10 1026 76 10000 8.23 160 19:37 13.10.2022
1421 Clouds 10 1025 80 10000 7.72 150 18:43 13.10.2022
1422 Clouds 10 1025 81 10000 7.72 160 17:20 13.10.2022
1423 Clouds 10 1025 79 10000 5.66 140 15:48 13.10.2022
1424 Clouds 10 1026 73 10000 5.66 150 14:23 13.10.2022
1425 Clouds 10 1027 69 10000 8.75 150 12:50 13.10.2022
1426 Rain 10 1027 68 10000 6.17 140 11:36 13.10.2022
1427 Clouds 10 1026 68 10000 4.63 140 09:40 13.10.2022
1428 Rain 10 1026 71 10000 2.06 130 08:19 13.10.2022
1429 Clouds 11 1025 74 10000 3.6 150 07:33 13.10.2022
1430 Rain 10 1025 86 10000 9.26 150 01:51 13.10.2022
1431 Rain 10 1025 91 10000 6.69 150 00:55 13.10.2022
1432 Rain 10 1025 93 9000 7.2 150 22:46 12.10.2022
1433 Rain 10 1025 92 10000 5.66 140 22:28 12.10.2022
1434 Rain 10 1023 93 10000 8.23 140 21:21 12.10.2022
1435 Rain 10 1024 94 10000 7.2 140 20:52 12.10.2022
1436 Rain 10 1023 94 9000 8.23 140 19:30 12.10.2022
1437 Rain 10 1023 93 10000 6.69 150 18:25 12.10.2022
1438 Rain 10 1023 93 10000 6.69 150 17:47 12.10.2022
1439 Rain 10 1023 93 10000 6.69 150 17:47 12.10.2022
1440 Rain 10 1024 88 10000 1.54 180 15:40 12.10.2022
1441 Rain 10 1025 87 10000 2.06 140 13:56 12.10.2022
1442 Rain 11 1025 84 10000 3.6 110 12:46 12.10.2022
1443 Rain 11 1025 75 10000 4.63 110 09:41 12.10.2022
1444 Clouds 12 1025 74 10000 4.63 100 07:58 12.10.2022
1445 Clouds 13 1025 72 10000 3.09 110 07:38 12.10.2022
1446 Clouds 13 1025 70 10000 3.09 110 06:43 12.10.2022
1447 Clouds 14 1026 68 10000 7.72 150 00:58 12.10.2022
1448 Clouds 13 1026 74 10000 5.14 150 22:18 11.10.2022
1449 Clouds 9 1026 88 10000 4.63 140 20:39 11.10.2022
1450 Clouds 8 1024 92 10000 3.09 140 18:46 11.10.2022
1451 Clouds 10 1025 89 10000 6.69 140 16:38 11.10.2022
1452 Clouds 11 1025 91 10000 6.17 140 14:36 11.10.2022
1453 Clouds 10 1025 86 10000 4.63 160 12:53 11.10.2022
1454 Clouds 12 1024 82 10000 5.66 150 10:29 11.10.2022
1455 Clouds 12 1023 77 10000 2.06 180 09:30 11.10.2022
1456 Clouds 12 1023 77 10000 2.06 180 09:30 11.10.2022
1457 Clouds 12 1023 77 10000 2.06 180 09:30 11.10.2022
1458 Clouds 16 1021 72 10000 3.6 80 06:46 11.10.2022
1459 Clouds 16 1019 80 10000 7.2 360 02:26 11.10.2022
1460 Clouds 16 1019 82 10000 9.26 350 00:31 11.10.2022
1461 Haze 14 1018 92 2600 11.83 350 21:35 10.10.2022
1462 Haze 14 1017 88 5000 13.38 350 19:49 10.10.2022
1463 Clouds 14 1018 82 10000 11.83 350 18:33 10.10.2022
1464 Clouds 14 1019 82 10000 13.38 350 16:58 10.10.2022
1465 Clouds 14 1020 78 10000 12.35 350 15:24 10.10.2022
1466 Clouds 14 1022 76 10000 10.29 360 12:54 10.10.2022
1467 Clouds 14 1022 74 10000 11.32 340 11:56 10.10.2022
1468 Clouds 14 1024 77 10000 9.26 360 08:58 10.10.2022
1469 Clouds 16 1025 69 10000 12.35 350 05:43 10.10.2022
1470 Clouds 16 1026 70 10000 12.35 360 04:39 10.10.2022
1471 Clouds 16 1028 70 10000 10.29 360 00:31 10.10.2022
1472 Clouds 15 1030 73 10000 10.29 360 22:51 09.10.2022
1473 Clouds 14 1030 79 10000 9.26 360 22:18 09.10.2022
1474 Clouds 13 1030 81 10000 9.26 10 21:22 09.10.2022
1475 Clouds 13 1030 84 10000 9.26 360 20:20 09.10.2022
1476 Clouds 13 1030 85 10000 8.75 360 19:37 09.10.2022
1477 Clouds 13 1030 83 10000 7.72 360 18:43 09.10.2022
1478 Clear 13 1029 74 10000 8.75 340 16:56 09.10.2022
1479 Clear 13 1032 68 10000 7.2 340 16:33 09.10.2022
1480 Clear 13 1032 70 10000 7.72 330 15:38 09.10.2022
1481 Clear 13 1032 67 10000 9.26 340 14:31 09.10.2022
1482 Clear 13 1033 70 10000 9.77 340 13:34 09.10.2022
1483 Clear 13 1033 76 10000 8.23 340 12:29 09.10.2022
1484 Clouds 13 1033 74 10000 7.72 350 10:49 09.10.2022
1485 Clouds 14 1033 62 10000 9.26 340 08:31 09.10.2022
1486 Clouds 16 1034 73 10000 12.35 360 03:40 09.10.2022
1487 Clouds 16 1034 74 10000 12.35 360 02:52 09.10.2022
1488 Clouds 15 1036 70 10000 10.29 350 00:39 09.10.2022
1489 Clouds 15 1036 74 10000 9.77 360 22:58 08.10.2022
1490 Clouds 14 1035 78 10000 9.77 360 22:19 08.10.2022
1491 Clouds 12 1035 70 10000 8.23 360 20:29 08.10.2022
1492 Clouds 12 1034 65 10000 8.75 350 18:56 08.10.2022
1493 Clouds 12 1036 74 10000 7.72 10 16:52 08.10.2022
1494 Clouds 12 1037 85 10000 8.23 20 14:55 08.10.2022
1495 Clear 12 1037 83 10000 6.17 20 13:30 08.10.2022
1496 Clear 12 1037 75 10000 6.17 10 10:40 08.10.2022
1497 Clear 12 1037 75 10000 6.17 10 10:21 08.10.2022
1498 Clear 12 1036 75 10000 7.72 350 08:49 08.10.2022
1499 Clear 15 1036 55 10000 9.26 360 04:46 08.10.2022
1500 Clear 14 1036 65 10000 7.2 360 00:58 08.10.2022
1501 Clear 13 1037 66 10000 5.66 20 23:32 07.10.2022
1502 Clear 11 1036 76 10000 4.63 20 22:56 07.10.2022
1503 Clear 7 1037 80 10000 4.12 20 21:40 07.10.2022
1504 Clear 5 1036 86 10000 3.09 30 19:44 07.10.2022
1505 Clear 5 1036 87 10000 2.57 360 17:53 07.10.2022
1506 Clouds 6 1036 85 10000 3.09 20 16:42 07.10.2022
1507 Clouds 7 1036 85 10000 2.57 40 15:25 07.10.2022
1508 Clouds 6 1035 87 10000 1.54 20 13:55 07.10.2022
1509 Clouds 7 1033 79 10000 3.09 140 11:28 07.10.2022
1510 Clouds 10 1033 74 10000 5.14 140 09:25 07.10.2022
1511 Clouds 10 1032 73 10000 5.66 150 08:20 07.10.2022
1512 Clear 11 1029 60 10000 10.29 180 02:30 07.10.2022
1513 Clouds 10 1025 59 9000 13.38 200 22:53 06.10.2022
1514 Clouds 9 1026 62 9000 13.38 200 21:57 06.10.2022
1515 Clouds 9 1026 64 8000 11.32 200 21:36 06.10.2022
1516 Clouds 7 1024 70 7000 10.29 210 20:39 06.10.2022
1517 Clouds 8 1022 70 7000 10.8 210 18:56 06.10.2022
1518 Clouds 7 1022 74 8000 10.29 190 18:31 06.10.2022
1519 Clouds 7 1021 75 10000 11.32 200 15:38 06.10.2022
1520 Clouds 7 1019 63 9000 5.14 290 12:49 06.10.2022
1521 Clouds 7 1017 62 10000 8.75 200 08:51 06.10.2022
1522 Clear 10 1016 47 10000 12.35 190 04:42 06.10.2022
1523 Clouds 8 1015 53 10000 13.89 210 00:51 06.10.2022
1524 Clouds 5 1013 67 7000 13.38 200 21:54 05.10.2022
1525 Clouds 5 1010 64 9000 15.95 200 19:44 05.10.2022
1526 Clouds 5 1009 65 10000 15.95 200 17:37 05.10.2022
1527 Clouds 5 1009 77 10000 13.89 200 16:40 05.10.2022
1528 Clouds 4 1010 88 10000 13.89 190 14:57 05.10.2022
1529 Fog 4 1009 92 2500 13.89 190 14:23 05.10.2022
1530 Mist 4 1008 93 1600 14.92 190 12:45 05.10.2022
1531 Clouds 6 1006 87 10000 1.03 360 11:38 05.10.2022
1532 Clouds 7 1003 81 10000 5.14 180 08:23 05.10.2022
1533 Clouds 7 1002 88 10000 8.23 190 06:36 05.10.2022
1534 Clouds 7 1003 87 7000 13.38 190 05:31 05.10.2022
1535 Clouds 14 1000 76 10000 7.72 320 02:31 05.10.2022
1536 Rain 14 1000 76 10000 12.35 330 00:28 05.10.2022
1537 Rain 13 1002 76 10000 8.75 330 23:22 04.10.2022
1538 Clear 12 1003 73 10000 6.69 360 21:22 04.10.2022
1539 Clouds 11 1005 74 10000 6.17 340 19:49 04.10.2022
1540 Clouds 11 1004 77 10000 6.17 320 18:51 04.10.2022
1541 Clouds 11 1004 78 10000 6.17 320 17:57 04.10.2022
1542 Clouds 11 1006 77 10000 8.23 340 16:56 04.10.2022
1543 Clouds 12 1007 76 10000 8.75 350 14:29 04.10.2022
1544 Clouds 13 1009 75 10000 8.23 350 10:23 04.10.2022
1545 Clouds 13 1009 79 10000 10.29 350 07:50 04.10.2022
1546 Clouds 14 1009 68 10000 9.77 340 04:43 04.10.2022
1547 Clouds 13 1013 68 10000 5.14 10 23:59 03.10.2022
1548 Clouds 11 1014 73 10000 5.14 360 22:45 03.10.2022
1549 Clear 7 1014 84 10000 2.57 50 21:30 03.10.2022
1550 Clear 6 1014 85 10000 1.54 40 20:35 03.10.2022
1551 Clouds 7 1012 80 10000 4.63 150 18:52 03.10.2022
1552 Clouds 8 1012 76 10000 7.2 160 17:32 03.10.2022
1553 Clouds 9 1012 73 10000 8.75 170 15:59 03.10.2022
1554 Clouds 10 1012 74 10000 9.26 180 14:26 03.10.2022
1555 Clouds 10 1010 75 10000 10.29 160 12:36 03.10.2022
1556 Clouds 10 1008 78 10000 9.77 160 10:59 03.10.2022
1557 Clouds 11 1007 82 10000 10.29 170 09:56 03.10.2022
1558 Clouds 11 1006 79 10000 9.77 170 08:46 03.10.2022
1559 Clouds 10 1001 86 10000 13.89 180 04:41 03.10.2022
1560 Clouds 11 997 96 10000 3.6 180 23:27 02.10.2022
1561 Clouds 10 997 96 10000 3.09 180 21:58 02.10.2022
1562 Clouds 9 998 98 10000 4.12 180 19:52 02.10.2022
1563 Clouds 9 998 96 10000 5.66 180 17:56 02.10.2022
1564 Clouds 9 999 96 10000 6.17 180 16:56 02.10.2022
1565 Clouds 9 1000 96 6000 6.69 180 16:32 02.10.2022
1566 Clouds 9 1001 96 9000 7.72 180 15:34 02.10.2022
1567 Mist 9 1003 96 5000 8.23 190 13:46 02.10.2022
1568 Mist 9 1004 96 4900 8.23 180 12:42 02.10.2022
1569 Mist 9 1004 96 4900 8.23 180 12:20 02.10.2022
1570 Clouds 9 1004 96 8000 9.26 180 11:34 02.10.2022
1571 Clouds 9 1004 95 6000 9.26 180 10:19 02.10.2022
1572 Clouds 9 1004 96 7000 10.8 180 08:30 02.10.2022
1573 Clouds 9 1004 96 7000 10.8 180 08:30 02.10.2022
1574 Clouds 9 1006 93 10000 10.8 180 05:21 02.10.2022
1575 Clouds 8 1008 95 10000 11.32 180 01:20 02.10.2022
1576 Mist 9 1008 97 2900 11.83 180 00:38 02.10.2022
1577 Mist 9 1009 95 4200 11.32 180 23:28 01.10.2022
1578 Clouds 9 1009 95 8000 11.83 170 21:58 01.10.2022
1579 Clouds 9 1009 97 4300 12.35 170 19:21 01.10.2022
1580 Clouds 10 1007 95 8000 11.32 160 17:46 01.10.2022
1581 Rain 10 1010 95 6000 10.8 150 15:32 01.10.2022
1582 Rain 10 1010 95 5000 10.29 150 14:18 01.10.2022
1583 Rain 10 1011 92 10000 8.23 160 12:34 01.10.2022
1584 Rain 10 1012 91 10000 4.12 160 11:23 01.10.2022
1585 Rain 10 1012 88 10000 3.09 160 10:53 01.10.2022
1586 Rain 10 1013 87 10000 3.09 150 10:30 01.10.2022
1587 Drizzle 10 1012 84 10000 3.6 140 09:25 01.10.2022
1588 Clouds 11 1013 83 10000 4.63 120 08:27 01.10.2022
1589 Rain 12 1015 80 10000 5.14 110 03:50 01.10.2022
1590 Drizzle 12 1015 79 10000 4.63 110 03:22 01.10.2022
1591 Rain 11 1018 78 10000 3.6 120 23:21 30.09.2022
1592 Rain 10 1019 80 10000 3.09 160 22:19 30.09.2022
1593 Clouds 9 1019 81 10000 4.12 150 20:57 30.09.2022
1594 Clouds 9 1019 81 10000 3.6 140 20:30 30.09.2022
1595 Rain 9 1019 81 10000 3.6 150 18:45 30.09.2022
1596 Rain 9 1020 84 10000 5.66 160 16:55 30.09.2022
1597 Clouds 8 1022 82 10000 6.17 160 14:49 30.09.2022
1598 Rain 9 1023 79 10000 4.63 140 12:51 30.09.2022
1599 Rain 9 1022 82 10000 5.14 150 11:56 30.09.2022
1600 Clouds 9 1023 77 10000 4.63 150 09:45 30.09.2022
1601 Clouds 9 1023 79 10000 7.2 150 08:19 30.09.2022
1602 Rain 9 1023 87 10000 11.32 150 04:21 30.09.2022
1603 Rain 9 1021 90 10000 11.32 160 02:21 30.09.2022
1604 Rain 10 1020 95 10000 9.77 150 22:23 29.09.2022
1605 Clouds 10 1018 94 9000 8.75 160 21:25 29.09.2022
1606 Rain 10 1018 95 7000 8.75 160 19:58 29.09.2022
1607 Rain 9 1017 95 6000 8.75 150 18:30 29.09.2022
1608 Rain 9 1017 95 6000 8.75 150 18:30 29.09.2022
1609 Rain 9 1016 94 5000 9.77 170 16:29 29.09.2022
1610 Rain 10 1017 95 8000 10.29 170 15:37 29.09.2022
1611 Drizzle 10 1017 94 9000 9.26 180 14:59 29.09.2022
1612 Rain 12 1015 93 10000 9.26 190 12:54 29.09.2022
1613 Rain 14 1013 95 7000 7.72 10 08:51 29.09.2022
1614 Clouds 15 1014 87 10000 10.8 360 05:35 29.09.2022
1615 Clouds 14 1014 90 10000 10.29 360 02:37 29.09.2022
1616 Rain 13 1016 94 7000 8.75 10 23:29 28.09.2022
1617 Rain 13 1016 95 3300 9.77 10 22:23 28.09.2022
1618 Rain 13 1017 94 3500 9.26 360 21:28 28.09.2022
1619 Clouds 13 1016 93 10000 7.72 10 19:58 28.09.2022
1620 Clouds 13 1017 93 9000 8.75 20 17:19 28.09.2022
1621 Rain 14 1018 82 10000 10.29 10 14:45 28.09.2022
1622 Rain 14 1019 82 10000 8.23 10 12:31 28.09.2022
1623 Clouds 13 1021 86 10000 7.72 350 10:22 28.09.2022
1624 Clouds 14 1020 81 10000 7.2 360 08:25 28.09.2022
1625 Clouds 16 1021 73 10000 8.75 360 06:42 28.09.2022
1626 Clouds 15 1023 72 10000 7.72 360 01:50 28.09.2022
1627 Rain 15 1025 67 10000 7.72 360 01:27 28.09.2022
1628 Rain 13 1024 77 10000 6.17 20 22:50 27.09.2022
1629 Rain 13 1024 78 10000 5.66 20 21:24 27.09.2022
1630 Clouds 12 1024 79 10000 6.69 20 20:36 27.09.2022
1631 Clouds 12 1023 80 10000 5.66 20 19:47 27.09.2022
1632 Clouds 12 1023 82 10000 6.17 20 17:55 27.09.2022
1633 Clouds 12 1024 82 10000 5.66 20 17:32 27.09.2022
1634 Clouds 11 1024 78 10000 3.09 20 15:24 27.09.2022
1635 Clouds 10 1024 80 10000 4.12 20 14:33 27.09.2022
1636 Clouds 10 1025 82 10000 4.12 10 12:40 27.09.2022
1637 Clouds 11 1026 81 10000 4.63 30 10:53 27.09.2022
1638 Clouds 13 1026 72 10000 3.09 360 08:46 27.09.2022
1639 Clouds 17 1028 48 10000 6.17 340 05:49 27.09.2022
1640 Clouds 17 1029 51 10000 7.72 360 01:43 27.09.2022
1641 Clouds 16 1030 55 10000 6.69 10 00:50 27.09.2022
1642 Clouds 15 1028 70 10000 5.66 20 23:25 26.09.2022
1643 Clouds 13 1028 84 10000 5.66 10 22:19 26.09.2022
1644 Clouds 11 1027 89 10000 3.09 30 20:27 26.09.2022
1645 Clouds 11 1026 87 10000 4.12 360 19:24 26.09.2022
1646 Clouds 9 1026 86 10000 1.54 30 18:30 26.09.2022
1647 Clouds 9 1029 87 10000 2.06 10 15:52 26.09.2022
1648 Clouds 8 1027 90 10000 3.6 20 13:28 26.09.2022
1649 Clouds 8 1026 88 10000 2.06 30 11:29 26.09.2022
1650 Clouds 9 1026 86 10000 1.03 40 10:37 26.09.2022
1651 Clouds 9 1026 86 10000 1.03 40 10:19 26.09.2022
1652 Clouds 9 1026 84 10000 1.03 60 09:53 26.09.2022
1653 Clouds 9 1026 83 10000 1.03 170 09:22 26.09.2022
1654 Clouds 15 1025 62 10000 2.57 200 06:21 26.09.2022
1655 Clouds 12 1030 71 10000 4.63 200 02:41 26.09.2022
1656 Clouds 11 1028 79 10000 1.03 30 23:26 25.09.2022
1657 Clouds 6 1028 96 10000 1.54 30 21:48 25.09.2022
1658 Clouds 5 1027 94 10000 1.54 80 21:25 25.09.2022
1659 Clouds 5 1023 89 10000 2.06 50 20:38 25.09.2022
1660 Clouds 5 1022 88 10000 1.03 50 19:30 25.09.2022
1661 Clouds 5 1024 88 10000 0.51 80 18:34 25.09.2022
1662 Clouds 5 1024 87 6000 1.03 350 17:49 25.09.2022
1663 Clouds 5 1027 89 10000 1.03 110 16:22 25.09.2022
1664 Clouds 6 1027 87 10000 0.51 170 15:35 25.09.2022
1665 Clouds 7 1027 84 10000 1.54 120 14:21 25.09.2022
1666 Clouds 8 1027 80 10000 3.09 70 12:44 25.09.2022
1667 Clouds 10 1026 85 10000 3.6 130 10:20 25.09.2022
1668 Clouds 11 1025 86 10000 5.14 140 08:23 25.09.2022
1669 Clouds 13 1025 80 10000 7.2 160 05:31 25.09.2022
1670 Clouds 11 1023 77 10000 9.77 180 00:36 25.09.2022
1671 Clouds 11 1022 80 10000 9.77 160 22:34 24.09.2022
1672 Clouds 10 1022 84 10000 9.77 160 20:45 24.09.2022
1673 Clouds 10 1021 86 10000 9.77 170 19:21 24.09.2022
1674 Clouds 10 1019 94 10000 10.29 180 16:59 24.09.2022
1675 Clouds 10 1019 94 10000 10.8 180 16:23 24.09.2022
1676 Clouds 10 1019 94 10000 10.8 180 16:23 24.09.2022
1677 Clouds 10 1018 95 10000 12.35 170 15:19 24.09.2022
1678 Clouds 11 1016 95 7000 9.77 180 13:23 24.09.2022
1679 Clouds 11 1016 95 9000 9.77 190 12:40 24.09.2022
1680 Clouds 12 1015 98 6000 9.77 180 10:19 24.09.2022
1681 Clouds 12 1012 95 10000 10.29 180 09:23 24.09.2022
1682 Mist 12 1012 95 5000 9.77 190 08:43 24.09.2022
1683 Clouds 13 1010 90 10000 8.75 180 06:26 24.09.2022
1684 Clouds 14 1010 89 10000 7.2 220 04:34 24.09.2022
1685 Clouds 12 1010 97 10000 8.75 200 23:48 23.09.2022
1686 Clouds 12 1010 96 10000 7.2 190 22:24 23.09.2022
1687 Clouds 11 1009 96 10000 9.77 200 21:26 23.09.2022
1688 Clouds 11 1009 96 10000 9.26 190 20:55 23.09.2022
1689 Clouds 11 1009 96 10000 10.8 200 19:46 23.09.2022
1690 Mist 11 1010 97 2100 10.8 190 18:24 23.09.2022
1691 Clouds 12 1013 97 6000 11.32 200 13:44 23.09.2022
1692 Mist 12 1013 97 5000 7.72 230 10:26 23.09.2022
1693 Clouds 12 1014 97 10000 7.72 230 08:56 23.09.2022
1694 Rain 12 1015 97 5000 11.32 180 04:56 23.09.2022
1695 Drizzle 11 1019 96 8000 12.35 170 23:30 22.09.2022
1696 Clouds 11 1019 97 9000 11.83 170 22:29 22.09.2022
1697 Rain 11 1020 97 10000 11.32 170 21:47 22.09.2022
1698 Rain 11 1021 97 8000 12.35 170 20:44 22.09.2022
1699 Mist 10 1020 95 3800 12.35 180 19:20 22.09.2022
1700 Rain 10 1022 96 10000 10.8 170 16:23 22.09.2022
1701 Mist 10 1024 95 5000 9.26 170 11:36 22.09.2022
1702 Clouds 10 1024 92 10000 10.8 170 10:20 22.09.2022
1703 Clouds 10 1024 92 10000 9.77 160 08:22 22.09.2022
1704 Haze 10 1024 90 5000 10.29 160 06:27 22.09.2022
1705 Clouds 11 1024 89 10000 8.75 170 02:39 22.09.2022
1706 Mist 9 1023 97 3500 9.77 160 22:32 21.09.2022
1707 Mist 9 1023 97 5000 9.26 160 21:38 21.09.2022
1708 Clouds 9 1021 96 10000 10.29 170 19:30 21.09.2022
1709 Clouds 10 1020 97 8000 9.77 180 17:46 21.09.2022
1710 Clouds 10 1020 95 9000 9.77 180 16:22 21.09.2022
1711 Clouds 10 1021 95 10000 8.75 180 13:57 21.09.2022
1712 Clouds 10 1019 95 7000 10.29 180 12:19 21.09.2022
1713 Mist 10 1019 96 5000 9.77 180 11:28 21.09.2022
1714 Rain 11 1018 93 7000 10.29 190 09:47 21.09.2022
1715 Clouds 11 1017 94 6000 10.8 190 08:53 21.09.2022
1716 Mist 11 1016 93 3900 10.29 180 06:20 21.09.2022
1717 Rain 13 1015 83 10000 8.23 170 02:44 21.09.2022
1718 Rain 13 1015 83 10000 6.69 160 02:23 21.09.2022
1719 Clouds 13 1015 85 10000 6.69 170 00:34 21.09.2022
1720 Clouds 14 1014 91 10000 1.54 40 22:41 20.09.2022
1721 Clouds 11 1013 94 10000 1.54 270 20:45 20.09.2022
1722 Clouds 12 1012 93 10000 3.6 50 19:30 20.09.2022
1723 Rain 12 1013 93 10000 5.14 20 16:18 20.09.2022
1724 Clouds 12 1015 91 10000 5.14 360 14:45 20.09.2022
1725 Clouds 12 1015 91 10000 6.17 360 12:58 20.09.2022
1726 Clouds 14 1014 89 10000 5.14 360 09:19 20.09.2022
1727 Clouds 14 1013 86 10000 6.17 350 08:26 20.09.2022
1728 Rain 16 1013 79 10000 8.23 350 04:50 20.09.2022
1729 Clouds 16 1012 80 10000 8.75 360 03:48 20.09.2022
1730 Clouds 14 1015 88 10000 6.69 360 22:55 19.09.2022
1731 Clouds 13 1014 91 10000 7.2 350 21:40 19.09.2022
1732 Clouds 13 1014 92 10000 7.72 360 20:50 19.09.2022
1733 Clouds 13 1014 92 10000 6.69 360 20:30 19.09.2022
1734 Clouds 13 1014 93 10000 3.6 340 17:44 19.09.2022
1735 Clouds 14 1014 94 10000 5.66 10 14:54 19.09.2022
1736 Clouds 14 1013 92 10000 6.69 360 13:18 19.09.2022
1737 Clouds 15 1015 90 10000 6.17 350 11:25 19.09.2022
1738 Clouds 15 1014 90 10000 6.69 10 08:51 19.09.2022
1739 Clouds 14 1013 87 10000 9.26 10 06:42 19.09.2022
1740 Clouds 14 1015 78 10000 9.26 10 01:54 19.09.2022
1741 Rain 11 1018 89 10000 9.26 360 23:22 18.09.2022
1742 Clouds 12 1017 76 10000 9.77 20 21:43 18.09.2022
1743 Rain 12 1016 78 10000 8.75 10 20:24 18.09.2022
1744 Clouds 12 1017 75 10000 7.72 10 18:18 18.09.2022
1745 Clouds 12 1018 73 10000 7.72 10 17:37 18.09.2022
1746 Clouds 11 1019 76 10000 5.14 20 15:44 18.09.2022
1747 Clouds 11 1020 78 10000 5.14 30 13:50 18.09.2022
1748 Clouds 12 1021 78 10000 4.63 40 12:35 18.09.2022
1749 Clouds 12 1021 77 10000 6.17 30 10:55 18.09.2022
1750 Clouds 16 1022 62 10000 8.75 360 04:26 18.09.2022
1751 Clouds 15 1024 60 10000 6.69 350 01:25 18.09.2022
1752 Clouds 15 1024 66 10000 6.17 340 00:23 18.09.2022
1753 Clouds 11 1022 82 10000 5.14 30 21:40 17.09.2022
1754 Clouds 10 1021 85 10000 5.14 30 19:43 17.09.2022
1755 Clouds 10 1021 85 10000 5.14 30 19:43 17.09.2022
1756 Clouds 11 1022 83 10000 4.63 30 18:57 17.09.2022
1757 Clouds 11 1022 83 10000 4.63 30 18:57 17.09.2022
1758 Clouds 11 1022 85 10000 5.14 40 16:18 17.09.2022
1759 Clouds 11 1022 83 10000 5.14 30 13:56 17.09.2022
1760 Clouds 11 1021 85 10000 5.14 30 10:57 17.09.2022
1761 Clouds 12 1021 83 10000 5.66 360 08:55 17.09.2022
1762 Clouds 14 1020 75 10000 5.66 350 06:25 17.09.2022
1763 Clouds 13 1021 71 10000 6.69 360 00:20 17.09.2022
1764 Clouds 11 1018 89 10000 4.63 30 22:52 16.09.2022
1765 Clouds 8 1021 93 10000 3.6 20 21:22 16.09.2022
1766 Clouds 6 1022 87 10000 4.63 360 19:50 16.09.2022
1767 Clouds 6 1022 87 10000 3.6 40 16:56 16.09.2022
1768 Clouds 5 1017 85 10000 2.57 30 15:26 16.09.2022
1769 Clouds 6 1018 84 10000 1.54 60 13:57 16.09.2022
1770 Clouds 7 1019 80 10000 3.09 140 11:31 16.09.2022
1771 Clouds 9 1018 72 10000 4.63 150 08:19 16.09.2022
1772 Clouds 10 1017 70 10000 5.14 150 07:19 16.09.2022
1773 Clouds 11 1017 68 10000 6.17 160 06:47 16.09.2022
1774 Clouds 12 1014 72 10000 7.72 160 02:40 16.09.2022
1775 Clear 10 1014 81 10000 1.54 360 22:52 15.09.2022
1776 Clear 6 1013 87 10000 2.06 40 21:18 15.09.2022
1777 Clear 7 1012 81 10000 1.03 90 19:49 15.09.2022
1778 Clear 7 1010 83 10000 1.54 340 18:29 15.09.2022
1779 Clear 9 1009 82 10000 5.14 10 17:32 15.09.2022
1780 Clear 9 1009 82 10000 5.14 360 16:42 15.09.2022
1781 Clear 8 1010 81 10000 4.63 10 14:30 15.09.2022
1782 Clear 8 1009 81 10000 4.12 20 12:21 15.09.2022
1783 Clear 8 1008 76 10000 4.63 30 09:54 15.09.2022
1784 Clear 10 1008 70 10000 6.17 350 07:50 15.09.2022
1785 Clouds 12 1012 61 10000 7.72 350 03:52 15.09.2022
1786 Clouds 10 1014 77 10000 4.63 20 23:44 14.09.2022
1787 Clear 5 1018 87 10000 3.6 20 21:30 14.09.2022
1788 Clear 2 1013 88 10000 2.06 40 19:34 14.09.2022
1789 Clear 2 1014 88 10000 3.09 30 18:32 14.09.2022
1790 Clear 3 1014 85 10000 2.06 40 16:46 14.09.2022
1791 Clear 4 1018 86 10000 1.54 20 15:34 14.09.2022
1792 Clouds 5 1020 84 10000 1.54 10 13:54 14.09.2022
1793 Clouds 8 1021 73 10000 5.14 140 11:30 14.09.2022
1794 Clouds 8 1021 72 10000 6.17 150 09:48 14.09.2022
1795 Clouds 10 1020 67 10000 8.23 170 06:52 14.09.2022
1796 Clouds 10 1020 68 10000 9.26 180 06:34 14.09.2022
1797 Clouds 10 1020 68 10000 9.26 180 06:34 14.09.2022
1798 Clouds 10 1020 68 10000 9.26 180 06:34 14.09.2022
1799 Clouds 10 1018 72 10000 11.32 180 03:55 14.09.2022
1800 Clouds 9 1019 73 10000 11.83 180 01:46 14.09.2022
1801 Clouds 9 1019 74 10000 13.38 190 01:27 14.09.2022
1802 Clouds 9 1018 75 10000 14.4 190 23:55 13.09.2022
1803 Clouds 8 1018 77 8000 14.92 190 23:37 13.09.2022
1804 Clouds 8 1018 77 8000 14.92 190 23:19 13.09.2022
1805 Clouds 8 1018 81 9000 14.92 200 22:44 13.09.2022
1806 Clouds 7 1016 87 10000 13.38 190 21:44 13.09.2022
1807 Haze 7 1014 93 2500 13.38 210 19:32 13.09.2022
1808 Haze 8 1011 87 2900 10.8 210 17:33 13.09.2022
1809 Clouds 10 1009 65 10000 4.12 340 15:54 13.09.2022
1810 Clouds 10 1009 65 10000 4.12 340 15:54 13.09.2022
1811 Clear 10 1008 71 10000 4.12 320 14:31 13.09.2022
1812 Clear 11 1006 66 10000 6.69 320 12:30 13.09.2022
1813 Clear 13 1004 62 10000 6.69 330 08:34 13.09.2022
1814 Clouds 15 1002 60 10000 9.26 330 04:32 13.09.2022
1815 Clouds 15 1004 69 10000 7.2 340 23:37 12.09.2022
1816 Clouds 14 1004 70 10000 7.2 330 22:49 12.09.2022
1817 Clouds 12 1003 76 10000 6.17 350 21:36 12.09.2022
1818 Clouds 12 1002 79 10000 6.69 10 20:25 12.09.2022
1819 Clear 12 1000 74 10000 6.69 340 18:43 12.09.2022
1820 Clear 13 997 81 10000 8.23 10 16:23 12.09.2022
1821 Clouds 13 995 88 10000 4.12 10 13:41 12.09.2022
1822 Clouds 12 993 92 10000 2.57 40 11:29 12.09.2022
1823 Clouds 12 991 94 10000 1.03 310 09:45 12.09.2022
1824 Rain 17 990 79 10000 4.63 360 04:49 12.09.2022
1825 Rain 15 994 81 10000 1.54 360 03:33 12.09.2022
1826 Rain 13 998 88 10000 3.09 360 23:23 11.09.2022
1827 Clouds 11 1000 94 10000 1.54 320 21:59 11.09.2022
1828 Rain 10 999 96 10000 1.54 340 20:47 11.09.2022
1829 Clouds 10 1001 96 10000 3.09 30 19:53 11.09.2022
1830 Clouds 10 1001 95 10000 2.06 40 19:22 11.09.2022
1831 Rain 10 1002 96 10000 1.03 30 18:20 11.09.2022
1832 Clouds 10 1005 96 10000 2.57 30 16:34 11.09.2022
1833 Clouds 10 1007 93 10000 1.54 360 14:33 11.09.2022
1834 Clouds 12 1009 91 10000 1.03 350 12:40 11.09.2022
1835 Clouds 12 1011 85 10000 0.51 180 08:48 11.09.2022
1836 Rain 14 1010 80 10000 3.6 160 06:56 11.09.2022
1837 Clouds 15 1017 80 10000 2.06 30 00:50 11.09.2022
1838 Clouds 13 1017 90 10000 1.54 30 22:55 10.09.2022
1839 Clouds 10 1018 91 10000 2.06 240 21:25 10.09.2022
1840 Clouds 10 1019 90 10000 1.03 130 19:47 10.09.2022
1841 Clouds 10 1019 91 10000 2.06 230 19:28 10.09.2022
1842 Clouds 10 1019 90 10000 2.57 220 18:51 10.09.2022
1843 Rain 10 1022 85 10000 3.6 60 15:49 10.09.2022
1844 Rain 11 1023 83 10000 3.09 90 14:42 10.09.2022
1845 Clouds 11 1025 83 10000 1.54 80 12:52 10.09.2022
1846 Clouds 12 1026 79 10000 2.06 50 10:58 10.09.2022
1847 Clouds 12 1026 75 10000 1.54 80 09:37 10.09.2022
1848 Rain 13 1026 72 10000 2.57 40 08:36 10.09.2022
1849 Clouds 15 1026 66 10000 5.14 30 06:43 10.09.2022
1850 Clouds 15 1027 71 10000 1.03 200 00:40 10.09.2022
1851 Clouds 13 1027 82 10000 0.51 300 23:32 09.09.2022
1852 Clouds 8 1026 91 10000 1.03 50 21:50 09.09.2022
1853 Clouds 7 1027 94 10000 1.03 40 20:41 09.09.2022
1854 Clouds 7 1026 93 10000 1.54 40 19:24 09.09.2022
1855 Clouds 7 1027 93 10000 1.03 90 18:46 09.09.2022
1856 Clouds 6 1028 91 10000 1.03 70 16:23 09.09.2022
1857 Clouds 8 1028 86 10000 0.51 110 13:48 09.09.2022
1858 Clouds 9 1028 84 10000 1.03 60 12:30 09.09.2022
1859 Clouds 11 1028 80 10000 1.03 50 09:53 09.09.2022
1860 Clouds 13 1026 79 10000 7.2 190 04:57 09.09.2022
1861 Clear 13 1028 73 10000 4.12 220 02:54 09.09.2022
1862 Clear 8 1029 93 10000 1.54 40 21:52 08.09.2022
1863 Clear 8 1028 93 10000 1.54 360 20:51 08.09.2022
1864 Clear 7 1028 93 10000 1.03 30 20:31 08.09.2022
1865 Clear 8 1028 90 10000 1.03 60 19:49 08.09.2022
1866 Clouds 5 1023 88 10000 1.03 60 17:48 08.09.2022
1867 Clear 7 1026 90 10000 1.54 30 16:19 08.09.2022
1868 Clouds 8 1026 85 10000 1.54 140 14:40 08.09.2022
1869 Clouds 7 1026 89 10000 1.54 240 13:26 08.09.2022
1870 Clouds 8 1026 87 10000 1.54 100 11:39 08.09.2022
1871 Clouds 9 1026 86 10000 1.54 50 10:48 08.09.2022
1872 Clouds 11 1024 82 10000 4.12 180 07:57 08.09.2022
1873 Clouds 13 1024 68 10000 4.63 150 06:41 08.09.2022
1874 Clouds 14 1024 66 10000 3.6 170 02:36 08.09.2022
1875 Clouds 14 1025 68 10000 3.6 170 02:18 08.09.2022
1876 Clouds 12 1024 81 10000 1.03 350 00:27 08.09.2022
1877 Clouds 9 1024 95 10000 2.06 30 22:42 07.09.2022
1878 Clouds 7 1023 95 10000 1.03 360 21:42 07.09.2022
1879 Clouds 7 1023 95 10000 1.03 360 21:42 07.09.2022
1880 Clouds 7 1021 93 6000 1.03 270 20:42 07.09.2022
1881 Clouds 7 1021 92 10000 1.03 40 19:40 07.09.2022
1882 Rain 7 1019 89 10000 1.54 50 17:49 07.09.2022
1883 Clouds 8 1022 81 10000 2.06 40 12:52 07.09.2022
1884 Clouds 7 1018 83 10000 2.57 10 10:47 07.09.2022
1885 Clear 9 1016 77 10000 3.6 360 08:38 07.09.2022
1886 Clouds 11 1015 66 10000 5.66 360 06:57 07.09.2022
1887 Clear 12 1016 58 10000 5.66 360 02:46 07.09.2022
1888 Clear 9 1015 77 10000 4.12 20 22:44 06.09.2022
1889 Clear 7 1015 75 10000 2.06 360 21:39 06.09.2022
1890 Clouds 6 1015 74 10000 2.06 10 20:24 06.09.2022
1891 Clouds 6 1014 69 10000 2.06 20 18:45 06.09.2022
1892 Clouds 5 1014 71 10000 1.54 30 18:21 06.09.2022
1893 Clouds 4 1015 87 10000 1.54 20 17:21 06.09.2022
1894 Clouds 6 1015 75 10000 2.06 20 16:37 06.09.2022
1895 Clouds 7 1012 76 10000 4.12 10 14:59 06.09.2022
1896 Clouds 7 1012 81 10000 4.12 30 13:45 06.09.2022
1897 Clouds 7 1012 81 10000 4.63 30 13:22 06.09.2022
1898 Clouds 5 1015 81 10000 3.6 30 11:54 06.09.2022
1899 Clouds 5 1015 75 10000 1.54 20 10:41 06.09.2022
1900 Clouds 4 1012 80 10000 1.03 200 08:41 06.09.2022
1901 Clouds 6 1011 73 10000 2.57 160 07:37 06.09.2022
1902 Clouds 8 1010 73 10000 10.29 200 02:43 06.09.2022
1903 Clouds 6 1008 80 10000 11.83 200 23:22 05.09.2022
1904 Clouds 5 1006 71 10000 13.38 180 21:52 05.09.2022
1905 Clouds 5 1005 78 10000 14.92 180 20:32 05.09.2022
1906 Clouds 5 1003 79 10000 14.4 170 19:19 05.09.2022
1907 Clouds 5 1001 72 8000 16.46 190 18:45 05.09.2022
1908 Clouds 6 1002 73 10000 13.89 180 18:21 05.09.2022
1909 Clouds 6 1002 65 10000 14.92 180 16:35 05.09.2022
1910 Clouds 5 1002 72 10000 15.95 180 15:46 05.09.2022
1911 Clouds 6 1000 80 10000 16.46 160 13:25 05.09.2022
1912 Clouds 5 1000 86 10000 14.92 160 12:26 05.09.2022
1913 Rain 7 998 91 10000 12.86 160 09:19 05.09.2022
1914 Rain 8 997 87 10000 12.35 150 06:40 05.09.2022
1915 Clouds 11 1000 81 10000 1.54 170 01:56 05.09.2022
1916 Clouds 9 1002 90 8000 1.54 320 22:44 04.09.2022
1917 Clouds 9 1002 91 10000 1.54 360 22:26 04.09.2022
1918 Clouds 8 1001 90 10000 2.06 50 20:43 04.09.2022
1919 Clouds 8 1002 88 10000 1.54 50 19:29 04.09.2022
1920 Clouds 9 1002 85 10000 5.66 140 17:50 04.09.2022
1921 Clouds 10 1002 86 10000 7.2 170 16:28 04.09.2022
1922 Clouds 11 1002 67 10000 2.06 320 14:27 04.09.2022
1923 Clear 12 1002 64 10000 5.66 340 12:57 04.09.2022
1924 Clear 12 1001 63 10000 4.63 330 11:52 04.09.2022
1925 Clear 12 1001 63 10000 9.26 340 09:56 04.09.2022
1926 Clear 13 1000 67 10000 10.29 350 07:27 04.09.2022
1927 Clear 14 1001 63 10000 9.26 350 04:00 04.09.2022
1928 Clear 13 1004 62 10000 7.72 340 23:40 03.09.2022
1929 Clear 12 1005 65 10000 6.69 340 22:21 03.09.2022
1930 Clear 11 1004 65 10000 4.63 310 21:23 03.09.2022
1931 Clear 11 1004 78 10000 6.17 320 18:59 03.09.2022
1932 Clear 11 1005 77 10000 3.6 320 17:26 03.09.2022
1933 Clear 12 1006 80 10000 3.6 330 16:27 03.09.2022
1934 Clear 12 1006 79 10000 4.63 340 14:44 03.09.2022
1935 Clear 12 1006 85 10000 7.2 330 13:55 03.09.2022
1936 Clear 12 1006 81 10000 6.69 330 11:51 03.09.2022
1937 Clear 12 1005 86 10000 3.6 340 09:56 03.09.2022
1938 Clouds 13 1005 84 10000 7.72 340 08:26 03.09.2022
1939 Clouds 14 1004 87 10000 7.2 340 06:53 03.09.2022
1940 Clouds 14 1006 90 10000 7.72 340 04:31 03.09.2022
1941 Drizzle 13 1010 94 10000 11.32 350 23:49 02.09.2022
1942 Clouds 13 1010 93 10000 11.32 340 22:39 02.09.2022
1943 Clouds 13 1010 93 10000 11.83 350 20:59 02.09.2022
1944 Haze 13 1010 93 4000 11.32 350 20:27 02.09.2022
1945 Clouds 13 1011 90 10000 10.29 340 18:59 02.09.2022
1946 Clouds 13 1011 89 10000 10.8 350 18:27 02.09.2022
1947 Clouds 13 1012 86 10000 11.83 350 17:36 02.09.2022
1948 Clouds 13 1013 86 10000 12.86 350 16:45 02.09.2022
1949 Rain 13 1016 87 10000 10.29 340 13:51 02.09.2022
1950 Clouds 13 1018 85 10000 8.75 350 11:47 02.09.2022
1951 Clouds 13 1019 83 10000 9.26 350 09:49 02.09.2022
1952 Clouds 13 1019 83 10000 8.75 340 08:56 02.09.2022
1953 Clouds 14 1019 83 10000 9.26 330 07:24 02.09.2022
1954 Clouds 14 1019 84 10000 9.26 340 06:35 02.09.2022
1955 Rain 15 1022 85 10000 8.23 350 02:37 02.09.2022
1956 Clouds 13 1023 88 10000 9.26 360 22:26 01.09.2022
1957 Clouds 13 1023 89 10000 8.23 350 21:40 01.09.2022
1958 Clouds 13 1023 89 10000 8.23 350 21:21 01.09.2022
1959 Clouds 13 1023 89 10000 9.26 350 20:37 01.09.2022
1960 Clouds 13 1023 88 10000 9.77 360 18:49 01.09.2022
1961 Clouds 13 1023 89 10000 10.29 360 17:21 01.09.2022
1962 Clouds 13 1024 88 10000 8.23 350 15:34 01.09.2022
1963 Clouds 13 1024 89 10000 7.2 350 13:55 01.09.2022
1964 Clouds 13 1025 88 10000 7.72 350 12:57 01.09.2022
1965 Clouds 13 1025 88 10000 8.75 360 11:52 01.09.2022
1966 Clouds 13 1026 88 10000 8.23 350 11:30 01.09.2022
1967 Clouds 13 1026 87 10000 9.26 350 09:49 01.09.2022
1968 Clouds 13 1025 88 10000 7.72 350 07:50 01.09.2022
1969 Clouds 14 1024 86 10000 8.75 360 06:21 01.09.2022
1970 Clouds 14 1027 82 10000 9.26 360 01:31 01.09.2022
1971 Clouds 14 1027 82 10000 9.26 360 01:31 01.09.2022
1972 Clouds 14 1027 82 10000 9.26 360 01:31 01.09.2022
1973 Clouds 14 1027 85 10000 7.72 340 23:19 31.08.2022
1974 Clouds 12 1026 88 10000 7.2 350 21:20 31.08.2022
1975 Clouds 12 1025 85 10000 7.72 350 19:23 31.08.2022
1976 Clouds 13 1025 88 10000 9.26 340 17:25 31.08.2022
1977 Clouds 13 1026 85 10000 8.75 350 15:39 31.08.2022
1978 Clouds 13 1026 87 10000 7.72 340 13:38 31.08.2022
1979 Clouds 13 1027 86 10000 7.72 350 12:19 31.08.2022
1980 Clouds 13 1027 82 10000 9.77 350 09:39 31.08.2022
1981 Clouds 13 1026 82 10000 9.26 350 08:32 31.08.2022
1982 Clouds 14 1027 77 10000 9.26 350 03:41 31.08.2022
1983 Clouds 12 1030 81 10000 5.66 30 22:42 30.08.2022
1984 Clouds 11 1029 81 10000 6.17 20 21:33 30.08.2022
1985 Clouds 10 1029 87 10000 7.2 10 20:38 30.08.2022
1986 Clouds 11 1029 86 10000 4.63 30 17:25 30.08.2022
1987 Clear 10 1030 84 10000 4.63 30 14:41 30.08.2022
1988 Clear 10 1031 79 10000 3.6 40 12:54 30.08.2022
1989 Clear 9 1031 86 10000 3.6 40 11:20 30.08.2022
1990 Clear 9 1031 86 10000 4.63 10 10:35 30.08.2022
1991 Clear 12 1030 72 10000 6.17 350 06:49 30.08.2022
1992 Clear 13 1031 68 10000 6.17 10 01:45 30.08.2022
1993 Clear 6 1035 87 10000 3.09 40 22:47 29.08.2022
1994 Clear 5 1035 87 10000 2.57 40 22:18 29.08.2022
1995 Clear 4 1035 93 10000 2.57 40 21:23 29.08.2022
1996 Clear 5 1035 87 10000 2.06 20 19:42 29.08.2022
1997 Clear 6 1035 93 10000 1.54 40 17:42 29.08.2022
1998 Clear 4 1031 88 10000 1.54 40 17:24 29.08.2022
1999 Clear 5 1031 88 10000 2.06 30 15:41 29.08.2022
2000 Clear 5 1033 88 10000 1.54 30 14:18 29.08.2022
2001 Clear 6 1034 84 10000 0.51 30 12:34 29.08.2022
2002 Clear 6 1034 86 10000 1.54 30 10:49 29.08.2022
2003 Clouds 8 1034 80 10000 3.09 70 09:30 29.08.2022
2004 Clouds 10 1034 75 10000 2.57 90 08:27 29.08.2022
2005 Clouds 12 1036 67 10000 3.6 170 02:42 29.08.2022
2006 Clouds 10 1035 72 10000 2.06 140 23:50 28.08.2022
2007 Clouds 8 1035 79 10000 4.12 140 21:57 28.08.2022
2008 Clouds 7 1035 79 10000 4.63 140 21:31 28.08.2022
2009 Clouds 8 1034 74 10000 3.6 130 20:24 28.08.2022
2010 Clouds 9 1033 67 10000 5.66 140 18:38 28.08.2022
2011 Clouds 9 1033 66 10000 5.66 140 18:19 28.08.2022
2012 Clouds 9 1033 72 10000 6.17 150 16:55 28.08.2022
2013 Clouds 10 1034 77 10000 8.23 150 15:42 28.08.2022
2014 Clouds 9 1033 85 10000 8.23 150 13:34 28.08.2022
2015 Clouds 9 1034 87 10000 9.26 170 12:31 28.08.2022
2016 Clouds 10 1033 86 10000 8.75 160 10:27 28.08.2022
2017 Clouds 10 1033 86 10000 9.77 160 09:38 28.08.2022
2018 Clouds 10 1032 83 10000 8.75 160 08:31 28.08.2022
2019 Clouds 10 1031 80 10000 9.77 170 07:32 28.08.2022
2020 Clouds 10 1029 90 10000 7.72 160 01:00 28.08.2022
2021 Clouds 9 1029 94 7000 9.26 170 00:20 28.08.2022
2022 Clouds 9 1028 90 9000 8.23 170 22:27 27.08.2022
2023 Clouds 10 1026 85 10000 8.23 160 20:49 27.08.2022
2024 Clouds 9 1025 89 10000 7.72 170 19:37 27.08.2022
2025 Clouds 9 1024 85 10000 7.72 180 16:34 27.08.2022
2026 Clouds 9 1024 81 10000 7.72 180 15:31 27.08.2022
2027 Clouds 9 1024 83 10000 4.63 170 13:57 27.08.2022
2028 Clouds 9 1023 86 10000 7.2 180 12:22 27.08.2022
2029 Clouds 9 1022 87 10000 6.69 170 10:30 27.08.2022
2030 Clouds 10 1022 83 10000 5.66 170 09:39 27.08.2022
2031 Clouds 11 1020 80 10000 7.2 170 06:55 27.08.2022
2032 Clouds 12 1018 77 10000 7.2 170 02:27 27.08.2022
2033 Clouds 11 1017 80 10000 8.75 170 23:49 26.08.2022
2034 Clouds 10 1017 82 10000 9.26 180 21:59 26.08.2022
2035 Clouds 10 1015 85 10000 9.26 180 20:23 26.08.2022
2036 Clouds 10 1014 82 10000 10.29 190 18:32 26.08.2022
2037 Clouds 10 1014 83 10000 12.35 190 16:40 26.08.2022
2038 Clouds 10 1014 87 10000 12.86 190 15:26 26.08.2022
2039 Clouds 10 1013 89 10000 11.83 190 13:26 26.08.2022
2040 Clouds 10 1013 89 10000 11.32 170 12:34 26.08.2022
2041 Clouds 10 1013 87 10000 11.83 180 11:22 26.08.2022
2042 Clouds 11 1012 91 10000 11.83 180 09:53 26.08.2022
2043 Clouds 11 1008 94 10000 12.35 170 04:56 26.08.2022
2044 Mist 11 1006 96 4300 11.32 160 00:55 26.08.2022
2045 Clouds 10 1005 95 6000 15.43 200 22:45 25.08.2022
2046 Clouds 10 1005 96 10000 13.38 200 20:57 25.08.2022
2047 Mist 10 1004 96 5000 12.86 190 19:47 25.08.2022
2048 Rain 11 1003 96 6000 6.17 180 18:36 25.08.2022
2049 Rain 11 1003 96 7000 4.12 160 17:32 25.08.2022
2050 Rain 11 1003 95 8000 4.63 180 16:46 25.08.2022
2051 Rain 10 1004 95 10000 2.06 160 15:37 25.08.2022
2052 Clouds 10 1005 95 10000 2.06 190 14:30 25.08.2022
2053 Rain 11 1007 93 9000 0.51 90 11:34 25.08.2022
2054 Rain 11 1007 93 10000 2.06 20 10:45 25.08.2022
2055 Rain 12 1008 92 10000 3.6 240 08:41 25.08.2022
2056 Clouds 14 1010 75 10000 4.12 190 04:40 25.08.2022
2057 Clouds 14 1014 86 10000 4.12 10 23:56 24.08.2022
2058 Clouds 13 1014 91 10000 1.54 30 23:25 24.08.2022
2059 Mist 12 1014 95 2400 0.51 340 21:59 24.08.2022
2060 Mist 11 1014 94 4200 1.54 170 21:31 24.08.2022
2061 Clouds 12 1014 94 10000 3.6 190 20:18 24.08.2022
2062 Clouds 13 1013 89 10000 3.09 340 17:32 24.08.2022
2063 Clouds 13 1013 90 10000 2.57 350 16:22 24.08.2022
2064 Clouds 13 1013 89 10000 5.14 350 15:40 24.08.2022
2065 Clouds 13 1013 88 10000 8.23 360 12:52 24.08.2022
2066 Clouds 13 1013 87 10000 6.69 350 11:22 24.08.2022
2067 Clouds 13 1012 87 10000 6.69 350 09:19 24.08.2022
2068 Clouds 13 1011 84 10000 12.35 350 06:52 24.08.2022
2069 Clouds 13 1011 74 10000 12.86 340 01:43 24.08.2022
2070 Clouds 11 1011 75 10000 14.92 360 22:51 23.08.2022
2071 Clouds 12 1011 73 10000 15.95 10 22:21 23.08.2022
2072 Clouds 11 1011 76 10000 13.38 20 21:21 23.08.2022
2073 Clouds 11 1011 79 10000 11.83 10 19:28 23.08.2022
2074 Clouds 11 1011 81 10000 11.83 10 18:21 23.08.2022
2075 Clouds 12 1011 85 10000 12.35 10 17:31 23.08.2022
2076 Clouds 12 1011 88 10000 11.83 20 16:31 23.08.2022
2077 Clouds 12 1012 89 10000 11.32 10 14:54 23.08.2022
2078 Clouds 12 1013 89 10000 8.75 20 13:25 23.08.2022
2079 Clouds 12 1013 88 10000 7.72 20 11:19 23.08.2022
2080 Clouds 13 1013 88 10000 8.75 10 10:33 23.08.2022
2081 Clouds 12 1013 89 10000 6.69 20 09:46 23.08.2022
2082 Clouds 12 1013 88 10000 6.17 20 08:47 23.08.2022
2083 Clouds 12 1012 88 10000 6.69 20 08:19 23.08.2022
2084 Clouds 12 1013 87 10000 6.17 20 07:33 23.08.2022
2085 Clouds 13 1013 86 10000 6.69 360 06:25 23.08.2022
2086 Clouds 13 1015 86 10000 1.03 250 01:52 23.08.2022
2087 Clouds 11 1015 89 10000 3.09 200 00:27 23.08.2022
2088 Clouds 11 1016 91 10000 3.09 180 23:32 22.08.2022
2089 Clouds 10 1015 92 10000 4.63 210 22:25 22.08.2022
2090 Clouds 10 1015 92 10000 4.63 200 20:58 22.08.2022
2091 Clouds 10 1014 92 10000 5.66 180 19:46 22.08.2022
2092 Clouds 10 1014 93 10000 5.66 180 18:38 22.08.2022
2093 Clouds 10 1014 94 10000 6.17 180 16:23 22.08.2022
2094 Clouds 10 1014 94 10000 7.2 180 15:36 22.08.2022
2095 Clouds 11 1014 95 10000 7.2 170 12:55 22.08.2022
2096 Clouds 11 1013 92 10000 6.69 170 09:57 22.08.2022
2097 Drizzle 14 1011 86 10000 5.14 150 07:21 22.08.2022
2098 Clouds 15 1011 81 10000 4.63 10 02:42 22.08.2022
2099 Clouds 15 1012 85 10000 5.66 30 00:37 22.08.2022
2100 Rain 13 1012 89 10000 5.14 20 23:34 21.08.2022
2101 Clouds 12 1012 91 10000 5.14 30 21:57 21.08.2022
2102 Clouds 12 1012 90 10000 6.17 30 21:21 21.08.2022
2103 Clouds 12 1012 89 10000 6.69 20 20:21 21.08.2022
2104 Clouds 12 1012 87 10000 7.72 350 19:18 21.08.2022
2105 Clouds 12 1012 87 10000 6.17 350 16:52 21.08.2022
2106 Clouds 12 1012 86 10000 7.72 350 15:53 21.08.2022
2107 Clouds 13 1012 89 10000 8.75 360 14:59 21.08.2022
2108 Clouds 13 1012 88 10000 7.72 340 13:51 21.08.2022
2109 Clouds 13 1012 90 10000 8.23 350 12:57 21.08.2022
2110 Clouds 14 1010 90 10000 10.29 360 10:48 21.08.2022
2111 Clouds 14 1009 89 10000 8.23 350 09:21 21.08.2022
2112 Clouds 14 1010 89 10000 8.23 350 08:56 21.08.2022
2113 Clouds 14 1009 90 10000 7.72 340 08:38 21.08.2022
2114 Clouds 14 1009 90 10000 8.23 350 07:26 21.08.2022
2115 Rain 15 1009 92 10000 8.75 350 02:52 21.08.2022
2116 Clouds 14 1010 92 10000 8.75 10 23:44 20.08.2022
2117 Clouds 13 1009 93 10000 8.23 10 22:23 20.08.2022
2118 Clouds 13 1009 93 10000 8.23 360 21:22 20.08.2022
2119 Clouds 13 1009 91 10000 9.77 340 19:58 20.08.2022
2120 Clouds 13 1009 92 10000 9.77 340 19:39 20.08.2022
2121 Clouds 13 1009 92 10000 9.26 340 18:27 20.08.2022
2122 Clouds 13 1009 92 10000 8.23 340 17:25 20.08.2022
2123 Rain 13 1009 92 10000 9.26 350 16:23 20.08.2022
2124 Clouds 13 1008 95 10000 8.75 340 14:35 20.08.2022
2125 Haze 15 1008 96 3000 6.69 340 12:19 20.08.2022
2126 Clouds 15 1008 95 10000 8.75 340 11:42 20.08.2022
2127 Mist 15 1008 97 3800 8.23 350 09:20 20.08.2022
2128 Mist 15 1007 96 3100 5.14 30 07:31 20.08.2022
2129 Clouds 15 1006 89 10000 6.69 10 05:48 20.08.2022
2130 Mist 15 1008 95 3000 10.29 350 00:58 20.08.2022
2131 Clouds 15 1007 95 9000 7.2 20 23:51 19.08.2022
2132 Rain 15 1007 95 10000 8.75 10 22:45 19.08.2022
2133 Rain 16 1007 93 7000 8.75 10 21:30 19.08.2022
2134 Rain 17 1008 86 10000 12.35 10 19:40 19.08.2022
2135 Rain 17 1010 86 10000 9.26 10 16:28 19.08.2022
2136 Rain 17 1012 93 10000 9.26 20 13:56 19.08.2022
2137 Rain 17 1014 94 10000 8.75 10 12:19 19.08.2022
2138 Rain 17 1015 95 5000 7.2 20 10:39 19.08.2022
2139 Drizzle 17 1015 96 10000 6.17 20 08:48 19.08.2022
2140 Rain 17 1015 96 2500 5.14 20 04:43 19.08.2022
2141 Rain 16 1017 97 1900 5.14 20 00:42 19.08.2022
2142 Mist 16 1017 97 1900 5.14 20 00:19 19.08.2022
2143 Drizzle 16 1016 96 8000 9.26 360 22:58 18.08.2022
2144 Haze 16 1016 97 4400 11.32 360 22:26 18.08.2022
2145 Drizzle 16 1016 96 4200 11.83 350 21:50 18.08.2022
2146 Rain 16 1015 97 2800 9.77 350 20:55 18.08.2022
2147 Haze 16 1014 97 2000 8.75 340 19:39 18.08.2022
2148 Haze 16 1014 97 2000 8.75 340 19:20 18.08.2022
2149 Rain 16 1012 96 2500 11.83 340 17:38 18.08.2022
2150 Rain 16 1013 95 2300 12.35 350 16:18 18.08.2022
2151 Rain 16 1011 95 4000 11.83 360 14:22 18.08.2022
2152 Rain 16 1011 95 4600 12.35 360 13:44 18.08.2022
2153 Haze 16 1011 95 4600 12.35 360 13:44 18.08.2022
2154 Haze 16 1011 94 3600 13.38 360 12:30 18.08.2022
2155 Rain 16 1011 94 4800 11.83 360 11:20 18.08.2022
2156 Rain 16 1011 92 10000 12.86 360 09:43 18.08.2022
2157 Rain 17 1010 94 8000 11.32 10 07:27 18.08.2022
2158 Rain 16 1011 94 9000 11.32 10 06:30 18.08.2022
2159 Rain 16 1014 93 4500 7.72 10 02:22 18.08.2022
2160 Rain 15 1015 90 9000 6.17 20 22:47 17.08.2022
2161 Drizzle 14 1015 93 10000 3.6 10 20:30 17.08.2022
2162 Clouds 14 1015 92 10000 3.6 360 19:59 17.08.2022
2163 Rain 14 1016 93 10000 3.09 10 18:37 17.08.2022
2164 Rain 14 1018 91 10000 7.2 10 17:21 17.08.2022
2165 Rain 15 1019 92 10000 4.63 20 16:20 17.08.2022
2166 Rain 15 1020 92 10000 4.63 360 14:41 17.08.2022
2167 Clouds 15 1020 91 10000 8.75 360 12:30 17.08.2022
2168 Drizzle 15 1020 91 10000 7.2 10 11:25 17.08.2022
2169 Rain 15 1019 91 10000 7.72 10 09:22 17.08.2022
2170 Rain 16 1018 89 10000 10.29 10 06:34 17.08.2022
2171 Rain 15 1018 90 10000 10.29 10 01:22 17.08.2022
2172 Rain 15 1018 87 10000 8.75 10 23:27 16.08.2022
2173 Rain 14 1018 87 10000 7.72 20 21:33 16.08.2022
2174 Rain 13 1018 88 10000 6.17 20 20:22 16.08.2022
2175 Drizzle 13 1018 88 10000 7.2 360 19:27 16.08.2022
2176 Rain 13 1019 87 10000 8.23 10 17:56 16.08.2022
2177 Rain 13 1020 86 10000 7.2 10 16:55 16.08.2022
2178 Rain 13 1020 86 10000 7.2 360 15:45 16.08.2022
2179 Rain 14 1020 80 10000 6.69 360 14:54 16.08.2022
2180 Rain 15 1021 78 10000 8.75 10 14:36 16.08.2022
2181 Rain 15 1022 72 10000 5.14 10 12:33 16.08.2022
2182 Rain 15 1022 73 10000 4.63 350 10:23 16.08.2022
2183 Rain 16 1022 73 10000 6.69 10 08:54 16.08.2022
2184 Rain 15 1022 72 10000 6.17 10 08:21 16.08.2022
2185 Rain 16 1022 67 10000 8.23 350 06:32 16.08.2022
2186 Rain 14 1024 76 10000 8.23 10 23:56 15.08.2022
2187 Rain 13 1024 78 10000 8.23 10 22:23 15.08.2022
2188 Clouds 13 1024 79 10000 7.72 10 21:50 15.08.2022
2189 Clouds 13 1023 80 10000 3.6 20 20:32 15.08.2022
2190 Rain 12 1023 81 10000 4.63 350 19:59 15.08.2022
2191 Clouds 11 1024 84 10000 4.12 360 17:59 15.08.2022
2192 Rain 10 1025 80 10000 3.09 30 16:25 15.08.2022
2193 Rain 9 1025 86 10000 4.63 360 15:52 15.08.2022
2194 Clouds 8 1025 90 10000 3.09 20 13:50 15.08.2022
2195 Clouds 8 1025 86 10000 2.06 20 11:24 15.08.2022
2196 Clouds 10 1025 86 10000 3.09 10 09:40 15.08.2022
2197 Clouds 11 1024 81 10000 4.63 350 07:32 15.08.2022
2198 Clouds 13 1024 75 10000 5.14 360 04:34 15.08.2022
2199 Clouds 12 1026 79 10000 2.57 10 00:33 15.08.2022
2200 Clouds 10 1025 83 10000 3.09 30 22:30 14.08.2022
2201 Clouds 10 1024 81 10000 4.63 360 21:37 14.08.2022
2202 Clouds 10 1023 80 10000 5.14 20 19:47 14.08.2022
2203 Clouds 10 1023 79 10000 5.66 360 18:53 14.08.2022
2204 Clouds 10 1023 78 10000 6.17 360 18:18 14.08.2022
2205 Clouds 10 1023 78 10000 8.23 360 16:50 14.08.2022
2206 Clouds 11 1023 77 10000 8.23 350 15:48 14.08.2022
2207 Clouds 11 1022 79 10000 8.75 360 14:19 14.08.2022
2208 Clouds 11 1021 77 10000 9.26 360 13:49 14.08.2022
2209 Clouds 11 1022 76 10000 10.8 360 13:19 14.08.2022
2210 Clouds 11 1022 78 10000 9.26 350 11:56 14.08.2022
2211 Clouds 11 1022 77 10000 8.23 350 10:40 14.08.2022
2212 Clouds 11 1021 75 10000 8.75 360 08:50 14.08.2022
2213 Clouds 11 1021 77 10000 8.75 360 06:21 14.08.2022
2214 Clouds 12 1022 78 10000 10.29 360 02:47 14.08.2022
2215 Clouds 10 1024 83 10000 7.2 20 23:49 13.08.2022
2216 Clouds 9 1024 86 10000 6.69 30 22:52 13.08.2022
2217 Clouds 7 1024 89 10000 6.17 20 20:58 13.08.2022
2218 Clouds 8 1023 90 10000 5.66 30 20:28 13.08.2022
2219 Clouds 8 1023 90 10000 5.66 30 19:24 13.08.2022
2220 Clouds 7 1022 91 10000 4.12 10 17:40 13.08.2022
2221 Clear 5 1026 93 10000 3.09 10 15:23 13.08.2022
2222 Clear 5 1026 87 10000 3.6 360 14:26 13.08.2022
2223 Clear 5 1026 87 10000 3.09 10 13:38 13.08.2022
2224 Clear 5 1026 87 10000 1.54 360 11:52 13.08.2022
2225 Clear 5 1023 83 10000 1.54 30 09:58 13.08.2022
2226 Clear 7 1021 79 10000 1.03 220 08:23 13.08.2022
2227 Clear 7 1021 79 10000 1.03 220 08:23 13.08.2022
2228 Clear 11 1021 62 10000 3.6 220 04:21 13.08.2022
2229 Clouds 8 1022 88 10000 3.09 360 23:52 12.08.2022
2230 Clouds 8 1023 76 10000 5.14 230 21:42 12.08.2022
2231 Clouds 6 1022 78 10000 6.17 230 20:51 12.08.2022
2232 Clouds 6 1022 78 10000 7.2 190 19:39 12.08.2022
2233 Clouds 6 1021 80 10000 7.72 200 18:46 12.08.2022
2234 Clouds 5 1022 88 10000 1.79 264 16:37 12.08.2022
2235 Clouds 5 1022 91 10000 1.54 60 15:41 12.08.2022
2236 Clouds 5 1021 89 10000 2.06 40 14:29 12.08.2022
2237 Clouds 5 1020 89 10000 2.06 40 12:53 12.08.2022
2238 Clouds 5 1020 89 10000 2.06 40 12:53 12.08.2022
2239 Clear 5 1020 88 10000 1.54 50 10:35 12.08.2022
2240 Clouds 6 1019 86 10000 1.54 190 07:47 12.08.2022
2241 Clouds 9 1018 78 10000 3.09 200 06:38 12.08.2022
2242 Clouds 9 1020 84 10000 2.06 190 02:33 12.08.2022
2243 Clouds 8 1021 90 10000 1.54 330 00:24 12.08.2022
2244 Clouds 8 1021 91 10000 1.54 30 23:35 11.08.2022
2245 Clouds 6 1021 92 10000 5.14 180 22:26 11.08.2022
2246 Clouds 6 1020 92 10000 5.66 180 21:40 11.08.2022
2247 Clouds 6 1020 92 10000 5.14 170 20:51 11.08.2022
2248 Clouds 7 1019 91 10000 6.69 160 20:19 11.08.2022
2249 Clouds 6 1019 92 10000 8.75 190 19:32 11.08.2022
2250 Haze 6 1020 93 4400 8.75 160 17:48 11.08.2022
2251 Rain 6 1019 94 10000 3.13 209 16:35 11.08.2022
2252 Haze 5 1019 94 4500 7.72 190 15:24 11.08.2022
2253 Clouds 6 1018 90 10000 4.63 150 13:37 11.08.2022
2254 Haze 6 1021 91 3400 6.69 140 10:27 11.08.2022
2255 Clouds 8 1019 85 10000 8.75 180 07:38 11.08.2022
2256 Clouds 8 1019 88 10000 9.77 180 03:52 11.08.2022
2257 Rain 7 1020 90 6000 10.8 180 00:37 11.08.2022
2258 Clouds 6 1019 86 10000 10.8 180 22:32 10.08.2022
2259 Clouds 7 1018 80 10000 9.77 180 21:25 10.08.2022
2260 Clouds 6 1018 81 10000 11.32 180 20:55 10.08.2022
2261 Clouds 7 1016 81 10000 8.23 160 19:27 10.08.2022
2262 Clouds 6 1016 79 10000 9.26 160 18:22 10.08.2022
2263 Clouds 6 1016 83 10000 9.26 150 16:36 10.08.2022
2264 Clouds 6 1015 87 10000 8.23 170 13:36 10.08.2022
2265 Clouds 6 1015 89 10000 8.23 170 12:44 10.08.2022
2266 Clouds 7 1013 89 10000 8.75 170 09:25 10.08.2022
2267 Clouds 7 1013 88 10000 8.23 180 08:34 10.08.2022
2268 Clouds 7 1012 88 10000 7.72 170 07:19 10.08.2022
2269 Clouds 8 1012 78 10000 7.72 170 03:28 10.08.2022
2270 Clouds 6 1013 86 9000 8.75 160 23:51 09.08.2022
2271 Clouds 7 1012 75 10000 8.75 170 23:24 09.08.2022
2272 Clouds 6 1012 75 10000 9.77 180 21:36 09.08.2022
2273 Clouds 6 1011 79 10000 10.29 170 20:36 09.08.2022
2274 Clouds 6 1010 80 10000 10.8 170 18:45 09.08.2022
2275 Clouds 6 1011 79 10000 10.8 180 17:31 09.08.2022
2276 Clouds 7 1011 78 10000 10.8 170 16:42 09.08.2022
2277 Clouds 7 1011 78 10000 10.8 180 15:58 09.08.2022
2278 Clouds 7 1012 83 10000 11.83 170 13:51 09.08.2022
2279 Rain 8 1012 85 10000 11.83 160 10:39 09.08.2022
2280 Rain 8 1012 91 7000 13.38 160 08:51 09.08.2022
2281 Rain 8 1011 92 10000 12.86 150 07:54 09.08.2022
2282 Rain 9 1013 96 3200 11.32 160 04:28 09.08.2022
2283 Rain 9 1013 97 5000 12.35 170 23:46 08.08.2022
2284 Rain 8 1013 97 3000 12.86 180 22:56 08.08.2022
2285 Rain 8 1013 96 3900 12.35 180 22:22 08.08.2022
2286 Rain 8 1013 95 2400 14.92 190 21:27 08.08.2022
2287 Rain 7 1012 95 4900 14.92 180 19:51 08.08.2022
2288 Rain 7 1012 95 4900 13.38 180 18:58 08.08.2022
2289 Rain 7 1013 93 9000 14.4 180 16:47 08.08.2022
2290 Rain 7 1014 91 10000 13.89 180 15:40 08.08.2022
2291 Rain 7 1014 91 10000 13.89 170 14:29 08.08.2022
2292 Rain 7 1015 95 4900 13.89 170 12:27 08.08.2022
2293 Rain 7 1015 93 5000 14.4 170 09:48 08.08.2022
2294 Clouds 7 1014 94 10000 14.92 170 06:54 08.08.2022
2295 Rain 8 1013 95 5000 15.95 170 03:31 08.08.2022
2296 Rain 6 1013 94 7000 16.98 180 22:42 07.08.2022
2297 Haze 6 1012 95 4800 16.46 180 21:40 07.08.2022
2298 Rain 6 1011 94 4000 15.95 180 20:26 07.08.2022
2299 Rain 6 1011 94 4000 15.95 180 20:26 07.08.2022
2300 Rain 6 1010 95 3800 15.95 180 19:57 07.08.2022
2301 Rain 7 1009 95 3500 16.98 190 19:39 07.08.2022
2302 Rain 7 1008 95 1500 18.01 190 18:36 07.08.2022
2303 Rain 7 1007 94 1900 20.06 200 16:55 07.08.2022
2304 Rain 7 1007 94 2300 19.03 200 16:35 07.08.2022
2305 Haze 7 1007 92 3800 19.55 200 15:23 07.08.2022
2306 Haze 8 1006 89 4100 16.98 200 13:34 07.08.2022
2307 Clouds 9 1005 92 8000 12.35 190 11:58 07.08.2022
2308 Clouds 14 1005 82 10000 4.12 340 10:34 07.08.2022
2309 Clouds 14 1001 87 10000 6.17 340 07:38 07.08.2022
2310 Clouds 15 1001 80 10000 8.23 340 03:32 07.08.2022
2311 Clear 14 1002 80 10000 6.69 360 01:45 07.08.2022
2312 Clouds 12 998 92 10000 5.66 40 22:25 06.08.2022
2313 Clouds 12 998 93 10000 5.66 20 21:18 06.08.2022
2314 Clouds 13 997 93 10000 5.14 360 19:41 06.08.2022
2315 Clouds 13 996 93 10000 7.72 340 18:30 06.08.2022
2316 Clouds 13 996 93 10000 9.77 340 17:33 06.08.2022
2317 Rain 13 996 93 10000 8.75 330 14:48 06.08.2022
2318 Clouds 14 996 95 2800 12.35 350 13:49 06.08.2022
2319 Haze 14 997 95 4300 13.38 360 11:59 06.08.2022
2320 Rain 13 998 94 10000 14.92 350 10:33 06.08.2022
2321 Rain 14 999 91 10000 12.86 360 08:40 06.08.2022
2322 Clouds 14 1001 89 10000 13.38 350 03:53 06.08.2022
2323 Clouds 13 1006 88 10000 10.8 10 23:54 05.08.2022
2324 Clouds 13 1006 90 10000 10.29 360 22:33 05.08.2022
2325 Drizzle 12 1006 93 10000 9.77 10 19:59 05.08.2022
2326 Clouds 13 1007 93 3000 10.8 10 18:47 05.08.2022
2327 Clouds 13 1007 92 10000 11.83 10 18:27 05.08.2022
2328 Clouds 13 1008 93 10000 11.83 10 16:50 05.08.2022
2329 Drizzle 13 1008 92 9000 12.35 10 15:23 05.08.2022
2330 Clouds 13 1009 90 10000 10.8 10 14:32 05.08.2022
2331 Clouds 13 1010 89 10000 10.29 10 13:25 05.08.2022
2332 Clouds 13 1011 87 10000 9.77 20 12:44 05.08.2022
2333 Clouds 13 1013 86 10000 10.8 360 10:55 05.08.2022
2334 Clouds 13 1013 88 10000 12.86 350 08:36 05.08.2022
2335 Clouds 13 1013 87 10000 11.32 360 07:23 05.08.2022
2336 Clouds 13 1018 86 10000 11.83 360 01:28 05.08.2022
2337 Clouds 12 1019 88 10000 12.86 10 22:33 04.08.2022
2338 Clouds 12 1018 86 10000 10.8 20 21:27 04.08.2022
2339 Clouds 12 1018 88 10000 9.77 30 20:45 04.08.2022
2340 Clouds 12 1018 87 10000 9.77 20 19:49 04.08.2022
2341 Clouds 12 1018 86 10000 10.29 20 18:51 04.08.2022
2342 Clouds 12 1018 86 10000 11.32 360 18:32 04.08.2022
2343 Clouds 12 1020 84 10000 9.77 350 14:39 04.08.2022
2344 Clouds 12 1020 83 10000 10.8 360 13:22 04.08.2022
2345 Clouds 12 1020 86 10000 8.75 360 11:37 04.08.2022
2346 Clouds 13 1019 87 10000 10.8 10 07:56 04.08.2022
2347 Clouds 13 1018 86 10000 11.32 360 07:26 04.08.2022
2348 Clouds 14 1020 80 10000 8.75 10 02:38 04.08.2022
2349 Clouds 13 1021 85 10000 8.23 350 23:52 03.08.2022
2350 Clouds 13 1021 86 10000 9.26 360 23:33 03.08.2022
2351 Clouds 12 1021 89 10000 7.2 360 21:26 03.08.2022
2352 Clouds 12 1020 90 10000 7.72 10 19:56 03.08.2022
2353 Clouds 12 1020 89 10000 7.72 20 18:40 03.08.2022
2354 Clear 11 1020 88 10000 5.66 20 16:27 03.08.2022
2355 Clear 11 1020 89 10000 6.17 20 15:53 03.08.2022
2356 Clear 12 1019 89 10000 5.14 30 13:32 03.08.2022
2357 Clear 13 1018 90 10000 6.69 10 09:55 03.08.2022
2358 Clouds 13 1016 87 10000 7.72 10 07:21 03.08.2022
2359 Clouds 14 1015 85 10000 9.26 360 04:22 03.08.2022
2360 Clouds 14 1015 86 10000 9.26 340 03:22 03.08.2022
2361 Clouds 13 1015 89 10000 9.26 340 00:46 03.08.2022
2362 Clouds 13 1014 90 10000 7.6 24 22:33 02.08.2022
2363 Clouds 13 1014 92 10000 9.77 330 21:50 02.08.2022
2364 Clouds 13 1014 92 10000 11.32 340 20:27 02.08.2022
2365 Clouds 13 1014 90 5000 11.83 350 16:52 02.08.2022
2366 Rain 13 1015 89 6000 11.83 340 14:33 02.08.2022
2367 Clouds 13 1015 87 10000 11.32 350 10:44 02.08.2022
2368 Clouds 13 1015 89 10000 10.29 350 08:38 02.08.2022
2369 Clouds 13 1015 86 10000 10.8 350 07:51 02.08.2022
2370 Clouds 13 1016 84 10000 13.38 350 04:57 02.08.2022
2371 Clouds 13 1016 83 10000 11.83 330 03:30 02.08.2022
2372 Clouds 12 1017 84 10000 10.29 340 23:26 01.08.2022
2373 Clouds 12 1018 81 10000 9.77 340 21:49 01.08.2022
2374 Clouds 12 1018 81 10000 8.75 350 20:27 01.08.2022
2375 Clouds 12 1018 81 10000 9.77 360 19:21 01.08.2022
2376 Clouds 11 1018 81 10000 8.23 350 17:22 01.08.2022
2377 Clouds 11 1019 78 10000 10.29 340 16:48 01.08.2022
2378 Clouds 11 1019 79 10000 9.26 20 15:46 01.08.2022
2379 Clouds 11 1019 76 10000 9.26 360 15:19 01.08.2022
2380 Clouds 11 1019 75 10000 7.72 350 13:39 01.08.2022
2381 Clear 11 1019 71 10000 7.2 340 11:38 01.08.2022
2382 Clear 11 1019 78 10000 5.14 360 09:38 01.08.2022
2383 Clear 10 1019 78 10000 4.63 360 08:18 01.08.2022
2384 Clear 12 1018 65 10000 5.66 340 04:44 01.08.2022
2385 Clouds 11 1019 75 10000 5.66 10 02:31 01.08.2022
2386 Clouds 7 1020 90 10000 3.09 30 22:54 31.07.2022
2387 Clouds 7 1020 91 10000 3.09 40 22:36 31.07.2022
2388 Clear 6 1019 90 10000 2.57 20 20:46 31.07.2022
2389 Clouds 4 1019 93 10000 2.57 30 18:52 31.07.2022
2390 Clear 5 1017 84 10000 2.57 30 17:34 31.07.2022
2391 Clear 6 1017 74 10000 3.09 30 15:30 31.07.2022
2392 Clear 4 1017 93 10000 2.57 40 13:21 31.07.2022
2393 Clear 5 1012 88 10000 2.06 40 11:44 31.07.2022
2394 Clear 6 1010 86 10000 1.54 60 09:18 31.07.2022
2395 Clouds 9 1009 76 10000 11.32 200 06:31 31.07.2022
2396 Clouds 9 1006 83 9000 15.43 200 02:31 31.07.2022
2397 Haze 6 1004 92 5000 17.49 210 23:23 30.07.2022
2398 Rain 6 1001 93 2700 16.98 210 21:55 30.07.2022
2399 Rain 6 1001 92 1800 17.49 220 21:37 30.07.2022
2400 Rain 6 999 92 3200 18.52 220 20:38 30.07.2022
2401 Rain 6 998 93 2400 17.49 200 19:57 30.07.2022
2402 Rain 6 998 95 1900 11.32 180 18:23 30.07.2022
2403 Rain 11 996 89 10000 6.17 30 16:44 30.07.2022
2404 Haze 11 997 91 5000 6.69 10 15:34 30.07.2022
2405 Rain 11 998 90 10000 8.75 10 14:26 30.07.2022
2406 Rain 12 999 82 10000 11.83 360 12:43 30.07.2022
2407 Rain 13 1000 80 10000 11.32 10 11:55 30.07.2022
2408 Rain 13 1001 83 10000 8.75 20 10:20 30.07.2022
2409 Clouds 13 1002 83 10000 9.26 10 09:42 30.07.2022
2410 Clouds 12 1003 85 10000 9.26 10 07:44 30.07.2022
2411 Rain 12 1009 93 10000 7.2 10 02:34 30.07.2022
2412 Rain 12 1010 93 4800 4.63 10 01:21 30.07.2022
2413 Clouds 10 1011 91 10000 1.03 170 21:39 29.07.2022
2414 Clouds 11 1011 89 10000 1.54 20 20:58 29.07.2022
2415 Clouds 11 1011 88 10000 2.57 20 19:48 29.07.2022
2416 Clouds 12 1011 88 10000 4.12 350 17:40 29.07.2022
2417 Clouds 12 1010 87 10000 8.23 330 14:53 29.07.2022
2418 Clouds 12 1009 84 10000 8.75 330 12:58 29.07.2022
2419 Clouds 12 1008 79 10000 7.2 350 09:49 29.07.2022
2420 Clouds 12 1008 79 10000 7.2 350 08:48 29.07.2022
2421 Clouds 12 1007 78 10000 7.72 360 07:39 29.07.2022
2422 Clouds 14 1003 72 10000 6.17 340 01:46 29.07.2022
2423 Clouds 11 1000 87 10000 4.63 360 21:57 28.07.2022
2424 Clouds 11 1000 89 10000 1.54 360 20:55 28.07.2022
2425 Clouds 11 999 89 10000 1.03 70 20:27 28.07.2022
2426 Clouds 10 998 88 10000 0.45 278 19:42 28.07.2022
2427 Clouds 11 998 89 10000 1.03 330 18:27 28.07.2022
2428 Clouds 11 998 89 10000 2.06 350 17:43 28.07.2022
2429 Clouds 11 997 87 10000 3.09 350 16:41 28.07.2022
2430 Clouds 11 996 85 10000 2.57 330 14:58 28.07.2022
2431 Clouds 12 996 88 10000 3.09 350 12:51 28.07.2022
2432 Clouds 12 994 89 10000 3.6 360 09:45 28.07.2022
2433 Clouds 13 993 86 10000 5.14 330 06:24 28.07.2022
2434 Clouds 13 993 85 10000 6.69 330 05:26 28.07.2022
2435 Rain 12 993 93 10000 10.8 360 00:45 28.07.2022
2436 Clouds 12 993 89 10000 9.26 10 22:34 27.07.2022
2437 Clouds 12 994 91 10000 5.14 20 20:56 27.07.2022
2438 Rain 12 995 92 8000 8.23 20 19:34 27.07.2022
2439 Rain 12 997 89 10000 6.17 10 17:38 27.07.2022
2440 Rain 12 998 86 10000 10.29 350 15:52 27.07.2022
2441 Clouds 12 999 89 10000 7.2 350 14:55 27.07.2022
2442 Clouds 12 999 89 10000 7.2 350 14:33 27.07.2022
2443 Clouds 12 998 88 10000 6.69 350 12:49 27.07.2022
2444 Clouds 13 997 93 10000 6.17 340 07:53 27.07.2022
2445 Clouds 13 996 94 10000 7.72 360 06:19 27.07.2022
2446 Rain 11 996 94 10000 6.17 190 00:48 27.07.2022
2447 Drizzle 10 994 95 10000 9.26 190 22:26 26.07.2022
2448 Clouds 11 993 95 7000 8.75 180 21:20 26.07.2022
2449 Rain 11 992 96 7000 8.75 180 20:25 26.07.2022
2450 Rain 11 991 96 3200 8.23 170 18:42 26.07.2022
2451 Rain 11 991 96 2000 6.69 150 17:58 26.07.2022
2452 Clouds 11 991 95 7000 6.69 170 15:59 26.07.2022
2453 Clouds 11 991 96 10000 5.66 170 15:18 26.07.2022
2454 Clouds 12 992 95 8000 6.17 170 13:20 26.07.2022
2455 Rain 12 992 94 4400 3.09 220 11:20 26.07.2022
2456 Rain 12 992 93 10000 5.14 220 08:55 26.07.2022
2457 Clouds 16 992 83 10000 3.09 180 05:49 26.07.2022
2458 Clouds 14 997 92 10000 5.66 10 00:37 26.07.2022
2459 Rain 12 999 94 10000 6.69 30 22:53 25.07.2022
2460 Clouds 11 999 93 10000 5.66 30 22:25 25.07.2022
2461 Rain 11 999 92 10000 4.12 50 21:41 25.07.2022
2462 Clouds 11 1000 92 10000 7.72 40 20:41 25.07.2022
2463 Clouds 11 1001 93 8000 6.17 40 19:33 25.07.2022
2464 Clouds 11 1003 91 10000 7.2 40 18:18 25.07.2022
2465 Clouds 11 1004 92 10000 7.2 40 17:27 25.07.2022
2466 Rain 10 1007 94 5000 2.06 10 14:44 25.07.2022
2467 Rain 10 1010 93 8000 2.06 30 12:22 25.07.2022
2468 Rain 10 1012 91 10000 4.63 50 09:50 25.07.2022
2469 Rain 10 1016 83 10000 5.14 50 04:25 25.07.2022
2470 Clouds 7 1020 93 10000 3.09 50 23:54 24.07.2022
2471 Rain 6 1021 94 10000 0.51 240 22:59 24.07.2022
2472 Clouds 6 1021 95 10000 1.03 40 22:29 24.07.2022
2473 Rain 5 1020 95 10000 1.54 70 21:19 24.07.2022
2474 Rain 5 1018 91 10000 1.54 60 20:50 24.07.2022
2475 Clouds 5 1017 91 10000 1.54 340 20:26 24.07.2022
2476 Clouds 5 1020 92 10000 1.03 70 18:46 24.07.2022
2477 Clouds 6 1020 90 10000 1.54 40 16:29 24.07.2022
2478 Clouds 6 1020 90 10000 2.06 20 15:50 24.07.2022
2479 Clouds 5 1024 93 10000 1.54 20 14:35 24.07.2022
2480 Clouds 6 1025 93 10000 1.03 50 12:54 24.07.2022
2481 Rain 6 1025 92 10000 1.03 360 11:40 24.07.2022
2482 Rain 7 1026 92 10000 1.03 360 11:18 24.07.2022
2483 Clouds 7 1026 90 10000 1.03 290 08:33 24.07.2022
2484 Clouds 8 1026 88 10000 1.54 210 07:52 24.07.2022
2485 Clouds 10 1026 81 10000 2.57 210 06:18 24.07.2022
2486 Clouds 8 1030 94 10000 3.09 360 01:27 24.07.2022
2487 Clouds 5 1033 93 10000 2.06 30 22:21 23.07.2022
2488 Clouds 4 1033 100 10000 2.06 20 20:28 23.07.2022
2489 Clouds 4 1033 93 10000 2.06 30 18:51 23.07.2022
2490 Clouds 3 1034 93 10000 1.54 30 17:29 23.07.2022
2491 Clouds 3 1034 93 10000 1.54 20 16:35 23.07.2022
2492 Clouds 4 1035 93 10000 1.54 50 15:31 23.07.2022
2493 Clouds 4 1035 100 10000 1.54 60 14:59 23.07.2022
2494 Clouds 4 1035 93 10000 1.54 30 14:28 23.07.2022
2495 Clouds 4 1035 93 10000 1.03 60 13:36 23.07.2022
2496 Clouds 6 1032 88 10000 0.51 350 10:49 23.07.2022
2497 Clouds 6 1033 87 10000 2.06 110 10:21 23.07.2022
2498 Clouds 7 1032 84 10000 2.57 130 08:39 23.07.2022
2499 Clouds 10 1032 73 10000 2.57 210 03:40 23.07.2022
2500 Clouds 9 1034 78 10000 2.57 160 01:33 23.07.2022
2501 Clouds 5 1034 86 10000 2.06 130 22:56 22.07.2022
2502 Clouds 6 1033 83 10000 3.09 140 20:56 22.07.2022
2503 Clouds 6 1031 82 10000 6.17 160 19:41 22.07.2022
2504 Clouds 7 1028 84 10000 1.34 211 18:28 22.07.2022
2505 Clouds 7 1032 79 10000 6.17 170 16:55 22.07.2022
2506 Clouds 8 1031 74 10000 8.23 160 14:54 22.07.2022
2507 Clouds 8 1030 81 10000 9.77 170 11:22 22.07.2022
2508 Clouds 8 1030 87 10000 8.75 170 09:26 22.07.2022
2509 Clouds 8 1029 87 10000 9.26 180 08:37 22.07.2022
2510 Clouds 9 1028 85 10000 9.26 180 06:59 22.07.2022
2511 Clouds 9 1027 84 10000 13.38 190 02:25 22.07.2022
2512 Clouds 8 1026 90 10000 11.83 180 22:43 21.07.2022
2513 Haze 8 1025 89 3900 12.86 190 21:34 21.07.2022
2514 Rain 9 1023 79 7000 12.86 190 19:28 21.07.2022
2515 Clouds 9 1023 77 7000 13.38 190 17:41 21.07.2022
2516 Clouds 9 1022 78 7000 13.38 190 17:19 21.07.2022
2517 Clouds 9 1022 80 7000 13.89 190 15:22 21.07.2022
2518 Clouds 9 1022 81 6000 14.4 190 14:37 21.07.2022
2519 Haze 9 1020 84 5000 14.4 190 12:28 21.07.2022
2520 Haze 9 1019 82 5000 16.46 190 11:19 21.07.2022
2521 Haze 9 1017 81 3300 20.06 200 09:38 21.07.2022
2522 Drizzle 9 1015 81 2800 21.09 200 08:52 21.07.2022
2523 Haze 8 1014 81 2100 22.12 200 07:50 21.07.2022
2524 Rain 8 1010 86 1300 24.18 200 05:47 21.07.2022
2525 Haze 8 1006 87 1400 23.15 220 00:43 21.07.2022
2526 Rain 7 1005 93 4300 4.63 250 22:22 20.07.2022
2527 Rain 8 1004 93 7000 2.06 340 20:59 20.07.2022
2528 Rain 8 1003 94 6000 1.54 330 19:53 20.07.2022
2529 Rain 8 1003 94 4200 1.54 320 19:25 20.07.2022
2530 Rain 8 1004 94 5000 1.54 320 18:51 20.07.2022
2531 Rain 8 1004 94 4000 2.06 300 18:22 20.07.2022
2532 Rain 8 1005 92 7000 8.75 220 16:45 20.07.2022
2533 Rain 8 1006 91 6000 12.86 210 15:32 20.07.2022
2534 Rain 9 1006 92 7000 12.86 200 14:20 20.07.2022
2535 Rain 9 1006 92 7000 12.86 200 14:20 20.07.2022
2536 Rain 9 1007 95 5000 9.77 180 11:37 20.07.2022
2537 Rain 9 1008 94 10000 11.83 190 09:41 20.07.2022
2538 Rain 11 1011 95 1900 8.75 190 03:49 20.07.2022
2539 Clouds 13 1013 95 10000 1.03 90 00:51 20.07.2022
2540 Rain 12 1013 96 10000 2.06 10 23:41 19.07.2022
2541 Clouds 12 1013 95 10000 3.09 360 22:33 19.07.2022
2542 Rain 12 1013 95 10000 2.57 360 21:35 19.07.2022
2543 Rain 12 1013 95 10000 3.6 10 20:48 19.07.2022
2544 Clouds 12 1013 94 10000 3.6 360 19:21 19.07.2022
2545 Drizzle 12 1013 95 4700 3.6 360 18:31 19.07.2022
2546 Mist 12 1013 95 3400 5.14 10 17:46 19.07.2022
2547 Rain 13 1013 93 10000 7.2 360 14:57 19.07.2022
2548 Rain 12 1014 94 8000 4.12 30 11:58 19.07.2022
2549 Rain 12 1014 94 7000 4.12 40 11:18 19.07.2022
2550 Rain 12 1014 92 3600 2.57 360 09:26 19.07.2022
2551 Rain 12 1014 91 3300 8.23 330 08:39 19.07.2022
2552 Clouds 15 1013 85 10000 8.23 10 07:19 19.07.2022
2553 Clouds 15 1013 84 10000 9.26 10 05:48 19.07.2022
2554 Clouds 15 1013 83 10000 11.32 360 04:56 19.07.2022
2555 Clouds 15 1014 83 10000 10.8 360 01:50 19.07.2022
2556 Clouds 14 1015 84 10000 11.32 360 23:50 18.07.2022
2557 Clouds 14 1014 84 10000 12.35 360 23:19 18.07.2022
2558 Clouds 13 1014 84 10000 12.35 360 22:22 18.07.2022
2559 Clouds 13 1014 84 10000 11.83 350 20:52 18.07.2022
2560 Clouds 13 1014 84 10000 13.89 360 19:33 18.07.2022
2561 Clouds 13 1014 82 10000 13.38 360 17:53 18.07.2022
2562 Clouds 13 1016 84 10000 14.4 360 16:28 18.07.2022
2563 Clouds 13 1016 83 10000 14.92 360 15:19 18.07.2022
2564 Clouds 12 1017 84 10000 13.38 360 13:26 18.07.2022
2565 Clouds 13 1018 79 10000 11.83 350 11:31 18.07.2022
2566 Clouds 12 1019 84 10000 12.86 350 09:53 18.07.2022
2567 Clouds 13 1019 84 10000 12.35 350 07:48 18.07.2022
2568 Clouds 14 1020 76 10000 9.77 340 02:34 18.07.2022
2569 Clouds 12 1022 83 10000 11.32 360 22:55 17.07.2022
2570 Clouds 12 1022 87 10000 9.77 350 22:28 17.07.2022
2571 Haze 12 1022 89 4300 10.8 340 21:26 17.07.2022
2572 Clouds 12 1021 86 10000 10.8 350 20:44 17.07.2022
2573 Clouds 12 1022 84 10000 10.8 350 19:49 17.07.2022
2574 Clouds 12 1021 83 10000 10.29 350 19:20 17.07.2022
2575 Clouds 12 1022 82 10000 9.26 350 17:39 17.07.2022
2576 Clouds 12 1023 77 10000 10.8 340 16:53 17.07.2022
2577 Clouds 12 1022 76 10000 10.29 340 16:28 17.07.2022
2578 Clouds 12 1022 73 10000 10.29 350 15:37 17.07.2022
2579 Clouds 12 1022 75 10000 11.83 340 13:51 17.07.2022
2580 Clouds 12 1023 75 10000 9.77 340 12:42 17.07.2022
2581 Clouds 12 1024 72 10000 9.77 340 10:19 17.07.2022
2582 Clouds 11 1022 72 10000 12.86 360 06:59 17.07.2022
2583 Clouds 11 1022 74 10000 10.29 350 02:34 17.07.2022
2584 Clouds 11 1022 74 10000 10.29 350 02:34 17.07.2022
2585 Clouds 10 1022 85 10000 7.2 30 23:23 16.07.2022
2586 Clouds 8 1022 87 10000 7.2 20 22:20 16.07.2022
2587 Clouds 8 1022 81 10000 7.2 30 20:29 16.07.2022
2588 Clouds 7 1020 83 10000 5.66 10 18:54 16.07.2022
2589 Clear 7 1020 84 10000 3.13 179 17:38 16.07.2022
2590 Clear 4 1021 93 10000 3.6 20 15:54 16.07.2022
2591 Clear 5 1019 93 10000 2.06 40 12:26 16.07.2022
2592 Clouds 5 1015 85 10000 1.03 30 10:18 16.07.2022
2593 Clouds 5 1014 84 10000 1.03 360 09:25 16.07.2022
2594 Clear 6 1014 78 10000 3.09 160 08:40 16.07.2022
2595 Clouds 7 1012 80 10000 4.12 190 06:59 16.07.2022
2596 Clouds 9 1010 72 10000 4.12 220 03:33 16.07.2022
2597 Clouds 7 1010 93 10000 2.57 10 00:23 16.07.2022
2598 Clouds 9 1011 76 10000 2.57 250 22:54 15.07.2022
2599 Clouds 9 1011 66 10000 5.14 190 21:55 15.07.2022
2600 Clouds 5 1005 85 10000 5.66 200 20:40 15.07.2022
2601 Clouds 6 1004 87 10000 5.66 190 18:55 15.07.2022
2602 Clouds 6 1006 92 10000 6.17 200 18:22 15.07.2022
2603 Clouds 6 1006 92 10000 6.17 200 16:46 15.07.2022
2604 Clouds 7 1005 92 9000 5.14 170 13:58 15.07.2022
2605 Clouds 7 1004 92 10000 5.66 180 12:28 15.07.2022
2606 Rain 8 1003 92 5000 5.14 160 10:52 15.07.2022
2607 Clouds 9 1002 83 10000 1.54 140 07:48 15.07.2022
2608 Clouds 11 1001 74 10000 4.63 170 02:51 15.07.2022
2609 Clouds 9 1002 84 10000 6.69 180 00:39 15.07.2022
2610 Clouds 8 1001 88 10000 8.75 170 22:56 14.07.2022
2611 Clouds 8 1001 84 10000 6.69 180 22:19 14.07.2022
2612 Clouds 8 1000 83 10000 8.23 170 21:39 14.07.2022
2613 Clouds 8 1000 83 10000 8.23 170 21:19 14.07.2022
2614 Clouds 8 1000 86 10000 9.26 170 20:42 14.07.2022
2615 Clouds 8 999 84 10000 7.2 170 20:18 14.07.2022
2616 Clouds 9 999 77 10000 8.23 150 17:59 14.07.2022
2617 Clouds 9 999 79 10000 9.26 160 16:19 14.07.2022
2618 Clouds 9 1000 77 10000 8.75 160 14:55 14.07.2022
2619 Clouds 10 1000 76 10000 8.23 150 13:51 14.07.2022
2620 Clouds 10 1001 75 10000 8.75 150 12:34 14.07.2022
2621 Clouds 10 1000 75 10000 7.2 140 11:26 14.07.2022
2622 Clouds 10 1001 74 10000 8.23 150 10:51 14.07.2022
2623 Clouds 11 1002 73 10000 4.63 140 08:52 14.07.2022
2624 Clouds 12 1002 72 10000 6.69 150 04:44 14.07.2022
2625 Clouds 14 1002 78 10000 2.57 330 01:18 14.07.2022
2626 Clouds 14 1002 80 10000 4.12 310 00:50 14.07.2022
2627 Clear 11 1001 87 10000 4.63 10 22:30 13.07.2022
2628 Clear 11 1001 85 10000 5.14 10 21:38 13.07.2022
2629 Clouds 12 1001 83 10000 6.69 340 20:38 13.07.2022
2630 Clouds 12 999 83 10000 7.2 350 18:26 13.07.2022
2631 Clouds 12 999 83 10000 6.69 360 17:31 13.07.2022
2632 Clouds 12 999 83 10000 7.72 360 16:19 13.07.2022
2633 Clear 13 998 83 10000 7.72 340 13:57 13.07.2022
2634 Clouds 13 997 83 10000 9.26 340 11:36 13.07.2022
2635 Clouds 13 997 83 10000 8.23 350 10:44 13.07.2022
2636 Clouds 13 996 84 10000 9.77 350 09:49 13.07.2022
2637 Clouds 13 996 83 10000 10.8 350 09:20 13.07.2022
2638 Clear 14 996 80 10000 9.77 340 05:21 13.07.2022
2639 Clouds 14 996 78 10000 8.75 340 00:49 13.07.2022
2640 Clouds 14 994 78 10000 7.2 330 23:21 12.07.2022
2641 Clouds 13 993 76 10000 8.23 340 21:49 12.07.2022
2642 Clouds 13 992 75 10000 6.17 350 20:54 12.07.2022
2643 Clouds 13 992 76 10000 7.72 350 20:36 12.07.2022
2644 Rain 13 990 78 10000 5.66 350 18:53 12.07.2022
2645 Rain 13 989 78 10000 8.23 330 17:32 12.07.2022
2646 Clouds 13 988 86 10000 12.86 340 15:37 12.07.2022
2647 Clouds 12 988 86 10000 9.77 330 13:44 12.07.2022
2648 Clouds 12 988 89 10000 9.77 340 11:59 12.07.2022
2649 Clouds 13 989 90 10000 10.8 340 10:46 12.07.2022
2650 Clouds 13 989 91 10000 9.77 350 09:19 12.07.2022
2651 Clouds 13 989 91 9000 7.2 340 07:57 12.07.2022
2652 Rain 14 990 94 10000 6.69 20 05:54 12.07.2022
2653 Clouds 14 991 94 7000 7.2 360 05:35 12.07.2022
2654 Rain 13 995 90 10000 7.2 40 01:43 12.07.2022
2655 Rain 12 1002 89 10000 6.69 30 22:52 11.07.2022
2656 Rain 12 1004 89 10000 2.57 40 21:44 11.07.2022
2657 Rain 11 1006 90 10000 3.6 50 20:33 11.07.2022
2658 Rain 11 1007 91 7000 4.12 30 19:32 11.07.2022
2659 Rain 10 1009 92 4500 2.06 280 18:32 11.07.2022
2660 Rain 10 1011 92 10000 1.54 40 17:36 11.07.2022
2661 Rain 9 1015 92 4500 2.06 200 15:46 11.07.2022
2662 Rain 10 1019 90 10000 2.06 30 13:39 11.07.2022
2663 Drizzle 10 1020 90 10000 0.51 230 11:38 11.07.2022
2664 Rain 9 1021 92 6000 2.06 230 10:18 11.07.2022
2665 Drizzle 9 1022 91 6000 2.57 250 09:41 11.07.2022
2666 Drizzle 10 1022 88 10000 0.51 190 08:33 11.07.2022
2667 Clouds 11 1024 78 10000 5.14 110 03:23 11.07.2022
2668 Rain 10 1026 79 10000 3.09 130 00:20 11.07.2022
2669 Rain 9 1026 79 10000 4.12 120 22:56 10.07.2022
2670 Rain 8 1026 81 10000 3.6 130 21:41 10.07.2022
2671 Rain 8 1026 81 10000 1.54 140 20:47 10.07.2022
2672 Rain 9 1025 78 10000 2.57 140 19:50 10.07.2022
2673 Rain 8 1026 79 10000 2.57 140 18:48 10.07.2022
2674 Rain 9 1024 77 10000 2.06 120 17:37 10.07.2022
2675 Rain 9 1024 77 10000 2.06 130 16:45 10.07.2022
2676 Clouds 9 1025 78 10000 3.6 130 15:25 10.07.2022
2677 Rain 9 1025 80 10000 4.12 150 14:21 10.07.2022
2678 Clouds 9 1024 74 10000 3.09 130 12:28 10.07.2022
2679 Clouds 9 1023 73 10000 5.66 140 10:20 10.07.2022
2680 Rain 9 1023 74 10000 5.14 140 08:45 10.07.2022
2681 Rain 9 1023 74 10000 5.14 140 08:45 10.07.2022
2682 Clouds 9 1021 73 10000 7.2 140 07:30 10.07.2022
2683 Clouds 10 1020 73 10000 8.75 170 01:33 10.07.2022
2684 Rain 7 1018 74 10000 9.26 160 22:51 09.07.2022
2685 Rain 7 1018 79 10000 8.23 160 22:24 09.07.2022
2686 Rain 8 1016 76 10000 11.32 170 20:50 09.07.2022
2687 Rain 8 1014 83 10000 11.83 170 18:38 09.07.2022
2688 Clouds 8 1013 84 10000 11.83 170 17:45 09.07.2022
2689 Clouds 8 1012 87 10000 11.83 170 16:44 09.07.2022
2690 Clouds 9 1011 91 10000 10.8 170 15:41 09.07.2022
2691 Clouds 9 1010 90 10000 9.77 180 14:43 09.07.2022
2692 Rain 9 1009 91 7000 9.26 180 13:50 09.07.2022
2693 Rain 9 1008 90 7000 10.29 180 12:48 09.07.2022
2694 Rain 9 1006 89 4000 11.32 190 11:32 09.07.2022
2695 Clouds 11 1005 80 10000 12.86 190 10:23 09.07.2022
2696 Clouds 14 999 79 10000 5.14 220 07:54 09.07.2022
2697 Clouds 15 996 75 10000 6.69 330 05:37 09.07.2022
2698 Clouds 15 994 76 10000 8.75 330 03:29 09.07.2022
2699 Clouds 14 991 79 10000 9.77 330 23:18 08.07.2022
2700 Clouds 14 991 82 10000 8.23 330 21:59 08.07.2022
2701 Clouds 14 990 81 10000 9.77 340 20:55 08.07.2022
2702 Clouds 14 990 85 10000 10.8 340 20:24 08.07.2022
2703 Clouds 15 989 88 10000 10.29 330 18:29 08.07.2022
2704 Clouds 15 989 88 10000 10.29 330 18:29 08.07.2022
2705 Clouds 15 989 87 10000 12.86 340 17:21 08.07.2022
2706 Clouds 15 991 89 9000 13.89 340 14:55 08.07.2022
2707 Clouds 15 992 89 9000 12.35 350 13:56 08.07.2022
2708 Clouds 15 991 93 10000 10.29 340 12:28 08.07.2022
2709 Clouds 15 992 93 10000 12.35 360 10:37 08.07.2022
2710 Clouds 15 993 93 10000 9.77 360 08:51 08.07.2022
2711 Clouds 15 994 96 7000 7.72 10 06:54 08.07.2022
2712 Rain 13 998 96 3400 2.57 190 02:53 08.07.2022
2713 Rain 10 1002 96 2700 1.54 20 23:41 07.07.2022
2714 Mist 8 1003 95 2300 1.54 360 22:40 07.07.2022
2715 Rain 8 1006 93 7000 1.03 120 20:56 07.07.2022
2716 Rain 8 1009 92 10000 1.54 10 18:37 07.07.2022
2717 Rain 8 1010 92 10000 3.09 40 17:41 07.07.2022
2718 Clouds 8 1011 89 10000 2.06 30 15:22 07.07.2022
2719 Rain 8 1015 88 10000 2.06 40 13:26 07.07.2022
2720 Rain 9 1016 87 10000 1.54 80 12:39 07.07.2022
2721 Rain 9 1016 87 10000 1.54 80 12:19 07.07.2022
2722 Rain 9 1016 87 10000 3.09 30 11:30 07.07.2022
2723 Clouds 9 1017 89 10000 3.6 360 10:43 07.07.2022
2724 Clouds 9 1018 89 10000 3.6 360 10:25 07.07.2022
2725 Rain 9 1019 88 10000 3.09 360 07:40 07.07.2022
2726 Clouds 12 1020 80 10000 1.54 30 04:42 07.07.2022
2727 Clouds 8 1027 85 10000 2.79 15 23:37 06.07.2022
2728 Clouds 6 1026 93 10000 3.09 30 23:19 06.07.2022
2729 Clouds 6 1026 93 10000 3.09 30 22:56 06.07.2022
2730 Clouds 6 1026 93 10000 2.57 20 22:38 06.07.2022
2731 Clouds 5 1026 100 10000 2.57 10 21:30 06.07.2022
2732 Clouds 5 1026 100 10000 1.54 20 19:38 06.07.2022
2733 Clouds 5 1026 100 10000 3.09 20 18:29 06.07.2022
2734 Clouds 6 1026 93 10000 2.06 50 16:19 06.07.2022
2735 Clouds 6 1026 93 10000 2.57 40 14:58 06.07.2022
2736 Clouds 6 1026 93 10000 1.54 30 12:42 06.07.2022
2737 Clouds 5 1024 86 10000 1.54 40 11:49 06.07.2022
2738 Clouds 6 1024 85 10000 1.54 30 10:20 06.07.2022
2739 Clouds 8 1023 81 9000 1.54 360 08:26 06.07.2022
2740 Clouds 9 1022 76 10000 2.57 150 07:23 06.07.2022
2741 Clouds 11 1021 68 10000 4.12 150 05:31 06.07.2022
2742 Clouds 10 1019 84 10000 7.2 150 22:48 05.07.2022
2743 Clouds 10 1018 86 10000 8.75 160 21:59 05.07.2022
2744 Clouds 10 1016 95 10000 6.17 190 20:41 05.07.2022
2745 Clouds 11 1018 87 10000 5.66 210 19:43 05.07.2022
2746 Fog 8 1016 93 3800 1.03 20 19:22 05.07.2022
2747 Clouds 8 1010 90 10000 1.54 40 17:48 05.07.2022
2748 Clouds 10 1011 91 10000 2.06 40 16:55 05.07.2022
2749 Clouds 11 1011 94 10000 3.6 360 15:37 05.07.2022
2750 Clouds 11 1010 94 10000 4.12 20 14:31 05.07.2022
2751 Clouds 12 1009 94 10000 5.14 20 12:47 05.07.2022
2752 Clouds 11 1010 94 10000 5.14 10 11:49 05.07.2022
2753 Clouds 12 1011 93 10000 8.75 10 10:40 05.07.2022
2754 Rain 12 1011 92 10000 6.17 360 09:23 05.07.2022
2755 Clouds 13 1011 84 10000 5.66 350 07:52 05.07.2022
2756 Clouds 12 1013 85 10000 7.72 350 05:29 05.07.2022
2757 Clouds 13 1014 81 10000 5.66 340 04:24 05.07.2022
2758 Clouds 13 1018 85 10000 9.77 20 00:26 05.07.2022
2759 Clouds 13 1018 87 10000 8.75 10 23:31 04.07.2022
2760 Rain 13 1018 88 10000 8.75 10 22:47 04.07.2022
2761 Clouds 13 1018 87 10000 8.23 10 21:46 04.07.2022
2762 Clouds 12 1019 83 10000 9.26 340 20:53 04.07.2022
2763 Clouds 12 1019 84 10000 9.77 350 20:34 04.07.2022
2764 Clouds 13 1019 86 10000 9.26 350 19:55 04.07.2022
2765 Clouds 13 1019 87 10000 8.75 350 19:35 04.07.2022
2766 Clouds 13 1020 85 10000 7.72 10 17:58 04.07.2022
2767 Clouds 13 1021 84 10000 8.23 20 15:58 04.07.2022
2768 Clouds 13 1021 86 10000 8.23 30 15:33 04.07.2022
2769 Clouds 12 1022 86 10000 9.26 30 13:29 04.07.2022
2770 Clouds 12 1022 87 10000 7.72 20 12:30 04.07.2022
2771 Clouds 11 1023 90 10000 5.14 10 10:34 04.07.2022
2772 Clouds 11 1023 91 10000 6.17 10 09:52 04.07.2022
2773 Clouds 11 1022 88 10000 5.14 350 07:37 04.07.2022
2774 Clouds 12 1023 80 10000 4.63 360 04:48 04.07.2022
2775 Clear 10 1026 88 10000 4.12 150 00:39 04.07.2022
2776 Clouds 8 1027 93 10000 2.57 30 22:59 03.07.2022
2777 Clear 7 1025 87 10000 2.06 30 20:58 03.07.2022
2778 Clear 7 1024 93 10000 2.06 20 20:31 03.07.2022
2779 Clear 7 1023 93 10000 2.06 30 19:27 03.07.2022
2780 Clear 7 1023 93 10000 2.57 20 18:43 03.07.2022
2781 Clear 9 1023 87 10000 2.57 330 17:43 03.07.2022
2782 Clear 9 1021 87 10000 2.57 340 15:54 03.07.2022
2783 Clear 8 1021 93 10000 2.57 10 14:59 03.07.2022
2784 Clear 8 1021 93 10000 3.09 350 14:18 03.07.2022
2785 Clear 9 1020 87 10000 2.57 10 13:48 03.07.2022
2786 Clear 10 1020 87 10000 4.63 360 12:33 03.07.2022
2787 Clear 10 1020 87 10000 4.63 360 11:28 03.07.2022
2788 Clear 10 1020 87 10000 3.6 30 10:38 03.07.2022
2789 Clear 9 1017 86 10000 4.12 30 09:31 03.07.2022
2790 Clear 10 1016 84 10000 4.63 20 07:35 03.07.2022
2791 Clear 13 1016 72 10000 5.66 340 03:46 03.07.2022
2792 Clear 12 1018 81 10000 5.14 30 00:21 03.07.2022
2793 Clear 10 1018 83 10000 4.12 30 22:33 02.07.2022
2794 Clear 9 1017 83 10000 4.12 40 20:58 02.07.2022
2795 Clear 10 1016 83 10000 4.12 30 19:52 02.07.2022
2796 Clear 10 1016 83 10000 3.6 40 19:20 02.07.2022
2797 Clouds 10 1017 81 10000 4.12 20 17:41 02.07.2022
2798 Clouds 11 1017 80 10000 4.12 30 16:53 02.07.2022
2799 Clouds 10 1017 85 10000 4.12 30 14:40 02.07.2022
2800 Clouds 11 1017 87 10000 4.12 30 12:21 02.07.2022
2801 Clouds 11 1018 85 10000 4.12 30 11:26 02.07.2022
2802 Clouds 11 1018 83 10000 3.6 30 10:39 02.07.2022
2803 Clear 11 1018 81 10000 3.6 30 09:18 02.07.2022
2804 Clear 10 1018 79 10000 3.6 10 08:20 02.07.2022
2805 Clear 11 1017 81 10000 5.14 20 07:27 02.07.2022
2806 Clear 10 1019 83 10000 2.57 340 01:53 02.07.2022
2807 Clear 8 1021 81 10000 2.06 20 23:59 01.07.2022
2808 Clear 5 1020 93 10000 2.06 40 22:41 01.07.2022
2809 Clear 5 1020 93 10000 2.57 40 21:48 01.07.2022
2810 Clear 5 1019 93 10000 2.57 40 21:28 01.07.2022
2811 Clear 5 1019 93 10000 1.54 60 20:40 01.07.2022
2812 Clear 5 1019 93 10000 1.03 30 19:46 01.07.2022
2813 Clear 6 1018 87 10000 2.06 20 17:53 01.07.2022
2814 Clear 6 1017 87 10000 3.09 360 16:22 01.07.2022
2815 Clear 6 1016 87 10000 2.06 10 13:55 01.07.2022
2816 Clear 9 1015 76 10000 1.54 330 12:41 01.07.2022
2817 Clouds 9 1012 77 10000 3.09 360 10:20 01.07.2022
2818 Clouds 9 1011 74 10000 3.6 350 09:47 01.07.2022
2819 Clouds 10 1010 74 10000 3.6 320 05:25 01.07.2022
2820 Clouds 10 1012 86 10000 2.57 160 00:42 01.07.2022
2821 Clouds 7 1012 91 10000 5.14 180 23:22 30.06.2022
2822 Clouds 7 1011 86 10000 4.63 160 22:44 30.06.2022
2823 Clouds 7 1010 86 10000 4.63 170 22:25 30.06.2022
2824 Clouds 7 1010 89 10000 4.63 170 21:45 30.06.2022
2825 Rain 7 1010 88 10000 8.75 170 20:30 30.06.2022
2826 Rain 7 1010 89 10000 10.29 170 19:54 30.06.2022
2827 Rain 8 1009 89 10000 11.32 170 19:26 30.06.2022
2828 Clouds 8 1009 90 10000 11.32 180 18:42 30.06.2022
2829 Rain 10 1008 84 10000 9.77 180 17:44 30.06.2022
2830 Clouds 10 1007 84 10000 9.77 190 16:55 30.06.2022
2831 Clouds 14 1008 67 10000 4.92 217 15:44 30.06.2022
2832 Clouds 13 1005 77 10000 5.66 340 13:49 30.06.2022
2833 Clouds 14 1004 70 10000 7.2 310 12:36 30.06.2022
2834 Clouds 14 1003 71 10000 6.69 30 11:55 30.06.2022
2835 Clouds 12 1004 81 10000 5.66 30 09:55 30.06.2022
2836 Clouds 12 1003 80 10000 6.17 30 09:35 30.06.2022
2837 Clouds 12 1003 86 10000 7.2 10 08:19 30.06.2022
2838 Clouds 11 1003 87 10000 8.75 10 07:24 30.06.2022
2839 Clouds 12 1005 84 10000 8.23 20 02:38 30.06.2022
2840 Clouds 9 1008 97 10000 4.63 20 23:36 29.06.2022
2841 Clouds 6 1010 93 10000 5.14 20 22:41 29.06.2022
2842 Clear 5 1010 93 10000 3.6 30 21:58 29.06.2022
2843 Clear 5 1010 100 10000 2.57 30 20:34 29.06.2022
2844 Clear 5 1010 100 10000 2.57 40 19:55 29.06.2022
2845 Clear 6 1010 100 10000 1.54 350 17:55 29.06.2022
2846 Clear 5 1010 100 10000 1.54 360 16:51 29.06.2022
2847 Clear 5 1010 100 10000 1.54 360 16:51 29.06.2022
2848 Clear 7 1010 93 10000 0.51 310 15:33 29.06.2022
2849 Clouds 6 1010 93 10000 1.54 30 13:36 29.06.2022
2850 Clouds 7 1010 87 10000 2.06 20 12:24 29.06.2022
2851 Clouds 8 1010 87 10000 1.03 360 09:43 29.06.2022
2852 Clouds 8 1009 81 10000 1.54 30 09:21 29.06.2022
2853 Clouds 11 1007 79 10000 4.12 340 06:27 29.06.2022
2854 Clouds 12 1008 84 10000 5.14 330 02:21 29.06.2022
2855 Clouds 12 1008 91 10000 4.63 40 00:38 29.06.2022
2856 Clouds 12 1008 92 10000 3.09 40 23:55 28.06.2022
2857 Clouds 11 1008 94 10000 4.63 40 22:48 28.06.2022
2858 Clouds 11 1009 94 10000 5.14 30 21:55 28.06.2022
2859 Clouds 11 1009 94 10000 4.63 20 21:33 28.06.2022
2860 Clouds 11 1009 95 10000 4.63 350 20:57 28.06.2022
2861 Clouds 10 1009 95 10000 4.12 340 19:50 28.06.2022
2862 Clouds 10 1009 96 10000 1.54 30 19:24 28.06.2022
2863 Clouds 11 1010 96 10000 1.03 30 18:37 28.06.2022
2864 Clouds 10 1011 96 10000 1.54 350 16:35 28.06.2022
2865 Clouds 10 1011 96 10000 2.06 20 15:54 28.06.2022
2866 Rain 10 1012 95 5000 1.03 30 14:22 28.06.2022
2867 Rain 10 1013 95 10000 2.06 40 13:55 28.06.2022
2868 Rain 10 1013 96 6000 1.03 110 13:32 28.06.2022
2869 Mist 9 1014 95 2900 4.12 180 11:58 28.06.2022
2870 Drizzle 9 1014 95 10000 5.14 180 09:50 28.06.2022
2871 Clouds 9 1015 95 7000 4.63 170 08:54 28.06.2022
2872 Drizzle 9 1014 94 3500 4.63 180 07:58 28.06.2022
2873 Rain 9 1014 94 6000 4.12 180 07:19 28.06.2022
2874 Rain 10 1016 95 2500 6.17 180 02:41 28.06.2022
2875 Drizzle 11 1017 93 3700 1.54 360 23:48 27.06.2022
2876 Rain 11 1017 93 10000 2.57 120 22:56 27.06.2022
2877 Clouds 11 1016 92 10000 3.6 190 21:39 27.06.2022
2878 Clouds 11 1016 92 10000 3.6 190 21:18 27.06.2022
2879 Clouds 11 1015 91 10000 2.06 150 19:54 27.06.2022
2880 Rain 11 1015 89 10000 4.63 200 18:45 27.06.2022
2881 Clouds 12 1015 85 10000 1.54 260 17:26 27.06.2022
2882 Clouds 12 1015 84 10000 3.6 10 15:43 27.06.2022
2883 Clouds 12 1016 84 10000 4.63 350 13:51 27.06.2022
2884 Clouds 12 1016 82 10000 6.69 10 12:57 27.06.2022
2885 Clouds 12 1016 83 10000 5.14 350 10:51 27.06.2022
2886 Clouds 13 1016 82 10000 7.72 350 09:43 27.06.2022
2887 Clouds 12 1016 83 10000 8.75 10 08:40 27.06.2022
2888 Clouds 12 1014 82 10000 10.29 360 07:39 27.06.2022
2889 Clouds 13 1014 73 10000 8.75 10 05:19 27.06.2022
2890 Clouds 13 1016 74 10000 8.75 360 01:21 27.06.2022
2891 Clouds 12 1016 91 10000 7.72 10 22:48 26.06.2022
2892 Clouds 11 1016 91 10000 6.69 30 21:23 26.06.2022
2893 Clouds 11 1016 90 10000 4.63 40 20:28 26.06.2022
2894 Clouds 10 1017 90 10000 5.66 30 18:33 26.06.2022
2895 Clouds 10 1017 95 10000 3.6 20 17:38 26.06.2022
2896 Clear 10 1018 99 10000 3.09 10 15:35 26.06.2022
2897 Clear 9 1020 93 10000 2.57 10 13:59 26.06.2022
2898 Clear 9 1020 93 10000 3.09 360 13:23 26.06.2022
2899 Clear 9 1018 89 10000 3.09 20 11:39 26.06.2022
2900 Clear 9 1018 93 10000 4.63 20 10:42 26.06.2022
2901 Clear 10 1017 92 10000 3.6 20 09:55 26.06.2022
2902 Clear 12 1016 90 10000 3.09 30 07:47 26.06.2022
2903 Clouds 14 1015 84 10000 3.6 350 05:26 26.06.2022
2904 Clouds 14 1016 88 10000 5.14 340 00:36 26.06.2022
2905 Clouds 14 1016 89 10000 5.14 340 00:18 26.06.2022
2906 Clouds 13 1016 91 10000 5.14 360 23:29 25.06.2022
2907 Clouds 13 1015 91 10000 4.12 10 22:42 25.06.2022
2908 Clouds 13 1015 91 10000 4.63 10 22:24 25.06.2022
2909 Clouds 13 1015 90 10000 4.12 360 21:21 25.06.2022
2910 Clouds 13 1014 90 10000 5.66 340 20:36 25.06.2022
2911 Clouds 13 1014 91 10000 5.14 10 19:56 25.06.2022
2912 Clouds 13 1013 90 10000 5.14 350 18:22 25.06.2022
2913 Clouds 13 1014 90 10000 5.66 330 17:26 25.06.2022
2914 Clouds 13 1014 90 10000 6.69 330 16:26 25.06.2022
2915 Clouds 13 1014 89 10000 7.72 330 14:29 25.06.2022
2916 Clouds 14 1013 90 10000 7.2 360 12:45 25.06.2022
2917 Clouds 14 1013 90 10000 7.72 360 11:55 25.06.2022
2918 Clouds 13 1013 91 10000 6.69 360 09:24 25.06.2022
2919 Clouds 13 1013 92 10000 5.66 360 08:49 25.06.2022
2920 Clouds 13 1012 92 10000 7.72 360 08:20 25.06.2022
2921 Clouds 13 1012 92 6000 7.72 10 06:26 25.06.2022
2922 Clouds 14 1014 76 10000 7.72 10 00:44 25.06.2022
2923 Clouds 14 1014 76 10000 7.72 10 00:44 25.06.2022
2924 Clouds 14 1014 76 10000 7.72 10 00:44 25.06.2022
2925 Clouds 14 1014 77 10000 5.14 20 23:46 24.06.2022
2926 Rain 13 1014 74 10000 4.12 10 22:22 24.06.2022
2927 Rain 13 1014 75 10000 4.12 360 21:22 24.06.2022
2928 Clouds 13 1015 75 10000 5.14 20 20:23 24.06.2022
2929 Rain 12 1015 78 10000 4.12 10 19:24 24.06.2022
2930 Clouds 12 1015 78 10000 5.14 20 18:50 24.06.2022
2931 Clouds 12 1015 78 10000 4.12 20 18:31 24.06.2022
2932 Clouds 12 1015 78 10000 5.14 10 17:46 24.06.2022
2933 Clouds 12 1016 78 10000 6.69 10 16:32 24.06.2022
2934 Clouds 12 1017 74 10000 5.66 360 14:29 24.06.2022
2935 Clouds 13 1017 76 10000 5.66 350 13:55 24.06.2022
2936 Clouds 12 1018 78 10000 5.14 360 12:28 24.06.2022
2937 Clouds 12 1018 77 10000 5.14 10 11:40 24.06.2022
2938 Clouds 11 1019 75 10000 4.63 10 10:26 24.06.2022
2939 Clouds 12 1019 77 10000 4.12 20 09:41 24.06.2022
2940 Clouds 12 1019 77 10000 5.14 20 08:53 24.06.2022
2941 Rain 12 1019 76 10000 5.14 30 07:33 24.06.2022
2942 Rain 12 1019 75 10000 6.17 20 06:42 24.06.2022
2943 Rain 12 1019 75 10000 6.17 20 06:18 24.06.2022
2944 Rain 13 1020 71 10000 8.75 10 03:33 24.06.2022
2945 Clouds 8 1022 87 10000 4.63 20 22:59 23.06.2022
2946 Clouds 8 1022 88 10000 4.12 30 22:40 23.06.2022
2947 Clouds 8 1022 89 10000 4.63 20 20:58 23.06.2022
2948 Clouds 8 1021 91 10000 5.14 10 20:35 23.06.2022
2949 Clouds 9 1021 90 10000 4.63 50 19:34 23.06.2022
2950 Clouds 8 1022 91 10000 3.09 40 17:53 23.06.2022
2951 Clouds 8 1023 90 10000 3.09 50 17:23 23.06.2022
2952 Clouds 9 1023 89 10000 3.6 60 15:57 23.06.2022
2953 Clouds 9 1024 89 10000 4.63 50 15:24 23.06.2022
2954 Clouds 9 1024 89 10000 5.14 20 13:45 23.06.2022
2955 Clouds 8 1025 90 10000 5.66 20 11:27 23.06.2022
2956 Clouds 8 1026 87 10000 3.09 30 10:37 23.06.2022
2957 Clouds 7 1025 92 10000 3.6 20 09:18 23.06.2022
2958 Clouds 10 1024 80 10000 3.09 30 03:39 23.06.2022
2959 Clouds 7 1027 95 10000 2.57 360 00:26 23.06.2022
2960 Clouds 6 1029 87 10000 2.06 20 23:41 22.06.2022
2961 Clouds 6 1029 87 10000 2.06 20 23:41 22.06.2022
2962 Clouds 4 1029 93 10000 3.6 10 22:41 22.06.2022
2963 Clouds 6 1027 94 10000 3.09 40 21:22 22.06.2022
2964 Clouds 4 1028 93 10000 2.57 50 20:43 22.06.2022
2965 Clouds 4 1028 93 10000 2.06 30 19:58 22.06.2022
2966 Clear 4 1028 93 10000 2.06 30 18:49 22.06.2022
2967 Clear 5 1028 93 10000 2.06 50 17:28 22.06.2022
2968 Clear 5 1028 93 10000 2.06 50 17:28 22.06.2022
2969 Clear 5 1028 93 10000 2.06 30 16:33 22.06.2022
2970 Clouds 5 1024 94 10000 1.54 20 15:27 22.06.2022
2971 Clouds 5 1025 94 10000 1.54 10 14:21 22.06.2022
2972 Clouds 5 1025 94 10000 1.54 70 13:42 22.06.2022
2973 Clouds 5 1025 94 10000 1.54 70 13:23 22.06.2022
2974 Clear 5 1025 93 10000 1.03 90 11:50 22.06.2022
2975 Clear 5 1025 93 10000 1.03 90 11:50 22.06.2022
2976 Clear 6 1025 91 10000 4.12 180 10:57 22.06.2022
2977 Clear 6 1025 91 10000 4.63 170 10:19 22.06.2022
2978 Clouds 7 1025 90 10000 4.63 170 08:37 22.06.2022
2979 Clouds 10 1023 84 10000 5.14 180 05:38 22.06.2022
2980 Clouds 10 1025 86 10000 5.66 170 01:39 22.06.2022
2981 Clouds 10 1025 89 10000 5.66 140 00:36 22.06.2022
2982 Clouds 8 1024 91 10000 5.66 180 22:37 21.06.2022
2983 Clouds 8 1023 92 10000 7.72 170 19:57 21.06.2022
2984 Clouds 8 1023 93 7000 7.2 180 18:36 21.06.2022
2985 Clouds 8 1023 93 6000 8.23 160 17:39 21.06.2022
2986 Clouds 9 1023 85 10000 9.26 170 14:22 21.06.2022
2987 Clouds 9 1023 83 10000 10.29 180 11:52 21.06.2022
2988 Clouds 9 1023 83 10000 10.8 180 10:19 21.06.2022
2989 Clouds 10 1023 80 10000 10.29 160 08:48 21.06.2022
2990 Clouds 10 1022 84 10000 9.77 160 07:35 21.06.2022
2991 Clouds 9 1024 85 10000 9.77 170 02:27 21.06.2022
2992 Clouds 8 1024 84 10000 10.8 160 23:26 20.06.2022
2993 Clouds 8 1024 89 10000 11.83 160 21:58 20.06.2022
2994 Clouds 8 1024 91 7000 10.8 170 21:30 20.06.2022
2995 Clouds 7 1022 88 10000 10.29 160 19:49 20.06.2022
2996 Clouds 7 1023 88 10000 10.8 170 18:53 20.06.2022
2997 Clouds 7 1023 87 10000 10.29 170 18:23 20.06.2022
2998 Clouds 7 1024 91 10000 9.26 160 17:36 20.06.2022
2999 Clouds 7 1023 86 3600 9.77 160 15:58 20.06.2022
3000 Clouds 8 1023 75 10000 11.83 160 13:34 20.06.2022
3001 Clouds 8 1024 74 10000 12.86 160 11:30 20.06.2022
3002 Clouds 8 1023 72 10000 12.35 160 09:48 20.06.2022
3003 Clouds 8 1023 74 10000 12.35 160 08:45 20.06.2022
3004 Clouds 8 1023 76 10000 11.83 160 06:49 20.06.2022
3005 Clouds 8 1021 82 10000 12.86 160 03:29 20.06.2022
3006 Clouds 8 1022 77 10000 14.4 160 00:37 20.06.2022
3007 Clouds 8 1021 77 10000 14.92 160 23:25 19.06.2022
3008 Clouds 8 1021 77 10000 14.4 160 22:19 19.06.2022
3009 Clouds 9 1021 77 10000 14.92 160 21:41 19.06.2022
3010 Clouds 9 1019 82 10000 12.86 160 20:46 19.06.2022
3011 Clouds 8 1019 89 10000 13.89 160 19:48 19.06.2022
3012 Clouds 8 1019 88 10000 13.89 170 19:24 19.06.2022
3013 Rain 8 1019 90 10000 13.89 170 18:31 19.06.2022
3014 Rain 8 1018 91 6000 12.86 170 17:39 19.06.2022
3015 Clouds 9 1018 89 10000 12.86 170 16:38 19.06.2022
3016 Clouds 8 1018 87 10000 12.86 170 15:44 19.06.2022
3017 Clouds 8 1018 88 10000 12.86 170 15:26 19.06.2022
3018 Clouds 9 1018 87 10000 13.38 170 14:30 19.06.2022
3019 Clouds 8 1018 88 10000 12.35 180 13:43 19.06.2022
3020 Clouds 9 1018 88 10000 12.86 170 11:53 19.06.2022
3021 Clouds 9 1017 87 10000 12.86 190 10:51 19.06.2022
3022 Clouds 10 1016 79 10000 11.32 180 08:55 19.06.2022
3023 Clouds 9 1016 77 10000 11.32 180 08:30 19.06.2022
3024 Clouds 9 1015 77 10000 9.26 180 06:48 19.06.2022
3025 Clouds 9 1016 86 10000 8.75 170 03:37 19.06.2022
3026 Clouds 9 1016 89 10000 9.26 170 00:28 19.06.2022
3027 Clouds 9 1015 89 10000 9.26 170 23:52 18.06.2022
3028 Clouds 9 1015 89 10000 9.26 160 23:34 18.06.2022
3029 Drizzle 9 1015 88 9000 9.26 170 21:54 18.06.2022
3030 Clouds 9 1014 86 10000 9.26 150 20:51 18.06.2022
3031 Clouds 9 1014 87 10000 9.77 160 20:18 18.06.2022
3032 Clouds 10 1015 79 10000 9.77 150 18:55 18.06.2022
3033 Clouds 10 1015 79 10000 9.77 160 18:30 18.06.2022
3034 Clouds 10 1015 80 10000 9.26 160 17:29 18.06.2022
3035 Clouds 10 1016 79 10000 11.32 170 15:46 18.06.2022
3036 Rain 10 1016 83 10000 11.32 160 14:50 18.06.2022
3037 Rain 10 1017 87 10000 10.8 160 13:58 18.06.2022
3038 Rain 10 1017 94 8000 10.29 170 12:28 18.06.2022
3039 Rain 11 1017 94 10000 8.75 180 10:59 18.06.2022
3040 Rain 11 1017 94 10000 8.75 180 09:39 18.06.2022
3041 Rain 11 1017 93 10000 7.2 180 08:40 18.06.2022
3042 Rain 11 1017 93 7000 6.17 190 07:34 18.06.2022
3043 Clouds 14 1016 91 10000 3.6 360 05:20 18.06.2022
3044 Clouds 14 1018 90 10000 5.66 10 01:50 18.06.2022
3045 Clouds 14 1019 90 10000 4.12 40 01:21 18.06.2022
3046 Clouds 13 1018 93 10000 3.6 10 00:23 18.06.2022
3047 Clouds 13 1018 93 10000 3.6 10 00:23 18.06.2022
3048 Clouds 12 1019 95 10000 2.06 10 23:37 17.06.2022
3049 Clouds 11 1020 99 10000 1.54 40 22:29 17.06.2022
3050 Clouds 10 1022 93 10000 1.54 40 20:29 17.06.2022
3051 Clouds 9 1022 93 10000 3.6 10 19:24 17.06.2022
3052 Clouds 9 1022 93 10000 3.6 10 19:24 17.06.2022
3053 Clouds 8 1023 93 10000 1.54 10 17:58 17.06.2022
3054 Clouds 8 1023 93 10000 2.57 360 16:44 17.06.2022
3055 Clouds 9 1023 93 10000 2.57 50 16:25 17.06.2022
3056 Clouds 9 1023 87 10000 1.54 60 15:40 17.06.2022
3057 Clouds 9 1021 88 10000 1.54 60 14:23 17.06.2022
3058 Clouds 10 1021 87 10000 1.03 80 13:58 17.06.2022
3059 Clouds 10 1021 87 10000 0.51 30 13:38 17.06.2022
3060 Clouds 10 1021 88 10000 1.03 360 12:28 17.06.2022
3061 Clouds 10 1021 88 10000 1.54 360 11:55 17.06.2022
3062 Clouds 10 1022 88 10000 2.06 350 11:33 17.06.2022
3063 Clouds 10 1022 86 10000 4.63 360 09:36 17.06.2022
3064 Clouds 10 1022 84 10000 2.06 30 08:26 17.06.2022
3065 Clouds 12 1020 84 7000 2.06 250 06:45 17.06.2022
3066 Clouds 14 1020 75 10000 3.09 160 03:59 17.06.2022
3067 Clouds 14 1020 78 10000 5.14 150 01:56 17.06.2022
3068 Clouds 12 1020 81 10000 5.66 150 23:47 16.06.2022
3069 Clouds 11 1019 84 10000 6.17 140 22:42 16.06.2022
3070 Clouds 12 1018 85 10000 6.69 150 21:22 16.06.2022
3071 Clouds 12 1017 85 10000 6.69 160 20:52 16.06.2022
3072 Clouds 12 1016 85 10000 7.72 160 20:33 16.06.2022
3073 Clouds 12 1015 87 9000 7.2 180 19:41 16.06.2022
3074 Clouds 12 1014 79 10000 4.63 240 18:24 16.06.2022
3075 Haze 13 1014 83 4400 1.03 330 17:42 16.06.2022
3076 Clouds 13 1013 80 10000 3.6 350 16:35 16.06.2022
3077 Clouds 14 1013 79 10000 4.63 350 15:22 16.06.2022
3078 Clouds 14 1013 76 10000 5.66 350 14:37 16.06.2022
3079 Clouds 14 1013 74 10000 5.14 350 13:20 16.06.2022
3080 Clouds 14 1012 78 10000 6.17 360 12:36 16.06.2022
3081 Clouds 14 1012 77 10000 5.66 350 11:49 16.06.2022
3082 Clouds 14 1012 75 10000 6.69 350 10:55 16.06.2022
3083 Clouds 14 1012 76 10000 7.2 350 09:53 16.06.2022
3084 Clouds 14 1011 76 10000 6.17 350 09:21 16.06.2022
3085 Clouds 14 1011 74 10000 8.23 360 08:28 16.06.2022
3086 Clouds 14 1010 74 10000 7.72 10 07:24 16.06.2022
3087 Rain 14 1010 71 10000 5.14 340 04:42 16.06.2022
3088 Clouds 16 1011 61 10000 8.75 310 02:20 16.06.2022
3089 Clouds 15 1011 61 10000 7.2 320 01:35 16.06.2022
3090 Clouds 15 1011 61 10000 7.2 320 01:35 16.06.2022
3091 Clouds 15 1011 66 10000 5.14 340 00:39 16.06.2022
3092 Clouds 15 1013 55 9000 5.14 320 23:43 15.06.2022
3093 Clouds 13 1013 67 10000 3.6 340 22:35 15.06.2022
3094 Clouds 14 1012 54 10000 3.09 350 21:22 15.06.2022
3095 Clouds 13 1012 62 10000 2.06 340 20:42 15.06.2022
3096 Clouds 13 1012 62 10000 2.06 340 20:23 15.06.2022
3097 Clouds 13 1012 58 10000 4.63 50 19:20 15.06.2022
3098 Clouds 11 1012 66 10000 4.12 40 17:56 15.06.2022
3099 Clouds 7 1013 87 10000 2.57 360 16:55 15.06.2022
3100 Clouds 7 1012 81 10000 1.03 360 15:36 15.06.2022
3101 Clouds 8 1012 76 10000 1.54 10 14:18 15.06.2022
3102 Clear 11 1011 62 10000 3.09 40 12:54 15.06.2022
3103 Clear 14 1011 51 10000 3.09 280 11:53 15.06.2022
3104 Clear 14 1009 51 10000 4.12 20 10:24 15.06.2022
3105 Clear 13 1009 58 10000 4.63 350 09:42 15.06.2022
3106 Clear 14 1008 54 10000 4.12 330 08:37 15.06.2022
3107 Clear 15 1007 47 10000 3.09 320 06:34 15.06.2022
3108 Clear 16 1006 39 10000 3.6 310 04:34 15.06.2022
3109 Clouds 13 1004 67 10000 4.12 330 01:54 15.06.2022
3110 Clouds 13 1004 65 10000 4.63 340 00:50 15.06.2022
3111 Clouds 13 1004 65 10000 5.66 350 23:39 14.06.2022
3112 Clouds 13 1003 65 10000 5.66 350 23:19 14.06.2022
3113 Clouds 13 1003 63 10000 7.2 330 22:21 14.06.2022
3114 Clouds 13 1002 65 10000 5.14 340 21:36 14.06.2022
3115 Clouds 13 1001 65 10000 5.14 340 20:54 14.06.2022
3116 Clouds 13 1001 66 10000 5.14 330 20:28 14.06.2022
3117 Clouds 13 1001 65 10000 10.8 320 19:18 14.06.2022
3118 Clouds 13 1001 66 10000 7.72 330 17:54 14.06.2022
3119 Clouds 13 1001 66 10000 5.66 340 16:43 14.06.2022
3120 Clouds 13 1000 65 10000 7.2 330 15:50 14.06.2022
3121 Clouds 13 1000 65 10000 7.72 340 15:24 14.06.2022
3122 Clouds 13 1000 68 10000 6.69 360 14:33 14.06.2022
3123 Clouds 13 1000 68 10000 5.66 350 13:42 14.06.2022
3124 Clouds 13 999 65 10000 5.14 340 12:44 14.06.2022
3125 Clouds 14 999 60 10000 5.66 330 11:38 14.06.2022
3126 Clouds 14 998 62 10000 9.26 310 10:47 14.06.2022
3127 Clouds 14 998 62 10000 8.75 300 10:20 14.06.2022
3128 Clouds 14 997 74 10000 3.6 340 08:48 14.06.2022
3129 Clouds 14 996 73 10000 7.72 340 07:34 14.06.2022
3130 Clouds 15 996 72 10000 9.26 350 05:28 14.06.2022
3131 Clouds 14 997 68 10000 10.29 340 02:58 14.06.2022
3132 Clouds 13 997 64 10000 9.77 360 00:53 14.06.2022
3133 Clouds 12 995 67 10000 6.69 350 23:39 13.06.2022
3134 Clouds 11 996 64 10000 7.2 330 22:26 13.06.2022
3135 Clouds 11 996 61 10000 5.14 340 21:50 13.06.2022
3136 Clouds 11 994 68 10000 6.17 330 20:42 13.06.2022
3137 Clouds 11 991 69 10000 5.14 340 19:35 13.06.2022
3138 Clouds 9 992 77 10000 3.6 350 18:28 13.06.2022
3139 Clouds 9 996 76 10000 4.12 30 17:47 13.06.2022
3140 Clouds 9 995 81 10000 4.63 20 16:52 13.06.2022
3141 Clear 8 995 81 10000 2.57 20 15:39 13.06.2022
3142 Clouds 11 995 76 10000 1.54 270 14:47 13.06.2022
3143 Clouds 13 993 58 10000 6.17 190 13:54 13.06.2022
3144 Clouds 8 990 77 10000 5.14 170 12:48 13.06.2022
3145 Clouds 9 988 78 10000 5.66 240 11:34 13.06.2022
3146 Clouds 10 985 80 10000 4.12 300 10:27 13.06.2022
3147 Clouds 11 985 71 10000 4.12 330 09:39 13.06.2022
3148 Clouds 12 982 72 10000 6.69 300 08:24 13.06.2022
3149 Clouds 12 979 75 10000 7.72 320 06:33 13.06.2022
3150 Rain 12 976 72 10000 10.8 320 03:28 13.06.2022
3151 Clouds 13 979 64 10000 9.83 46 01:38 13.06.2022
3152 Rain 11 979 75 10000 10.8 330 00:22 13.06.2022
3153 Clouds 11 978 74 10000 9.26 330 23:29 12.06.2022
3154 Clouds 11 978 73 10000 8.75 330 22:23 12.06.2022
3155 Rain 10 978 74 10000 8.23 330 21:28 12.06.2022
3156 Clouds 11 977 72 10000 7.72 330 20:39 12.06.2022
3157 Clouds 10 978 80 9000 11.83 320 19:38 12.06.2022
3158 Clouds 11 977 79 10000 7.2 340 18:39 12.06.2022
3159 Clouds 12 979 69 10000 7.72 330 16:42 12.06.2022
3160 Clouds 12 978 75 10000 6.69 340 15:30 12.06.2022
3161 Clouds 12 980 80 10000 7.2 330 14:32 12.06.2022
3162 Rain 13 980 74 10000 8.23 340 13:55 12.06.2022
3163 Clouds 13 980 73 10000 8.75 350 12:58 12.06.2022
3164 Rain 13 981 80 10000 8.75 340 11:47 12.06.2022
3165 Clouds 14 980 82 10000 11.83 350 10:45 12.06.2022
3166 Rain 13 981 87 10000 11.32 350 09:25 12.06.2022
3167 Clouds 12 981 89 10000 9.77 350 08:48 12.06.2022
3168 Rain 13 982 85 10000 14.92 360 07:40 12.06.2022
3169 Clouds 13 984 87 8000 11.32 350 05:38 12.06.2022
3170 Rain 13 985 92 10000 10.29 10 03:38 12.06.2022
3171 Clouds 12 987 90 9000 10.8 30 01:43 12.06.2022
3172 Rain 12 989 89 10000 9.26 10 00:59 12.06.2022
3173 Rain 12 990 89 10000 8.23 20 00:26 12.06.2022
3174 Rain 12 990 89 10000 6.69 20 23:53 11.06.2022
3175 Rain 12 989 90 7000 7.2 20 22:40 11.06.2022
3176 Rain 11 990 91 7000 7.2 20 22:21 11.06.2022
3177 Clouds 12 991 87 10000 5.14 330 20:55 11.06.2022
3178 Rain 12 990 85 10000 4.63 340 20:24 11.06.2022
3179 Rain 12 991 78 10000 6.17 330 19:26 11.06.2022
3180 Clouds 13 992 77 10000 7.2 340 18:36 11.06.2022
3181 Clouds 13 992 75 10000 7.72 330 17:52 11.06.2022
3182 Clouds 12 993 76 10000 6.17 330 17:29 11.06.2022
3183 Clouds 12 993 73 10000 7.2 330 16:59 11.06.2022
3184 Clouds 12 993 73 10000 7.72 330 16:38 11.06.2022
3185 Clouds 12 994 68 10000 8.23 330 15:45 11.06.2022
3186 Clouds 12 994 70 10000 7.72 330 15:45 11.06.2022
3187 Clear 12 995 69 10000 7.2 330 13:54 11.06.2022
3188 Clear 12 995 66 10000 7.72 330 13:25 11.06.2022
3189 Clear 12 994 70 10000 9.26 330 10:58 11.06.2022
3190 Clear 12 995 70 10000 7.72 330 10:22 11.06.2022
3191 Clear 12 994 69 10000 8.23 340 09:38 11.06.2022
3192 Clear 13 992 65 10000 6.17 340 07:52 11.06.2022
3193 Clear 13 991 65 10000 6.17 330 06:31 11.06.2022
3194 Clear 14 990 65 10000 5.14 340 05:22 11.06.2022
3195 Clouds 15 988 69 10000 8.75 330 01:53 11.06.2022
3196 Clouds 14 988 69 10000 8.75 340 01:34 11.06.2022
3197 Clouds 14 987 72 10000 7.2 340 00:34 11.06.2022
3198 Clouds 13 986 84 10000 11.83 340 22:35 10.06.2022
3199 Rain 13 987 84 10000 10.8 320 21:54 10.06.2022
3200 Clouds 13 986 82 10000 11.83 340 20:55 10.06.2022
3201 Clouds 13 985 85 8000 9.26 350 20:36 10.06.2022
3202 Rain 13 984 87 8000 9.26 350 20:18 10.06.2022
3203 Rain 12 986 86 10000 10.29 340 19:18 10.06.2022
3204 Rain 12 987 86 7000 8.75 330 18:20 10.06.2022
3205 Clouds 13 987 85 10000 8.75 330 17:36 10.06.2022
3206 Rain 13 987 84 10000 8.75 330 16:58 10.06.2022
3207 Rain 13 988 81 10000 8.75 350 15:50 10.06.2022
3208 Clouds 13 988 81 10000 8.75 350 15:30 10.06.2022
3209 Clouds 12 988 88 7000 8.75 330 13:52 10.06.2022
3210 Thunderstorm 12 990 85 4400 7.72 340 12:41 10.06.2022
3211 Clouds 14 989 75 10000 11.83 340 11:40 10.06.2022
3212 Clouds 13 989 75 10000 13.89 330 10:43 10.06.2022
3213 Clouds 14 990 68 10000 13.89 340 09:44 10.06.2022
3214 Clear 14 990 68 10000 12.35 340 08:30 10.06.2022
3215 Clear 13 990 65 10000 9.26 330 07:20 10.06.2022
3216 Clear 13 990 64 10000 9.26 330 06:43 10.06.2022
3217 Clear 13 990 64 10000 9.26 330 06:24 10.06.2022
3218 Clear 15 987 66 10000 8.23 320 03:50 10.06.2022
3219 Clouds 15 988 72 7000 9.26 330 01:41 10.06.2022
3220 Clouds 14 987 74 10000 8.75 340 00:27 10.06.2022
3221 Clouds 14 987 78 10000 8.23 330 23:29 09.06.2022
3222 Clouds 13 986 85 10000 7.72 340 21:58 09.06.2022
3223 Clouds 13 985 89 7000 10.8 340 21:32 09.06.2022
3224 Clouds 13 985 86 7000 12.86 350 20:54 09.06.2022
3225 Rain 14 985 86 7000 12.86 350 20:54 09.06.2022
3226 Rain 13 985 84 10000 14.4 350 19:59 09.06.2022
3227 Rain 14 986 82 10000 12.86 350 18:54 09.06.2022
3228 Rain 14 987 80 10000 12.35 340 18:21 09.06.2022
3229 Clouds 13 988 83 10000 9.77 350 16:50 09.06.2022
3230 Clouds 12 988 87 10000 9.77 340 15:48 09.06.2022
3231 Clouds 13 989 74 10000 8.23 340 14:35 09.06.2022
3232 Clear 13 990 72 10000 9.26 340 13:51 09.06.2022
3233 Clear 13 990 72 10000 9.26 340 13:27 09.06.2022
3234 Clear 12 991 76 10000 7.72 330 11:54 09.06.2022
3235 Clear 12 990 78 10000 7.72 330 11:18 09.06.2022
3236 Clear 13 989 79 10000 7.72 330 09:43 09.06.2022
3237 Clear 13 988 79 10000 7.72 330 09:23 09.06.2022
3238 Clouds 13 988 82 10000 10.8 330 07:44 09.06.2022
3239 Clouds 13 988 83 10000 7.2 340 05:48 09.06.2022
3240 Rain 13 990 91 10000 9.77 10 02:38 09.06.2022
3241 Rain 13 993 88 10000 8.75 350 23:36 08.06.2022
3242 Rain 13 994 88 10000 7.2 20 22:58 08.06.2022
3243 Clouds 13 993 90 10000 8.75 10 22:26 08.06.2022
3244 Rain 13 994 90 10000 8.23 20 21:52 08.06.2022
3245 Clouds 13 994 87 10000 6.17 10 20:59 08.06.2022
3246 Clouds 14 994 88 10000 8.75 350 20:20 08.06.2022
3247 Clouds 14 994 90 10000 6.17 330 19:38 08.06.2022
3248 Clouds 13 995 89 10000 7.72 340 18:43 08.06.2022
3249 Thunderstorm 12 997 89 6000 10.29 340 16:54 08.06.2022
3250 Rain 14 998 86 10000 11.83 350 15:44 08.06.2022
3251 Clouds 14 998 83 10000 11.32 350 13:44 08.06.2022
3252 Clouds 14 1000 84 10000 11.32 340 11:52 08.06.2022
3253 Clouds 14 1000 83 10000 11.83 350 11:29 08.06.2022
3254 Clouds 16 1000 86 10000 12.35 350 09:55 08.06.2022
3255 Clouds 16 1000 85 10000 10.8 340 09:21 08.06.2022
3256 Clouds 16 1000 84 10000 9.26 340 08:22 08.06.2022
3257 Clouds 16 1000 83 10000 9.26 350 05:51 08.06.2022
3258 Clouds 16 1001 78 10000 9.26 350 03:52 08.06.2022
3259 Clouds 15 1003 83 10000 7.72 340 00:29 08.06.2022
3260 Clouds 15 1003 87 10000 8.23 340 23:27 07.06.2022
3261 Clouds 14 1003 86 10000 7.72 340 22:44 07.06.2022
3262 Clouds 15 1003 87 10000 9.26 340 22:23 07.06.2022
3263 Clouds 14 1003 88 10000 7.72 340 21:33 07.06.2022
3264 Clouds 15 1002 91 10000 7.2 340 20:58 07.06.2022
3265 Clouds 15 1002 91 10000 8.75 350 20:32 07.06.2022
3266 Clouds 14 1001 90 7000 6.17 10 19:38 07.06.2022
3267 Clouds 14 1001 88 10000 6.69 10 18:22 07.06.2022
3268 Clouds 14 1002 88 10000 7.2 360 17:25 07.06.2022
3269 Clouds 14 1002 89 10000 6.69 360 16:42 07.06.2022
3270 Clouds 13 1003 90 10000 5.14 30 15:47 07.06.2022
3271 Clouds 13 1002 90 10000 5.14 30 15:26 07.06.2022
3272 Clouds 13 1002 90 10000 5.14 30 15:26 07.06.2022
3273 Clouds 13 1002 90 10000 3.6 30 14:47 07.06.2022
3274 Clouds 13 1002 90 10000 4.63 20 14:29 07.06.2022
3275 Clouds 13 1001 92 10000 4.63 350 13:30 07.06.2022
3276 Mist 14 1002 93 2400 8.75 360 12:45 07.06.2022
3277 Clouds 14 1003 89 10000 10.8 10 11:37 07.06.2022
3278 Clouds 16 1003 75 10000 8.75 20 10:26 07.06.2022
3279 Clouds 15 1003 77 10000 8.75 20 08:49 07.06.2022
3280 Clouds 15 1004 74 10000 7.2 20 07:33 07.06.2022
3281 Clouds 15 1005 75 10000 10.8 10 05:58 07.06.2022
3282 Clouds 15 1007 78 10000 10.29 360 03:31 07.06.2022
3283 Drizzle 15 1009 87 7000 9.77 360 00:45 07.06.2022
3284 Clouds 15 1009 81 10000 11.32 360 23:41 06.06.2022
3285 Clouds 15 1009 81 10000 8.75 360 22:47 06.06.2022
3286 Clouds 14 1009 81 10000 7.72 20 21:56 06.06.2022
3287 Clouds 15 1009 81 10000 5.66 10 20:35 06.06.2022
3288 Clouds 14 1010 83 10000 5.66 20 19:24 06.06.2022
3289 Clouds 14 1010 85 10000 5.14 10 18:47 06.06.2022
3290 Clouds 14 1011 86 10000 4.63 20 17:55 06.06.2022
3291 Clouds 14 1012 86 10000 4.63 10 16:51 06.06.2022
3292 Clouds 14 1012 88 10000 3.6 40 15:44 06.06.2022
3293 Clouds 13 1013 88 10000 4.63 30 14:57 06.06.2022
3294 Clouds 14 1013 88 10000 4.12 30 13:43 06.06.2022
3295 Clouds 14 1013 88 10000 4.12 40 13:19 06.06.2022
3296 Clouds 14 1014 87 10000 4.12 30 12:33 06.06.2022
3297 Clouds 14 1014 86 10000 4.63 30 11:45 06.06.2022
3298 Clouds 14 1014 88 10000 6.17 10 09:51 06.06.2022
3299 Clouds 13 1014 88 10000 6.69 360 08:44 06.06.2022
3300 Clouds 13 1013 87 10000 5.14 20 07:44 06.06.2022
3301 Clouds 14 1014 85 10000 6.17 360 06:49 06.06.2022
3302 Clouds 15 1014 84 10000 7.72 360 04:38 06.06.2022
3303 Clouds 14 1014 86 10000 8.23 360 01:53 06.06.2022
3304 Clouds 14 1015 85 10000 8.23 360 00:57 06.06.2022
3305 Clouds 14 1015 85 10000 9.26 10 00:34 06.06.2022
3306 Rain 13 1014 83 10000 9.26 10 22:59 05.06.2022
3307 Clouds 13 1014 82 10000 7.72 360 22:19 05.06.2022
3308 Rain 13 1013 80 10000 8.75 10 20:23 05.06.2022
3309 Clouds 13 1013 80 10000 8.75 360 19:23 05.06.2022
3310 Clouds 13 1013 77 10000 5.66 20 18:18 05.06.2022
3311 Rain 13 1013 77 10000 4.12 30 17:38 05.06.2022
3312 Rain 12 1013 76 10000 4.12 30 17:38 05.06.2022
3313 Clouds 13 1014 74 10000 5.66 20 17:20 05.06.2022
3314 Rain 13 1014 73 10000 5.66 20 16:47 05.06.2022
3315 Clouds 13 1013 71 10000 6.17 10 15:25 05.06.2022
3316 Clouds 13 1014 71 10000 5.14 20 14:21 05.06.2022
3317 Clouds 12 1015 77 10000 4.12 30 11:58 05.06.2022
3318 Clouds 12 1014 73 10000 4.12 350 10:45 05.06.2022
3319 Clouds 12 1014 73 10000 4.63 20 10:24 05.06.2022
3320 Clouds 13 1014 75 10000 5.14 20 09:33 05.06.2022
3321 Rain 12 1014 74 10000 5.14 10 08:23 05.06.2022
3322 Rain 12 1014 75 10000 4.12 10 06:23 05.06.2022
3323 Clouds 13 1014 78 10000 4.63 10 05:19 05.06.2022
3324 Clouds 13 1016 87 10000 4.12 10 02:43 05.06.2022
3325 Clouds 10 1017 90 10000 5.14 340 01:23 05.06.2022
3326 Clouds 10 1017 90 10000 5.14 340 01:23 05.06.2022
3327 Clouds 8 1020 87 10000 3.09 20 22:51 04.06.2022
3328 Clouds 7 1020 87 10000 5.14 10 21:30 04.06.2022
3329 Clouds 6 1020 87 10000 2.57 30 19:27 04.06.2022
3330 Clouds 7 1020 87 10000 2.57 50 16:48 04.06.2022
3331 Clouds 6 1020 93 10000 3.09 20 16:20 04.06.2022
3332 Clouds 8 1021 93 10000 3.09 340 15:39 04.06.2022
3333 Clear 8 1019 87 10000 2.06 50 13:59 04.06.2022
3334 Clear 7 1019 90 10000 2.57 20 11:43 04.06.2022
3335 Clear 8 1019 87 10000 2.57 40 10:55 04.06.2022
3336 Clear 8 1019 88 10000 2.06 10 09:59 04.06.2022
3337 Clear 9 1019 88 10000 1.54 30 09:38 04.06.2022
3338 Clear 9 1018 86 10000 1.54 60 08:39 04.06.2022
3339 Clear 10 1017 82 10000 2.06 250 07:00 04.06.2022
3340 Clouds 13 1016 79 10000 3.09 230 04:29 04.06.2022
3341 Clouds 11 1016 87 10000 6.69 160 00:24 04.06.2022
3342 Clouds 9 1016 84 10000 5.14 180 23:19 03.06.2022
3343 Clouds 9 1014 84 10000 6.17 190 21:54 03.06.2022
3344 Clouds 9 1013 87 10000 7.2 190 20:42 03.06.2022
3345 Clouds 9 1012 87 10000 6.69 190 19:49 03.06.2022
3346 Clouds 9 1011 87 10000 8.23 170 16:59 03.06.2022
3347 Clouds 10 1010 86 10000 8.23 190 16:30 03.06.2022
3348 Clouds 9 1010 88 10000 9.26 170 14:47 03.06.2022
3349 Rain 10 1008 82 10000 9.26 180 12:26 03.06.2022
3350 Rain 11 1006 82 10000 10.29 180 09:58 03.06.2022
3351 Drizzle 11 1006 85 10000 9.26 180 09:29 03.06.2022
3352 Clouds 11 1003 83 10000 10.29 170 07:50 03.06.2022
3353 Clouds 11 1003 84 10000 8.75 180 07:19 03.06.2022
3354 Clouds 11 1003 86 10000 9.26 170 06:30 03.06.2022
3355 Clouds 11 1001 91 10000 8.23 170 04:35 03.06.2022
3356 Clouds 12 998 93 10000 9.77 190 00:21 03.06.2022
3357 Clouds 11 996 92 10000 7.2 180 22:35 02.06.2022
3358 Clouds 11 994 93 10000 7.2 190 20:58 02.06.2022
3359 Drizzle 10 993 94 10000 1.03 90 19:59 02.06.2022
3360 Clouds 11 993 94 10000 1.03 350 19:40 02.06.2022
3361 Clouds 11 993 94 10000 0.51 60 19:18 02.06.2022
3362 Clouds 12 991 88 10000 2.06 30 16:30 02.06.2022
3363 Clouds 13 990 88 10000 2.57 30 15:58 02.06.2022
3364 Clouds 13 989 90 10000 3.6 350 13:38 02.06.2022
3365 Clouds 13 989 91 10000 3.6 350 13:20 02.06.2022
3366 Clouds 13 988 90 10000 4.63 20 11:18 02.06.2022
3367 Clouds 12 988 93 10000 5.66 20 10:19 02.06.2022
3368 Clouds 12 988 93 10000 6.17 20 09:27 02.06.2022
3369 Clouds 11 988 93 10000 4.12 20 08:25 02.06.2022
3370 Rain 12 988 92 5000 5.14 330 06:50 02.06.2022
3371 Rain 15 989 85 10000 6.17 10 03:54 02.06.2022
3372 Rain 14 990 81 10000 8.23 350 02:22 02.06.2022
3373 Haze 14 993 89 5000 9.77 10 23:36 01.06.2022
3374 Clouds 14 993 89 10000 9.26 360 22:21 01.06.2022
3375 Haze 14 992 91 4500 8.75 350 21:26 01.06.2022
3376 Rain 14 991 90 3400 10.29 350 20:39 01.06.2022
3377 Rain 15 992 89 10000 11.32 340 19:52 01.06.2022
3378 Clouds 15 992 87 10000 10.8 350 18:58 01.06.2022
3379 Clouds 16 993 82 10000 11.32 340 17:40 01.06.2022
3380 Clouds 16 993 86 10000 13.38 350 16:33 01.06.2022
3381 Clouds 16 993 86 4200 11.83 360 14:52 01.06.2022
3382 Clouds 15 994 83 10000 13.89 360 13:44 01.06.2022
3383 Clouds 15 994 89 10000 8.75 330 12:25 01.06.2022
3384 Clouds 15 993 86 10000 10.29 10 09:36 01.06.2022
3385 Rain 14 993 85 10000 9.26 340 08:29 01.06.2022
3386 Clouds 16 991 81 10000 11.32 350 07:22 01.06.2022
3387 Rain 16 991 86 8000 13.38 340 05:22 01.06.2022
3388 Rain 16 990 90 10000 12.86 350 00:20 01.06.2022
3389 Rain 16 991 85 10000 11.32 340 22:59 31.05.2022
3390 Clouds 16 991 84 10000 11.83 340 22:33 31.05.2022
3391 Drizzle 16 991 91 10000 11.83 350 21:45 31.05.2022
3392 Clouds 16 991 91 10000 9.77 350 20:45 31.05.2022
3393 Clouds 16 991 91 10000 9.77 350 20:45 31.05.2022
3394 Clouds 16 991 91 10000 11.83 360 19:57 31.05.2022
3395 Rain 15 991 92 10000 10.8 20 18:50 31.05.2022
3396 Rain 15 992 91 10000 9.26 10 17:49 31.05.2022
3397 Rain 15 992 89 9000 10.8 20 16:53 31.05.2022
3398 Rain 14 994 85 10000 10.29 20 15:40 31.05.2022
3399 Rain 16 995 73 10000 7.2 20 13:45 31.05.2022
3400 Rain 16 997 74 10000 9.77 10 12:20 31.05.2022
3401 Clouds 16 999 81 10000 10.29 10 10:52 31.05.2022
3402 Rain 16 1000 87 10000 8.75 10 08:49 31.05.2022
3403 Clouds 16 999 85 10000 11.83 340 07:21 31.05.2022
3404 Clouds 17 1001 88 10000 11.83 340 04:53 31.05.2022
3405 Clouds 16 1001 89 10000 8.75 340 00:26 31.05.2022
3406 Clouds 16 1001 91 10000 9.77 340 23:26 30.05.2022
3407 Clouds 15 1001 90 10000 9.26 350 22:53 30.05.2022
3408 Rain 15 1000 92 4600 10.8 320 21:52 30.05.2022
3409 Rain 15 999 92 4600 10.8 320 21:32 30.05.2022
3410 Rain 15 999 92 10000 10.29 340 19:57 30.05.2022
3411 Clouds 15 998 94 7000 8.75 350 18:39 30.05.2022
3412 Rain 16 999 93 7000 6.69 350 17:24 30.05.2022
3413 Clouds 16 999 91 10000 10.29 350 16:40 30.05.2022
3414 Clouds 16 1000 93 10000 6.69 20 14:23 30.05.2022
3415 Rain 16 1001 94 10000 4.63 30 12:21 30.05.2022
3416 Rain 15 1001 94 10000 3.6 350 10:41 30.05.2022
3417 Rain 15 1002 94 10000 4.63 360 09:19 30.05.2022
3418 Rain 15 1002 94 10000 1.54 130 06:40 30.05.2022
3419 Rain 14 1002 96 10000 1.54 110 05:48 30.05.2022
3420 Rain 12 1007 95 10000 0.51 360 01:42 30.05.2022
3421 Rain 10 1009 94 10000 1.03 350 22:57 29.05.2022
3422 Rain 10 1009 94 10000 2.57 50 22:36 29.05.2022
3423 Rain 8 1010 93 10000 1.54 20 20:54 29.05.2022
3424 Rain 9 1013 87 10000 1.03 360 19:32 29.05.2022
3425 Rain 9 1013 87 10000 1.54 40 18:44 29.05.2022
3426 Clouds 9 1014 87 10000 1.03 30 17:31 29.05.2022
3427 Clouds 9 1015 81 10000 2.57 20 15:48 29.05.2022
3428 Clouds 9 1016 81 10000 2.06 20 14:57 29.05.2022
3429 Clouds 9 1017 87 10000 1.54 40 13:53 29.05.2022
3430 Clouds 9 1016 87 10000 2.06 40 11:41 29.05.2022
3431 Clouds 9 1017 87 10000 1.54 350 10:38 29.05.2022
3432 Clouds 9 1017 87 10000 1.03 20 08:51 29.05.2022
3433 Clouds 13 1018 80 10000 4.12 350 06:18 29.05.2022
3434 Clouds 14 1019 73 10000 4.12 350 04:45 29.05.2022
3435 Clouds 15 1019 72 10000 4.12 10 03:47 29.05.2022
3436 Clouds 13 1022 84 10000 5.14 40 23:50 28.05.2022
3437 Clouds 12 1022 84 10000 4.63 20 23:26 28.05.2022
3438 Clouds 10 1022 89 10000 4.63 10 22:36 28.05.2022
3439 Clouds 11 1021 87 10000 5.14 30 21:38 28.05.2022
3440 Clouds 12 1022 84 10000 6.17 20 19:49 28.05.2022
3441 Clouds 12 1022 84 10000 6.69 30 18:50 28.05.2022
3442 Clouds 12 1021 85 10000 6.17 20 17:37 28.05.2022
3443 Clouds 12 1022 84 10000 6.17 30 16:43 28.05.2022
3444 Clouds 12 1022 84 10000 6.17 20 15:43 28.05.2022
3445 Clouds 13 1023 82 10000 7.2 40 14:26 28.05.2022
3446 Clouds 13 1023 83 10000 6.17 30 12:51 28.05.2022
3447 Clouds 13 1023 81 10000 6.17 10 12:33 28.05.2022
3448 Clouds 13 1024 81 10000 7.72 360 11:21 28.05.2022
3449 Clouds 13 1024 81 10000 8.23 350 09:59 28.05.2022
3450 Clouds 13 1023 81 10000 8.75 360 09:21 28.05.2022
3451 Clouds 13 1023 84 10000 8.23 20 07:23 28.05.2022
3452 Clouds 13 1023 80 10000 7.72 10 05:36 28.05.2022
3453 Clouds 14 1024 77 10000 8.75 10 02:44 28.05.2022
3454 Clouds 12 1025 88 10000 6.69 30 00:33 28.05.2022
3455 Clouds 11 1026 87 10000 6.17 10 23:20 27.05.2022
3456 Clouds 9 1028 81 10000 4.12 30 21:46 27.05.2022
3457 Clouds 8 1026 94 10000 5.66 30 20:56 27.05.2022
3458 Clear 8 1026 95 10000 5.14 20 20:25 27.05.2022
3459 Clear 8 1027 87 10000 2.57 20 19:42 27.05.2022
3460 Clear 8 1026 98 10000 2.06 10 19:24 27.05.2022
3461 Clear 8 1028 93 10000 1.54 340 17:58 27.05.2022
3462 Clear 8 1028 93 10000 1.54 360 16:39 27.05.2022
3463 Clear 8 1029 93 10000 2.57 30 15:22 27.05.2022
3464 Clear 8 1029 93 10000 2.06 30 14:25 27.05.2022
3465 Clear 9 1029 87 10000 2.06 40 12:43 27.05.2022
3466 Clear 7 1028 89 10000 2.57 30 11:34 27.05.2022
3467 Clear 7 1028 86 8000 2.06 30 10:55 27.05.2022
3468 Clear 7 1028 88 9000 1.54 50 10:29 27.05.2022
3469 Clear 8 1026 86 10000 1.54 20 09:34 27.05.2022
3470 Clouds 9 1027 87 7000 1.03 220 07:52 27.05.2022
3471 Clouds 12 1026 77 10000 3.6 210 05:39 27.05.2022
3472 Clouds 12 1027 80 10000 4.63 170 02:26 27.05.2022
3473 Clouds 11 1028 82 10000 5.66 180 00:26 27.05.2022
3474 Clouds 10 1027 83 10000 6.17 190 22:35 26.05.2022
3475 Clouds 10 1026 83 9000 6.69 200 21:39 26.05.2022
3476 Clouds 10 1026 82 10000 6.69 190 20:30 26.05.2022
3477 Clouds 10 1026 78 10000 6.69 190 19:19 26.05.2022
3478 Clouds 10 1026 76 10000 6.17 190 17:51 26.05.2022
3479 Clouds 10 1026 76 10000 6.69 190 16:42 26.05.2022
3480 Clouds 10 1026 76 10000 5.66 180 15:45 26.05.2022
3481 Clouds 9 1026 74 10000 8.23 190 14:28 26.05.2022
3482 Drizzle 9 1026 86 10000 7.2 160 12:37 26.05.2022
3483 Clouds 9 1026 82 10000 7.72 170 11:23 26.05.2022
3484 Clouds 9 1025 84 10000 8.75 170 09:41 26.05.2022
3485 Clouds 9 1025 82 10000 8.75 170 09:23 26.05.2022
3486 Clouds 9 1025 81 10000 7.72 170 08:30 26.05.2022
3487 Clouds 10 1024 79 10000 7.2 150 04:41 26.05.2022
3488 Clouds 9 1024 85 10000 7.2 160 00:38 26.05.2022
3489 Rain 9 1024 86 10000 8.23 170 23:40 25.05.2022
3490 Clouds 9 1022 81 10000 8.23 160 21:56 25.05.2022
3491 Clouds 9 1022 80 10000 8.75 170 21:31 25.05.2022
3492 Clouds 9 1020 79 10000 8.75 160 20:35 25.05.2022
3493 Clouds 9 1020 79 10000 8.75 160 20:35 25.05.2022
3494 Clouds 9 1020 79 10000 8.23 160 19:24 25.05.2022
3495 Clouds 10 1019 75 10000 8.23 170 17:43 25.05.2022
3496 Clouds 10 1019 78 8000 8.75 160 16:38 25.05.2022
3497 Clouds 10 1020 79 10000 8.75 170 15:54 25.05.2022
3498 Clouds 11 1020 77 10000 9.26 170 14:51 25.05.2022
3499 Clouds 11 1019 76 10000 7.2 170 14:33 25.05.2022
3500 Clouds 11 1019 77 9000 7.72 160 13:45 25.05.2022
3501 Clouds 11 1020 82 10000 9.26 160 12:38 25.05.2022
3502 Clouds 12 1019 79 10000 7.72 160 10:43 25.05.2022
3503 Clouds 12 1019 78 10000 8.23 160 10:18 25.05.2022
3504 Clouds 12 1016 83 10000 4.02 230 08:37 25.05.2022
3505 Clear 10 1014 84 10000 2.68 233 07:23 25.05.2022
3506 Clear 15 1012 62 10000 1.03 320 04:22 25.05.2022
3507 Clear 11 1014 89 10000 3.09 350 00:19 25.05.2022
3508 Clear 11 1014 92 10000 3.09 350 23:43 24.05.2022
3509 Clear 10 1014 87 10000 3.09 20 22:32 24.05.2022
3510 Clear 8 1014 93 10000 3.09 10 21:40 24.05.2022
3511 Clear 8 1014 93 10000 3.09 10 21:20 24.05.2022
3512 Clear 9 1014 93 10000 3.09 30 19:48 24.05.2022
3513 Clear 9 1015 93 10000 4.12 360 18:54 24.05.2022
3514 Clear 9 1016 93 10000 4.12 10 16:45 24.05.2022
3515 Clear 9 1016 93 10000 4.12 20 16:23 24.05.2022
3516 Clear 9 1017 87 10000 2.57 30 14:58 24.05.2022
3517 Clear 9 1017 87 10000 2.57 30 14:21 24.05.2022
3518 Clouds 9 1017 87 10000 2.06 20 12:50 24.05.2022
3519 Clouds 9 1017 87 10000 2.06 20 12:50 24.05.2022
3520 Clouds 10 1017 87 10000 1.03 20 11:33 24.05.2022
3521 Clear 10 1014 85 10000 1.54 360 09:45 24.05.2022
3522 Clear 9 1014 89 10000 2.57 10 08:50 24.05.2022
3523 Clouds 12 1014 84 10000 1.54 320 06:57 24.05.2022
3524 Clouds 15 1014 76 10000 5.14 10 04:20 24.05.2022
3525 Clouds 15 1015 73 10000 7.2 10 02:37 24.05.2022
3526 Clouds 14 1016 74 10000 3.6 20 01:42 24.05.2022
3527 Clouds 12 1016 87 8000 1.54 340 23:33 23.05.2022
3528 Clouds 11 1016 90 10000 2.06 360 21:57 23.05.2022
3529 Clouds 11 1016 89 10000 2.06 20 21:39 23.05.2022
3530 Clouds 11 1015 89 10000 3.09 30 20:42 23.05.2022
3531 Clouds 11 1016 89 10000 3.6 30 19:33 23.05.2022
3532 Clouds 11 1016 89 10000 3.6 30 18:59 23.05.2022
3533 Clouds 11 1016 89 10000 3.09 30 18:35 23.05.2022
3534 Clouds 11 1017 87 10000 4.12 20 17:38 23.05.2022
3535 Clouds 12 1016 84 10000 5.66 30 15:37 23.05.2022
3536 Clouds 13 1016 81 10000 6.69 30 13:32 23.05.2022
3537 Clouds 12 1016 82 10000 7.72 30 11:36 23.05.2022
3538 Clear 12 1015 80 10000 8.23 40 10:43 23.05.2022
3539 Clear 12 1015 78 10000 6.69 20 09:40 23.05.2022
3540 Clear 12 1015 78 10000 7.2 360 08:38 23.05.2022
3541 Clear 12 1015 73 10000 5.14 350 06:47 23.05.2022
3542 Clear 12 1015 72 10000 5.14 350 06:23 23.05.2022
3543 Clouds 13 1015 69 10000 2.06 200 02:35 23.05.2022
3544 Clouds 14 1015 71 10000 3.09 190 01:48 23.05.2022
3545 Clouds 13 1014 71 10000 3.09 190 01:19 23.05.2022
3546 Clouds 10 1013 86 10000 5.14 180 22:47 22.05.2022
3547 Clouds 10 1013 86 9000 6.17 180 22:18 22.05.2022
3548 Clouds 10 1012 84 10000 6.69 180 21:49 22.05.2022
3549 Clouds 11 1010 85 8000 7.2 180 20:42 22.05.2022
3550 Clouds 11 1010 86 8000 7.2 180 20:20 22.05.2022
3551 Clouds 11 1009 82 10000 9.77 180 18:58 22.05.2022
3552 Clouds 11 1009 82 10000 9.77 180 18:31 22.05.2022
3553 Clouds 12 1008 84 10000 9.26 170 17:55 22.05.2022
3554 Clouds 11 1007 79 6000 6.69 220 16:51 22.05.2022
3555 Clouds 12 1006 73 10000 2.24 179 15:22 22.05.2022
3556 Clouds 13 1005 71 10000 3.6 30 14:36 22.05.2022
3557 Haze 12 1005 75 3500 1.54 340 12:54 22.05.2022
3558 Haze 11 1005 75 5000 1.54 10 12:24 22.05.2022
3559 Haze 12 1004 71 2100 1.03 310 10:38 22.05.2022
3560 Clear 13 1003 72 10000 3.09 10 09:29 22.05.2022
3561 Clouds 14 1002 71 10000 4.12 30 07:44 22.05.2022
3562 Clouds 14 1002 68 10000 4.63 340 06:41 22.05.2022
3563 Clouds 15 1002 66 10000 5.14 350 03:53 22.05.2022
3564 Clear 14 1003 69 10000 5.14 10 00:59 22.05.2022
3565 Clear 13 1003 69 10000 4.12 10 23:57 21.05.2022
3566 Clear 13 1003 69 10000 4.12 40 23:29 21.05.2022
3567 Clear 11 1004 76 8000 3.09 360 21:59 21.05.2022
3568 Clear 9 1004 83 10000 4.12 360 21:37 21.05.2022
3569 Clear 9 1006 87 10000 4.12 30 20:41 21.05.2022
3570 Clouds 8 1006 93 10000 3.6 10 19:55 21.05.2022
3571 Clouds 9 1006 93 10000 3.09 40 19:20 21.05.2022
3572 Clouds 9 1003 82 10000 2.57 140 17:23 21.05.2022
3573 Clouds 10 1003 79 10000 7.2 150 14:51 21.05.2022
3574 Clear 11 1003 74 10000 7.72 230 14:19 21.05.2022
3575 Clear 12 1002 66 10000 4.12 300 13:25 21.05.2022
3576 Clear 12 1002 64 10000 3.09 260 12:39 21.05.2022
3577 Clear 13 1002 60 10000 5.14 270 11:38 21.05.2022
3578 Clear 13 1001 61 10000 3.6 310 10:21 21.05.2022
3579 Clear 13 1000 61 10000 2.57 340 08:59 21.05.2022
3580 Clear 14 1000 62 10000 4.12 330 08:38 21.05.2022
3581 Clear 14 999 71 10000 1.79 11 06:20 21.05.2022
3582 Clouds 14 1002 67 10000 7.2 340 01:59 21.05.2022
3583 Clear 11 1005 71 10000 3.09 10 23:36 20.05.2022
3584 Clear 10 1004 74 10000 2.57 10 22:40 20.05.2022
3585 Clear 9 1004 77 10000 2.57 10 22:18 20.05.2022
3586 Clear 8 1003 81 10000 2.57 20 21:19 20.05.2022
3587 Clear 7 1005 78 10000 3.6 10 20:47 20.05.2022
3588 Clouds 6 1007 87 10000 3.09 20 19:47 20.05.2022
3589 Clouds 5 1007 87 10000 2.57 30 18:58 20.05.2022
3590 Clouds 6 1007 81 10000 1.54 50 18:23 20.05.2022
3591 Clouds 7 1005 81 10000 4.12 280 16:27 20.05.2022
3592 Clouds 7 1005 81 10000 4.12 280 15:54 20.05.2022
3593 Clouds 7 1005 79 10000 8.75 210 15:20 20.05.2022
3594 Clouds 8 1004 78 10000 9.26 220 14:27 20.05.2022
3595 Clouds 9 1004 82 10000 10.8 190 12:45 20.05.2022
3596 Clouds 9 1002 84 10000 12.35 190 10:48 20.05.2022
3597 Clouds 9 1000 91 10000 5.14 240 09:31 20.05.2022
3598 Rain 9 999 90 7000 7.72 180 08:27 20.05.2022
3599 Clouds 10 997 86 10000 3.6 280 06:43 20.05.2022
3600 Clouds 10 996 82 10000 12.35 200 05:40 20.05.2022
3601 Clouds 14 991 76 10000 6.69 330 02:52 20.05.2022
3602 Rain 13 994 84 10000 8.23 340 23:47 19.05.2022
3603 Rain 12 995 86 10000 6.17 340 22:37 19.05.2022
3604 Rain 12 996 89 10000 7.2 320 21:51 19.05.2022
3605 Rain 12 997 89 10000 6.69 320 21:24 19.05.2022
3606 Rain 12 998 87 4800 9.26 310 20:52 19.05.2022
3607 Clouds 14 998 81 10000 11.32 340 19:54 19.05.2022
3608 Clouds 14 999 76 10000 9.77 340 19:19 19.05.2022
3609 Clear 14 1000 75 10000 9.77 340 17:46 19.05.2022
3610 Clear 14 1001 73 10000 5.14 340 15:58 19.05.2022
3611 Clear 14 1002 75 10000 5.66 340 14:49 19.05.2022
3612 Clear 14 1002 77 10000 5.66 340 14:20 19.05.2022
3613 Clear 14 1002 78 10000 6.17 320 12:19 19.05.2022
3614 Clear 15 1001 75 10000 7.2 310 10:31 19.05.2022
3615 Clear 16 1000 76 10000 8.75 320 08:46 19.05.2022
3616 Clouds 16 999 85 10000 10.8 340 07:24 19.05.2022
3617 Rain 17 1001 86 10000 9.26 340 04:23 19.05.2022
3618 Clouds 17 1003 86 10000 13.89 340 01:28 19.05.2022
3619 Clouds 17 1003 87 10000 12.86 340 23:43 18.05.2022
3620 Clouds 17 1004 87 10000 12.35 330 22:44 18.05.2022
3621 Clouds 16 1004 87 10000 12.35 340 21:45 18.05.2022
3622 Clouds 16 1004 90 10000 11.83 350 21:24 18.05.2022
3623 Clouds 16 1004 90 10000 13.38 350 20:22 18.05.2022
3624 Clouds 16 1004 91 10000 12.35 360 19:18 18.05.2022
3625 Clouds 16 1006 92 10000 9.77 350 18:18 18.05.2022
3626 Clouds 16 1007 92 8000 8.23 350 17:40 18.05.2022
3627 Clouds 16 1006 92 8000 8.23 350 17:22 18.05.2022
3628 Clouds 16 1008 90 10000 7.2 360 15:58 18.05.2022
3629 Clouds 16 1008 90 10000 6.69 350 15:37 18.05.2022
3630 Clouds 16 1010 88 10000 5.66 20 14:25 18.05.2022
3631 Clouds 16 1010 90 10000 7.72 360 12:58 18.05.2022
3632 Clouds 16 1011 90 10000 8.75 10 12:39 18.05.2022
3633 Clouds 15 1011 88 10000 5.66 360 11:33 18.05.2022
3634 Clouds 15 1011 88 10000 6.69 360 10:49 18.05.2022
3635 Clear 16 1012 89 10000 6.69 350 08:27 18.05.2022
3636 Clear 16 1011 86 10000 8.23 350 07:28 18.05.2022
3637 Clear 18 1011 75 10000 7.2 20 04:26 18.05.2022
3638 Clear 17 1012 87 10000 6.17 30 00:52 18.05.2022
3639 Clear 14 1012 94 10000 5.14 350 23:41 17.05.2022
3640 Clear 12 1011 100 10000 3.09 360 21:23 17.05.2022
3641 Clouds 12 1013 94 10000 1.54 10 20:57 17.05.2022
3642 Clouds 12 1012 94 10000 1.54 30 19:45 17.05.2022
3643 Clouds 13 1012 94 10000 1.03 110 19:25 17.05.2022
3644 Clouds 12 1008 91 10000 2.57 180 17:49 17.05.2022
3645 Clouds 13 1009 90 10000 4.63 220 16:58 17.05.2022
3646 Clouds 13 1009 90 10000 4.63 230 16:29 17.05.2022
3647 Clouds 14 1009 91 10000 1.54 280 15:18 17.05.2022
3648 Clouds 15 1008 93 10000 3.6 20 14:29 17.05.2022
3649 Clouds 16 1007 92 10000 4.63 360 13:31 17.05.2022
3650 Clouds 16 1005 93 10000 8.23 350 10:51 17.05.2022
3651 Clouds 17 1005 93 10000 8.23 350 08:55 17.05.2022
3652 Clouds 17 1005 95 10000 8.23 360 07:59 17.05.2022
3653 Clouds 17 1004 94 10000 6.69 360 06:36 17.05.2022
3654 Clouds 18 1007 96 7000 8.23 10 02:27 17.05.2022
3655 Clouds 18 1008 94 10000 7.72 350 00:28 17.05.2022
3656 Clouds 17 1008 96 6000 7.2 10 22:41 16.05.2022
3657 Clouds 17 1007 95 10000 8.23 350 21:33 16.05.2022
3658 Clouds 17 1008 93 10000 8.23 350 20:46 16.05.2022
3659 Clouds 17 1008 91 10000 9.26 340 19:22 16.05.2022
3660 Clouds 16 1008 90 10000 10.29 340 17:58 16.05.2022
3661 Clouds 16 1008 93 10000 7.72 360 15:42 16.05.2022
3662 Clouds 16 1008 93 10000 6.17 20 13:49 16.05.2022
3663 Clouds 16 1008 93 10000 6.17 360 12:50 16.05.2022
3664 Clouds 16 1008 93 10000 5.14 10 10:52 16.05.2022
3665 Clouds 16 1008 94 10000 6.69 10 08:55 16.05.2022
3666 Clouds 16 1007 92 10000 4.12 20 06:33 16.05.2022
3667 Clouds 16 1007 93 10000 2.57 220 02:38 16.05.2022
3668 Clouds 14 1006 97 7000 0.51 350 23:19 15.05.2022
3669 Clouds 13 1006 97 10000 1.03 40 22:29 15.05.2022
3670 Clouds 13 1005 97 10000 1.03 20 21:39 15.05.2022
3671 Mist 13 1005 97 5000 1.03 350 20:53 15.05.2022
3672 Clouds 13 1004 97 7000 1.03 30 19:28 15.05.2022
3673 Clouds 14 1004 96 7000 2.06 230 17:51 15.05.2022
3674 Mist 14 1005 96 5000 1.03 200 15:56 15.05.2022
3675 Drizzle 14 1005 96 5000 1.54 10 13:50 15.05.2022
3676 Clouds 14 1006 96 10000 1.03 70 12:23 15.05.2022
3677 Rain 14 1006 96 10000 1.03 20 11:38 15.05.2022
3678 Clouds 14 1006 95 10000 1.03 20 10:23 15.05.2022
3679 Rain 14 1006 95 9000 1.54 180 08:32 15.05.2022
3680 Rain 15 1005 94 5000 1.03 230 06:58 15.05.2022
3681 Rain 15 1005 93 10000 1.54 350 05:33 15.05.2022
3682 Rain 16 1008 90 10000 2.06 30 00:49 15.05.2022
3683 Clouds 15 1008 93 10000 0.51 90 23:38 14.05.2022
3684 Clouds 15 1008 94 10000 3.09 140 22:45 14.05.2022
3685 Clouds 15 1008 94 10000 6.17 170 21:28 14.05.2022
3686 Clouds 15 1008 94 10000 6.17 170 20:51 14.05.2022
3687 Rain 14 1008 94 10000 5.14 190 19:37 14.05.2022
3688 Rain 14 1008 94 10000 5.14 190 19:19 14.05.2022
3689 Rain 14 1008 94 10000 4.12 180 18:41 14.05.2022
3690 Clouds 14 1008 90 10000 6.17 200 16:38 14.05.2022
3691 Clouds 15 1009 95 10000 1.54 50 15:23 14.05.2022
3692 Rain 16 1008 94 10000 2.06 40 14:33 14.05.2022
3693 Clouds 16 1010 95 10000 6.69 360 12:23 14.05.2022
3694 Clouds 16 1010 93 10000 10.29 360 10:54 14.05.2022
3695 Clouds 16 1010 91 10000 9.26 360 10:21 14.05.2022
3696 Clouds 16 1010 91 10000 8.75 360 09:53 14.05.2022
3697 Rain 16 1011 91 10000 9.26 360 08:49 14.05.2022
3698 Clouds 15 1012 90 10000 8.23 360 05:47 14.05.2022
3699 Clouds 17 1015 79 10000 9.26 360 02:32 14.05.2022
3700 Clouds 15 1016 72 10000 7.15 179 23:36 13.05.2022
3701 Clouds 15 1017 75 10000 6.69 360 22:58 13.05.2022
3702 Clouds 15 1016 74 10000 5.66 360 22:25 13.05.2022
3703 Clouds 15 1016 75 10000 5.36 179 21:52 13.05.2022
3704 Clouds 15 1016 74 10000 6.17 350 20:45 13.05.2022
3705 Clouds 15 1016 74 10000 7.72 350 20:27 13.05.2022
3706 Clouds 15 1016 76 10000 7.72 350 19:28 13.05.2022
3707 Clouds 14 1016 76 10000 8.23 10 17:50 13.05.2022
3708 Clouds 14 1017 76 10000 9.26 20 17:28 13.05.2022
3709 Clouds 14 1018 76 10000 10.29 10 16:20 13.05.2022
3710 Clouds 14 1019 76 10000 8.75 10 15:28 13.05.2022
3711 Clouds 15 1020 80 10000 9.26 350 13:41 13.05.2022
3712 Clouds 15 1021 80 10000 10.29 360 12:28 13.05.2022
3713 Clouds 15 1022 79 10000 11.83 20 11:22 13.05.2022
3714 Clouds 13 1022 83 10000 10.29 30 09:34 13.05.2022
3715 Clouds 13 1022 83 10000 8.75 20 08:44 13.05.2022
3716 Clouds 13 1023 84 10000 7.72 20 07:48 13.05.2022
3717 Clouds 13 1023 82 10000 8.23 20 06:33 13.05.2022
3718 Clouds 13 1023 82 10000 8.23 20 06:33 13.05.2022
3719 Clouds 14 1025 77 10000 7.2 10 03:29 13.05.2022
3720 Clouds 12 1028 85 10000 4.63 30 00:24 13.05.2022
3721 Clouds 10 1029 89 10000 2.57 30 22:45 12.05.2022
3722 Clouds 9 1028 90 10000 1.54 30 21:56 12.05.2022
3723 Clouds 9 1028 90 10000 1.54 10 20:29 12.05.2022
3724 Clouds 9 1029 89 10000 2.06 30 18:51 12.05.2022
3725 Clear 8 1029 89 10000 2.57 20 17:23 12.05.2022
3726 Clear 8 1029 87 10000 1.54 10 15:55 12.05.2022
3727 Clear 6 1028 89 10000 2.06 20 14:40 12.05.2022
3728 Clouds 6 1029 89 10000 2.06 30 13:41 12.05.2022
3729 Clouds 8 1031 83 10000 0.51 20 10:46 12.05.2022
3730 Clouds 9 1030 86 10000 2.06 120 09:28 12.05.2022
3731 Clouds 10 1029 84 10000 2.57 130 08:51 12.05.2022
3732 Clear 10 1029 81 10000 5.66 160 07:40 12.05.2022
3733 Clouds 12 1028 76 10000 4.12 180 06:19 12.05.2022
3734 Clouds 13 1029 75 10000 5.14 160 02:56 12.05.2022
3735 Clear 9 1030 91 10000 2.06 20 00:35 12.05.2022
3736 Clear 7 1031 87 10000 2.06 30 22:35 11.05.2022
3737 Clear 7 1031 87 10000 3.09 30 21:46 11.05.2022
3738 Clear 6 1031 87 10000 2.57 20 21:21 11.05.2022
3739 Clouds 7 1031 87 10000 2.57 30 18:34 11.05.2022
3740 Clouds 7 1031 87 10000 2.57 20 16:55 11.05.2022
3741 Clear 6 1028 88 10000 2.57 40 15:31 11.05.2022
3742 Clear 6 1028 88 10000 2.57 40 15:31 11.05.2022
3743 Clear 6 1028 88 10000 2.57 40 15:31 11.05.2022
3744 Clear 6 1028 88 10000 2.57 40 15:31 11.05.2022
3745 Clear 6 1028 88 10000 2.57 40 15:31 11.05.2022
3746 Clear 6 1028 88 10000 2.57 40 15:31 11.05.2022
3747 Clear 6 1029 86 10000 1.03 20 14:39 11.05.2022
3748 Clear 6 1028 86 10000 1.03 20 14:18 11.05.2022
3749 Clear 7 1030 82 10000 1.54 110 11:54 11.05.2022
3750 Clear 9 1030 78 10000 3.09 130 10:44 11.05.2022
3751 Clouds 10 1029 75 10000 4.12 170 08:40 11.05.2022
3752 Clouds 13 1029 66 10000 5.66 170 05:28 11.05.2022
3753 Clouds 12 1030 72 10000 6.17 160 00:43 11.05.2022
3754 Clouds 11 1029 74 10000 7.72 150 22:32 10.05.2022
3755 Clouds 11 1028 74 10000 8.23 160 21:57 10.05.2022
3756 Clouds 11 1027 72 10000 8.23 160 20:57 10.05.2022
3757 Clouds 10 1027 77 10000 8.75 170 19:37 10.05.2022
3758 Clouds 10 1026 80 10000 9.26 180 17:59 10.05.2022
3759 Clouds 10 1027 82 10000 9.26 180 17:29 10.05.2022
3760 Clouds 10 1027 88 10000 10.29 150 15:31 10.05.2022
3761 Clouds 11 1026 79 10000 8.75 160 12:45 10.05.2022
3762 Clouds 11 1026 74 10000 10.8 170 11:51 10.05.2022
3763 Clouds 11 1026 74 10000 11.83 170 11:21 10.05.2022
3764 Clouds 12 1026 70 10000 11.83 160 10:53 10.05.2022
3765 Clouds 12 1025 72 10000 12.86 170 09:26 10.05.2022
3766 Clouds 12 1023 83 10000 12.35 170 07:26 10.05.2022
3767 Clouds 14 1022 76 10000 11.32 170 04:32 10.05.2022
3768 Clouds 13 1021 84 10000 12.35 190 01:18 10.05.2022
3769 Clouds 13 1020 83 10000 13.89 170 22:57 09.05.2022
3770 Clouds 13 1019 90 10000 11.83 170 21:58 09.05.2022
3771 Rain 13 1017 92 5000 10.8 150 21:18 09.05.2022
3772 Clouds 13 1016 86 10000 9.77 160 19:37 09.05.2022
3773 Clouds 13 1015 89 10000 11.32 170 17:56 09.05.2022
3774 Rain 13 1015 94 10000 10.29 170 16:38 09.05.2022
3775 Rain 14 1014 94 10000 10.29 170 15:52 09.05.2022
3776 Rain 14 1014 94 10000 9.77 170 15:27 09.05.2022
3777 Rain 14 1014 95 10000 8.75 170 14:31 09.05.2022
3778 Rain 14 1014 93 10000 8.23 160 13:50 09.05.2022
3779 Clouds 14 1013 93 10000 6.17 180 12:26 09.05.2022
3780 Clouds 15 1013 91 10000 6.17 190 11:37 09.05.2022
3781 Clouds 15 1013 92 10000 5.14 180 10:43 09.05.2022
3782 Clouds 16 1012 92 10000 5.14 190 08:51 09.05.2022
3783 Clouds 16 1011 93 10000 7.2 210 07:54 09.05.2022
3784 Clouds 17 1010 93 5000 7.72 10 03:40 09.05.2022
3785 Rain 17 1013 93 10000 8.75 340 00:20 09.05.2022
3786 Clouds 17 1013 88 10000 10.29 350 22:56 08.05.2022
3787 Clouds 17 1013 88 10000 9.26 340 21:56 08.05.2022
3788 Rain 17 1014 86 10000 8.75 350 20:37 08.05.2022
3789 Rain 17 1014 87 10000 8.23 350 19:45 08.05.2022
3790 Rain 17 1014 87 10000 8.23 350 18:57 08.05.2022
3791 Clouds 17 1014 87 10000 9.26 350 18:19 08.05.2022
3792 Rain 17 1015 87 10000 8.23 350 16:56 08.05.2022
3793 Clouds 17 1016 86 10000 8.75 350 15:40 08.05.2022
3794 Clouds 17 1017 86 10000 8.23 340 14:57 08.05.2022
3795 Clouds 17 1017 86 10000 8.23 360 12:33 08.05.2022
3796 Clouds 17 1018 86 10000 8.75 20 10:32 08.05.2022
3797 Clouds 17 1018 86 10000 10.29 10 09:58 08.05.2022
3798 Clouds 17 1018 86 10000 10.29 10 09:58 08.05.2022
3799 Rain 17 1018 86 10000 9.26 10 09:31 08.05.2022
3800 Clouds 17 1018 84 10000 10.8 340 07:31 08.05.2022
3801 Clouds 18 1019 80 10000 11.83 360 03:55 08.05.2022
3802 Clouds 18 1020 79 10000 11.32 350 02:51 08.05.2022
3803 Clouds 17 1020 82 10000 11.83 360 00:28 08.05.2022
3804 Clouds 17 1021 83 10000 10.29 350 23:51 07.05.2022
3805 Clouds 17 1021 85 10000 9.26 350 22:48 07.05.2022
3806 Clouds 16 1021 86 10000 10.8 360 21:59 07.05.2022
3807 Clouds 16 1021 86 10000 9.77 10 21:34 07.05.2022
3808 Clouds 16 1021 84 10000 9.26 20 20:42 07.05.2022
3809 Clouds 16 1021 83 10000 9.77 360 19:57 07.05.2022
3810 Clouds 16 1022 84 10000 12.35 360 17:43 07.05.2022
3811 Clouds 16 1023 83 10000 10.29 340 15:51 07.05.2022
3812 Clouds 16 1024 86 10000 11.32 350 14:19 07.05.2022
3813 Clouds 17 1025 85 10000 11.83 350 10:56 07.05.2022
3814 Clouds 16 1024 89 10000 10.8 360 09:20 07.05.2022
3815 Clouds 16 1024 87 10000 9.26 10 07:52 07.05.2022
3816 Clouds 17 1024 85 10000 9.77 10 06:43 07.05.2022
3817 Clouds 17 1024 81 10000 9.77 10 04:59 07.05.2022
3818 Clouds 18 1026 81 10000 8.75 10 01:46 07.05.2022
3819 Clouds 16 1027 90 10000 6.17 20 23:38 06.05.2022
3820 Clouds 14 1027 93 10000 4.63 20 22:28 06.05.2022
3821 Clouds 14 1026 93 10000 5.14 30 21:43 06.05.2022
3822 Clouds 13 1026 93 10000 5.14 30 21:43 06.05.2022
3823 Clouds 14 1025 94 10000 4.63 30 20:34 06.05.2022
3824 Clouds 13 1025 94 10000 2.57 30 19:31 06.05.2022
3825 Clouds 13 1025 94 10000 4.12 10 18:59 06.05.2022
3826 Clouds 13 1026 94 10000 4.63 10 18:18 06.05.2022
3827 Clouds 13 1026 95 10000 5.14 360 16:44 06.05.2022
3828 Clouds 13 1026 94 10000 3.09 30 15:41 06.05.2022
3829 Clear 13 1027 94 10000 3.6 20 14:50 06.05.2022
3830 Clear 13 1027 94 10000 3.6 20 12:54 06.05.2022
3831 Clear 12 1027 93 10000 4.12 10 12:36 06.05.2022
3832 Clear 13 1027 93 10000 3.6 20 11:42 06.05.2022
3833 Clear 14 1027 92 10000 3.6 360 10:27 06.05.2022
3834 Clear 15 1027 91 10000 3.6 10 09:45 06.05.2022
3835 Clouds 15 1026 90 10000 4.12 360 08:27 06.05.2022
3836 Clouds 17 1026 83 10000 5.14 360 06:42 06.05.2022
3837 Clouds 19 1026 76 10000 5.14 360 04:51 06.05.2022
3838 Clouds 19 1026 76 10000 5.66 360 02:45 06.05.2022
3839 Clouds 18 1026 86 10000 5.66 20 23:45 05.05.2022
3840 Clouds 16 1025 91 10000 5.14 30 21:53 05.05.2022
3841 Clouds 16 1025 91 10000 4.63 30 21:19 05.05.2022
3842 Clouds 16 1025 90 10000 4.63 20 19:49 05.05.2022
3843 Clouds 16 1025 90 10000 5.14 20 18:26 05.05.2022
3844 Clouds 16 1025 89 10000 6.69 20 16:20 05.05.2022
3845 Clouds 17 1026 89 10000 5.66 10 14:43 05.05.2022
3846 Clouds 17 1026 90 10000 6.17 10 13:21 05.05.2022
3847 Clouds 17 1026 90 10000 7.2 360 12:24 05.05.2022
3848 Clouds 17 1026 88 10000 6.69 360 10:37 05.05.2022
3849 Clouds 17 1026 88 10000 5.66 10 09:39 05.05.2022
3850 Clouds 17 1025 88 10000 7.2 10 07:34 05.05.2022
3851 Clouds 18 1025 83 10000 8.75 10 04:28 05.05.2022
3852 Clouds 18 1026 84 10000 7.72 20 01:50 05.05.2022
3853 Clouds 17 1026 84 10000 7.2 20 01:22 05.05.2022
3854 Clouds 15 1027 90 10000 7.72 20 23:34 04.05.2022
3855 Clouds 14 1027 91 10000 5.66 30 22:27 04.05.2022
3856 Clear 13 1026 93 10000 4.12 20 21:49 04.05.2022
3857 Clear 13 1026 92 10000 4.12 30 21:26 04.05.2022
3858 Clear 14 1026 92 10000 5.66 10 20:22 04.05.2022
3859 Clear 14 1026 92 10000 4.63 20 19:51 04.05.2022
3860 Clouds 14 1026 92 10000 4.63 20 18:51 04.05.2022
3861 Clouds 14 1026 94 10000 3.09 20 18:22 04.05.2022
3862 Clouds 14 1026 95 10000 4.63 30 17:30 04.05.2022
3863 Clear 14 1027 95 10000 3.6 40 15:40 04.05.2022
3864 Clear 14 1027 95 10000 3.6 40 15:22 04.05.2022
3865 Clouds 13 1027 95 10000 3.09 10 14:20 04.05.2022
3866 Clouds 14 1027 95 10000 2.57 20 13:26 04.05.2022
3867 Clouds 12 1027 94 10000 3.6 10 12:29 04.05.2022
3868 Clouds 13 1027 93 10000 2.57 10 10:40 04.05.2022
3869 Clouds 13 1027 93 10000 2.57 10 10:40 04.05.2022
3870 Clouds 13 1027 92 10000 1.03 20 09:40 04.05.2022
3871 Clouds 15 1027 91 10000 2.06 180 08:40 04.05.2022
3872 Clear 17 1026 85 10000 3.6 230 06:31 04.05.2022
3873 Clear 19 1027 80 10000 1.03 40 02:53 04.05.2022
3874 Clouds 17 1028 88 10000 2.57 10 23:58 03.05.2022
3875 Clouds 15 1027 93 10000 4.12 30 22:34 03.05.2022
3876 Clouds 15 1027 93 10000 3.09 350 21:43 03.05.2022
3877 Clouds 15 1027 93 10000 3.09 350 20:53 03.05.2022
3878 Clouds 15 1026 94 10000 2.06 350 19:49 03.05.2022
3879 Clouds 15 1026 94 10000 2.57 350 18:52 03.05.2022
3880 Clouds 15 1026 93 10000 3.6 30 18:20 03.05.2022
3881 Clouds 15 1027 92 10000 4.12 20 16:37 03.05.2022
3882 Clouds 16 1027 92 10000 5.14 30 15:35 03.05.2022
3883 Clouds 17 1027 91 10000 5.14 40 12:47 03.05.2022
3884 Clouds 17 1027 91 10000 5.14 30 12:27 03.05.2022
3885 Clouds 17 1027 90 10000 5.66 30 10:57 03.05.2022
3886 Clouds 17 1027 90 10000 5.66 30 10:57 03.05.2022
3887 Clouds 17 1026 90 10000 5.14 20 09:29 03.05.2022
3888 Clouds 18 1025 87 10000 5.66 10 06:46 03.05.2022
3889 Clouds 18 1025 84 10000 6.17 10 05:58 03.05.2022
3890 Clouds 19 1026 85 10000 6.17 10 00:32 03.05.2022
3891 Clouds 17 1025 91 10000 4.63 20 22:38 02.05.2022
3892 Clouds 17 1025 92 10000 4.63 20 21:52 02.05.2022
3893 Clouds 17 1025 91 10000 5.14 20 20:51 02.05.2022
3894 Clouds 17 1024 91 10000 6.17 360 18:40 02.05.2022
3895 Clouds 17 1024 91 10000 6.17 360 18:21 02.05.2022
3896 Clouds 17 1024 91 10000 6.69 360 17:37 02.05.2022
3897 Clouds 17 1024 92 10000 7.2 360 16:22 02.05.2022
3898 Clouds 17 1024 92 10000 7.72 360 15:31 02.05.2022
3899 Clouds 17 1024 91 10000 7.2 360 13:51 02.05.2022
3900 Clouds 17 1024 90 10000 7.72 350 12:19 02.05.2022
3901 Clouds 17 1023 89 10000 7.72 350 10:47 02.05.2022
3902 Clouds 17 1023 88 10000 8.75 350 09:20 02.05.2022
3903 Clouds 17 1023 87 10000 8.23 350 07:51 02.05.2022
3904 Rain 18 1022 85 10000 9.77 360 03:53 02.05.2022
3905 Clouds 16 1024 87 10000 8.23 10 00:24 02.05.2022
3906 Clouds 16 1023 87 10000 8.23 10 23:48 01.05.2022
3907 Clouds 16 1023 88 10000 8.23 10 22:25 01.05.2022
3908 Clouds 16 1022 89 10000 8.75 20 21:22 01.05.2022
3909 Clouds 16 1022 89 10000 7.72 350 19:53 01.05.2022
3910 Clouds 17 1022 88 10000 10.29 360 18:58 01.05.2022
3911 Clouds 16 1022 88 10000 9.26 360 18:28 01.05.2022
3912 Clouds 17 1022 87 10000 8.75 360 17:29 01.05.2022
3913 Clouds 17 1022 87 10000 9.26 350 16:23 01.05.2022
3914 Clouds 17 1022 87 10000 8.23 360 15:36 01.05.2022
3915 Clouds 17 1022 87 10000 9.26 350 13:47 01.05.2022
3916 Clouds 17 1022 87 10000 8.75 350 11:23 01.05.2022
3917 Clouds 16 1022 86 10000 8.75 340 08:53 01.05.2022
3918 Clouds 17 1022 85 10000 8.23 340 08:34 01.05.2022
3919 Clouds 17 1023 83 10000 11.32 10 03:35 01.05.2022
3920 Clouds 15 1024 81 10000 9.77 20 00:18 01.05.2022
3921 Clouds 14 1024 84 10000 10.8 360 21:49 30.04.2022
3922 Clouds 14 1024 83 10000 10.8 360 20:59 30.04.2022
3923 Clouds 14 1024 79 10000 11.32 10 19:42 30.04.2022
3924 Clouds 14 1025 75 10000 8.75 20 18:21 30.04.2022
3925 Clouds 15 1026 80 10000 7.2 20 16:44 30.04.2022
3926 Clouds 14 1027 81 10000 6.17 30 15:47 30.04.2022
3927 Clouds 14 1027 83 10000 6.17 30 14:48 30.04.2022
3928 Clouds 15 1028 82 10000 4.12 20 12:55 30.04.2022
3929 Clouds 14 1028 85 10000 5.14 30 11:34 30.04.2022
3930 Clouds 14 1028 85 10000 5.14 30 10:45 30.04.2022
3931 Clear 14 1028 83 10000 5.14 20 09:41 30.04.2022
3932 Clouds 15 1028 79 10000 7.72 360 06:43 30.04.2022
3933 Clear 15 1030 74 10000 6.69 360 02:55 30.04.2022
3934 Clear 11 1033 93 10000 4.12 10 23:37 29.04.2022
3935 Clear 10 1034 87 10000 3.09 40 22:31 29.04.2022
3936 Clear 9 1034 87 10000 2.57 20 21:53 29.04.2022
3937 Clear 9 1034 93 10000 4.12 350 20:49 29.04.2022
3938 Clear 9 1034 87 10000 3.09 40 19:47 29.04.2022
3939 Clear 9 1034 87 10000 2.57 40 17:59 29.04.2022
3940 Clear 9 1035 87 10000 2.06 40 17:25 29.04.2022
3941 Clear 9 1035 87 10000 2.06 10 15:50 29.04.2022
3942 Clear 7 1032 88 10000 2.06 30 14:22 29.04.2022
3943 Clear 8 1033 86 10000 1.54 30 13:22 29.04.2022
3944 Clear 9 1034 85 10000 1.03 30 11:50 29.04.2022
3945 Clear 11 1033 78 10000 1.03 160 08:53 29.04.2022
3946 Clear 12 1033 79 10000 3.09 230 07:28 29.04.2022
3947 Clear 14 1033 73 10000 4.12 230 06:45 29.04.2022
3948 Clouds 16 1033 68 10000 3.09 190 04:53 29.04.2022
3949 Clear 14 1035 75 10000 1.54 110 00:45 29.04.2022
3950 Clear 12 1035 83 10000 1.54 10 23:34 28.04.2022
3951 Clear 10 1035 92 10000 1.54 360 22:44 28.04.2022
3952 Clouds 10 1034 86 10000 1.54 70 21:47 28.04.2022
3953 Clouds 9 1034 89 10000 1.54 140 21:21 28.04.2022
3954 Clouds 9 1033 89 10000 1.03 140 20:35 28.04.2022
3955 Clouds 10 1033 91 10000 1.03 80 19:45 28.04.2022
3956 Clouds 10 1033 90 10000 1.54 30 19:45 28.04.2022
3957 Clouds 10 1033 91 10000 1.54 30 19:22 28.04.2022
3958 Clouds 10 1033 91 10000 1.03 30 18:36 28.04.2022
3959 Clouds 10 1034 91 10000 1.54 30 17:26 28.04.2022
3960 Clouds 10 1034 92 10000 1.03 20 16:41 28.04.2022
3961 Clouds 10 1034 92 10000 1.03 20 16:19 28.04.2022
3962 Clouds 10 1034 91 10000 0.51 20 15:29 28.04.2022
3963 Clouds 10 1034 91 10000 1.03 30 14:20 28.04.2022
3964 Clouds 9 1034 90 10000 0.51 60 12:55 28.04.2022
3965 Clouds 9 1034 89 10000 1.54 100 11:59 28.04.2022
3966 Clouds 11 1033 82 8000 2.57 150 10:46 28.04.2022
3967 Clear 10 1033 87 10000 3.6 140 09:56 28.04.2022
3968 Clear 11 1033 83 10000 4.12 140 08:44 28.04.2022
3969 Clouds 13 1032 77 10000 5.14 170 07:36 28.04.2022
3970 Clouds 15 1032 67 10000 5.14 180 05:56 28.04.2022
3971 Clouds 16 1032 64 10000 4.63 180 05:38 28.04.2022
3972 Clouds 17 1032 65 10000 2.57 210 04:40 28.04.2022
3973 Clear 14 1032 76 10000 1.03 270 00:30 28.04.2022
3974 Clouds 11 1031 91 10000 2.57 40 22:40 27.04.2022
3975 Clouds 10 1031 92 10000 1.03 360 21:56 27.04.2022
3976 Clouds 10 1030 91 10000 1.03 50 21:26 27.04.2022
3977 Clouds 10 1030 92 10000 1.54 80 20:38 27.04.2022
3978 Clouds 9 1029 92 10000 1.54 50 19:38 27.04.2022
3979 Clouds 9 1029 91 10000 1.54 40 19:18 27.04.2022
3980 Clear 9 1028 90 10000 1.03 60 18:22 27.04.2022
3981 Clear 9 1028 90 10000 1.03 60 18:22 27.04.2022
3982 Clear 9 1029 90 10000 1.03 60 18:22 27.04.2022
3983 Clouds 10 1029 86 10000 1.54 10 17:24 27.04.2022
3984 Clouds 12 1029 81 10000 4.12 140 15:21 27.04.2022
3985 Clouds 13 1028 79 10000 5.66 140 12:25 27.04.2022
3986 Clouds 13 1028 78 10000 5.14 150 11:21 27.04.2022
3987 Clear 13 1027 79 10000 6.17 150 09:45 27.04.2022
3988 Clear 14 1025 75 10000 8.75 140 07:19 27.04.2022
3989 Clouds 15 1024 74 10000 7.72 150 05:37 27.04.2022
3990 Clouds 17 1023 75 10000 4.12 160 01:35 27.04.2022
3991 Clouds 16 1022 82 8000 2.57 180 00:38 27.04.2022
3992 Clouds 14 1022 87 8000 2.57 160 23:57 26.04.2022
3993 Clouds 13 1022 93 10000 0.51 150 23:23 26.04.2022
3994 Clouds 12 1021 98 10000 1.03 20 22:41 26.04.2022
3995 Clouds 12 1022 100 10000 0.51 40 21:48 26.04.2022
3996 Clouds 13 1021 88 10000 1.54 20 20:54 26.04.2022
3997 Haze 11 1017 90 5000 1.03 300 20:34 26.04.2022
3998 Haze 15 1019 88 5000 3.6 230 19:33 26.04.2022
3999 Clouds 12 1016 89 7000 4.63 220 18:51 26.04.2022
4000 Haze 12 1015 89 5000 3.6 220 18:18 26.04.2022
4001 Clouds 12 1016 92 6000 5.14 230 17:32 26.04.2022
4002 Clouds 12 1015 92 10000 0.51 100 14:46 26.04.2022
4003 Clouds 13 1014 87 7000 1.54 270 13:34 26.04.2022
4004 Clouds 13 1014 89 10000 4.12 30 12:22 26.04.2022
4005 Clouds 14 1013 85 10000 4.63 30 10:46 26.04.2022
4006 Clouds 15 1012 86 10000 5.66 10 09:36 26.04.2022
4007 Clouds 16 1012 80 10000 6.69 20 07:59 26.04.2022
4008 Clouds 17 1012 74 10000 8.23 360 04:33 26.04.2022
4009 Clouds 16 1013 75 10000 6.17 360 02:20 26.04.2022
4010 Clouds 16 1014 78 10000 2.06 360 00:26 26.04.2022
4011 Clouds 13 1014 86 10000 1.54 50 22:49 25.04.2022
4012 Clouds 12 1013 87 10000 1.03 150 21:44 25.04.2022
4013 Clouds 13 1013 85 10000 2.06 140 20:45 25.04.2022
4014 Clouds 13 1013 85 10000 2.06 140 20:45 25.04.2022
4015 Clouds 13 1013 83 10000 5.14 160 19:34 25.04.2022
4016 Clouds 13 1013 84 10000 7.72 170 18:23 25.04.2022
4017 Clouds 13 1013 88 6000 6.17 140 17:32 25.04.2022
4018 Clouds 12 1013 87 8000 2.57 340 15:30 25.04.2022
4019 Clouds 12 1013 89 10000 3.09 20 14:54 25.04.2022
4020 Clouds 14 1012 86 10000 6.17 30 13:41 25.04.2022
4021 Clouds 14 1011 86 10000 1.79 84 11:49 25.04.2022
4022 Clouds 15 1010 83 10000 6.17 30 10:27 25.04.2022
4023 Clouds 14 1010 84 10000 6.69 20 09:20 25.04.2022
4024 Clouds 15 1009 73 10000 5.66 360 06:49 25.04.2022
4025 Clouds 17 1010 70 10000 3.09 200 05:23 25.04.2022
4026 Clouds 15 1012 71 10000 3.6 150 00:58 25.04.2022
4027 Clouds 14 1012 76 10000 4.63 160 23:52 24.04.2022
4028 Clouds 14 1012 80 10000 5.66 160 22:52 24.04.2022
4029 Clouds 13 1011 82 10000 5.66 170 22:31 24.04.2022
4030 Clouds 12 1010 84 10000 6.69 160 21:42 24.04.2022
4031 Clouds 12 1010 85 10000 6.69 170 21:18 24.04.2022
4032 Clouds 12 1010 86 10000 5.66 160 20:37 24.04.2022
4033 Clouds 12 1010 87 10000 7.2 150 19:48 24.04.2022
4034 Clouds 13 1009 91 10000 7.72 150 18:20 24.04.2022
4035 Rain 12 1009 90 10000 8.23 170 17:37 24.04.2022
4036 Clouds 12 1009 90 10000 8.23 170 17:19 24.04.2022
4037 Clouds 13 1009 91 10000 6.17 150 16:35 24.04.2022
4038 Clouds 13 1009 91 10000 6.17 190 15:56 24.04.2022
4039 Clouds 13 1009 90 10000 6.69 170 15:31 24.04.2022
4040 Clouds 12 1009 89 10000 5.66 150 13:58 24.04.2022
4041 Clouds 13 1008 85 10000 6.17 160 13:25 24.04.2022
4042 Clouds 14 1008 85 10000 5.66 180 12:32 24.04.2022
4043 Clouds 14 1008 88 10000 5.14 170 11:32 24.04.2022
4044 Clouds 13 1007 90 10000 5.14 160 10:25 24.04.2022
4045 Clouds 13 1007 88 10000 4.12 170 09:26 24.04.2022
4046 Clouds 18 1005 61 10000 2.68 216 06:45 24.04.2022
4047 Clouds 20 1005 50 10000 4.12 360 03:55 24.04.2022
4048 Clouds 20 1006 57 10000 5.14 360 01:38 24.04.2022
4049 Clouds 17 1007 75 10000 3.09 360 00:24 24.04.2022
4050 Clouds 16 1008 71 10000 5.14 360 23:44 23.04.2022
4051 Clouds 16 1008 70 10000 5.14 360 23:21 23.04.2022
4052 Clouds 12 1008 84 10000 2.57 10 21:51 23.04.2022
4053 Clear 12 1008 80 10000 2.57 350 21:32 23.04.2022
4054 Clear 13 1009 82 10000 4.63 30 20:45 23.04.2022
4055 Clear 11 1008 86 10000 3.09 10 20:45 23.04.2022
4056 Clear 13 1010 76 10000 3.6 30 19:46 23.04.2022
4057 Clear 12 1008 81 10000 5.66 20 19:19 23.04.2022
4058 Clear 12 1008 81 10000 5.66 30 18:49 23.04.2022
4059 Clear 13 1011 76 10000 5.14 20 17:50 23.04.2022
4060 Clear 12 1010 81 10000 4.12 20 16:56 23.04.2022
4061 Clear 12 1010 82 10000 5.14 20 16:23 23.04.2022
4062 Clear 11 1011 87 10000 6.17 30 14:57 23.04.2022
4063 Clouds 12 1012 82 10000 6.17 30 12:35 23.04.2022
4064 Clouds 13 1013 79 10000 6.17 30 10:41 23.04.2022
4065 Clouds 14 1013 79 10000 5.66 10 08:55 23.04.2022
4066 Clouds 15 1014 75 10000 5.66 350 05:47 23.04.2022
4067 Clouds 16 1015 68 10000 4.63 350 03:54 23.04.2022
4068 Clouds 14 1017 74 10000 2.06 40 00:53 23.04.2022
4069 Clear 12 1017 89 10000 3.09 360 23:29 22.04.2022
4070 Clear 10 1018 87 10000 2.57 20 22:19 22.04.2022
4071 Clear 10 1017 87 10000 2.06 70 21:41 22.04.2022
4072 Clear 10 1017 87 10000 2.06 20 20:45 22.04.2022
4073 Clouds 13 1017 76 10000 2.57 270 20:25 22.04.2022
4074 Clouds 10 1013 81 10000 4.63 190 19:18 22.04.2022
4075 Clouds 10 1013 81 10000 5.14 190 18:35 22.04.2022
4076 Clouds 10 1013 83 10000 5.66 180 17:37 22.04.2022
4077 Clouds 11 1014 79 10000 6.69 180 16:32 22.04.2022
4078 Clouds 12 1014 75 10000 7.2 170 15:32 22.04.2022
4079 Clouds 11 1014 73 10000 9.26 160 14:43 22.04.2022
4080 Clouds 12 1014 74 10000 9.26 170 13:43 22.04.2022
4081 Clouds 12 1014 73 10000 8.23 160 12:57 22.04.2022
4082 Clouds 12 1014 73 10000 12.35 170 11:43 22.04.2022
4083 Clouds 12 1013 74 10000 12.35 170 11:20 22.04.2022
4084 Clouds 12 1013 74 10000 12.35 170 10:47 22.04.2022
4085 Clouds 12 1013 77 10000 12.35 170 10:27 22.04.2022
4086 Clouds 12 1013 84 10000 12.35 170 09:42 22.04.2022
4087 Clouds 12 1012 85 10000 11.32 180 08:49 22.04.2022
4088 Clouds 13 1010 79 10000 11.83 170 06:56 22.04.2022
4089 Clouds 19 1006 70 10000 5.66 330 01:53 22.04.2022
4090 Clouds 19 1005 81 10000 4.63 360 23:53 21.04.2022
4091 Clouds 18 1005 87 10000 7.72 360 22:59 21.04.2022
4092 Clouds 17 1005 91 10000 7.72 360 21:59 21.04.2022
4093 Clouds 17 1004 92 10000 10.8 360 20:34 21.04.2022
4094 Clouds 17 1004 91 10000 9.26 360 19:53 21.04.2022
4095 Clouds 18 1005 93 10000 9.26 360 18:35 21.04.2022
4096 Clouds 17 1005 93 10000 10.29 10 17:49 21.04.2022
4097 Clouds 17 1006 94 10000 7.2 350 16:28 21.04.2022
4098 Clouds 18 1007 94 10000 7.2 340 15:20 21.04.2022
4099 Clouds 18 1008 93 9000 10.8 340 14:38 21.04.2022
4100 Rain 18 1007 92 10000 11.83 350 13:23 21.04.2022
4101 Clouds 18 1008 92 10000 11.32 350 12:42 21.04.2022
4102 Clouds 19 1009 86 10000 11.32 350 10:45 21.04.2022
4103 Clouds 19 1010 87 10000 12.35 350 08:54 21.04.2022
4104 Clouds 20 1010 83 10000 12.35 350 06:55 21.04.2022
4105 Clouds 19 1010 82 10000 12.35 350 06:55 21.04.2022
4106 Clouds 19 1010 84 10000 11.32 360 04:36 21.04.2022
4107 Clouds 20 1011 82 10000 12.35 360 03:26 21.04.2022
4108 Clouds 20 1011 81 10000 11.83 360 02:46 21.04.2022
4109 Clouds 20 1011 81 10000 11.83 360 02:46 21.04.2022
4110 Rain 19 1013 84 10000 11.83 350 00:43 21.04.2022
4111 Rain 19 1013 85 10000 12.86 350 23:49 20.04.2022
4112 Rain 18 1013 87 10000 12.86 350 23:21 20.04.2022
4113 Clouds 18 1013 88 10000 11.83 350 22:45 20.04.2022
4114 Rain 18 1014 89 7000 11.32 350 22:26 20.04.2022
4115 Rain 18 1014 84 10000 9.77 360 21:27 20.04.2022
4116 Clouds 18 1014 82 10000 10.8 350 20:23 20.04.2022
4117 Clouds 18 1014 82 10000 11.32 350 19:51 20.04.2022
4118 Clouds 18 1014 82 10000 7.72 10 19:18 20.04.2022
4119 Clouds 19 1015 81 10000 7.2 10 17:55 20.04.2022
4120 Clouds 18 1016 81 10000 8.75 360 16:48 20.04.2022
4121 Clouds 18 1016 81 10000 8.75 360 16:30 20.04.2022
4122 Clouds 19 1018 83 10000 8.23 20 13:50 20.04.2022
4123 Rain 18 1019 86 10000 5.66 20 11:47 20.04.2022
4124 Rain 18 1019 87 10000 7.72 10 10:56 20.04.2022
4125 Rain 18 1019 85 10000 6.69 10 09:58 20.04.2022
4126 Clouds 18 1019 84 10000 6.17 20 09:24 20.04.2022
4127 Rain 18 1019 84 10000 5.14 10 08:22 20.04.2022
4128 Clouds 18 1019 82 10000 5.14 360 08:22 20.04.2022
4129 Rain 19 1019 78 10000 6.17 10 07:32 20.04.2022
4130 Clouds 21 1021 74 10000 7.2 350 03:34 20.04.2022
4131 Clouds 20 1022 84 10000 4.63 10 00:22 20.04.2022
4132 Clouds 19 1022 87 10000 4.63 10 23:37 19.04.2022
4133 Clouds 18 1022 87 10000 2.57 20 22:26 19.04.2022
4134 Clouds 18 1022 89 10000 3.09 360 21:56 19.04.2022
4135 Clouds 17 1021 90 10000 2.57 360 21:23 19.04.2022
4136 Clouds 17 1021 90 10000 2.57 360 20:41 19.04.2022
4137 Clouds 16 1021 90 10000 3.09 360 19:56 19.04.2022
4138 Clouds 16 1021 91 10000 3.6 360 18:47 19.04.2022
4139 Clouds 16 1021 94 10000 2.57 20 17:40 19.04.2022
4140 Clouds 16 1021 93 10000 4.12 20 16:43 19.04.2022
4141 Clouds 16 1022 93 10000 3.6 10 16:23 19.04.2022
4142 Clouds 17 1022 92 10000 4.12 360 14:50 19.04.2022
4143 Clouds 17 1022 92 10000 3.6 10 13:54 19.04.2022
4144 Clouds 17 1022 92 10000 3.09 360 12:50 19.04.2022
4145 Clouds 16 1022 92 10000 4.63 360 12:20 19.04.2022
4146 Clouds 17 1022 92 10000 4.12 10 10:46 19.04.2022
4147 Clouds 17 1021 92 10000 5.14 20 09:19 19.04.2022
4148 Rain 17 1020 86 10000 6.69 360 05:56 19.04.2022
4149 Clouds 18 1021 81 10000 7.2 10 03:26 19.04.2022
4150 Clouds 18 1021 79 10000 6.69 360 00:55 19.04.2022
4151 Clouds 17 1021 86 10000 5.66 20 23:31 18.04.2022
4152 Clear 14 1021 90 10000 5.14 20 21:30 18.04.2022
4153 Clear 13 1021 92 10000 4.12 30 20:56 18.04.2022
4154 Clear 13 1021 95 10000 2.57 20 20:32 18.04.2022
4155 Clear 11 1021 98 10000 2.57 30 19:51 18.04.2022
4156 Clear 11 1023 93 10000 2.57 30 18:57 18.04.2022
4157 Clear 12 1023 87 10000 0.51 10 17:58 18.04.2022
4158 Clear 12 1023 87 10000 1.54 40 17:34 18.04.2022
4159 Clear 12 1023 87 10000 2.06 40 16:59 18.04.2022
4160 Clear 12 1024 87 10000 2.57 60 16:32 18.04.2022
4161 Clear 12 1024 87 10000 2.06 40 14:59 18.04.2022
4162 Clear 10 1023 93 10000 1.54 30 13:39 18.04.2022
4163 Clear 11 1023 89 10000 2.06 10 12:32 18.04.2022
4164 Clear 11 1024 85 10000 1.54 10 11:35 18.04.2022
4165 Clear 12 1024 83 10000 2.06 30 10:32 18.04.2022
4166 Clear 12 1023 81 10000 1.54 20 09:31 18.04.2022
4167 Clouds 12 1023 81 10000 2.06 160 08:18 18.04.2022
4168 Clouds 17 1023 65 10000 5.14 210 05:45 18.04.2022
4169 Clouds 18 1025 63 10000 3.09 200 01:34 18.04.2022
4170 Clouds 10 1026 96 10000 0.51 220 22:43 17.04.2022
4171 Clouds 8 1027 87 10000 1.03 70 21:50 17.04.2022
4172 Clouds 8 1027 87 10000 0.51 60 21:27 17.04.2022
4173 Clouds 8 1027 81 10000 1.54 40 20:50 17.04.2022
4174 Clouds 7 1023 86 10000 1.54 50 19:52 17.04.2022
4175 Clouds 7 1024 80 10000 2.57 60 18:24 17.04.2022
4176 Clouds 8 1025 84 10000 1.03 30 16:32 17.04.2022
4177 Clouds 7 1026 88 10000 0.51 80 15:28 17.04.2022
4178 Clouds 8 1026 86 10000 1.03 70 14:27 17.04.2022
4179 Clear 9 1027 83 10000 1.03 30 13:20 17.04.2022
4180 Clear 9 1027 83 10000 0.51 60 12:28 17.04.2022
4181 Clear 11 1026 75 10000 1.03 30 10:47 17.04.2022
4182 Clear 12 1026 74 10000 1.03 30 10:29 17.04.2022
4183 Clear 12 1026 70 10000 1.54 70 09:49 17.04.2022
4184 Clear 13 1026 71 10000 3.6 100 08:54 17.04.2022
4185 Clear 14 1025 69 10000 3.6 100 08:26 17.04.2022
4186 Clouds 17 1024 59 10000 6.69 150 04:52 17.04.2022
4187 Clouds 17 1025 62 10000 5.66 160 01:39 17.04.2022
4188 Clouds 15 1025 71 10000 3.09 160 23:59 16.04.2022
4189 Clouds 14 1025 75 10000 4.12 140 22:50 16.04.2022
4190 Clouds 13 1024 78 10000 7.72 150 21:42 16.04.2022
4191 Clouds 13 1022 73 10000 6.69 140 20:45 16.04.2022
4192 Clouds 13 1022 75 10000 7.2 160 19:21 16.04.2022
4193 Clouds 13 1022 72 10000 8.75 140 18:33 16.04.2022
4194 Clouds 14 1022 76 10000 7.72 140 16:42 16.04.2022
4195 Clouds 13 1021 74 10000 6.17 150 15:46 16.04.2022
4196 Clouds 14 1020 79 10000 7.2 140 14:57 16.04.2022
4197 Clouds 14 1020 87 10000 7.2 140 14:29 16.04.2022
4198 Clouds 14 1020 92 6000 5.14 140 13:41 16.04.2022
4199 Clouds 13 1018 89 10000 1.54 340 12:35 16.04.2022
4200 Clouds 14 1017 86 10000 4.63 30 11:24 16.04.2022
4201 Clouds 16 1015 81 10000 6.69 30 09:59 16.04.2022
4202 Clouds 16 1014 81 10000 8.23 20 09:19 16.04.2022
4203 Clouds 16 1014 80 10000 9.26 360 08:41 16.04.2022
4204 Clouds 17 1012 75 10000 11.83 360 06:59 16.04.2022
4205 Clouds 19 1012 67 10000 10.8 360 04:36 16.04.2022
4206 Clouds 17 1014 77 10000 11.83 360 00:38 16.04.2022
4207 Clouds 17 1014 72 10000 10.8 350 23:35 15.04.2022
4208 Clouds 16 1013 81 10000 10.8 10 22:45 15.04.2022
4209 Clouds 16 1013 83 10000 10.8 10 22:27 15.04.2022
4210 Clouds 16 1013 83 10000 11.83 360 21:20 15.04.2022
4211 Clouds 16 1013 81 10000 12.35 360 20:31 15.04.2022
4212 Clouds 16 1014 87 10000 11.83 10 19:41 15.04.2022
4213 Clouds 16 1014 87 10000 11.32 10 18:55 15.04.2022
4214 Clouds 16 1014 86 10000 12.86 10 18:26 15.04.2022
4215 Clouds 15 1015 86 10000 11.32 10 17:49 15.04.2022
4216 Clouds 15 1016 85 10000 10.8 10 17:22 15.04.2022
4217 Clouds 15 1016 84 10000 9.77 10 16:24 15.04.2022
4218 Clouds 15 1017 85 10000 10.8 10 15:40 15.04.2022
4219 Clouds 15 1017 82 10000 7.2 20 13:55 15.04.2022
4220 Clouds 14 1018 82 10000 6.17 30 12:48 15.04.2022
4221 Clear 14 1018 86 10000 5.66 10 11:59 15.04.2022
4222 Clear 13 1018 87 10000 4.63 20 11:40 15.04.2022
4223 Clear 12 1018 87 10000 6.17 10 10:45 15.04.2022
4224 Clear 12 1018 87 10000 6.69 360 09:59 15.04.2022
4225 Clouds 12 1018 86 10000 5.14 10 09:22 15.04.2022
4226 Clouds 13 1018 81 10000 4.12 350 08:37 15.04.2022
4227 Clouds 15 1017 76 10000 2.06 200 06:47 15.04.2022
4228 Clouds 18 1019 69 10000 3.09 200 04:42 15.04.2022
4229 Clouds 16 1019 78 10000 5.14 20 00:32 15.04.2022
4230 Clouds 13 1019 89 10000 4.12 350 23:20 14.04.2022
4231 Clouds 11 1019 94 10000 4.63 360 22:44 14.04.2022
4232 Clouds 10 1019 95 10000 3.6 10 22:25 14.04.2022
4233 Clouds 10 1020 87 10000 3.6 20 21:39 14.04.2022
4234 Clouds 10 1020 93 10000 2.57 340 19:24 14.04.2022
4235 Clear 9 1019 87 10000 3.09 360 18:53 14.04.2022
4236 Clear 9 1020 81 10000 2.06 20 17:45 14.04.2022
4237 Clear 9 1020 87 10000 2.57 30 16:49 14.04.2022
4238 Clear 9 1020 87 10000 2.06 50 15:51 14.04.2022
4239 Clouds 8 1017 84 10000 3.09 30 13:53 14.04.2022
4240 Clouds 8 1017 83 10000 2.57 40 13:20 14.04.2022
4241 Clouds 9 1017 85 10000 3.09 30 12:32 14.04.2022
4242 Clouds 9 1017 83 10000 1.54 30 11:37 14.04.2022
4243 Clouds 10 1017 82 10000 1.03 20 10:58 14.04.2022
4244 Clouds 10 1017 80 10000 2.06 30 10:31 14.04.2022
4245 Clouds 11 1017 78 10000 1.54 290 09:30 14.04.2022
4246 Clear 10 1016 79 10000 2.06 230 08:23 14.04.2022
4247 Clear 15 1016 61 10000 3.6 190 05:52 14.04.2022
4248 Clear 15 1016 61 10000 7.2 170 00:29 14.04.2022
4249 Clouds 13 1016 72 10000 8.23 180 22:37 13.04.2022
4250 Clouds 12 1016 77 10000 8.23 180 21:42 13.04.2022
4251 Clouds 12 1016 75 10000 9.26 190 20:41 13.04.2022
4252 Clouds 12 1016 75 10000 9.26 180 19:49 13.04.2022
4253 Clouds 12 1015 77 10000 9.77 180 18:37 13.04.2022
4254 Clouds 12 1015 75 10000 9.26 180 17:25 13.04.2022
4255 Clouds 12 1015 74 10000 10.8 180 16:53 13.04.2022
4256 Clouds 13 1014 74 10000 10.29 170 15:47 13.04.2022
4257 Clouds 13 1014 73 10000 10.29 170 15:27 13.04.2022
4258 Clouds 13 1014 72 10000 11.32 170 14:40 13.04.2022
4259 Clouds 13 1014 72 10000 10.8 170 13:38 13.04.2022
4260 Clouds 13 1013 73 10000 11.32 170 12:51 13.04.2022
4261 Clouds 13 1013 71 10000 11.83 170 11:47 13.04.2022
4262 Clouds 14 1013 71 10000 11.83 170 10:31 13.04.2022
4263 Clouds 14 1012 77 10000 11.83 170 08:45 13.04.2022
4264 Clouds 13 1011 76 10000 12.35 170 07:57 13.04.2022
4265 Clouds 14 1011 76 7000 13.38 160 06:48 13.04.2022
4266 Clouds 14 1010 77 7000 13.38 160 06:24 13.04.2022
4267 Clouds 15 1010 77 10000 12.35 170 01:51 13.04.2022
4268 Rain 14 1010 83 10000 11.32 170 00:19 13.04.2022
4269 Rain 14 1009 88 10000 9.77 170 22:33 12.04.2022
4270 Clouds 14 1009 90 10000 9.77 170 21:54 12.04.2022
4271 Clouds 14 1008 93 10000 8.75 170 20:48 12.04.2022
4272 Clouds 14 1008 93 10000 8.75 160 20:20 12.04.2022
4273 Clouds 14 1009 94 8000 9.26 170 19:40 12.04.2022
4274 Rain 14 1008 95 9000 9.26 170 18:56 12.04.2022
4275 Rain 14 1008 95 7000 8.23 170 17:39 12.04.2022
4276 Clouds 13 1008 95 8000 7.72 170 16:46 12.04.2022
4277 Mist 14 1009 96 2500 7.72 180 15:34 12.04.2022
4278 Mist 14 1008 96 5000 7.72 160 14:53 12.04.2022
4279 Mist 14 1008 95 3300 7.2 170 13:50 12.04.2022
4280 Mist 14 1008 93 2000 6.17 180 13:25 12.04.2022
4281 Rain 17 1008 94 10000 2.68 217 12:18 12.04.2022
4282 Clouds 17 1008 93 10000 4.63 30 11:35 12.04.2022
4283 Clouds 17 1007 93 10000 3.6 360 09:47 12.04.2022
4284 Rain 17 1006 92 10000 7.2 360 08:49 12.04.2022
4285 Clouds 18 1007 88 10000 6.69 340 06:47 12.04.2022
4286 Rain 18 1007 85 10000 7.72 360 05:41 12.04.2022
4287 Clouds 17 1008 86 10000 8.75 340 02:37 12.04.2022
4288 Clouds 17 1009 85 10000 8.75 10 23:24 11.04.2022
4289 Clouds 17 1009 86 10000 8.75 350 22:32 11.04.2022
4290 Clouds 17 1009 88 10000 6.69 350 21:22 11.04.2022
4291 Clouds 17 1009 88 10000 6.17 350 20:35 11.04.2022
4292 Clouds 17 1010 88 10000 5.66 340 19:59 11.04.2022
4293 Clouds 16 1010 88 10000 6.69 340 19:26 11.04.2022
4294 Clouds 16 1010 87 10000 5.66 340 18:54 11.04.2022
4295 Clouds 16 1011 88 10000 5.14 340 17:58 11.04.2022
4296 Clouds 16 1011 88 10000 7.72 330 17:38 11.04.2022
4297 Clouds 17 1012 85 10000 8.23 350 16:33 11.04.2022
4298 Clear 17 1013 86 10000 8.75 330 14:49 11.04.2022
4299 Clouds 16 1013 81 10000 8.75 350 13:34 11.04.2022
4300 Clouds 16 1014 81 10000 10.8 350 12:39 11.04.2022
4301 Clouds 16 1014 81 10000 10.8 350 12:20 11.04.2022
4302 Clouds 16 1014 80 10000 9.77 340 10:37 11.04.2022
4303 Clouds 16 1015 80 10000 9.77 350 09:49 11.04.2022
4304 Clouds 16 1014 77 10000 9.26 350 07:58 11.04.2022
4305 Clouds 18 1015 71 10000 11.32 350 04:35 11.04.2022
4306 Clouds 17 1019 75 10000 12.35 360 23:30 10.04.2022
4307 Clouds 16 1020 74 10000 11.83 360 22:27 10.04.2022
4308 Clouds 16 1019 77 10000 11.32 360 21:49 10.04.2022
4309 Clouds 16 1019 78 10000 10.8 360 20:50 10.04.2022
4310 Clouds 15 1019 77 10000 10.8 10 19:56 10.04.2022
4311 Clouds 15 1020 78 10000 8.75 10 19:34 10.04.2022
4312 Clouds 15 1020 79 10000 8.23 20 18:48 10.04.2022
4313 Clouds 15 1020 79 10000 8.23 20 18:48 10.04.2022
4314 Clouds 15 1020 80 10000 7.2 20 18:24 10.04.2022
4315 Clouds 15 1021 81 10000 5.66 30 17:42 10.04.2022
4316 Clouds 15 1022 86 10000 6.17 30 16:51 10.04.2022
4317 Clouds 15 1023 83 10000 7.2 20 15:38 10.04.2022
4318 Clouds 15 1023 89 10000 4.63 30 14:40 10.04.2022
4319 Clear 15 1024 91 10000 5.14 40 12:58 10.04.2022
4320 Clear 15 1024 90 10000 4.12 30 12:26 10.04.2022
4321 Clouds 14 1024 90 10000 2.06 20 11:35 10.04.2022
4322 Clouds 14 1024 90 10000 1.54 30 10:58 10.04.2022
4323 Clouds 13 1024 90 10000 1.54 30 10:22 10.04.2022
4324 Clear 14 1024 88 10000 1.03 70 09:40 10.04.2022
4325 Clouds 16 1024 83 10000 1.54 160 08:25 10.04.2022
4326 Clouds 17 1023 79 10000 2.06 170 07:47 10.04.2022
4327 Clouds 19 1024 72 10000 3.6 180 06:43 10.04.2022
4328 Clouds 19 1025 72 10000 5.66 360 02:48 10.04.2022
4329 Clouds 18 1025 80 10000 6.69 10 00:51 10.04.2022
4330 Clouds 17 1024 80 10000 7.72 10 23:50 09.04.2022
4331 Clouds 16 1025 84 10000 6.69 20 22:50 09.04.2022
4332 Clouds 15 1023 86 10000 6.17 20 21:48 09.04.2022
4333 Clouds 14 1023 86 10000 6.17 20 20:57 09.04.2022
4334 Clouds 14 1023 87 10000 7.2 10 20:26 09.04.2022
4335 Clouds 14 1023 88 10000 7.72 10 19:42 09.04.2022
4336 Clouds 14 1023 89 10000 7.2 10 19:18 09.04.2022
4337 Clouds 14 1023 89 10000 7.2 10 19:18 09.04.2022
4338 Clouds 13 1023 90 10000 7.2 20 18:22 09.04.2022
4339 Clouds 13 1023 90 10000 6.69 20 17:40 09.04.2022
4340 Clouds 13 1023 90 10000 6.17 20 16:54 09.04.2022
4341 Clear 12 1024 90 10000 4.63 10 16:24 09.04.2022
4342 Clear 12 1025 89 10000 4.12 20 15:43 09.04.2022
4343 Clear 11 1027 87 10000 3.6 10 14:44 09.04.2022
4344 Clear 11 1027 87 10000 3.6 10 14:44 09.04.2022
4345 Clear 10 1025 95 10000 2.57 20 14:23 09.04.2022
4346 Clear 10 1025 86 10000 3.09 10 13:21 09.04.2022
4347 Clear 10 1025 85 10000 4.12 10 12:51 09.04.2022
4348 Clear 11 1026 82 10000 1.54 30 11:40 09.04.2022
4349 Clear 11 1025 81 10000 1.54 20 10:21 09.04.2022
4350 Clear 10 1025 85 10000 1.03 40 09:47 09.04.2022
4351 Haze 11 1025 83 4600 1.54 280 08:57 09.04.2022
4352 Clear 14 1025 74 10000 2.06 160 07:32 09.04.2022
4353 Clouds 16 1026 65 10000 4.12 170 02:58 09.04.2022
4354 Clouds 16 1026 69 10000 5.66 150 00:25 09.04.2022
4355 Clouds 14 1025 74 10000 6.69 150 22:58 08.04.2022
4356 Clouds 13 1024 75 10000 6.69 160 21:34 08.04.2022
4357 Clouds 13 1023 77 10000 7.2 160 20:41 08.04.2022
4358 Clouds 13 1022 78 10000 8.75 150 19:39 08.04.2022
4359 Clear 13 1022 79 10000 8.75 170 18:31 08.04.2022
4360 Clouds 13 1022 79 10000 8.75 170 17:55 08.04.2022
4361 Clouds 14 1021 81 10000 9.77 170 17:27 08.04.2022
4362 Clouds 13 1021 86 10000 9.26 160 16:51 08.04.2022
4363 Clouds 13 1021 93 10000 5.14 150 16:20 08.04.2022
4364 Clear 11 1023 93 10000 1.54 40 15:27 08.04.2022
4365 Clear 12 1022 87 10000 1.03 70 14:40 08.04.2022
4366 Clouds 11 1020 86 10000 1.54 40 13:55 08.04.2022
4367 Clouds 11 1019 85 10000 1.54 70 13:30 08.04.2022
4368 Clouds 11 1018 86 10000 2.06 30 12:42 08.04.2022
4369 Clouds 12 1018 87 10000 2.57 10 10:55 08.04.2022
4370 Clouds 14 1017 81 10000 3.6 20 09:41 08.04.2022
4371 Clouds 14 1017 77 10000 4.12 20 08:58 08.04.2022
4372 Clear 15 1016 72 10000 5.66 360 07:42 08.04.2022
4373 Clear 17 1016 67 10000 5.14 360 06:44 08.04.2022
4374 Clouds 18 1018 72 10000 5.66 10 02:29 08.04.2022
4375 Clouds 17 1018 78 10000 6.69 10 00:28 08.04.2022
4376 Clouds 16 1019 81 10000 6.69 20 23:41 07.04.2022
4377 Clouds 14 1018 81 10000 5.66 20 22:41 07.04.2022
4378 Clouds 14 1018 81 10000 5.66 20 22:22 07.04.2022
4379 Clouds 13 1018 81 10000 5.14 20 21:56 07.04.2022
4380 Clouds 12 1018 80 10000 5.66 20 21:23 07.04.2022
4381 Clouds 12 1018 80 10000 7.2 30 20:42 07.04.2022
4382 Clouds 12 1018 85 10000 5.14 30 19:25 07.04.2022
4383 Clouds 10 1019 84 10000 5.14 20 17:28 07.04.2022
4384 Clouds 10 1020 86 10000 4.63 20 16:51 07.04.2022
4385 Clouds 10 1020 85 10000 3.6 30 16:33 07.04.2022
4386 Clouds 9 1021 85 10000 3.09 30 15:39 07.04.2022
4387 Clouds 10 1021 85 10000 3.09 20 13:52 07.04.2022
4388 Clouds 10 1021 84 10000 2.57 10 13:23 07.04.2022
4389 Clouds 8 1022 85 10000 2.06 40 11:49 07.04.2022
4390 Clouds 10 1022 78 10000 4.12 140 10:40 07.04.2022
4391 Clouds 12 1020 71 10000 6.69 160 08:43 07.04.2022
4392 Clouds 13 1020 68 10000 8.75 160 06:59 07.04.2022
4393 Clouds 14 1019 71 8000 10.29 190 04:36 07.04.2022
4394 Clouds 14 1019 71 6000 12.35 190 02:32 07.04.2022
4395 Clouds 13 1018 75 8000 14.4 190 00:42 07.04.2022
4396 Haze 12 1017 82 5000 13.89 190 23:21 06.04.2022
4397 Haze 13 1016 74 5000 12.35 190 22:44 06.04.2022
4398 Clouds 12 1014 77 9000 15.43 190 21:47 06.04.2022
4399 Clouds 13 1013 81 10000 13.89 190 20:43 06.04.2022
4400 Clouds 13 1012 76 10000 11.83 180 19:59 06.04.2022
4401 Clouds 13 1012 76 10000 11.83 180 19:59 06.04.2022
4402 Clouds 13 1012 76 10000 9.77 180 19:20 06.04.2022
4403 Clouds 12 1011 80 10000 10.29 170 18:48 06.04.2022
4404 Clouds 13 1010 77 10000 9.26 190 17:36 06.04.2022
4405 Clouds 13 1009 76 10000 10.8 180 16:39 06.04.2022
4406 Clouds 13 1009 81 10000 10.8 180 16:19 06.04.2022
4407 Clouds 13 1008 81 10000 10.8 160 15:40 06.04.2022
4408 Clouds 14 1006 88 10000 11.83 160 13:34 06.04.2022
4409 Clouds 14 1006 88 10000 11.83 160 13:34 06.04.2022
4410 Clouds 15 1003 95 10000 7.72 210 12:29 06.04.2022
4411 Clouds 17 1000 95 8000 2.57 350 10:57 06.04.2022
4412 Clouds 17 1000 95 8000 3.09 350 10:33 06.04.2022
4413 Rain 18 998 94 10000 3.09 360 09:46 06.04.2022
4414 Haze 18 997 94 5000 5.66 330 08:51 06.04.2022
4415 Fog 18 997 95 1300 7.2 340 07:58 06.04.2022
4416 Clouds 19 998 87 10000 10.8 340 05:23 06.04.2022
4417 Rain 19 1001 86 10000 9.77 330 00:20 06.04.2022
4418 Clouds 19 1001 88 10000 10.8 330 23:47 05.04.2022
4419 Clouds 18 1002 93 10000 9.77 340 21:50 05.04.2022
4420 Drizzle 18 1001 94 10000 8.75 350 20:59 05.04.2022
4421 Rain 17 1001 95 4800 6.69 10 20:23 05.04.2022
4422 Clouds 18 1003 91 10000 10.8 350 18:31 05.04.2022
4423 Rain 18 1004 90 10000 8.75 360 17:21 05.04.2022
4424 Clouds 18 1006 88 10000 7.72 360 16:42 05.04.2022
4425 Clouds 18 1006 88 10000 6.69 360 15:51 05.04.2022
4426 Clouds 18 1006 88 10000 7.72 340 15:30 05.04.2022
4427 Clouds 18 1007 91 10000 7.72 340 13:46 05.04.2022
4428 Rain 18 1008 90 10000 6.17 340 12:29 05.04.2022
4429 Rain 18 1008 91 10000 9.26 350 11:43 05.04.2022
4430 Clouds 19 1008 91 10000 9.26 350 11:24 05.04.2022
4431 Rain 19 1008 89 10000 10.29 340 09:31 05.04.2022
4432 Rain 19 1008 91 10000 9.26 350 08:33 05.04.2022
4433 Clouds 18 1011 93 10000 7.72 350 03:50 05.04.2022
4434 Clouds 18 1013 88 10000 10.29 360 23:42 04.04.2022
4435 Clouds 18 1014 90 10000 10.29 10 22:37 04.04.2022
4436 Clouds 17 1014 90 10000 10.29 10 21:48 04.04.2022
4437 Clouds 17 1013 90 10000 10.8 360 21:19 04.04.2022
4438 Clouds 17 1013 90 10000 10.8 360 20:47 04.04.2022
4439 Clouds 17 1013 89 10000 9.77 360 19:28 04.04.2022
4440 Clouds 18 1014 89 10000 8.75 360 18:43 04.04.2022
4441 Clouds 18 1014 88 10000 8.75 360 17:21 04.04.2022
4442 Clouds 17 1015 88 10000 10.29 360 16:34 04.04.2022
4443 Clouds 17 1015 88 10000 9.26 20 15:34 04.04.2022
4444 Clouds 17 1015 87 10000 9.77 20 14:46 04.04.2022
4445 Clouds 17 1016 87 10000 8.23 20 14:28 04.04.2022
4446 Clouds 17 1016 87 10000 8.23 20 12:59 04.04.2022
4447 Clouds 17 1017 87 10000 9.77 350 11:29 04.04.2022
4448 Clouds 17 1017 87 10000 9.26 360 10:29 04.04.2022
4449 Clouds 18 1016 81 10000 8.75 10 06:58 04.04.2022
4450 Clouds 21 1017 70 10000 10.29 10 03:18 04.04.2022
4451 Clouds 19 1018 76 10000 7.2 30 23:47 03.04.2022
4452 Clouds 17 1018 87 10000 5.66 20 22:24 03.04.2022
4453 Clouds 15 1018 91 10000 5.66 20 21:32 03.04.2022
4454 Clouds 14 1018 92 10000 4.12 20 20:36 03.04.2022
4455 Clouds 14 1018 92 10000 4.63 20 19:29 03.04.2022
4456 Clouds 14 1018 93 10000 4.63 20 18:27 03.04.2022
4457 Clouds 14 1018 93 10000 4.63 20 17:41 03.04.2022
4458 Clouds 14 1018 93 10000 3.09 20 16:50 03.04.2022
4459 Clouds 14 1018 93 10000 4.12 10 15:59 03.04.2022
4460 Clouds 15 1018 93 10000 3.6 30 14:28 03.04.2022
4461 Clouds 15 1018 92 10000 4.63 20 13:44 03.04.2022
4462 Clouds 16 1018 92 10000 5.14 20 12:19 03.04.2022
4463 Clouds 17 1017 90 10000 5.14 20 10:32 03.04.2022
4464 Clouds 17 1017 89 10000 5.14 10 09:23 03.04.2022
4465 Clouds 19 1016 84 10000 7.2 360 07:24 03.04.2022
4466 Clouds 21 1015 70 10000 8.23 360 03:46 03.04.2022
4467 Clouds 20 1017 76 10000 4.63 30 00:36 03.04.2022
4468 Clouds 17 1017 89 10000 2.57 360 22:54 02.04.2022
4469 Clouds 16 1017 93 10000 1.54 10 21:57 02.04.2022
4470 Clouds 16 1017 93 10000 2.06 20 21:33 02.04.2022
4471 Clouds 15 1016 92 10000 2.57 360 20:51 02.04.2022
4472 Clouds 15 1017 93 10000 2.57 360 19:28 02.04.2022
4473 Clouds 16 1017 93 10000 2.57 360 18:21 02.04.2022
4474 Clouds 16 1017 93 10000 3.09 350 17:47 02.04.2022
4475 Clouds 16 1018 93 6000 1.03 350 16:22 02.04.2022
4476 Clouds 16 1017 93 10000 2.06 360 15:21 02.04.2022
4477 Clouds 16 1017 93 10000 2.57 10 14:47 02.04.2022
4478 Clouds 16 1017 92 10000 3.6 30 13:35 02.04.2022
4479 Clouds 16 1017 94 10000 3.6 20 12:37 02.04.2022
4480 Clouds 16 1017 91 10000 3.6 30 10:58 02.04.2022
4481 Clouds 16 1016 89 10000 4.12 360 08:49 02.04.2022
4482 Clouds 19 1015 78 10000 5.66 10 06:50 02.04.2022
4483 Clouds 21 1017 64 10000 7.2 10 03:45 02.04.2022
4484 Clouds 17 1017 89 10000 4.12 350 23:56 01.04.2022
4485 Clouds 16 1017 91 10000 3.6 20 23:18 01.04.2022
4486 Clouds 13 1017 92 10000 1.03 210 21:33 01.04.2022
4487 Clouds 12 1017 93 10000 2.06 230 20:51 01.04.2022
4488 Clouds 13 1017 94 10000 5.14 220 19:57 01.04.2022
4489 Clouds 13 1017 94 10000 5.66 230 19:31 01.04.2022
4490 Clouds 13 1018 93 10000 5.14 230 18:45 01.04.2022
4491 Clouds 14 1018 92 10000 4.63 210 17:46 01.04.2022
4492 Clouds 14 1019 91 10000 3.6 180 16:52 01.04.2022
4493 Clouds 14 1019 92 10000 4.63 200 15:39 01.04.2022
4494 Clouds 14 1020 94 10000 4.12 190 14:20 01.04.2022
4495 Clouds 14 1020 94 8000 4.63 180 13:34 01.04.2022
4496 Mist 14 1020 95 2500 6.69 150 12:32 01.04.2022
4497 Mist 14 1020 95 2500 6.69 150 12:32 01.04.2022
4498 Clouds 14 1020 93 10000 6.17 170 11:40 01.04.2022
4499 Clouds 14 1020 94 8000 6.17 180 10:19 01.04.2022
4500 Clouds 14 1020 93 7000 8.23 190 08:47 01.04.2022
4501 Clouds 14 1019 91 6000 10.29 190 06:54 01.04.2022
4502 Clouds 15 1019 92 8000 11.83 190 04:49 01.04.2022
4503 Clouds 15 1019 92 8000 12.86 190 04:30 01.04.2022
4504 Clouds 16 1018 95 6000 9.26 190 01:56 01.04.2022
4505 Clouds 16 1017 90 10000 8.75 180 22:58 31.03.2022
4506 Rain 16 1017 90 9000 9.77 180 21:51 31.03.2022
4507 Clouds 16 1016 90 10000 9.26 180 21:32 31.03.2022
4508 Clouds 16 1015 93 10000 5.66 190 20:29 31.03.2022
4509 Clouds 16 1015 93 10000 5.14 180 19:48 31.03.2022
4510 Drizzle 16 1015 93 3600 4.12 230 18:43 31.03.2022
4511 Clouds 16 1014 93 10000 3.6 260 17:49 31.03.2022
4512 Clouds 16 1013 92 10000 6.69 20 16:38 31.03.2022
4513 Clouds 16 1013 93 10000 6.17 20 15:43 31.03.2022
4514 Clouds 16 1013 93 10000 7.2 10 15:19 31.03.2022
4515 Clouds 16 1013 92 10000 5.66 20 14:35 31.03.2022
4516 Clouds 16 1012 90 10000 7.2 30 11:43 31.03.2022
4517 Clouds 16 1012 89 10000 6.69 20 10:55 31.03.2022
4518 Clouds 17 1012 85 10000 6.17 10 09:44 31.03.2022
4519 Clouds 18 1012 81 10000 5.14 360 07:55 31.03.2022
4520 Clouds 22 1012 74 10000 2.06 210 04:46 31.03.2022
4521 Fog 17 1015 94 450 1.03 60 23:43 30.03.2022
4522 Fog 15 1015 96 600 2.06 360 22:32 30.03.2022
4523 Fog 13 1015 96 250 1.54 80 21:38 30.03.2022
4524 Fog 12 1015 96 250 0.51 160 20:53 30.03.2022
4525 Fog 13 1015 96 300 1.54 40 19:59 30.03.2022
4526 Fog 12 1015 96 450 1.03 60 18:59 30.03.2022
4527 Fog 14 1015 93 500 1.03 40 18:18 30.03.2022
4528 Fog 13 1016 95 250 1.54 70 17:44 30.03.2022
4529 Fog 13 1016 96 750 1.03 10 16:54 30.03.2022
4530 Fog 12 1016 95 200 1.03 60 16:31 30.03.2022
4531 Fog 13 1017 95 200 1.03 340 14:56 30.03.2022
4532 Fog 14 1017 95 200 1.03 310 13:34 30.03.2022
4533 Fog 14 1017 95 150 1.54 180 12:42 30.03.2022
4534 Fog 14 1017 93 250 1.54 360 10:55 30.03.2022
4535 Clouds 16 1017 93 10000 3.09 240 09:58 30.03.2022
4536 Fog 17 1016 91 800 5.66 220 08:57 30.03.2022
4537 Clouds 18 1016 88 10000 7.72 200 07:31 30.03.2022
4538 Mist 20 1016 85 1500 6.17 200 05:40 30.03.2022
4539 Fog 20 1016 86 350 6.17 210 03:21 30.03.2022
4540 Fog 17 1018 97 600 5.66 220 23:42 29.03.2022
4541 Drizzle 16 1018 97 1000 4.63 210 22:19 29.03.2022
4542 Drizzle 16 1018 97 2300 4.12 220 21:41 29.03.2022
4543 Mist 15 1017 96 4100 3.6 220 20:44 29.03.2022
4544 Drizzle 15 1017 96 1800 5.66 200 19:45 29.03.2022
4545 Mist 15 1017 96 5000 5.14 190 18:54 29.03.2022
4546 Clouds 15 1017 96 8000 5.14 190 18:18 29.03.2022
4547 Mist 15 1017 96 3000 7.2 200 17:20 29.03.2022
4548 Mist 15 1017 96 1800 6.17 210 16:54 29.03.2022
4549 Drizzle 16 1017 96 2000 5.14 200 15:47 29.03.2022
4550 Drizzle 16 1018 96 1800 6.17 210 14:43 29.03.2022
4551 Drizzle 16 1018 96 1100 6.17 210 13:41 29.03.2022
4552 Mist 16 1018 96 1600 6.69 200 12:40 29.03.2022
4553 Mist 16 1018 95 1900 7.2 190 11:27 29.03.2022
4554 Mist 16 1018 95 1800 7.2 190 10:23 29.03.2022
4555 Fog 16 1017 94 1400 5.66 170 08:57 29.03.2022
4556 Mist 17 1016 90 1400 7.2 170 06:53 29.03.2022
4557 Clouds 19 1016 77 10000 7.72 220 02:55 29.03.2022
4558 Clear 17 1017 85 10000 3.6 200 23:40 28.03.2022
4559 Clear 15 1017 89 10000 2.06 200 22:58 28.03.2022
4560 Clear 15 1017 89 10000 2.06 200 22:58 28.03.2022
4561 Clear 14 1017 91 10000 1.54 210 22:35 28.03.2022
4562 Clear 12 1017 95 10000 4.12 230 21:47 28.03.2022
4563 Clear 11 1016 94 10000 2.06 200 20:37 28.03.2022
4564 Clouds 12 1016 94 10000 4.63 210 19:57 28.03.2022
4565 Clouds 12 1016 93 10000 6.69 220 19:38 28.03.2022
4566 Clouds 12 1016 94 10000 5.66 210 18:51 28.03.2022
4567 Clouds 13 1016 93 10000 6.17 170 17:41 28.03.2022
4568 Clouds 12 1016 93 10000 6.17 160 16:58 28.03.2022
4569 Clouds 12 1018 89 10000 3.6 160 15:35 28.03.2022
4570 Clouds 14 1018 88 10000 3.09 170 14:24 28.03.2022
4571 Clouds 13 1019 89 10000 3.09 140 13:19 28.03.2022
4572 Clouds 12 1019 89 10000 3.09 150 11:52 28.03.2022
4573 Clouds 13 1019 85 10000 4.63 140 10:35 28.03.2022
4574 Clouds 15 1019 83 10000 5.66 140 09:21 28.03.2022
4575 Clouds 15 1019 83 10000 7.72 150 08:40 28.03.2022
4576 Clouds 15 1019 83 10000 7.72 150 08:20 28.03.2022
4577 Clouds 16 1020 81 10000 8.23 160 06:55 28.03.2022
4578 Clouds 16 1022 80 10000 7.72 170 02:20 28.03.2022
4579 Clouds 14 1023 91 6000 8.23 170 22:38 27.03.2022
4580 Mist 13 1022 93 4800 8.75 160 21:48 27.03.2022
4581 Haze 13 1022 93 5000 9.77 170 21:28 27.03.2022
4582 Clouds 13 1021 93 10000 8.75 170 20:41 27.03.2022
4583 Clouds 13 1021 92 10000 8.23 180 19:37 27.03.2022
4584 Clouds 13 1021 92 10000 8.75 180 18:45 27.03.2022
4585 Clouds 13 1021 92 10000 8.75 180 18:23 27.03.2022
4586 Clouds 13 1021 92 10000 8.75 180 18:23 27.03.2022
4587 Clouds 13 1021 93 10000 8.75 180 17:36 27.03.2022
4588 Clouds 14 1022 90 7000 8.23 170 15:51 27.03.2022
4589 Clouds 14 1022 87 10000 7.72 160 13:59 27.03.2022
4590 Clouds 14 1022 89 10000 7.2 160 13:21 27.03.2022
4591 Clouds 14 1022 82 10000 8.75 150 11:35 27.03.2022
4592 Clouds 14 1022 86 10000 8.75 150 09:37 27.03.2022
4593 Clouds 15 1021 83 10000 10.29 150 07:31 27.03.2022
4594 Clouds 18 1020 74 10000 10.8 150 04:24 27.03.2022
4595 Clouds 16 1021 75 10000 11.83 160 00:26 27.03.2022
4596 Clouds 15 1020 79 10000 11.83 170 22:52 26.03.2022
4597 Clouds 15 1020 82 10000 11.32 170 21:57 26.03.2022
4598 Clouds 15 1020 84 10000 9.77 170 21:30 26.03.2022
4599 Clouds 15 1018 84 10000 10.29 170 19:38 26.03.2022
4600 Clouds 15 1018 86 10000 10.8 170 18:44 26.03.2022
4601 Clouds 15 1018 87 10000 11.32 180 17:36 26.03.2022
4602 Clouds 14 1018 89 10000 9.77 170 16:40 26.03.2022
4603 Clouds 14 1018 89 10000 9.77 170 15:42 26.03.2022
4604 Clouds 15 1018 87 10000 10.29 170 13:56 26.03.2022
4605 Clouds 15 1017 86 10000 10.29 170 13:36 26.03.2022
4606 Clouds 15 1017 86 10000 8.75 180 11:50 26.03.2022
4607 Clouds 15 1017 86 10000 9.26 170 10:48 26.03.2022
4608 Clouds 15 1016 86 10000 10.29 160 08:50 26.03.2022
4609 Clouds 16 1014 81 10000 8.75 160 06:39 26.03.2022
4610 Clear 17 1014 77 10000 10.8 170 05:31 26.03.2022
4611 Clouds 17 1013 78 10000 9.77 180 02:24 26.03.2022
4612 Clouds 15 1012 76 10000 11.32 180 22:30 25.03.2022
4613 Clouds 14 1010 79 10000 10.29 180 20:58 25.03.2022
4614 Clouds 14 1010 81 10000 10.29 170 20:26 25.03.2022
4615 Clouds 14 1009 82 10000 11.32 170 19:19 25.03.2022
4616 Clouds 14 1008 83 10000 11.83 180 18:35 25.03.2022
4617 Clear 14 1008 82 10000 12.35 180 17:30 25.03.2022
4618 Clouds 14 1008 79 10000 12.86 180 16:27 25.03.2022
4619 Clouds 14 1008 75 10000 11.83 180 15:34 25.03.2022
4620 Clouds 15 1008 74 8000 11.32 190 13:29 25.03.2022
4621 Clouds 15 1009 73 9000 12.86 190 11:21 25.03.2022
4622 Clouds 15 1009 73 8000 13.38 180 09:31 25.03.2022
4623 Clouds 15 1008 74 9000 12.86 180 08:50 25.03.2022
4624 Clouds 15 1008 72 10000 11.32 180 07:42 25.03.2022
4625 Clouds 15 1007 73 10000 12.35 190 06:59 25.03.2022
4626 Haze 15 1007 82 5000 16.46 190 02:37 25.03.2022
4627 Rain 14 1007 93 4800 18.01 200 22:59 24.03.2022
4628 Rain 13 1006 95 2800 16.98 200 22:19 24.03.2022
4629 Rain 14 1006 91 5000 18.01 200 20:52 24.03.2022
4630 Drizzle 14 1005 92 5000 17.49 200 19:49 24.03.2022
4631 Rain 14 1004 93 3700 19.03 200 18:44 24.03.2022
4632 Rain 14 1003 94 3300 18.01 200 17:35 24.03.2022
4633 Mist 14 1004 95 2600 18.52 200 16:28 24.03.2022
4634 Rain 14 1004 94 2100 18.01 200 14:51 24.03.2022
4635 Rain 14 1004 95 2500 18.01 190 14:22 24.03.2022
4636 Rain 14 1004 94 2400 18.01 200 13:33 24.03.2022
4637 Rain 15 1004 95 2900 13.38 190 12:24 24.03.2022
4638 Rain 17 1003 96 4600 8.75 180 10:48 24.03.2022
4639 Drizzle 17 1002 96 8000 7.72 180 09:24 24.03.2022
4640 Rain 17 1002 95 7000 6.69 170 08:32 24.03.2022
4641 Rain 18 1000 94 10000 4.63 160 04:52 24.03.2022
4642 Rain 18 1000 96 7000 6.69 200 23:41 23.03.2022
4643 Rain 17 1000 96 8000 7.2 200 22:18 23.03.2022
4644 Rain 17 1000 95 8000 5.66 200 21:21 23.03.2022
4645 Clouds 16 1000 95 10000 1.03 330 19:51 23.03.2022
4646 Clouds 16 1000 95 10000 1.03 140 19:25 23.03.2022
4647 Clouds 16 1000 95 10000 1.03 210 17:48 23.03.2022
4648 Clouds 16 1000 95 10000 0.51 250 17:18 23.03.2022
4649 Clouds 17 1001 94 10000 2.57 60 15:25 23.03.2022
4650 Rain 17 1001 93 10000 2.57 40 14:47 23.03.2022
4651 Rain 17 1002 95 10000 1.54 190 13:30 23.03.2022
4652 Rain 18 1004 93 10000 2.06 310 10:50 23.03.2022
4653 Rain 19 1004 92 10000 2.06 170 08:21 23.03.2022
4654 Rain 20 1004 84 10000 2.57 170 05:50 23.03.2022
4655 Rain 21 1004 85 10000 2.06 180 01:59 23.03.2022
4656 Rain 21 1005 89 10000 2.57 180 00:25 23.03.2022
4657 Rain 21 1005 89 10000 2.57 180 00:25 23.03.2022
4658 Rain 18 1005 96 10000 0.51 80 21:40 22.03.2022
4659 Clouds 16 1005 96 10000 2.06 190 20:59 22.03.2022
4660 Clouds 16 1006 95 10000 2.06 190 20:18 22.03.2022
4661 Clouds 16 1005 96 10000 1.03 70 19:26 22.03.2022
4662 Rain 15 1005 95 10000 1.54 10 18:46 22.03.2022
4663 Rain 15 1005 96 8000 1.03 70 17:43 22.03.2022
4664 Rain 16 1005 95 6000 1.03 20 16:37 22.03.2022
4665 Clouds 16 1005 94 10000 1.54 30 15:41 22.03.2022
4666 Clouds 16 1006 94 10000 1.54 30 15:19 22.03.2022
4667 Clouds 16 1006 95 10000 1.03 90 14:42 22.03.2022
4668 Clouds 17 1006 94 10000 1.54 60 13:42 22.03.2022
4669 Clouds 17 1006 93 10000 2.57 80 11:53 22.03.2022
4670 Clouds 18 1006 93 10000 1.54 40 10:54 22.03.2022
4671 Clouds 19 1007 93 10000 1.03 70 09:21 22.03.2022
4672 Clouds 18 1006 94 10000 3.09 220 07:30 22.03.2022
4673 Clouds 24 1006 73 10000 4.63 210 03:55 22.03.2022
4674 Clouds 24 1007 76 10000 4.12 180 00:46 22.03.2022
4675 Clouds 20 1007 88 10000 3.6 170 22:46 21.03.2022
4676 Clouds 18 1007 93 10000 1.54 20 21:30 21.03.2022
4677 Rain 16 1007 96 10000 1.54 40 20:43 21.03.2022
4678 Clouds 16 1007 96 10000 1.54 50 20:23 21.03.2022
4679 Clouds 15 1007 96 10000 1.54 30 19:35 21.03.2022
4680 Clouds 15 1007 96 10000 1.54 30 19:35 21.03.2022
4681 Clouds 16 1007 96 10000 1.54 30 18:47 21.03.2022
4682 Clouds 16 1006 95 10000 0.51 220 17:35 21.03.2022
4683 Clouds 16 1007 95 10000 1.54 160 16:59 21.03.2022
4684 Clouds 17 1007 95 10000 1.03 180 16:27 21.03.2022
4685 Clouds 17 1007 93 7000 1.54 30 15:43 21.03.2022
4686 Clouds 17 1007 93 10000 2.06 20 14:36 21.03.2022
4687 Rain 17 1007 91 10000 4.63 60 13:20 21.03.2022
4688 Rain 18 1008 89 10000 6.17 30 11:58 21.03.2022
4689 Rain 17 1008 89 10000 4.12 20 11:25 21.03.2022
4690 Clouds 17 1008 91 6000 4.63 20 09:49 21.03.2022
4691 Rain 16 1006 92 10000 1.79 75 07:33 21.03.2022
4692 Rain 17 1008 91 10000 3.09 210 05:56 21.03.2022
4693 Rain 18 1013 72 10000 2.06 210 01:39 21.03.2022
4694 Clouds 17 1011 84 10000 1.03 170 22:57 20.03.2022
4695 Rain 16 1011 88 9000 0.51 200 22:25 20.03.2022
4696 Rain 14 1011 91 10000 0.51 20 21:37 20.03.2022
4697 Rain 13 1011 92 10000 0.51 20 20:55 20.03.2022
4698 Rain 13 1011 92 10000 0.51 130 20:29 20.03.2022
4699 Rain 13 1010 89 10000 0.51 10 19:49 20.03.2022
4700 Rain 12 1009 88 6000 0.51 320 19:19 20.03.2022
4701 Rain 12 1009 87 10000 1.54 30 17:44 20.03.2022
4702 Rain 12 1011 87 10000 1.03 40 17:24 20.03.2022
4703 Rain 12 1012 85 10000 1.54 50 15:58 20.03.2022
4704 Clouds 13 1012 86 10000 1.03 220 14:42 20.03.2022
4705 Clouds 13 1012 86 10000 1.03 140 13:38 20.03.2022
4706 Clouds 13 1013 85 10000 1.54 360 12:19 20.03.2022
4707 Clouds 16 1012 80 10000 3.09 10 09:59 20.03.2022
4708 Clouds 17 1012 79 10000 0.51 290 08:20 20.03.2022
4709 Clouds 20 1012 63 10000 4.63 200 05:49 20.03.2022
4710 Rain 21 1013 60 10000 5.66 210 03:18 20.03.2022
4711 Clouds 21 1014 63 10000 4.63 190 00:53 20.03.2022
4712 Rain 21 1014 64 10000 3.09 180 00:28 20.03.2022
4713 Clouds 17 1014 80 10000 1.54 320 22:25 19.03.2022
4714 Clouds 13 1014 90 10000 1.03 10 21:26 19.03.2022
4715 Clouds 13 1014 90 10000 1.03 10 21:26 19.03.2022
4716 Rain 10 1013 90 10000 0.51 310 19:22 19.03.2022
4717 Clouds 11 1013 90 10000 1.54 150 18:38 19.03.2022
4718 Clouds 11 1013 89 10000 1.03 100 17:49 19.03.2022
4719 Clouds 11 1013 89 10000 1.54 30 16:46 19.03.2022
4720 Clouds 11 1012 89 10000 1.03 20 15:26 19.03.2022
4721 Clouds 11 1013 88 10000 1.03 360 13:49 19.03.2022
4722 Clouds 11 1013 89 10000 1.54 30 12:43 19.03.2022
4723 Clouds 11 1013 89 10000 1.54 30 12:20 19.03.2022
4724 Clouds 12 1013 89 10000 1.54 70 11:45 19.03.2022
4725 Clouds 12 1012 84 10000 1.03 50 09:22 19.03.2022
4726 Clouds 20 1010 60 10000 5.66 200 04:53 19.03.2022
4727 Clouds 19 1010 64 10000 5.14 200 02:33 19.03.2022
4728 Clouds 17 1010 67 10000 1.03 340 23:52 18.03.2022
4729 Clouds 16 1009 74 10000 2.57 340 22:58 18.03.2022
4730 Clouds 14 1009 83 10000 3.6 360 22:21 18.03.2022
4731 Clouds 10 1011 81 10000 3.09 40 20:26 18.03.2022
4732 Clear 9 1011 87 10000 3.09 30 19:25 18.03.2022
4733 Clear 9 1011 93 10000 3.09 20 18:58 18.03.2022
4734 Clear 9 1011 93 10000 2.57 40 16:56 18.03.2022
4735 Clear 7 1007 86 10000 2.06 40 16:24 18.03.2022
4736 Clear 9 1009 84 10000 1.54 20 14:27 18.03.2022
4737 Clear 9 1009 84 7000 0.51 320 13:40 18.03.2022
4738 Clear 9 1011 86 10000 1.54 60 11:37 18.03.2022
4739 Clear 10 1012 83 10000 1.54 160 10:27 18.03.2022
4740 Clear 12 1012 76 10000 4.12 140 08:46 18.03.2022
4741 Clear 14 1012 66 10000 5.14 170 06:59 18.03.2022
4742 Clouds 16 1012 59 10000 5.66 170 04:55 18.03.2022
4743 Clouds 16 1014 60 10000 6.17 200 01:38 18.03.2022
4744 Clouds 15 1015 59 10000 7.2 200 23:59 17.03.2022
4745 Clouds 14 1015 64 10000 6.17 180 22:45 17.03.2022
4746 Clouds 14 1015 65 10000 6.17 180 22:19 17.03.2022
4747 Clouds 13 1016 67 10000 5.66 170 21:30 17.03.2022
4748 Clouds 12 1015 74 10000 5.14 180 20:53 17.03.2022
4749 Clouds 12 1015 71 10000 3.6 140 20:19 17.03.2022
4750 Clouds 12 1015 69 10000 5.14 170 19:38 17.03.2022
4751 Clouds 12 1015 69 10000 6.17 160 18:52 17.03.2022
4752 Clouds 11 1016 73 10000 6.69 180 17:29 17.03.2022
4753 Clouds 12 1016 72 10000 6.69 170 16:20 17.03.2022
4754 Clouds 12 1017 71 10000 6.17 170 15:43 17.03.2022
4755 Clouds 12 1018 73 10000 5.66 160 14:59 17.03.2022
4756 Clouds 12 1018 71 10000 4.63 140 13:35 17.03.2022
4757 Clouds 12 1019 73 10000 6.17 160 12:46 17.03.2022
4758 Clouds 12 1019 72 10000 4.63 140 11:33 17.03.2022
4759 Clouds 14 1019 69 10000 5.66 140 10:43 17.03.2022
4760 Clouds 14 1020 70 10000 6.69 150 09:36 17.03.2022
4761 Clouds 14 1019 70 10000 7.2 150 08:19 17.03.2022
4762 Clouds 16 1020 66 10000 6.69 160 05:51 17.03.2022
4763 Clouds 16 1020 64 10000 7.72 150 04:30 17.03.2022
4764 Clouds 15 1023 64 10000 7.2 160 00:27 17.03.2022
4765 Clouds 15 1024 69 10000 8.23 160 22:56 16.03.2022
4766 Clouds 15 1024 71 10000 7.2 170 22:36 16.03.2022
4767 Clouds 14 1024 72 10000 8.23 160 21:56 16.03.2022
4768 Clouds 13 1024 74 10000 8.23 160 20:40 16.03.2022
4769 Clouds 13 1023 71 10000 7.72 160 19:23 16.03.2022
4770 Clouds 13 1023 74 10000 8.23 140 18:42 16.03.2022
4771 Clouds 13 1023 75 10000 7.2 140 17:49 16.03.2022
4772 Clouds 13 1023 74 10000 8.23 150 17:31 16.03.2022
4773 Clouds 13 1024 69 10000 8.23 170 16:21 16.03.2022
4774 Clouds 13 1024 71 10000 8.23 180 14:50 16.03.2022
4775 Clouds 13 1025 74 10000 7.72 170 13:36 16.03.2022
4776 Clouds 14 1025 71 10000 8.23 160 12:43 16.03.2022
4777 Clouds 14 1025 76 10000 8.75 160 11:23 16.03.2022
4778 Clouds 14 1025 79 10000 8.75 150 10:32 16.03.2022
4779 Clouds 14 1025 79 10000 8.75 150 09:56 16.03.2022
4780 Drizzle 15 1025 80 10000 7.2 150 07:43 16.03.2022
4781 Clouds 17 1025 76 10000 7.2 160 02:45 16.03.2022
4782 Clouds 16 1026 80 10000 8.75 170 22:55 15.03.2022
4783 Clouds 16 1026 83 10000 8.75 190 22:35 15.03.2022
4784 Clouds 15 1025 82 10000 8.75 170 20:59 15.03.2022
4785 Clouds 15 1025 78 10000 8.75 140 19:39 15.03.2022
4786 Clouds 13 1024 84 10000 9.77 170 17:46 15.03.2022
4787 Clouds 14 1025 84 10000 8.75 160 16:38 15.03.2022
4788 Clouds 14 1025 81 10000 7.72 160 15:38 15.03.2022
4789 Clouds 14 1025 83 10000 10.29 160 14:54 15.03.2022
4790 Clouds 14 1026 78 10000 9.77 150 13:56 15.03.2022
4791 Clouds 14 1026 77 10000 8.75 160 13:22 15.03.2022
4792 Clouds 15 1026 78 10000 9.26 140 11:33 15.03.2022
4793 Clouds 15 1025 74 10000 9.26 160 10:27 15.03.2022
4794 Clouds 15 1025 75 10000 9.26 160 09:20 15.03.2022
4795 Clouds 14 1025 76 10000 10.29 140 08:21 15.03.2022
4796 Clouds 15 1024 75 10000 10.29 170 07:36 15.03.2022
4797 Clouds 16 1024 70 10000 9.77 160 05:56 15.03.2022
4798 Clouds 18 1024 59 10000 9.26 150 00:31 15.03.2022
4799 Clouds 15 1023 70 10000 9.26 140 23:29 14.03.2022
4800 Clouds 15 1023 81 10000 8.23 160 22:49 14.03.2022
4801 Clouds 14 1023 82 10000 9.26 170 21:51 14.03.2022
4802 Clouds 14 1023 83 10000 8.75 180 20:55 14.03.2022
4803 Clouds 14 1022 80 10000 8.75 170 20:24 14.03.2022
4804 Clouds 15 1021 75 10000 8.75 170 19:24 14.03.2022
4805 Clouds 15 1021 76 10000 8.23 180 17:57 14.03.2022
4806 Clouds 15 1021 75 10000 6.69 180 17:39 14.03.2022
4807 Clouds 15 1021 71 10000 7.2 170 16:29 14.03.2022
4808 Clouds 15 1021 73 10000 6.69 170 14:47 14.03.2022
4809 Clouds 15 1021 71 10000 5.66 150 13:29 14.03.2022
4810 Clouds 15 1022 75 10000 6.69 150 11:26 14.03.2022
4811 Clouds 15 1021 76 10000 6.69 150 09:57 14.03.2022
4812 Clouds 15 1021 77 10000 6.69 150 09:34 14.03.2022
4813 Clouds 15 1021 76 10000 6.17 150 08:57 14.03.2022
4814 Clouds 15 1020 77 10000 7.2 150 08:26 14.03.2022
4815 Clouds 17 1020 73 10000 7.72 150 06:19 14.03.2022
4816 Clouds 18 1022 69 10000 8.23 150 02:58 14.03.2022
4817 Clouds 17 1023 71 10000 7.2 150 01:39 14.03.2022
4818 Clouds 17 1024 68 10000 6.69 150 23:41 13.03.2022
4819 Clouds 16 1024 76 10000 7.72 160 21:46 13.03.2022
4820 Clouds 15 1024 78 10000 6.69 160 21:21 13.03.2022
4821 Clouds 15 1025 77 10000 7.72 150 20:46 13.03.2022
4822 Clouds 15 1025 76 10000 7.72 150 20:21 13.03.2022
4823 Clouds 15 1025 76 10000 7.2 150 19:41 13.03.2022
4824 Clouds 15 1025 77 10000 7.2 150 19:22 13.03.2022
4825 Clouds 15 1025 77 10000 7.72 150 18:41 13.03.2022
4826 Clouds 15 1025 76 10000 7.72 150 18:22 13.03.2022
4827 Clouds 15 1025 73 10000 6.17 140 17:36 13.03.2022
4828 Clouds 15 1025 71 10000 5.14 150 16:45 13.03.2022
4829 Clouds 15 1025 71 10000 7.2 150 16:21 13.03.2022
4830 Clouds 15 1026 68 10000 7.72 150 15:39 13.03.2022
4831 Clouds 15 1026 72 10000 9.26 150 14:36 13.03.2022
4832 Clouds 15 1027 66 10000 8.23 140 13:27 13.03.2022
4833 Clouds 15 1027 67 10000 6.69 150 12:21 13.03.2022
4834 Clouds 15 1027 67 10000 10.8 160 11:38 13.03.2022
4835 Clouds 15 1027 70 10000 10.29 160 10:49 13.03.2022
4836 Clouds 15 1027 67 10000 9.26 160 10:25 13.03.2022
4837 Clouds 15 1027 66 10000 8.75 150 09:42 13.03.2022
4838 Clouds 15 1027 66 10000 9.26 140 08:49 13.03.2022
4839 Clouds 15 1027 66 10000 9.26 140 08:49 13.03.2022
4840 Clouds 15 1027 72 10000 10.8 170 08:23 13.03.2022
4841 Clouds 17 1027 68 10000 9.77 160 06:40 13.03.2022
4842 Clouds 17 1026 63 10000 9.77 160 04:51 13.03.2022
4843 Clouds 18 1027 62 10000 11.32 160 01:46 13.03.2022
4844 Clouds 16 1026 70 10000 9.77 180 22:51 12.03.2022
4845 Clouds 17 1026 70 10000 10.29 160 21:29 12.03.2022
4846 Clouds 15 1025 75 10000 10.29 160 20:18 12.03.2022
4847 Clouds 15 1024 78 10000 9.77 160 19:43 12.03.2022
4848 Clouds 15 1023 78 10000 10.29 170 18:37 12.03.2022
4849 Clouds 15 1023 79 10000 9.77 170 17:48 12.03.2022
4850 Clouds 16 1023 79 10000 9.77 170 16:28 12.03.2022
4851 Clouds 16 1023 79 10000 9.77 170 15:40 12.03.2022
4852 Clouds 16 1023 80 10000 9.77 170 15:18 12.03.2022
4853 Clouds 16 1022 79 10000 8.75 160 13:53 12.03.2022
4854 Clouds 16 1022 79 10000 8.75 160 12:27 12.03.2022
4855 Clouds 16 1022 79 10000 9.26 170 11:52 12.03.2022
4856 Clouds 16 1021 78 10000 8.75 160 11:20 12.03.2022
4857 Clouds 16 1021 80 10000 9.26 160 09:59 12.03.2022
4858 Clouds 16 1020 78 10000 9.77 170 09:40 12.03.2022
4859 Clouds 18 1018 74 10000 10.29 170 07:51 12.03.2022
4860 Clouds 21 1015 74 10000 8.75 200 05:44 12.03.2022
4861 Clouds 18 1011 89 9000 8.23 360 00:26 12.03.2022
4862 Clouds 18 1011 89 10000 8.75 360 23:37 11.03.2022
4863 Clouds 18 1011 89 10000 9.26 10 21:55 11.03.2022
4864 Clouds 18 1011 90 10000 8.75 20 20:59 11.03.2022
4865 Haze 18 1011 91 5000 9.26 10 20:40 11.03.2022
4866 Haze 18 1010 91 5000 9.26 10 20:19 11.03.2022
4867 Clouds 18 1010 85 10000 9.77 10 19:28 11.03.2022
4868 Clouds 19 1009 78 10000 10.8 10 17:50 11.03.2022
4869 Clouds 19 1009 79 10000 10.8 10 17:21 11.03.2022
4870 Clear 19 1010 74 10000 11.83 360 15:57 11.03.2022
4871 Clear 19 1010 72 10000 10.8 360 15:29 11.03.2022
4872 Clouds 20 1012 75 10000 10.8 360 13:28 11.03.2022
4873 Clouds 20 1012 74 10000 9.26 350 12:30 11.03.2022
4874 Clouds 20 1012 75 10000 9.26 350 11:57 11.03.2022
4875 Clouds 19 1012 73 10000 8.75 350 10:24 11.03.2022
4876 Clouds 19 1012 75 10000 8.23 340 09:32 11.03.2022
4877 Clear 19 1012 76 10000 7.2 340 08:27 11.03.2022
4878 Clouds 20 1012 74 10000 7.72 350 07:46 11.03.2022
4879 Clear 21 1012 62 10000 8.23 340 06:25 11.03.2022
4880 Clear 22 1012 63 10000 7.72 330 04:24 11.03.2022
4881 Clouds 22 1013 72 10000 9.77 360 00:39 11.03.2022
4882 Clouds 20 1014 85 10000 6.17 360 22:32 10.03.2022
4883 Clouds 19 1014 88 10000 5.66 10 21:52 10.03.2022
4884 Clouds 19 1014 88 10000 6.17 20 21:24 10.03.2022
4885 Clouds 18 1014 90 10000 5.14 20 19:54 10.03.2022
4886 Clouds 18 1014 90 10000 5.14 20 18:56 10.03.2022
4887 Clouds 17 1014 90 10000 5.66 10 17:37 10.03.2022
4888 Clouds 17 1014 91 10000 5.14 360 16:42 10.03.2022
4889 Clear 17 1015 92 10000 6.17 10 15:27 10.03.2022
4890 Clear 17 1015 92 10000 4.12 350 13:41 10.03.2022
4891 Clear 16 1017 90 10000 1.54 10 12:35 10.03.2022
4892 Clear 16 1017 88 10000 1.54 20 11:26 10.03.2022
4893 Clouds 17 1016 86 10000 2.57 360 09:28 10.03.2022
4894 Clear 19 1016 81 10000 1.03 230 07:46 10.03.2022
4895 Clear 21 1016 74 10000 3.09 200 05:30 10.03.2022
4896 Clouds 19 1020 77 10000 6.17 210 01:56 10.03.2022
4897 Clouds 19 1021 79 10000 6.17 200 23:30 09.03.2022
4898 Clouds 17 1022 82 10000 5.14 200 21:56 09.03.2022
4899 Clouds 17 1022 85 10000 3.6 200 21:36 09.03.2022
4900 Clouds 16 1021 88 10000 4.12 190 19:56 09.03.2022
4901 Clouds 16 1022 89 10000 4.63 170 18:35 09.03.2022
4902 Clouds 16 1021 88 10000 4.63 180 17:27 09.03.2022
4903 Clouds 16 1022 88 10000 4.63 180 16:35 09.03.2022
4904 Clouds 16 1023 88 10000 4.63 170 15:31 09.03.2022
4905 Clouds 16 1023 88 10000 5.14 180 13:54 09.03.2022
4906 Clouds 16 1023 88 10000 5.14 180 12:56 09.03.2022
4907 Clouds 16 1023 88 10000 5.14 180 12:18 09.03.2022
4908 Clouds 16 1023 90 10000 5.66 180 11:36 09.03.2022
4909 Clouds 16 1024 89 10000 6.17 180 10:38 09.03.2022
4910 Clouds 17 1024 90 10000 6.17 170 08:59 09.03.2022
4911 Mist 17 1023 89 1200 6.17 170 08:23 09.03.2022
4912 Clear 25 1024 53 10000 3.6 360 02:59 09.03.2022
4913 Clear 23 1025 64 10000 5.66 10 00:46 09.03.2022
4914 Clouds 22 1024 76 10000 6.69 10 22:48 08.03.2022
4915 Clouds 22 1024 77 10000 5.66 10 22:29 08.03.2022
4916 Clouds 20 1024 82 10000 5.66 30 21:23 08.03.2022
4917 Clouds 18 1024 85 10000 5.66 30 20:44 08.03.2022
4918 Clouds 18 1022 89 10000 5.66 20 19:42 08.03.2022
4919 Clouds 18 1021 90 10000 5.66 20 18:44 08.03.2022
4920 Clouds 18 1021 89 10000 5.66 20 17:37 08.03.2022
4921 Clouds 18 1021 89 10000 6.17 20 16:26 08.03.2022
4922 Clear 18 1021 90 10000 4.63 30 14:19 08.03.2022
4923 Clear 17 1020 86 10000 4.63 20 12:43 08.03.2022
4924 Clear 17 1022 82 10000 4.63 20 11:45 08.03.2022
4925 Clear 17 1022 81 10000 4.12 20 10:48 08.03.2022
4926 Clear 17 1021 81 10000 4.63 10 09:51 08.03.2022
4927 Clear 20 1021 67 10000 5.14 360 07:32 08.03.2022
4928 Clear 18 1022 88 10000 2.06 210 05:43 08.03.2022
4929 Clouds 18 1024 84 10000 4.12 190 23:51 07.03.2022
4930 Clouds 16 1024 93 10000 3.6 190 21:57 07.03.2022
4931 Clouds 16 1024 93 10000 3.6 180 21:32 07.03.2022
4932 Clouds 15 1024 95 10000 4.12 180 20:48 07.03.2022
4933 Clouds 15 1024 95 10000 4.63 170 20:20 07.03.2022
4934 Clouds 15 1024 95 10000 5.14 180 19:31 07.03.2022
4935 Clouds 15 1024 94 10000 6.17 190 18:42 07.03.2022
4936 Clouds 15 1024 94 10000 5.14 180 17:48 07.03.2022
4937 Clouds 15 1023 94 10000 6.17 180 16:55 07.03.2022
4938 Clouds 15 1023 94 10000 7.2 190 15:35 07.03.2022
4939 Clouds 15 1024 94 10000 6.17 190 13:51 07.03.2022
4940 Clouds 16 1025 93 10000 6.17 180 12:27 07.03.2022
4941 Clouds 16 1025 93 8000 6.69 180 10:38 07.03.2022
4942 Clouds 16 1025 91 10000 8.23 170 08:57 07.03.2022
4943 Clouds 17 1023 86 10000 8.75 180 03:49 07.03.2022
4944 Clouds 17 1023 83 10000 8.23 190 00:22 07.03.2022
4945 Clouds 18 1022 80 10000 6.17 190 23:35 06.03.2022
4946 Clouds 18 1022 80 10000 6.69 200 22:40 06.03.2022
4947 Clouds 19 1021 78 10000 3.13 214 21:47 06.03.2022
4948 Clouds 18 1021 86 10000 3.6 40 20:38 06.03.2022
4949 Clouds 17 1021 86 10000 3.6 40 20:20 06.03.2022
4950 Clouds 17 1019 89 10000 5.66 30 18:52 06.03.2022
4951 Clouds 17 1018 90 10000 6.17 30 18:23 06.03.2022
4952 Clouds 18 1018 89 10000 5.66 10 17:21 06.03.2022
4953 Clouds 18 1018 89 10000 6.69 10 16:41 06.03.2022
4954 Clouds 18 1018 86 10000 6.69 350 15:49 06.03.2022
4955 Clouds 18 1018 86 10000 6.69 350 15:49 06.03.2022
4956 Clouds 18 1018 88 10000 6.69 340 14:49 06.03.2022
4957 Clouds 18 1018 88 10000 7.72 340 14:30 06.03.2022
4958 Clouds 18 1018 85 10000 8.75 350 12:50 06.03.2022
4959 Clouds 18 1018 85 10000 8.23 340 12:31 06.03.2022
4960 Clouds 18 1018 83 10000 8.23 350 10:53 06.03.2022
4961 Clouds 18 1018 82 10000 9.26 340 09:54 06.03.2022
4962 Clouds 19 1017 80 10000 8.75 350 08:29 06.03.2022
4963 Clouds 19 1017 80 10000 8.75 350 08:29 06.03.2022
4964 Clouds 19 1017 77 10000 9.26 340 07:34 06.03.2022
4965 Clouds 21 1017 75 10000 9.26 350 04:46 06.03.2022
4966 Clouds 21 1020 73 10000 11.83 360 00:44 06.03.2022
4967 Clouds 21 1021 73 10000 12.35 360 00:25 06.03.2022
4968 Clouds 21 1019 75 10000 8.75 350 23:20 05.03.2022
4969 Clouds 20 1020 78 10000 7.72 10 22:43 05.03.2022
4970 Clouds 18 1021 82 10000 7.2 360 21:45 05.03.2022
4971 Clouds 18 1021 83 10000 7.72 10 21:20 05.03.2022
4972 Clouds 17 1020 90 10000 7.2 10 19:24 05.03.2022
4973 Clouds 17 1020 90 10000 7.2 10 18:51 05.03.2022
4974 Clouds 17 1020 89 10000 6.69 20 17:43 05.03.2022
4975 Clouds 17 1021 88 10000 5.66 20 16:26 05.03.2022
4976 Clouds 17 1021 89 10000 6.17 20 15:30 05.03.2022
4977 Clouds 17 1021 88 10000 6.17 20 14:44 05.03.2022
4978 Clouds 17 1021 88 10000 4.63 30 14:24 05.03.2022
4979 Clouds 17 1022 87 10000 5.66 30 13:20 05.03.2022
4980 Clouds 17 1023 80 10000 6.69 10 11:46 05.03.2022
4981 Clouds 17 1023 79 10000 6.17 10 11:18 05.03.2022
4982 Clouds 17 1023 74 10000 5.66 20 09:58 05.03.2022
4983 Clouds 18 1022 73 10000 6.17 10 08:57 05.03.2022
4984 Clouds 19 1022 72 10000 5.14 350 07:37 05.03.2022
4985 Clear 22 1023 56 10000 6.69 360 05:42 05.03.2022
4986 Clear 22 1023 56 10000 6.69 360 05:42 05.03.2022
4987 Clear 23 1025 46 10000 5.14 340 02:20 05.03.2022
4988 Clouds 20 1026 68 10000 5.66 360 23:36 04.03.2022
4989 Clouds 19 1025 73 10000 5.66 10 22:42 04.03.2022
4990 Clouds 18 1025 79 10000 3.6 10 21:47 04.03.2022
4991 Clouds 15 1025 88 10000 3.6 10 20:51 04.03.2022
4992 Clouds 14 1025 89 10000 4.12 20 20:21 04.03.2022
4993 Clouds 13 1023 92 10000 4.63 360 19:35 04.03.2022
4994 Clouds 14 1024 89 10000 4.12 360 18:37 04.03.2022
4995 Clouds 14 1024 89 10000 3.09 10 17:30 04.03.2022
4996 Clouds 15 1024 85 10000 3.6 20 16:43 04.03.2022
4997 Clouds 14 1023 90 10000 3.6 30 15:28 04.03.2022
4998 Clouds 14 1024 87 10000 1.03 30 14:19 04.03.2022
4999 Clouds 15 1024 87 10000 2.57 30 13:24 04.03.2022
5000 Clouds 15 1025 83 10000 3.09 350 11:40 04.03.2022
5001 Clouds 15 1025 82 10000 1.03 360 10:42 04.03.2022
5002 Clouds 15 1025 84 10000 1.54 160 09:40 04.03.2022
5003 Clouds 16 1024 79 10000 1.03 190 08:34 04.03.2022
5004 Clouds 18 1024 74 10000 2.57 210 07:23 04.03.2022
5005 Clouds 21 1024 65 10000 4.12 170 03:50 04.03.2022
5006 Clouds 19 1027 71 10000 2.57 180 00:24 04.03.2022
5007 Clouds 17 1026 77 10000 3.6 60 22:21 03.03.2022
5008 Clouds 16 1026 84 10000 2.06 20 21:40 03.03.2022
5009 Clouds 15 1026 85 10000 2.06 20 21:18 03.03.2022
5010 Clouds 12 1027 88 10000 0.51 50 19:48 03.03.2022
5011 Clouds 12 1026 88 10000 1.54 30 18:51 03.03.2022
5012 Clouds 11 1023 86 10000 2.57 40 18:22 03.03.2022
5013 Clouds 11 1024 86 10000 1.54 40 17:28 03.03.2022
5014 Clouds 11 1024 88 10000 1.54 30 16:22 03.03.2022
5015 Clouds 12 1024 85 10000 1.03 20 15:20 03.03.2022
5016 Clouds 12 1025 86 6000 1.03 10 14:42 03.03.2022
5017 Clouds 12 1026 85 10000 1.03 40 13:18 03.03.2022
5018 Clouds 12 1026 85 10000 1.03 40 13:18 03.03.2022
5019 Clouds 12 1027 85 10000 1.54 40 11:51 03.03.2022
5020 Clouds 13 1027 82 10000 1.54 60 10:41 03.03.2022
5021 Clouds 14 1026 77 10000 2.06 210 08:52 03.03.2022
5022 Clouds 16 1026 74 10000 2.57 230 07:45 03.03.2022
5023 Clouds 18 1025 65 10000 4.12 220 06:35 03.03.2022
5024 Clouds 18 1029 63 10000 5.66 210 01:52 03.03.2022
5025 Clear 17 1029 62 10000 4.12 210 23:29 02.03.2022
5026 Clear 16 1030 65 10000 3.6 200 22:52 02.03.2022
5027 Clear 13 1030 77 10000 0.51 170 21:32 02.03.2022
5028 Clear 11 1030 84 10000 1.03 30 20:46 02.03.2022
5029 Clouds 9 1030 88 10000 1.54 40 20:24 02.03.2022
5030 Clouds 9 1028 84 10000 1.03 80 19:35 02.03.2022
5031 Clear 9 1027 83 10000 1.03 80 18:46 02.03.2022
5032 Clear 8 1028 87 10000 1.54 160 17:59 02.03.2022
5033 Clear 9 1028 87 10000 1.54 160 17:28 02.03.2022
5034 Clear 9 1028 86 10000 2.06 160 16:51 02.03.2022
5035 Clouds 11 1028 80 10000 1.03 120 14:45 02.03.2022
5036 Clouds 13 1029 72 10000 2.57 130 13:25 02.03.2022
5037 Clouds 13 1030 70 10000 5.66 140 12:44 02.03.2022
5038 Clouds 14 1030 70 10000 6.17 150 11:51 02.03.2022
5039 Clouds 14 1031 70 10000 6.17 150 11:24 02.03.2022
5040 Clouds 14 1031 70 10000 6.17 150 11:24 02.03.2022
5041 Clouds 14 1030 71 10000 6.69 150 09:46 02.03.2022
5042 Clouds 14 1030 73 10000 7.2 150 09:23 02.03.2022
5043 Clouds 15 1029 71 10000 7.72 150 07:51 02.03.2022
5044 Clear 15 1029 70 10000 8.23 160 06:54 02.03.2022
5045 Clouds 17 1029 71 10000 8.23 180 02:54 02.03.2022
5046 Clouds 16 1028 73 10000 8.75 170 00:29 02.03.2022
5047 Clouds 15 1028 76 10000 8.75 180 22:48 01.03.2022
5048 Clouds 15 1028 80 10000 8.75 180 22:21 01.03.2022
5049 Clouds 14 1027 86 10000 8.75 180 21:25 01.03.2022
5050 Clouds 14 1026 90 10000 8.75 180 20:32 01.03.2022
5051 Clouds 15 1024 89 10000 8.23 170 19:45 01.03.2022
5052 Clouds 15 1024 86 10000 4.63 170 18:51 01.03.2022
5053 Clouds 15 1024 86 10000 5.66 170 18:21 01.03.2022
5054 Clouds 14 1024 84 10000 5.66 170 17:30 01.03.2022
5055 Clouds 14 1024 86 10000 4.63 180 16:35 01.03.2022
5056 Clouds 14 1023 85 10000 5.66 190 15:42 01.03.2022
5057 Clouds 14 1023 84 10000 5.14 190 14:41 01.03.2022
5058 Clouds 14 1023 83 10000 5.14 190 14:23 01.03.2022
5059 Clouds 15 1023 81 10000 6.69 160 13:25 01.03.2022
5060 Clouds 15 1023 80 10000 5.14 160 12:34 01.03.2022
5061 Clouds 15 1022 78 10000 4.63 200 10:37 01.03.2022
5062 Clouds 15 1022 78 10000 4.63 200 10:37 01.03.2022
5063 Clouds 15 1021 77 10000 5.66 210 09:18 01.03.2022
5064 Clouds 16 1021 76 10000 5.66 190 07:54 01.03.2022
5065 Clouds 18 1020 67 10000 5.66 180 06:26 01.03.2022
5066 Clear 19 1022 63 10000 6.17 170 02:44 01.03.2022
5067 Clouds 18 1023 59 10000 3.09 170 00:36 01.03.2022
5068 Clouds 17 1023 65 10000 2.06 200 23:33 28.02.2022
5069 Clouds 15 1023 77 10000 1.54 80 22:24 28.02.2022
5070 Clouds 14 1024 81 10000 2.06 50 21:41 28.02.2022
5071 Clouds 11 1024 89 10000 1.54 30 20:28 28.02.2022
5072 Clouds 11 1024 84 10000 1.03 80 19:41 28.02.2022
5073 Clouds 10 1023 88 10000 1.54 120 18:49 28.02.2022
5074 Clouds 11 1024 84 10000 2.06 120 17:33 28.02.2022
5075 Clouds 12 1024 84 10000 2.06 110 16:53 28.02.2022
5076 Clouds 13 1025 83 10000 4.63 150 15:31 28.02.2022
5077 Clouds 13 1025 80 10000 3.6 150 14:32 28.02.2022
5078 Clouds 14 1025 78 10000 4.12 150 13:48 28.02.2022
5079 Clouds 14 1026 77 10000 2.57 130 12:50 28.02.2022
5080 Clouds 14 1026 76 10000 3.6 170 11:58 28.02.2022
5081 Clouds 14 1026 76 10000 4.63 170 11:18 28.02.2022
5082 Clouds 14 1027 77 10000 5.14 160 10:22 28.02.2022
5083 Clouds 14 1026 76 10000 5.66 160 09:41 28.02.2022
5084 Clouds 14 1026 74 10000 6.17 160 08:48 28.02.2022
5085 Clouds 15 1026 70 10000 5.66 170 07:43 28.02.2022
5086 Clouds 16 1026 66 10000 7.72 160 05:52 28.02.2022
5087 Clouds 17 1028 63 10000 6.17 170 04:30 28.02.2022
5088 Clouds 17 1028 63 10000 6.17 170 04:30 28.02.2022
5089 Clouds 17 1028 63 10000 6.17 170 04:30 28.02.2022
5090 Clouds 16 1030 60 10000 4.02 269 00:34 28.02.2022
5091 Clouds 15 1028 68 10000 6.69 190 22:38 27.02.2022
5092 Clouds 14 1028 68 10000 6.17 180 21:55 27.02.2022
5093 Clouds 14 1029 66 10000 6.69 170 21:35 27.02.2022
5094 Clouds 14 1029 69 10000 6.69 150 20:41 27.02.2022
5095 Clouds 13 1029 69 10000 6.69 150 20:18 27.02.2022
5096 Clouds 13 1028 73 10000 7.2 170 19:28 27.02.2022
5097 Clouds 13 1028 70 10000 7.2 170 18:56 27.02.2022
5098 Clouds 13 1028 69 10000 7.2 180 17:57 27.02.2022
5099 Clouds 13 1029 69 10000 7.2 180 17:34 27.02.2022
5100 Clouds 13 1030 67 10000 8.23 170 16:22 27.02.2022
5101 Clouds 13 1030 69 10000 7.72 170 14:28 27.02.2022
5102 Clouds 13 1030 67 10000 7.72 160 12:35 27.02.2022
5103 Clouds 13 1030 69 10000 8.75 170 11:36 27.02.2022
5104 Clouds 13 1030 67 10000 8.75 150 10:36 27.02.2022
5105 Clouds 13 1029 68 10000 8.75 150 09:52 27.02.2022
5106 Clouds 13 1029 65 10000 9.77 150 09:21 27.02.2022
5107 Clouds 13 1029 69 10000 9.77 150 08:44 27.02.2022
5108 Clouds 14 1028 68 10000 8.75 150 05:43 27.02.2022
5109 Clouds 16 1027 62 10000 8.23 160 03:26 27.02.2022
5110 Clouds 15 1026 66 10000 8.23 160 23:51 26.02.2022
5111 Clouds 15 1027 69 10000 7.72 160 22:42 26.02.2022
5112 Clouds 14 1026 72 10000 8.23 170 21:26 26.02.2022
5113 Clouds 14 1026 71 10000 8.23 160 20:37 26.02.2022
5114 Clouds 14 1026 74 10000 8.75 170 19:55 26.02.2022
5115 Clouds 13 1026 74 10000 8.75 160 19:33 26.02.2022
5116 Clouds 13 1025 76 10000 9.26 170 18:31 26.02.2022
5117 Clouds 14 1025 73 10000 9.77 170 17:31 26.02.2022
5118 Clouds 14 1025 71 10000 10.8 170 16:38 26.02.2022
5119 Clouds 14 1025 76 10000 10.29 170 15:28 26.02.2022
5120 Clouds 14 1025 71 10000 9.77 170 14:59 26.02.2022
5121 Clouds 14 1025 71 10000 10.8 170 14:41 26.02.2022
5122 Clouds 14 1025 73 10000 9.26 160 13:46 26.02.2022
5123 Clouds 14 1025 73 10000 10.8 180 12:53 26.02.2022
5124 Clouds 14 1024 78 10000 11.83 180 11:45 26.02.2022
5125 Clouds 14 1024 83 8000 12.86 190 11:24 26.02.2022
5126 Clouds 16 1022 86 10000 9.77 180 09:31 26.02.2022
5127 Clouds 17 1021 82 10000 10.29 170 08:26 26.02.2022
5128 Clouds 20 1018 62 10000 7.72 220 04:22 26.02.2022
5129 Clear 21 1017 63 10000 5.14 360 23:50 25.02.2022
5130 Clear 19 1016 73 10000 4.12 10 22:31 25.02.2022
5131 Clear 16 1016 81 10000 4.12 360 21:30 25.02.2022
5132 Clear 14 1017 88 10000 2.57 20 20:34 25.02.2022
5133 Clear 12 1017 94 10000 2.06 30 19:56 25.02.2022
5134 Clear 11 1016 93 10000 2.06 20 17:54 25.02.2022
5135 Clear 12 1017 90 10000 0.51 30 16:48 25.02.2022
5136 Clear 12 1017 89 10000 1.54 360 15:50 25.02.2022
5137 Clear 12 1018 87 10000 0.51 60 15:23 25.02.2022
5138 Clear 12 1018 87 10000 1.54 30 14:55 25.02.2022
5139 Clear 13 1018 87 10000 0.51 230 14:19 25.02.2022
5140 Clear 13 1018 86 10000 1.03 20 13:30 25.02.2022
5141 Clear 13 1018 87 10000 1.03 320 11:56 25.02.2022
5142 Clear 13 1018 85 10000 1.03 50 11:21 25.02.2022
5143 Clear 14 1019 84 9000 0.51 300 10:23 25.02.2022
5144 Clear 15 1019 79 10000 2.06 120 09:45 25.02.2022
5145 Clear 17 1019 73 10000 5.66 150 07:53 25.02.2022
5146 Clear 19 1019 65 10000 1.34 216 06:56 25.02.2022
5147 Clear 19 1020 63 10000 7.72 150 05:41 25.02.2022
5148 Clouds 19 1022 67 10000 6.69 170 02:43 25.02.2022
5149 Clouds 17 1023 71 10000 4.63 180 22:37 24.02.2022
5150 Clouds 16 1022 75 10000 3.09 190 21:50 24.02.2022
5151 Clouds 15 1022 80 10000 2.57 190 21:30 24.02.2022
5152 Clouds 13 1024 80 10000 1.54 170 20:47 24.02.2022
5153 Clouds 10 1023 85 10000 1.54 190 19:32 24.02.2022
5154 Clouds 11 1023 81 10000 1.54 160 18:21 24.02.2022
5155 Clouds 11 1023 80 10000 2.06 160 17:58 24.02.2022
5156 Clouds 11 1023 82 10000 2.06 170 17:21 24.02.2022
5157 Clouds 11 1023 82 10000 2.57 150 16:28 24.02.2022
5158 Clouds 11 1024 83 10000 2.57 180 15:44 24.02.2022
5159 Clouds 11 1025 75 10000 1.54 160 14:48 24.02.2022
5160 Clouds 11 1025 80 10000 1.54 130 13:59 24.02.2022
5161 Clouds 10 1023 84 10000 2.06 120 13:38 24.02.2022
5162 Clouds 12 1026 75 10000 2.57 150 11:56 24.02.2022
5163 Clouds 13 1026 73 10000 3.6 140 10:34 24.02.2022
5164 Clouds 15 1026 67 10000 6.17 150 08:44 24.02.2022
5165 Clouds 16 1025 63 10000 7.72 150 07:26 24.02.2022
5166 Clouds 18 1026 58 10000 8.75 150 05:50 24.02.2022
5167 Clouds 17 1030 67 10000 7.72 180 00:32 24.02.2022
5168 Clouds 16 1029 71 10000 6.69 160 22:29 23.02.2022
5169 Clouds 15 1029 77 10000 6.69 160 20:52 23.02.2022
5170 Clouds 15 1028 78 10000 7.72 160 20:30 23.02.2022
5171 Clouds 14 1029 81 10000 8.23 170 19:36 23.02.2022
5172 Clouds 14 1029 83 10000 7.72 170 18:31 23.02.2022
5173 Clouds 14 1029 81 10000 7.72 170 16:43 23.02.2022
5174 Clouds 14 1030 79 10000 8.23 170 14:33 23.02.2022
5175 Clouds 14 1031 79 10000 7.72 170 12:37 23.02.2022
5176 Clouds 14 1031 79 10000 7.72 160 11:23 23.02.2022
5177 Clouds 14 1031 79 10000 8.23 160 10:30 23.02.2022
5178 Clouds 15 1030 85 10000 7.2 160 08:57 23.02.2022
5179 Clouds 15 1030 87 7000 7.72 170 07:57 23.02.2022
5180 Clouds 17 1030 75 10000 8.23 170 03:47 23.02.2022
5181 Clouds 16 1029 76 10000 10.29 180 00:19 23.02.2022
5182 Clouds 16 1029 74 10000 10.29 180 23:35 22.02.2022
5183 Clouds 16 1028 74 10000 10.8 180 22:31 22.02.2022
5184 Clouds 16 1028 75 10000 11.32 190 21:48 22.02.2022
5185 Clouds 16 1027 75 10000 11.32 190 21:25 22.02.2022
5186 Clouds 16 1028 75 10000 10.8 180 20:51 22.02.2022
5187 Clouds 16 1028 74 10000 9.77 190 20:29 22.02.2022
5188 Clouds 15 1027 78 10000 9.26 180 19:36 22.02.2022
5189 Clouds 15 1027 80 10000 0.89 202 19:18 22.02.2022
5190 Clouds 15 1025 86 10000 7.2 190 17:40 22.02.2022
5191 Clouds 16 1025 85 10000 7.2 190 17:19 22.02.2022
5192 Clouds 16 1025 86 10000 6.17 190 16:36 22.02.2022
5193 Clouds 16 1024 87 10000 3.09 200 15:38 22.02.2022
5194 Clouds 17 1023 87 10000 4.12 260 14:44 22.02.2022
5195 Clouds 18 1021 85 10000 6.17 20 12:21 22.02.2022
5196 Clouds 18 1021 83 10000 8.23 10 10:28 22.02.2022
5197 Clouds 19 1019 79 10000 10.8 360 07:52 22.02.2022
5198 Clouds 19 1019 79 10000 10.8 360 07:25 22.02.2022
5199 Clouds 21 1020 69 10000 13.89 360 02:52 22.02.2022
5200 Clouds 20 1020 71 10000 12.86 360 00:49 22.02.2022
5201 Clouds 20 1020 74 10000 12.35 360 22:41 21.02.2022
5202 Clear 20 1020 78 10000 12.35 360 21:30 21.02.2022
5203 Clear 18 1020 81 10000 9.77 360 20:34 21.02.2022
5204 Clear 18 1020 81 10000 9.77 360 20:34 21.02.2022
5205 Clear 17 1019 86 10000 10.29 360 18:42 21.02.2022
5206 Clouds 17 1019 88 10000 7.72 10 16:50 21.02.2022
5207 Clouds 17 1019 86 10000 7.2 20 14:52 21.02.2022
5208 Clouds 17 1019 86 10000 6.17 20 14:21 21.02.2022
5209 Clear 17 1019 83 10000 5.14 20 12:59 21.02.2022
5210 Clear 17 1019 81 10000 4.12 10 12:23 21.02.2022
5211 Clear 17 1020 84 10000 2.06 20 10:51 21.02.2022
5212 Clear 17 1019 81 10000 0.51 60 09:30 21.02.2022
5213 Clear 17 1019 81 10000 0.51 60 09:30 21.02.2022
5214 Clear 19 1021 77 10000 4.63 200 02:58 21.02.2022
5215 Clear 20 1020 69 10000 3.09 200 23:29 20.02.2022
5216 Clear 18 1020 75 10000 3.09 200 22:20 20.02.2022
5217 Clear 17 1022 75 10000 3.09 160 21:42 20.02.2022
5218 Clear 16 1022 80 10000 3.6 140 20:52 20.02.2022
5219 Clouds 15 1022 85 10000 3.6 140 20:23 20.02.2022
5220 Clouds 14 1021 92 10000 3.6 150 19:30 20.02.2022
5221 Clouds 14 1021 87 10000 2.57 150 18:49 20.02.2022
5222 Clouds 14 1021 87 10000 3.6 160 18:31 20.02.2022
5223 Clouds 14 1021 91 10000 3.6 160 17:34 20.02.2022
5224 Clouds 14 1021 94 10000 3.09 150 15:31 20.02.2022
5225 Clear 14 1021 94 10000 3.09 150 14:41 20.02.2022
5226 Clear 14 1021 92 10000 3.09 150 13:23 20.02.2022
5227 Clouds 14 1021 92 10000 3.6 160 12:22 20.02.2022
5228 Clouds 15 1020 88 10000 4.12 170 10:21 20.02.2022
5229 Clouds 15 1020 88 10000 4.63 170 09:53 20.02.2022
5230 Clouds 17 1018 82 10000 5.14 170 06:46 20.02.2022
5231 Clouds 15 1016 91 10000 5.66 190 00:54 20.02.2022
5232 Clouds 15 1016 90 9000 6.69 190 00:29 20.02.2022
5233 Clouds 14 1017 92 10000 8.23 190 22:25 19.02.2022
5234 Clouds 13 1017 94 10000 8.75 190 21:57 19.02.2022
5235 Clouds 13 1016 94 10000 9.77 190 20:48 19.02.2022
5236 Rain 13 1014 96 2200 10.29 200 19:41 19.02.2022
5237 Rain 13 1015 96 2200 1.79 202 19:20 19.02.2022
5238 Rain 13 1015 95 10000 8.23 190 18:29 19.02.2022
5239 Rain 13 1014 96 3400 10.29 200 17:33 19.02.2022
5240 Rain 13 1014 96 1700 10.8 200 16:21 19.02.2022
5241 Rain 14 1014 94 4100 8.75 190 14:56 19.02.2022
5242 Rain 15 1014 95 2600 8.75 190 14:37 19.02.2022
5243 Clouds 19 1013 85 10000 5.66 330 11:59 19.02.2022
5244 Clouds 19 1013 85 10000 5.14 320 11:36 19.02.2022
5245 Clouds 20 1012 84 10000 7.72 340 09:34 19.02.2022
5246 Rain 20 1012 78 10000 8.23 340 06:52 19.02.2022
5247 Rain 21 1013 72 10000 10.29 350 02:38 19.02.2022
5248 Clouds 21 1014 66 10000 9.77 360 23:28 18.02.2022
5249 Clouds 20 1014 78 10000 9.77 360 21:30 18.02.2022
5250 Clouds 19 1014 83 10000 9.26 360 20:33 18.02.2022
5251 Clouds 18 1014 85 10000 9.26 360 19:51 18.02.2022
5252 Clouds 18 1014 86 10000 9.26 350 18:49 18.02.2022
5253 Clouds 18 1014 84 10000 10.29 350 18:19 18.02.2022
5254 Clouds 18 1014 85 10000 10.29 350 17:21 18.02.2022
5255 Clouds 18 1015 83 10000 8.75 350 14:47 18.02.2022
5256 Clouds 18 1016 86 10000 8.75 360 13:54 18.02.2022
5257 Clouds 18 1016 86 10000 8.75 360 12:51 18.02.2022
5258 Clouds 18 1016 85 10000 8.75 360 11:58 18.02.2022
5259 Clouds 18 1017 84 10000 9.77 360 11:21 18.02.2022
5260 Clear 18 1016 80 10000 7.2 360 09:30 18.02.2022
5261 Clouds 21 1016 72 10000 8.75 360 06:50 18.02.2022
5262 Clouds 22 1017 64 10000 8.75 350 05:37 18.02.2022
5263 Clouds 21 1019 64 10000 9.26 360 22:46 17.02.2022
5264 Clouds 20 1018 70 10000 8.23 20 21:43 17.02.2022
5265 Clouds 18 1018 75 10000 8.23 30 20:52 17.02.2022
5266 Clouds 18 1018 78 10000 7.2 20 20:34 17.02.2022
5267 Clouds 17 1018 83 10000 6.17 20 19:43 17.02.2022
5268 Clouds 16 1017 81 10000 4.12 20 18:37 17.02.2022
5269 Clouds 16 1017 80 10000 3.6 20 17:47 17.02.2022
5270 Clouds 16 1017 81 10000 4.12 40 16:20 17.02.2022
5271 Clouds 16 1018 79 10000 5.14 40 14:57 17.02.2022
5272 Clouds 16 1018 77 10000 5.66 20 14:19 17.02.2022
5273 Clear 16 1018 71 10000 4.12 20 11:59 17.02.2022
5274 Clear 17 1018 67 10000 4.12 30 11:21 17.02.2022
5275 Clear 19 1017 62 10000 4.63 360 08:38 17.02.2022
5276 Clear 19 1021 72 10000 3.6 190 00:29 17.02.2022
5277 Clear 18 1021 76 10000 2.57 190 22:39 16.02.2022
5278 Clear 16 1020 85 10000 3.6 210 20:39 16.02.2022
5279 Clouds 14 1020 87 10000 3.6 220 19:42 16.02.2022
5280 Clouds 14 1019 89 10000 4.12 190 18:36 16.02.2022
5281 -273 0 0 0 0 0 17:34 16.02.2022
5282 Clouds 16 1019 88 10000 3.09 200 15:26 16.02.2022
5283 Clouds 16 1020 88 10000 2.57 190 14:46 16.02.2022
5284 Clouds 16 1020 89 10000 3.09 180 12:32 16.02.2022
5285 Clouds 16 1020 89 10000 3.6 180 11:52 16.02.2022
5286 Clouds 16 1020 87 10000 2.57 200 10:52 16.02.2022
5287 Clouds 16 1020 86 10000 3.09 180 10:29 16.02.2022
5288 Clouds 19 1019 72 10000 2.57 200 06:56 16.02.2022
5289 Clear 20 1018 67 10000 4.63 190 03:46 16.02.2022
5290 Clouds 20 1017 75 10000 8.75 10 22:35 15.02.2022
5291 Clouds 19 1016 79 10000 8.75 360 21:59 15.02.2022
5292 Clouds 19 1016 79 10000 8.75 360 21:59 15.02.2022
5293 Clouds 18 1016 79 10000 9.77 20 21:39 15.02.2022
5294 Clouds 18 1016 81 10000 9.77 20 21:21 15.02.2022
5295 Clouds 17 1016 82 10000 8.75 20 20:48 15.02.2022
5296 Clouds 17 1015 84 10000 7.2 10 19:48 15.02.2022
5297 Clouds 16 1016 83 10000 7.72 20 18:45 15.02.2022
5298 Clouds 16 1016 84 10000 7.72 10 18:19 15.02.2022
5299 Clouds 16 1016 85 10000 7.72 10 17:47 15.02.2022
5300 Clouds 16 1016 86 10000 8.75 20 16:30 15.02.2022
5301 Clouds 16 1019 84 10000 8.75 10 14:39 15.02.2022
5302 Clouds 16 1020 85 10000 7.2 20 13:26 15.02.2022
5303 Clouds 15 1021 86 10000 6.69 30 11:52 15.02.2022
5304 Clouds 15 1021 86 10000 6.17 20 10:57 15.02.2022
5305 Clouds 15 1021 85 10000 6.69 20 09:25 15.02.2022
5306 Clouds 18 1023 72 10000 6.17 360 06:48 15.02.2022
5307 Clouds 18 1027 63 10000 2.57 350 00:26 15.02.2022
5308 Clouds 15 1027 83 10000 2.57 360 21:59 14.02.2022
5309 Clouds 14 1027 88 10000 2.57 20 21:24 14.02.2022
5310 Clouds 12 1026 93 10000 1.54 70 20:23 14.02.2022
5311 Clouds 11 1026 92 10000 1.54 60 19:30 14.02.2022
5312 Clouds 12 1026 92 10000 1.03 50 18:27 14.02.2022
5313 Clouds 13 1026 88 10000 3.09 200 17:43 14.02.2022
5314 Clouds 13 1026 88 10000 3.09 200 17:43 14.02.2022
5315 Clouds 13 1026 89 10000 3.6 210 17:23 14.02.2022
5316 Clouds 13 1026 87 10000 4.12 190 15:58 14.02.2022
5317 Clouds 13 1028 85 10000 5.66 170 13:38 14.02.2022
5318 Clouds 13 1028 85 10000 5.66 170 13:18 14.02.2022
5319 Clouds 14 1028 84 10000 5.66 170 12:32 14.02.2022
5320 Clouds 14 1028 85 10000 6.17 180 11:43 14.02.2022
5321 Clouds 14 1028 84 10000 6.69 170 10:25 14.02.2022
5322 Clouds 14 1026 81 10000 8.23 160 08:34 14.02.2022
5323 Clouds 15 1026 80 10000 7.72 150 07:26 14.02.2022
5324 Clouds 14 1025 85 10000 10.8 190 23:37 13.02.2022
5325 Clouds 13 1024 89 10000 11.32 200 22:41 13.02.2022
5326 Clouds 13 1024 88 10000 11.32 200 22:23 13.02.2022
5327 Clouds 13 1023 90 7000 12.86 200 21:27 13.02.2022
5328 Clouds 13 1022 91 10000 11.32 190 20:30 13.02.2022
5329 Clouds 12 1021 94 10000 11.83 190 19:24 13.02.2022
5330 Haze 12 1020 94 5000 12.35 200 18:42 13.02.2022
5331 Clouds 12 1019 94 9000 12.35 200 17:52 13.02.2022
5332 Rain 11 1019 97 2500 12.35 190 15:54 13.02.2022
5333 Rain 11 1019 97 2500 12.35 190 15:54 13.02.2022
5334 Rain 12 1018 95 4700 9.77 190 14:57 13.02.2022
5335 Haze 12 1018 95 4800 9.77 190 13:59 13.02.2022
5336 Rain 12 1018 93 6000 10.8 190 12:49 13.02.2022
5337 Clouds 12 1016 93 10000 11.32 180 11:24 13.02.2022
5338 Clouds 13 1015 89 9000 10.8 190 10:28 13.02.2022
5339 Clouds 12 1014 88 10000 11.32 180 09:41 13.02.2022
5340 Drizzle 13 1011 91 5000 13.89 200 07:19 13.02.2022
5341 Rain 12 1000 96 1500 4.92 278 00:35 13.02.2022
5342 Rain 11 1000 98 1200 20.58 190 23:39 12.02.2022
5343 Rain 12 998 96 1100 21.61 190 22:33 12.02.2022
5344 Rain 12 996 97 1500 18.01 180 21:19 12.02.2022
5345 Rain 13 996 98 1400 18.52 180 20:32 12.02.2022
5346 Rain 15 995 98 3100 9.77 170 19:21 12.02.2022
5347 Rain 15 995 98 3400 10.29 160 18:52 12.02.2022
5348 Rain 15 995 98 3400 3.58 351 18:34 12.02.2022
5349 Rain 15 996 98 2600 10.8 160 16:56 12.02.2022
5350 Rain 15 996 98 3600 9.77 160 16:25 12.02.2022
5351 Rain 15 997 98 2500 8.75 170 15:50 12.02.2022
5352 Mist 15 998 98 3400 11.32 150 14:31 12.02.2022
5353 Rain 15 1000 98 1600 9.26 170 12:58 12.02.2022
5354 Rain 16 1000 98 2500 10.29 170 10:40 12.02.2022
5355 Rain 16 999 96 9000 5.14 180 09:39 12.02.2022
5356 Rain 16 999 96 9000 5.14 180 09:20 12.02.2022
5357 Rain 17 1000 97 3500 3.09 160 08:18 12.02.2022
5358 Rain 17 1000 97 3500 3.09 160 08:18 12.02.2022
5359 Mist 17 1003 97 5000 6.17 160 05:33 12.02.2022
5360 Rain 17 1003 97 3100 7.72 160 04:27 12.02.2022
5361 Rain 18 1004 95 4600 5.66 150 02:18 12.02.2022
5362 Rain 18 1005 98 10000 4.12 220 22:29 11.02.2022
5363 Rain 17 1005 98 9000 3.6 220 21:55 11.02.2022
5364 Rain 17 1005 98 10000 4.63 230 20:41 11.02.2022
5365 Clouds 17 1005 98 10000 5.14 220 19:46 11.02.2022
5366 Clouds 17 1005 98 10000 4.12 220 19:27 11.02.2022
5367 Fog 16 1006 97 900 6.69 220 17:59 11.02.2022
5368 Mist 16 1005 97 1300 6.69 190 17:26 11.02.2022
5369 Rain 16 1006 97 10000 5.66 200 16:23 11.02.2022
5370 Mist 16 1007 97 5000 5.14 220 14:43 11.02.2022
5371 Clouds 16 1007 97 10000 4.63 220 14:21 11.02.2022
5372 Clouds 17 1008 96 10000 5.14 220 13:59 11.02.2022
5373 Rain 17 1008 97 10000 4.63 220 13:39 11.02.2022
5374 Rain 16 1009 97 10000 5.66 220 11:47 11.02.2022
5375 Rain 16 1010 96 10000 5.66 220 09:59 11.02.2022
5376 Rain 17 1009 96 9000 3.09 220 08:49 11.02.2022
5377 Rain 16 1009 96 7000 3.09 210 08:27 11.02.2022
5378 Rain 17 1009 95 5000 4.63 210 07:18 11.02.2022
5379 Clouds 20 1010 88 9000 0.89 246 02:39 11.02.2022
5380 Rain 19 1011 90 9000 3.6 170 02:18 11.02.2022
5381 Clouds 21 1010 86 10000 4.63 360 22:53 10.02.2022
5382 Clouds 20 1010 89 10000 3.09 20 21:50 10.02.2022
5383 Clouds 20 1010 90 10000 4.12 40 21:18 10.02.2022
5384 Clouds 20 1009 90 10000 4.63 360 20:45 10.02.2022
5385 Clouds 20 1009 91 10000 5.14 20 19:26 10.02.2022
5386 Clouds 20 1009 91 10000 6.17 340 18:47 10.02.2022
5387 Clouds 20 1008 93 10000 9.26 340 17:27 10.02.2022
5388 Rain 20 1008 93 10000 8.75 330 16:55 10.02.2022
5389 Clouds 20 1008 93 10000 7.72 340 15:51 10.02.2022
5390 Clouds 20 1009 93 10000 7.72 330 15:31 10.02.2022
5391 Clouds 20 1009 92 10000 7.72 330 14:49 10.02.2022
5392 Clouds 20 1009 92 10000 6.69 330 14:26 10.02.2022
5393 Clouds 20 1009 92 10000 10.29 320 13:30 10.02.2022
5394 Clouds 20 1010 90 10000 9.26 320 12:51 10.02.2022
5395 Clouds 21 1010 86 10000 7.2 330 11:34 10.02.2022
5396 Clouds 21 1011 84 10000 7.2 320 10:56 10.02.2022
5397 Clouds 21 1010 83 10000 7.2 330 10:18 10.02.2022
5398 Clouds 21 1010 82 10000 7.72 340 09:25 10.02.2022
5399 Clouds 22 1010 82 10000 5.66 340 07:36 10.02.2022
5400 Clouds 22 1010 85 10000 7.72 340 04:58 10.02.2022
5401 Clouds 23 1010 85 10000 9.77 350 01:52 10.02.2022
5402 Clouds 23 1010 85 10000 10.29 360 00:50 10.02.2022
5403 Clouds 23 1010 85 10000 8.23 360 00:28 10.02.2022
5404 Clouds 23 1011 84 10000 10.29 360 23:24 09.02.2022
5405 Clouds 23 1010 85 10000 11.32 360 22:36 09.02.2022
5406 Clouds 23 1010 88 10000 9.77 360 21:52 09.02.2022
5407 Clouds 22 1011 92 10000 8.75 10 21:29 09.02.2022
5408 Clouds 21 1011 92 10000 9.77 360 20:48 09.02.2022
5409 Rain 21 1012 92 10000 9.77 360 20:29 09.02.2022
5410 Rain 21 1012 92 10000 7.2 350 19:54 09.02.2022
5411 Rain 21 1012 93 10000 6.17 350 19:31 09.02.2022
5412 Clouds 21 1011 94 10000 5.66 20 17:37 09.02.2022
5413 Rain 21 1011 95 10000 5.14 30 16:48 09.02.2022
5414 Mist 20 1012 97 4500 1.54 340 15:50 09.02.2022
5415 Clouds 20 1012 96 6000 2.06 350 14:35 09.02.2022
5416 Clouds 19 1013 95 7000 2.06 40 12:28 09.02.2022
5417 Mist 18 1014 94 3100 1.54 190 10:54 09.02.2022
5418 Mist 19 1014 92 4300 2.57 200 10:26 09.02.2022
5419 Mist 19 1014 90 4000 2.57 190 09:40 09.02.2022
5420 Mist 19 1014 90 4000 2.57 190 09:40 09.02.2022
5421 Mist 18 1014 90 4000 2.57 190 09:19 09.02.2022
5422 Haze 20 1014 84 2900 2.57 200 07:55 09.02.2022
5423 Clouds 25 1014 69 7000 4.12 200 05:30 09.02.2022
5424 Clouds 25 1014 69 7000 4.12 200 05:30 09.02.2022
5425 Clouds 25 1013 72 6000 4.63 200 03:50 09.02.2022
5426 Clouds 22 1015 81 6000 3.6 190 00:44 09.02.2022
5427 Clouds 21 1015 84 10000 3.09 200 23:32 08.02.2022
5428 Clouds 21 1015 84 10000 3.09 200 23:32 08.02.2022
5429 Clouds 21 1015 84 10000 3.09 200 23:32 08.02.2022
5430 Clouds 21 1015 84 10000 3.09 200 23:32 08.02.2022
5431 Clouds 21 1015 85 10000 2.57 200 22:46 08.02.2022
5432 Clouds 19 1016 87 10000 1.54 190 22:21 08.02.2022
5433 Mist 19 1015 92 2800 2.57 180 21:39 08.02.2022
5434 Mist 18 1015 93 2800 2.57 180 21:20 08.02.2022
5435 Mist 17 1016 96 4500 1.54 180 20:43 08.02.2022
5436 Mist 16 1016 95 4800 1.54 160 19:46 08.02.2022
5437 Mist 16 1016 95 4900 3.6 210 18:38 08.02.2022
5438 Mist 16 1016 93 5000 4.63 210 17:40 08.02.2022
5439 Clouds 16 1016 93 8000 5.14 220 16:30 08.02.2022
5440 Clouds 16 1017 93 9000 4.63 230 15:29 08.02.2022
5441 Clouds 16 1017 92 10000 1.54 300 14:32 08.02.2022
5442 Clouds 16 1017 91 8000 1.54 160 13:20 08.02.2022
5443 Haze 17 1018 89 5000 2.06 180 11:33 08.02.2022
5444 Haze 17 1017 89 5000 2.06 180 10:23 08.02.2022
5445 Haze 17 1017 89 5000 2.06 180 10:23 08.02.2022
5446 Clouds 18 1017 86 9000 1.03 160 09:44 08.02.2022
5447 Clouds 21 1016 79 10000 3.6 180 07:51 08.02.2022
5448 Clouds 21 1015 78 10000 9.26 150 05:40 08.02.2022
5449 Clouds 20 1016 79 10000 8.75 160 04:39 08.02.2022
5450 Clouds 20 1016 79 10000 8.75 160 04:21 08.02.2022
5451 Clouds 21 1016 77 10000 8.23 160 03:36 08.02.2022
5452 Clouds 21 1016 77 10000 8.23 160 03:18 08.02.2022
5453 Clouds 22 1016 76 10000 8.75 150 02:58 08.02.2022
5454 Clouds 21 1016 75 10000 9.77 150 02:36 08.02.2022
5455 Clouds 21 1016 77 10000 9.77 150 02:18 08.02.2022
5456 Clouds 19 1019 82 10000 9.77 150 01:43 08.02.2022
5457 Clouds 19 1019 82 10000 9.77 150 01:43 08.02.2022
5458 Clouds 21 1017 77 10000 9.77 150 01:24 08.02.2022
5459 Clouds 21 1017 79 10000 9.26 150 00:53 08.02.2022
5460 Clouds 20 1017 80 10000 10.29 150 23:54 07.02.2022
5461 Clouds 20 1017 80 10000 10.29 150 23:36 07.02.2022
5462 Clouds 20 1017 79 10000 9.77 150 23:18 07.02.2022
5463 Clouds 20 1017 81 10000 8.23 150 22:19 07.02.2022
5464 Clouds 21 1017 84 10000 7.72 150 21:53 07.02.2022
5465 Clouds 19 1017 82 10000 6.69 160 21:29 07.02.2022
5466 Clouds 19 1017 85 10000 5.66 160 20:56 07.02.2022
5467 Clouds 19 1017 87 10000 4.12 180 20:38 07.02.2022
5468 Clouds 17 1017 91 10000 4.63 220 19:49 07.02.2022
5469 Clouds 17 1016 92 10000 4.12 200 19:31 07.02.2022
5470 Clouds 16 1016 91 10000 2.57 170 17:52 07.02.2022
5471 Clouds 16 1016 90 10000 3.09 170 16:52 07.02.2022
5472 Clouds 16 1016 89 10000 3.09 160 15:49 07.02.2022
5473 Clouds 16 1016 89 10000 3.6 160 14:48 07.02.2022
5474 Clouds 16 1017 89 10000 3.09 150 13:28 07.02.2022
5475 Clouds 16 1018 89 10000 3.09 160 12:38 07.02.2022
5476 Clouds 16 1017 89 10000 0.45 124 11:57 07.02.2022
5477 Clouds 16 1017 88 10000 0.45 104 11:34 07.02.2022
5478 Clouds 16 1017 88 10000 5.14 150 10:49 07.02.2022
5479 Clouds 16 1017 88 10000 6.17 150 10:29 07.02.2022
5480 Clouds 16 1017 88 10000 0.45 230 09:53 07.02.2022
5481 Clouds 16 1016 87 10000 0.45 126 09:18 07.02.2022
5482 Clouds 16 1016 85 10000 0.89 207 08:24 07.02.2022
5483 Clouds 17 1016 82 10000 1.79 104 06:54 07.02.2022
5484 Clouds 17 1016 81 10000 1.79 177 06:33 07.02.2022
5485 Clouds 18 1018 79 10000 2.24 239 02:58 07.02.2022
5486 Clouds 17 1019 74 10000 1.79 209 00:44 07.02.2022
5487 Clouds 17 1019 74 10000 1.79 137 23:42 06.02.2022
5488 Clouds 16 1019 73 10000 1.79 130 22:47 06.02.2022
5489 Clouds 16 1019 75 10000 1.79 253 21:54 06.02.2022
5490 Clouds 16 1019 76 10000 2.24 136 21:35 06.02.2022
5491 Clouds 16 1019 75 10000 1.34 174 20:54 06.02.2022
5492 Clouds 15 1019 74 10000 2.24 332 20:31 06.02.2022
5493 Clouds 15 1020 73 10000 3.13 173 19:37 06.02.2022
5494 Clouds 15 1020 76 10000 2.68 334 18:40 06.02.2022
5495 Clouds 15 1020 75 10000 2.68 91 17:55 06.02.2022
5496 Clouds 15 1020 75 10000 2.24 121 17:18 06.02.2022
5497 Clouds 15 1020 75 10000 3.13 136 16:38 06.02.2022
5498 Clouds 14 1020 75 10000 3.13 92 15:48 06.02.2022
5499 Rain 15 1020 74 10000 2.68 147 15:26 06.02.2022
5500 Clouds 14 1021 74 10000 2.24 143 14:36 06.02.2022
5501 Clouds 14 1022 76 10000 2.24 109 13:25 06.02.2022
5502 Clouds 15 1022 76 10000 2.68 171 12:51 06.02.2022
5503 Clouds 14 1022 79 10000 3.13 180 11:27 06.02.2022
5504 Rain 14 1022 81 10000 2.24 183 10:30 06.02.2022
5505 Rain 14 1021 82 10000 1.34 104 08:53 06.02.2022
5506 Rain 13 1020 85 10000 2.24 161 07:51 06.02.2022
5507 Clouds 13 1019 94 10000 3.13 26 05:30 06.02.2022
5508 Clouds 13 1019 94 10000 3.13 26 05:30 06.02.2022
5509 Clouds 13 1019 94 10000 3.13 26 05:30 06.02.2022
5510 Rain 13 1018 96 7000 3.13 127 02:26 06.02.2022
5511 Rain 13 1017 95 8000 2.68 134 01:47 06.02.2022
5512 Rain 13 1017 97 8000 1.79 146 00:26 06.02.2022
5513 Rain 13 1015 97 8000 3.13 218 22:22 05.02.2022
5514 Clouds 14 1014 97 7000 3.13 162 21:18 05.02.2022
5515 Clouds 14 1013 96 10000 2.24 151 20:24 05.02.2022
5516 Rain 14 1012 96 4200 2.24 206 19:46 05.02.2022
5517 Rain 14 1012 96 8000 1.79 223 18:52 05.02.2022
5518 Clouds 13 1011 96 6000 2.24 224 17:39 05.02.2022
5519 Rain 13 1011 96 8000 0.89 275 16:48 05.02.2022
5520 Rain 13 1012 96 5000 0.89 197 15:34 05.02.2022
5521 Rain 13 1012 96 3800 0.89 130 14:53 05.02.2022
5522 Rain 13 1011 96 6000 0.89 183 12:47 05.02.2022
5523 Rain 13 1012 94 5000 0.89 251 12:22 05.02.2022
5524 Rain 14 1012 94 7000 0.45 207 10:48 05.02.2022
5525 Rain 14 1011 94 8000 0.45 140 09:53 05.02.2022
5526 Rain 14 1012 94 10000 0.45 121 09:30 05.02.2022
5527 Rain 14 1011 94 10000 0.89 225 07:38 05.02.2022
5528 Rain 14 1011 92 10000 0.45 166 06:56 05.02.2022
5529 Rain 14 1011 93 9000 0.89 132 04:29 05.02.2022
5530 Rain 15 1011 96 9000 1.79 173 01:19 05.02.2022
5531 Rain 15 1011 96 10000 2.24 145 00:52 05.02.2022
5532 Rain 15 1011 95 10000 2.24 186 23:39 04.02.2022
5533 Rain 15 1011 95 10000 2.68 147 23:21 04.02.2022
5534 Rain 14 1011 96 10000 1.34 202 21:54 04.02.2022
5535 Rain 14 1011 96 10000 1.79 247 21:36 04.02.2022
5536 Clouds 14 1011 96 10000 2.24 228 21:18 04.02.2022
5537 Clouds 14 1009 99 6000 1.34 240 19:36 04.02.2022
5538 Rain 14 1007 98 3900 0.45 113 17:40 04.02.2022
5539 Rain 19 1005 95 3000 0.45 245 15:39 04.02.2022
5540 Rain 20 1005 96 2000 0.45 287 14:52 04.02.2022
5541 Rain 20 1004 94 3000 0.89 147 13:24 04.02.2022
5542 Rain 19 1005 93 3000 0.89 99 12:42 04.02.2022
5543 Rain 20 1004 92 5000 1.34 205 11:41 04.02.2022
5544 Rain 20 1004 83 10000 0.45 216 10:34 04.02.2022
5545 Clouds 22 1004 78 10000 0.45 292 08:34 04.02.2022
5546 Rain 23 1002 71 10000 0.89 244 05:23 04.02.2022
5547 Clouds 25 1006 53 10000 9.77 360 02:42 04.02.2022
5548 Clouds 26 1007 53 10000 10.8 360 01:22 04.02.2022
5549 Clouds 24 1008 60 10000 9.26 350 23:29 03.02.2022
5550 Clouds 23 1007 68 10000 0.89 194 22:31 03.02.2022
5551 Clouds 22 1009 70 10000 0.89 50 21:48 03.02.2022
5552 Clouds 20 1008 77 10000 1.34 48 20:36 03.02.2022
5553 Clouds 20 1008 77 10000 1.34 79 20:18 03.02.2022
5554 Rain 20 1009 78 10000 0.45 254 19:26 03.02.2022
5555 Clouds 20 1008 80 10000 0.89 48 18:28 03.02.2022
5556 Clouds 20 1008 81 10000 1.34 105 17:32 03.02.2022
5557 Clouds 20 1009 82 10000 1.34 160 15:53 03.02.2022
5558 Clouds 21 1010 80 10000 1.34 351 14:28 03.02.2022
5559 Clouds 21 1010 80 10000 1.79 346 12:40 03.02.2022
5560 Clouds 21 1010 78 10000 0.89 112 10:36 03.02.2022
5561 Clouds 21 1010 77 10000 0.89 347 08:23 03.02.2022
5562 Clouds 24 1011 64 10000 10.29 350 03:28 03.02.2022
5563 Clouds 23 1012 67 10000 12.35 350 00:30 03.02.2022
5564 Clouds 22 1012 69 10000 12.35 10 22:55 02.02.2022
5565 Clouds 21 1011 76 10000 1.34 52 21:53 02.02.2022
5566 Clouds 21 1011 78 10000 1.34 91 21:30 02.02.2022
5567 Clouds 20 1011 84 10000 1.34 14 20:33 02.02.2022
5568 Clouds 20 1011 83 10000 1.79 313 19:51 02.02.2022
5569 Clouds 20 1011 82 10000 1.34 47 19:20 02.02.2022
5570 Clouds 20 1010 80 10000 2.68 305 18:27 02.02.2022
5571 Rain 20 1010 86 10000 1.79 270 17:37 02.02.2022
5572 Clouds 19 1011 87 10000 1.34 170 17:18 02.02.2022
5573 Clouds 19 1011 87 10000 1.34 170 17:18 02.02.2022
5574 Clouds 19 1011 88 6000 2.24 40 16:30 02.02.2022
5575 Rain 21 1012 73 10000 1.34 27 12:54 02.02.2022
5576 Rain 22 1012 72 10000 2.24 183 11:51 02.02.2022
5577 Rain 22 1012 71 10000 1.79 128 11:31 02.02.2022
5578 Rain 22 1012 69 10000 1.34 56 09:46 02.02.2022
5579 Clouds 23 1011 65 10000 1.34 114 06:18 02.02.2022
5580 Rain 22 1014 66 10000 0.89 247 22:44 01.02.2022
5581 Clouds 21 1016 64 10000 9.26 360 21:30 01.02.2022
5582 Rain 20 1015 68 10000 0.45 64 19:57 01.02.2022
5583 Clouds 20 1016 74 10000 0.45 15 17:38 01.02.2022
5584 Clouds 19 1016 80 10000 0.89 24 16:33 01.02.2022
5585 Clouds 21 1017 70 10000 0.45 65 13:28 01.02.2022
5586 Clouds 21 1017 67 10000 0.45 265 12:28 01.02.2022
5587 Clouds 21 1017 66 10000 0.89 90 10:44 01.02.2022
5588 Clouds 23 1020 59 10000 0.45 55 02:30 01.02.2022
5589 Clouds 23 1020 65 10000 0.89 207 23:40 31.01.2022
5590 Clouds 23 1020 69 10000 0.45 161 22:48 31.01.2022
5591 Clouds 21 1020 76 10000 0.45 140 21:38 31.01.2022
5592 Clouds 18 1020 86 10000 3.09 350 20:45 31.01.2022
5593 Clouds 17 1020 90 10000 3.09 360 20:26 31.01.2022
5594 Clouds 15 1020 90 10000 2.57 30 18:54 31.01.2022
5595 Clouds 15 1020 92 10000 1.54 20 18:20 31.01.2022
5596 Clouds 15 1020 91 10000 1.54 20 17:25 31.01.2022
5597 Clouds 15 1020 91 10000 1.03 80 16:25 31.01.2022
5598 Clouds 15 1020 90 10000 2.06 150 14:54 31.01.2022
5599 Clouds 16 1020 87 10000 1.03 100 13:43 31.01.2022
5600 Clouds 16 1021 86 10000 1.54 60 12:38 31.01.2022
5601 Clouds 16 1020 85 10000 1.54 230 11:42 31.01.2022
5602 Clouds 17 1020 84 10000 0.51 220 10:49 31.01.2022
5603 Clouds 18 1020 81 10000 2.06 160 09:45 31.01.2022
5604 Clouds 19 1020 76 10000 2.06 180 08:58 31.01.2022
5605 Clouds 20 1020 75 10000 4.12 200 08:38 31.01.2022
5606 Clear 21 1019 72 10000 4.12 200 08:19 31.01.2022
5607 Clouds 19 1021 75 10000 5.66 210 06:18 31.01.2022
5608 Clear 22 1023 59 10000 1.34 249 00:44 31.01.2022
5609 Clear 20 1023 70 10000 0.45 29 22:38 30.01.2022
5610 Clear 20 1023 71 10000 0.45 221 22:20 30.01.2022
5611 Clear 19 1023 74 10000 0.45 100 21:38 30.01.2022
5612 Clouds 19 1022 80 10000 0.45 17 21:18 30.01.2022
5613 Clouds 16 1023 84 10000 0.51 190 20:45 30.01.2022
5614 Clouds 15 1022 87 10000 0.51 280 20:26 30.01.2022
5615 Clouds 13 1022 88 10000 1.54 90 19:24 30.01.2022
5616 Clouds 12 1021 91 10000 1.54 160 18:35 30.01.2022
5617 Clouds 12 1021 90 10000 0.51 150 17:54 30.01.2022
5618 Clouds 14 1022 89 10000 1.03 230 17:21 30.01.2022
5619 Clouds 14 1022 88 10000 1.03 230 16:39 30.01.2022
5620 Clouds 14 1022 88 10000 1.03 230 16:21 30.01.2022
5621 Clouds 14 1023 86 10000 2.06 160 15:49 30.01.2022
5622 Clouds 14 1023 86 10000 1.54 170 15:31 30.01.2022
5623 Clouds 14 1023 87 10000 2.06 180 14:46 30.01.2022
5624 Clouds 15 1023 84 10000 0.51 250 12:47 30.01.2022
5625 Clouds 16 1023 82 10000 1.03 110 11:53 30.01.2022
5626 Clouds 17 1023 79 10000 3.6 150 10:29 30.01.2022
5627 Clouds 17 1023 79 10000 5.14 160 09:50 30.01.2022
5628 Clear 17 1022 83 10000 1.34 139 08:54 30.01.2022
5629 Clouds 19 1022 80 10000 1.79 3 07:28 30.01.2022
5630 Clear 23 1024 54 10000 6.17 210 01:56 30.01.2022
5631 Clear 23 1024 54 10000 6.17 210 01:56 30.01.2022
5632 Clear 23 1024 55 10000 6.17 210 01:56 30.01.2022
5633 Clouds 23 1024 56 10000 4.63 340 00:22 30.01.2022
5634 Clouds 23 1024 60 10000 7.2 360 23:18 29.01.2022
5635 Clouds 21 1022 69 10000 0.89 87 21:49 29.01.2022
5636 Clouds 20 1022 71 10000 0.45 320 21:24 29.01.2022
5637 Clouds 19 1021 77 10000 0.89 341 20:28 29.01.2022
5638 Clouds 17 1020 82 10000 0.89 303 19:34 29.01.2022
5639 Clouds 17 1020 83 10000 1.34 270 18:52 29.01.2022
5640 Clouds 17 1020 83 10000 1.34 212 18:23 29.01.2022
5641 Clouds 17 1020 83 10000 1.34 97 17:29 29.01.2022
5642 Clouds 18 1021 83 10000 0.89 147 15:57 29.01.2022
5643 Clouds 18 1022 80 10000 1.34 6 14:23 29.01.2022
5644 Clouds 18 1022 80 10000 0.45 108 13:42 29.01.2022
5645 Clouds 18 1022 80 10000 0.45 273 13:23 29.01.2022
5646 Clouds 18 1022 81 10000 0.45 101 11:47 29.01.2022
5647 Clouds 18 1022 81 10000 0.89 123 11:24 29.01.2022
5648 Clouds 18 1023 80 10000 0.89 84 08:43 29.01.2022
5649 Clear 21 1023 59 10000 1.34 107 06:55 29.01.2022
5650 Clouds 22 1027 44 10000 8.23 10 00:35 29.01.2022
5651 Clouds 23 1027 43 10000 7.72 10 23:51 28.01.2022
5652 Clouds 21 1028 52 10000 6.69 30 22:50 28.01.2022
5653 Clouds 20 1026 67 10000 1.34 66 22:21 28.01.2022
5654 Clouds 19 1027 75 10000 0.89 136 21:35 28.01.2022
5655 Clouds 15 1028 79 10000 4.63 30 20:29 28.01.2022
5656 Clouds 12 1027 94 10000 3.09 30 19:28 28.01.2022
5657 Clouds 13 1027 82 10000 2.57 40 18:42 28.01.2022
5658 Clouds 13 1028 82 10000 2.57 40 16:46 28.01.2022
5659 Clouds 12 1027 82 10000 1.54 30 15:18 28.01.2022
5660 Clouds 13 1028 79 10000 1.54 20 13:37 28.01.2022
5661 Clouds 13 1028 77 10000 1.03 350 12:27 28.01.2022
5662 Clear 14 1028 77 10000 2.06 240 10:49 28.01.2022
5663 Clear 15 1027 74 10000 2.57 250 09:49 28.01.2022
5664 Clear 19 1025 59 10000 5.14 170 07:43 28.01.2022
5665 Clouds 18 1027 56 10000 0.45 109 06:39 28.01.2022
5666 Clouds 19 1028 52 10000 0.89 216 03:53 28.01.2022
5667 Clouds 19 1029 56 10000 1.34 172 02:30 28.01.2022
5668 Clouds 19 1029 56 10000 1.34 231 01:57 28.01.2022
5669 Clouds 18 1029 57 10000 0.89 165 01:30 28.01.2022
5670 Clouds 17 1028 55 10000 1.34 152 22:40 27.01.2022
5671 Clouds 16 1027 59 10000 0.45 226 21:45 27.01.2022
5672 Clouds 16 1027 63 10000 0.89 130 21:26 27.01.2022
5673 Clouds 15 1027 66 10000 0.45 128 20:23 27.01.2022
5674 Clouds 14 1024 69 10000 0.89 202 18:23 27.01.2022
5675 Clouds 14 1024 71 10000 0.89 205 17:18 27.01.2022
5676 Clouds 14 1024 69 10000 1.34 244 14:25 27.01.2022
5677 Clouds 14 1024 70 10000 1.34 156 13:19 27.01.2022
5678 Clouds 14 1024 68 10000 1.34 117 12:20 27.01.2022
5679 Clouds 14 1022 70 10000 1.79 174 09:56 27.01.2022
5680 Clear 15 1020 68 10000 2.24 97 08:41 27.01.2022
5681 Clear 15 1020 67 10000 3.13 235 08:18 27.01.2022
5682 Clear 18 1017 57 10000 2.24 125 03:37 27.01.2022
5683 Clouds 17 1014 65 10000 2.24 101 00:25 27.01.2022
5684 Clouds 15 1012 72 10000 2.68 227 22:31 26.01.2022
5685 Clouds 14 1010 82 10000 1.34 222 21:44 26.01.2022
5686 Rain 13 1010 82 10000 1.79 245 20:59 26.01.2022
5687 Clouds 13 1010 85 9000 0.89 163 20:35 26.01.2022
5688 Clouds 13 1009 86 8000 2.24 223 19:52 26.01.2022
5689 Clouds 13 1008 84 10000 0.45 142 18:52 26.01.2022
5690 Clouds 13 1007 83 10000 0.45 120 18:24 26.01.2022
5691 Clouds 13 1007 83 10000 1.34 173 17:39 26.01.2022
5692 Clouds 14 1006 84 10000 1.34 75 17:19 26.01.2022
5693 Clouds 14 1005 83 10000 2.24 107 16:25 26.01.2022
5694 Clouds 15 1004 81 10000 3.13 245 15:23 26.01.2022
5695 Clouds 18 999 87 10000 0.45 113 12:44 26.01.2022
5696 Clouds 19 998 88 10000 0.89 216 10:56 26.01.2022
5697 Clouds 19 998 89 10000 0.89 238 09:58 26.01.2022
5698 Clouds 19 998 89 10000 0.89 241 09:39 26.01.2022
5699 Clouds 20 998 85 10000 0.89 45 07:28 26.01.2022
5700 Clouds 20 1001 88 10000 0.45 44 00:26 26.01.2022
5701 Clouds 20 1001 87 10000 0.45 86 23:43 25.01.2022
5702 Clouds 21 1001 85 10000 0.45 34 22:49 25.01.2022
5703 Clouds 21 1001 86 10000 0.45 338 22:19 25.01.2022
5704 Clouds 20 1002 85 10000 0.45 356 21:34 25.01.2022
5705 Rain 20 1002 87 10000 0.45 109 20:45 25.01.2022
5706 Rain 18 1002 90 10000 0.45 212 19:58 25.01.2022
5707 Rain 18 1002 90 10000 0.45 212 19:58 25.01.2022
5708 Clouds 18 1002 91 10000 0.45 53 19:32 25.01.2022
5709 Rain 17 1002 93 10000 4.12 20 17:56 25.01.2022
5710 Clouds 17 1002 93 10000 3.6 10 17:37 25.01.2022
5711 Clouds 18 1003 90 10000 3.09 20 16:35 25.01.2022
5712 Clouds 18 1004 92 10000 3.6 360 15:39 25.01.2022
5713 Clouds 18 1004 92 10000 3.6 360 15:20 25.01.2022
5714 Clouds 18 1004 90 10000 3.6 20 14:56 25.01.2022
5715 Clouds 18 1005 87 10000 3.6 10 12:23 25.01.2022
5716 Rain 17 1006 91 9000 6.69 10 09:39 25.01.2022
5717 Rain 19 1006 80 10000 0.45 45 08:21 25.01.2022
5718 Rain 20 1006 77 10000 0.45 207 07:27 25.01.2022
5719 Clouds 21 1006 77 10000 0.45 168 05:54 25.01.2022
5720 Rain 21 1009 74 10000 0.89 47 00:57 25.01.2022
5721 Clouds 21 1010 70 10000 0.45 100 23:36 24.01.2022
5722 Clouds 21 1010 70 10000 0.89 94 23:18 24.01.2022
5723 Rain 21 1010 72 10000 0.89 114 22:53 24.01.2022
5724 Rain 20 1010 75 10000 0.45 248 22:35 24.01.2022
5725 Clouds 21 1010 72 10000 0.45 46 21:42 24.01.2022
5726 Clouds 20 1010 75 10000 0.45 157 21:24 24.01.2022
5727 Clouds 19 1011 81 10000 1.34 323 20:28 24.01.2022
5728 Clouds 18 1011 86 10000 0.45 51 19:38 24.01.2022
5729 Clouds 18 1011 86 10000 4.12 360 18:50 24.01.2022
5730 Clouds 18 1011 86 10000 0.45 121 17:42 24.01.2022
5731 Clouds 18 1010 85 10000 0.45 8 17:22 24.01.2022
5732 Clouds 18 1010 85 10000 0.45 8 17:22 24.01.2022
5733 Clouds 18 1010 85 10000 5.14 350 16:31 24.01.2022
5734 Clouds 18 1011 84 10000 0.45 213 15:51 24.01.2022
5735 Clouds 19 1011 84 10000 0.45 208 14:19 24.01.2022
5736 Clouds 18 1011 83 10000 3.09 360 12:35 24.01.2022
5737 Clouds 19 1011 81 10000 3.6 350 11:42 24.01.2022
5738 Clouds 19 1012 76 10000 4.63 350 10:23 24.01.2022
5739 Clouds 19 1011 75 10000 4.12 350 09:46 24.01.2022
5740 Clouds 21 1010 67 10000 5.14 10 08:18 24.01.2022
5741 Clouds 24 1012 63 10000 0.45 59 02:26 24.01.2022
5742 Rain 21 1014 64 10000 5.14 210 01:26 24.01.2022
5743 Clouds 22 1012 67 10000 0.45 45 00:32 24.01.2022
5744 Clouds 19 1014 77 10000 3.6 200 23:46 23.01.2022
5745 Clouds 20 1013 73 10000 0.45 239 22:21 23.01.2022
5746 Clouds 19 1013 77 10000 0.45 308 21:41 23.01.2022
5747 Clouds 19 1013 79 10000 2.57 190 21:23 23.01.2022
5748 Clouds 16 1014 85 10000 1.03 130 20:23 23.01.2022
5749 Clouds 14 1013 91 10000 0.51 130 18:56 23.01.2022
5750 Clouds 14 1014 87 10000 1.03 30 18:24 23.01.2022
5751 Haze 14 1013 91 2000 0.51 220 17:25 23.01.2022
5752 Haze 15 1014 87 3500 0.51 260 16:18 23.01.2022
5753 Haze 16 1014 88 5000 0.51 190 14:52 23.01.2022
5754 Haze 16 1014 88 3300 1.03 180 14:19 23.01.2022
5755 Clouds 16 1014 88 10000 1.54 20 12:46 23.01.2022
5756 Clouds 16 1014 87 10000 1.54 30 12:21 23.01.2022
5757 Rain 16 1014 87 10000 0.51 120 11:27 23.01.2022
5758 Rain 16 1014 87 8000 1.54 220 10:59 23.01.2022
5759 Clouds 16 1014 86 7000 2.57 230 10:25 23.01.2022
5760 Clouds 17 1014 85 10000 0.45 280 09:33 23.01.2022
5761 Clouds 17 1014 82 10000 0.45 225 08:50 23.01.2022
5762 Clouds 22 1013 67 10000 0.45 247 04:41 23.01.2022
5763 Clouds 20 1016 71 10000 0.45 211 01:43 23.01.2022
5764 Clouds 19 1016 73 10000 3.09 200 00:56 23.01.2022
5765 Clouds 19 1017 76 10000 3.6 190 00:22 23.01.2022
5766 Clouds 21 1016 64 10000 2.06 350 23:18 22.01.2022
5767 Clouds 21 1016 64 10000 5.66 360 22:33 22.01.2022
5768 Clouds 19 1015 75 10000 0.45 341 21:18 22.01.2022
5769 Clouds 18 1015 81 10000 0.45 265 19:46 22.01.2022
5770 Clouds 17 1014 84 10000 0.45 47 18:43 22.01.2022
5771 Clouds 17 1013 87 10000 0.45 157 17:56 22.01.2022
5772 Clear 17 1013 87 10000 0.45 216 17:35 22.01.2022
5773 Clear 17 1013 86 10000 0.45 126 16:55 22.01.2022
5774 Clear 17 1013 84 10000 0.45 67 15:49 22.01.2022
5775 Clear 17 1014 81 10000 0.45 142 14:57 22.01.2022
5776 Clear 17 1014 80 10000 0.45 339 13:36 22.01.2022
5777 Clear 18 1015 75 10000 0.45 78 12:47 22.01.2022
5778 Clear 18 1015 74 10000 0.45 127 12:24 22.01.2022
5779 Clear 18 1016 73 10000 0.45 61 10:55 22.01.2022
5780 Clear 18 1016 74 10000 0.45 124 10:28 22.01.2022
5781 Clear 18 1016 73 10000 0.45 67 09:46 22.01.2022
5782 Clear 19 1015 69 10000 0.45 187 08:51 22.01.2022
5783 Clear 21 1015 62 10000 0.89 127 07:29 22.01.2022
5784 Clear 25 1017 41 10000 8.23 350 04:52 22.01.2022
5785 Clear 25 1019 41 10000 7.72 360 01:32 22.01.2022
5786 Clear 23 1019 46 10000 6.17 10 23:30 21.01.2022
5787 Clear 21 1018 64 10000 1.34 43 22:20 21.01.2022
5788 Clear 15 1019 79 10000 0.45 142 19:56 21.01.2022
5789 Clear 13 1019 80 10000 3.09 30 18:23 21.01.2022
5790 Clear 12 1019 82 10000 2.57 30 17:25 21.01.2022
5791 Clear 13 1019 86 10000 2.06 30 15:28 21.01.2022
5792 Clear 14 1019 82 10000 1.54 210 13:18 21.01.2022
5793 Clear 14 1020 80 10000 3.6 190 12:28 21.01.2022
5794 Clear 15 1020 79 10000 4.63 190 11:27 21.01.2022
5795 Clear 16 1019 77 10000 4.63 190 10:18 21.01.2022
5796 Clouds 17 1018 70 10000 0.89 216 08:23 21.01.2022
5797 Clouds 20 1017 59 10000 1.79 133 04:49 21.01.2022
5798 Clouds 20 1013 66 10000 0.45 137 23:27 20.01.2022
5799 Clouds 20 1014 68 10000 1.34 239 22:21 20.01.2022
5800 Clouds 18 1014 72 10000 0.45 38 21:42 20.01.2022
5801 Clouds 15 1013 83 10000 0.45 57 20:40 20.01.2022
5802 Clouds 13 1014 88 10000 1.54 360 19:19 20.01.2022
5803 Clouds 12 1013 87 10000 1.03 350 18:23 20.01.2022
5804 Clouds 12 1012 87 7000 1.03 360 16:53 20.01.2022
5805 Clouds 12 1012 86 10000 3.6 30 15:40 20.01.2022
5806 Clouds 12 1012 85 10000 1.54 360 14:41 20.01.2022
5807 Clouds 12 1013 82 10000 1.54 30 13:33 20.01.2022
5808 Haze 13 1012 81 5000 1.54 300 12:32 20.01.2022
5809 Clouds 13 1012 78 10000 1.03 80 11:50 20.01.2022
5810 Clouds 14 1012 74 10000 3.09 150 10:39 20.01.2022
5811 Clouds 15 1011 74 10000 4.12 150 09:36 20.01.2022
5812 Clouds 17 1009 67 10000 0.45 296 07:50 20.01.2022
5813 Clouds 16 1009 74 10000 1.34 60 00:46 20.01.2022
5814 Clouds 15 1008 92 8000 0.89 167 22:59 19.01.2022
5815 Clouds 15 1008 92 9000 1.79 126 22:21 19.01.2022
5816 Clouds 15 1007 89 10000 0.45 114 21:23 19.01.2022
5817 Clouds 15 1006 92 10000 0.89 134 20:46 19.01.2022
5818 Clouds 15 1005 93 10000 0.89 239 19:42 19.01.2022
5819 Clouds 15 1005 94 9000 0.45 121 18:29 19.01.2022
5820 Mist 15 1005 98 1700 8.23 210 17:45 19.01.2022
5821 Clouds 18 1002 92 10000 1.34 320 16:47 19.01.2022
5822 Rain 19 1003 87 10000 2.68 66 14:42 19.01.2022
5823 Rain 19 1004 87 10000 1.34 194 12:42 19.01.2022
5824 Clouds 19 1005 86 10000 0.89 311 11:39 19.01.2022
5825 Clouds 19 1005 85 10000 0.89 202 10:23 19.01.2022
5826 Clouds 20 1005 84 10000 0.89 21 09:34 19.01.2022
5827 Clouds 21 1004 75 10000 1.79 210 06:45 19.01.2022
5828 Clouds 22 1007 73 10000 1.34 65 02:38 19.01.2022
5829 Clouds 22 1008 72 10000 0.89 31 23:19 18.01.2022
5830 Clouds 21 1009 74 10000 2.24 43 22:19 18.01.2022
5831 Clouds 19 1008 82 10000 0.89 355 20:58 18.01.2022
5832 Clouds 18 1008 87 10000 0.45 162 19:54 18.01.2022
5833 Clouds 19 1008 84 10000 0.89 62 19:36 18.01.2022
5834 Clouds 18 1008 84 10000 0.89 72 18:51 18.01.2022
5835 Clouds 18 1008 84 10000 0.45 11 17:58 18.01.2022
5836 Clouds 18 1008 84 10000 0.89 325 16:50 18.01.2022
5837 Clouds 18 1009 81 10000 0.45 175 15:47 18.01.2022
5838 Clouds 18 1008 83 10000 0.45 319 15:21 18.01.2022
5839 Clear 17 1010 79 10000 0.45 97 12:47 18.01.2022
5840 Clear 17 1010 80 10000 6.69 10 10:47 18.01.2022
5841 Clear 18 1011 74 10000 1.54 200 08:59 18.01.2022
5842 Clear 18 1011 72 10000 3.6 200 07:55 18.01.2022
5843 Clear 23 1010 59 10000 0.45 48 02:34 18.01.2022
5844 Clouds 20 1012 68 10000 0.89 84 23:39 17.01.2022
5845 Clouds 19 1013 73 10000 0.89 137 22:26 17.01.2022
5846 Clouds 18 1013 77 10000 1.34 152 21:34 17.01.2022
5847 Clouds 17 1012 88 10000 0.89 213 20:24 17.01.2022
5848 Clouds 15 1012 91 10000 1.54 180 18:30 17.01.2022
5849 Clouds 15 1012 91 10000 2.57 210 17:44 17.01.2022
5850 Clouds 15 1012 91 10000 3.09 210 16:40 17.01.2022
5851 Clouds 15 1012 89 10000 3.6 200 15:19 17.01.2022
5852 Clouds 15 1013 88 10000 0.45 235 14:55 17.01.2022
5853 Clouds 16 1012 85 10000 0.89 215 13:22 17.01.2022
5854 Clouds 16 1013 85 10000 6.69 160 12:55 17.01.2022
5855 Clouds 16 1012 78 10000 0.45 126 11:49 17.01.2022
5856 Clear 18 1012 74 10000 0.45 208 10:21 17.01.2022
5857 Clear 18 1011 72 10000 0.45 224 09:34 17.01.2022
5858 Clear 21 1010 63 10000 1.34 226 07:24 17.01.2022
5859 Clear 20 1012 68 10000 6.17 200 02:59 17.01.2022
5860 Clear 20 1013 57 10000 5.66 210 00:55 17.01.2022
5861 Clear 20 1013 68 10000 0.45 116 22:22 16.01.2022
5862 Clear 17 1014 71 10000 3.09 10 20:36 16.01.2022
5863 Clear 13 1014 83 10000 2.06 30 18:51 16.01.2022
5864 Clear 12 1013 85 10000 1.54 40 17:59 16.01.2022
5865 Clear 13 1014 85 10000 1.03 40 16:59 16.01.2022
5866 Clear 13 1014 85 10000 0.51 30 16:33 16.01.2022
5867 Clear 14 1014 82 10000 1.03 40 14:31 16.01.2022
5868 Clear 15 1015 80 10000 1.54 30 13:46 16.01.2022
5869 Clear 16 1015 77 10000 3.6 350 12:46 16.01.2022
5870 Clear 17 1015 76 10000 4.12 360 11:41 16.01.2022
5871 Clear 17 1015 71 10000 3.09 350 10:54 16.01.2022
5872 Clear 18 1016 71 10000 2.06 10 10:19 16.01.2022
5873 Clear 18 1016 70 10000 1.54 180 09:40 16.01.2022
5874 Clouds 18 1016 68 10000 1.54 180 09:22 16.01.2022
5875 Clouds 22 1015 59 10000 2.57 180 07:30 16.01.2022
5876 Clouds 20 1019 57 10000 4.12 210 00:38 16.01.2022
5877 Clouds 21 1019 54 10000 0.89 117 23:40 15.01.2022
5878 Clear 17 1018 73 10000 0.45 212 21:23 15.01.2022
5879 Clear 15 1019 78 10000 0.45 116 20:56 15.01.2022
5880 Clear 16 1020 78 10000 1.03 110 20:38 15.01.2022
5881 Clouds 12 1019 88 10000 1.54 10 19:28 15.01.2022
5882 Clouds 11 1019 88 10000 1.03 50 18:31 15.01.2022
5883 Clouds 11 1018 86 10000 0.51 110 16:57 15.01.2022
5884 Clear 12 1019 85 10000 0.51 70 15:39 15.01.2022
5885 Clear 13 1020 81 10000 2.06 10 13:39 15.01.2022
5886 Clouds 14 1020 79 6000 1.54 330 11:46 15.01.2022
5887 Clouds 15 1019 76 7000 1.03 340 10:24 15.01.2022
5888 Clouds 19 1019 63 10000 0.89 233 06:40 15.01.2022
5889 Clear 19 1021 59 10000 2.24 128 23:49 14.01.2022
5890 Clear 17 1022 68 10000 0.89 115 21:37 14.01.2022
5891 Clear 15 1022 73 10000 0.45 128 20:37 14.01.2022
5892 Clear 14 1022 79 10000 0.45 184 19:57 14.01.2022
5893 Clear 11 1020 86 10000 4.63 160 18:44 14.01.2022
5894 Clear 12 1020 83 10000 4.63 170 17:54 14.01.2022
5895 Clear 13 1021 81 10000 3.09 150 16:47 14.01.2022
5896 Clear 13 1020 81 10000 2.57 160 15:33 14.01.2022
5897 Clear 13 1022 78 10000 0.45 131 14:29 14.01.2022
5898 Clouds 14 1022 75 10000 0.89 116 13:27 14.01.2022
5899 Clouds 14 1022 75 10000 0.45 145 12:20 14.01.2022
5900 Clouds 15 1022 75 10000 0.89 111 10:46 14.01.2022
5901 Clear 16 1021 68 10000 0.89 235 08:54 14.01.2022
5902 Clear 18 1021 62 10000 1.34 223 07:46 14.01.2022
5903 Clear 19 1020 58 10000 1.79 53 03:19 14.01.2022
5904 Clouds 18 1022 60 10000 2.24 214 00:44 14.01.2022
5905 Clouds 17 1022 63 10000 1.79 130 21:57 13.01.2022
5906 Clouds 17 1021 63 10000 0.89 113 21:30 13.01.2022
5907 Clouds 15 1022 66 10000 1.34 144 20:33 13.01.2022
5908 Clouds 14 1021 69 10000 1.34 113 19:32 13.01.2022
5909 Clouds 14 1021 72 10000 0.45 116 18:50 13.01.2022
5910 Clouds 14 1021 72 10000 0.89 198 17:23 13.01.2022
5911 Clouds 14 1022 74 10000 5.14 170 15:49 13.01.2022
5912 Clouds 14 1022 73 10000 0.89 246 15:26 13.01.2022
5913 Clouds 14 1022 75 10000 0.45 221 13:42 13.01.2022
5914 Clouds 14 1023 68 10000 5.14 150 11:43 13.01.2022
5915 Clouds 15 1022 65 10000 0.89 121 09:37 13.01.2022
5916 Clouds 15 1022 65 10000 0.89 333 08:52 13.01.2022
5917 Clouds 15 1021 64 10000 1.34 17 08:18 13.01.2022
5918 Clouds 17 1020 59 10000 1.34 221 07:20 13.01.2022
5919 Clouds 18 1020 55 10000 1.34 247 05:21 13.01.2022
5920 Clouds 18 1020 55 10000 1.34 247 05:21 13.01.2022
5921 Clouds 18 1020 54 10000 2.24 96 04:55 13.01.2022
5922 Clouds 18 1021 58 10000 1.79 135 01:46 13.01.2022
5923 Clouds 15 1021 65 10000 2.68 109 23:54 12.01.2022
5924 Clouds 15 1021 67 10000 3.13 211 23:34 12.01.2022
5925 Clouds 15 1021 68 10000 1.79 246 22:49 12.01.2022
5926 Clouds 15 1020 70 10000 2.68 73 21:54 12.01.2022
5927 Clouds 15 1020 72 10000 1.79 238 21:21 12.01.2022
5928 Clouds 14 1020 71 10000 2.24 199 20:53 12.01.2022
5929 Clouds 14 1020 72 10000 2.24 136 19:24 12.01.2022
5930 Clouds 14 1019 75 10000 2.24 209 18:27 12.01.2022
5931 Clouds 14 1019 73 10000 2.24 238 16:59 12.01.2022
5932 Clouds 14 1018 79 10000 3.13 114 15:53 12.01.2022
5933 Clouds 14 1018 87 7000 2.24 138 14:46 12.01.2022
5934 Clouds 15 1016 85 10000 1.34 106 12:58 12.01.2022
5935 Clouds 17 1013 83 10000 0.89 76 09:58 12.01.2022
5936 Clouds 19 1012 70 10000 5.14 10 08:33 12.01.2022
5937 Clouds 22 1012 56 10000 6.17 360 07:33 12.01.2022
5938 Clouds 22 1012 60 10000 8.23 10 05:30 12.01.2022
5939 Clouds 21 1014 64 10000 8.75 10 23:29 11.01.2022
5940 Clouds 19 1015 72 10000 7.72 10 22:41 11.01.2022
5941 Clouds 19 1015 73 10000 7.72 10 22:20 11.01.2022
5942 Clouds 19 1013 78 10000 0.45 323 20:49 11.01.2022
5943 Clouds 18 1013 84 10000 0.89 94 19:42 11.01.2022
5944 Clouds 17 1013 89 10000 3.6 10 18:25 11.01.2022
5945 Clouds 18 1012 89 10000 3.6 350 17:18 11.01.2022
5946 Clouds 18 1012 89 10000 0.45 9 16:36 11.01.2022
5947 Clouds 18 1013 88 10000 0.45 91 14:57 11.01.2022
5948 Clouds 18 1013 88 10000 0.45 147 14:39 11.01.2022
5949 Clouds 19 1014 86 10000 0.45 101 13:53 11.01.2022
5950 Clouds 19 1014 85 10000 0.45 78 13:31 11.01.2022
5951 Clouds 19 1014 85 10000 0.89 138 12:37 11.01.2022
5952 Clouds 19 1015 83 10000 0.45 190 10:52 11.01.2022
5953 Clouds 19 1014 82 10000 0.89 288 08:53 11.01.2022
5954 Clouds 21 1013 79 10000 1.79 159 06:22 11.01.2022
5955 Clouds 23 1015 75 10000 0.89 105 00:29 11.01.2022
5956 Clouds 22 1017 74 10000 0.89 106 23:40 10.01.2022
5957 Clouds 22 1017 79 10000 0.89 64 22:43 10.01.2022
5958 Clouds 21 1018 79 10000 0.89 250 22:18 10.01.2022
5959 Clouds 21 1017 84 10000 0.45 165 21:42 10.01.2022
5960 Clouds 20 1017 88 10000 0.89 188 21:18 10.01.2022
5961 Clouds 19 1017 90 10000 0.45 73 20:55 10.01.2022
5962 Clouds 19 1017 92 10000 0.89 204 20:24 10.01.2022
5963 Clouds 18 1017 94 10000 0.89 16 19:41 10.01.2022
5964 Clouds 18 1017 94 10000 0.89 300 19:19 10.01.2022
5965 Clouds 18 1017 94 10000 0.45 234 18:48 10.01.2022
5966 Mist 18 1017 95 4600 0.45 81 17:24 10.01.2022
5967 Clouds 18 1017 95 10000 0.45 28 16:41 10.01.2022
5968 Clouds 18 1017 94 10000 0.45 22 15:20 10.01.2022
5969 Clouds 18 1018 90 10000 0.89 254 13:39 10.01.2022
5970 Clouds 19 1019 86 10000 0.45 360 11:57 10.01.2022
5971 Clouds 19 1019 85 10000 0.89 189 11:24 10.01.2022
5972 Clouds 19 1019 84 10000 0.45 225 09:46 10.01.2022
5973 Clouds 21 1017 77 10000 0.45 344 06:22 10.01.2022
5974 Clouds 21 1016 76 10000 0.89 344 05:49 10.01.2022
5975 Clouds 23 1018 64 10000 7.2 10 01:26 10.01.2022
5976 Clouds 22 1017 73 10000 0.45 88 00:24 10.01.2022
5977 Clouds 20 1016 76 10000 0.89 26 23:29 09.01.2022
5978 Clouds 20 1016 75 10000 0.89 95 22:37 09.01.2022
5979 Clouds 19 1018 80 10000 0.45 134 21:46 09.01.2022
5980 Clouds 20 1018 77 10000 0.45 127 21:23 09.01.2022
5981 Clouds 18 1018 81 10000 0.45 115 20:50 09.01.2022
5982 Clouds 18 1018 81 10000 0.45 19 20:32 09.01.2022
5983 Clouds 17 1018 83 10000 5.14 20 19:44 09.01.2022
5984 Clouds 17 1017 84 10000 0.89 63 19:23 09.01.2022
5985 Clouds 17 1017 84 10000 0.45 135 18:51 09.01.2022
5986 Clouds 17 1017 84 10000 0.45 81 18:33 09.01.2022
5987 Clouds 17 1016 85 10000 0.45 165 17:30 09.01.2022
5988 Clouds 17 1016 84 10000 0.89 263 16:51 09.01.2022
5989 Clouds 17 1016 85 10000 0.45 112 15:57 09.01.2022
5990 Clouds 17 1017 87 10000 0.89 244 15:34 09.01.2022
5991 Clouds 18 1017 82 10000 0.89 343 14:40 09.01.2022
5992 Clouds 18 1016 82 10000 0.45 358 13:50 09.01.2022
5993 Clouds 18 1016 82 10000 0.89 62 12:48 09.01.2022
5994 Clouds 18 1016 81 10000 1.34 264 11:48 09.01.2022
5995 Clouds 18 1016 81 10000 0.89 184 10:52 09.01.2022
5996 Clouds 18 1016 81 10000 0.89 50 09:42 09.01.2022
5997 Clouds 19 1015 79 10000 0.89 131 08:34 09.01.2022
5998 Clouds 22 1014 70 10000 1.79 357 03:55 09.01.2022
5999 Clouds 20 1015 73 10000 1.34 148 01:23 09.01.2022
6000 Clouds 20 1016 74 10000 1.34 138 23:39 08.01.2022
6001 Clouds 19 1015 80 10000 0.89 55 22:59 08.01.2022
6002 Clouds 18 1016 80 10000 0.89 119 22:19 08.01.2022
6003 Clouds 18 1017 81 10000 0.89 130 21:25 08.01.2022
6004 Clouds 18 1016 80 10000 0.89 150 20:41 08.01.2022
6005 Clouds 19 1017 80 10000 1.34 79 20:19 08.01.2022
6006 Clouds 17 1016 84 10000 1.34 174 18:34 08.01.2022
6007 Clouds 17 1016 83 10000 0.89 282 17:22 08.01.2022
6008 Clouds 17 1015 83 10000 0.89 20 15:52 08.01.2022
6009 Clouds 17 1016 80 10000 0.89 59 14:44 08.01.2022
6010 Clouds 17 1016 82 10000 0.89 114 13:25 08.01.2022
6011 Clouds 17 1018 78 10000 0.45 26 11:25 08.01.2022
6012 Clouds 17 1018 78 10000 0.45 233 10:25 08.01.2022
6013 Clouds 17 1018 76 10000 1.34 48 09:47 08.01.2022
6014 Clouds 20 1018 61 10000 0.45 204 07:21 08.01.2022
6015 Clouds 21 1021 59 10000 6.69 10 02:50 08.01.2022
6016 Clouds 21 1021 53 10000 0.45 191 00:41 08.01.2022
6017 Clouds 19 1022 58 10000 0.45 178 22:47 07.01.2022
6018 Clouds 15 1021 74 10000 2.06 20 20:58 07.01.2022
6019 Clouds 14 1022 77 10000 2.57 10 20:19 07.01.2022
6020 Clouds 11 1019 86 10000 2.06 30 19:18 07.01.2022
6021 Clouds 10 1021 93 10000 1.54 360 18:44 07.01.2022
6022 Clouds 10 1019 85 10000 2.06 10 17:26 07.01.2022
6023 Clouds 11 1019 85 10000 2.06 40 16:30 07.01.2022
6024 Clouds 12 1021 84 10000 2.06 180 13:56 07.01.2022
6025 Clouds 12 1021 83 10000 3.6 180 13:38 07.01.2022
6026 Clear 12 1021 82 9000 4.63 200 12:49 07.01.2022
6027 Clouds 14 1021 75 10000 5.66 150 09:37 07.01.2022
6028 Clouds 17 1022 67 10000 2.24 150 02:56 07.01.2022
6029 Clouds 16 1021 68 10000 2.68 226 01:54 07.01.2022
6030 Clouds 15 1022 71 10000 2.24 228 01:28 07.01.2022
6031 Clouds 16 1021 73 10000 2.68 135 00:58 07.01.2022
6032 Haze 15 1021 80 5000 1.79 136 23:53 06.01.2022
6033 Clouds 13 1020 83 10000 0.89 165 21:28 06.01.2022
6034 Clouds 13 1020 78 10000 2.68 145 20:22 06.01.2022
6035 Clouds 12 1020 83 8000 1.79 239 19:45 06.01.2022
6036 Clouds 12 1019 81 10000 1.79 241 18:34 06.01.2022
6037 Clouds 13 1019 80 10000 1.79 203 17:41 06.01.2022
6038 Clouds 13 1019 74 10000 1.34 213 16:52 06.01.2022
6039 Clouds 13 1019 74 10000 1.79 75 15:48 06.01.2022
6040 Clouds 13 1019 73 10000 1.34 148 15:26 06.01.2022
6041 Clouds 14 1019 72 10000 2.24 185 14:51 06.01.2022
6042 Clouds 13 1019 71 10000 2.24 275 14:18 06.01.2022
6043 Clouds 14 1019 74 10000 1.79 154 12:50 06.01.2022
6044 Clouds 14 1019 76 10000 2.24 129 11:43 06.01.2022
6045 Clouds 14 1019 76 10000 1.79 64 11:22 06.01.2022
6046 Clouds 14 1017 69 10000 2.24 84 08:59 06.01.2022
6047 Clouds 17 1014 78 10000 2.24 234 01:37 06.01.2022
6048 Clouds 15 1014 92 6000 2.24 157 23:38 05.01.2022
6049 Clouds 15 1014 94 6000 1.79 140 22:59 05.01.2022
6050 Clouds 15 1013 91 10000 2.68 240 22:33 05.01.2022
6051 Clouds 17 1012 89 10000 1.34 250 21:52 05.01.2022
6052 Clouds 16 1013 92 10000 0.89 92 21:21 05.01.2022
6053 Clouds 16 1012 91 10000 1.34 152 20:19 05.01.2022
6054 Rain 16 1012 88 10000 1.34 176 18:54 05.01.2022
6055 Clouds 16 1011 90 10000 0.89 215 17:45 05.01.2022
6056 Clouds 17 1011 87 10000 1.79 216 16:51 05.01.2022
6057 Clouds 17 1011 89 10000 0.89 178 15:43 05.01.2022
6058 Clouds 17 1011 87 10000 1.34 218 14:24 05.01.2022
6059 Clouds 17 1011 86 10000 0.89 123 13:32 05.01.2022
6060 Clouds 17 1010 90 10000 0.89 132 11:45 05.01.2022
6061 Clouds 18 1010 82 10000 0.89 121 08:20 05.01.2022
6062 Clouds 20 1010 79 10000 1.79 92 06:25 05.01.2022
6063 Clouds 20 1011 74 10000 1.79 135 00:59 05.01.2022
6064 Clouds 20 1011 76 10000 0.89 175 23:29 04.01.2022
6065 Clouds 20 1011 76 10000 0.89 122 22:58 04.01.2022
6066 Clouds 19 1012 82 10000 1.79 126 21:31 04.01.2022
6067 Clouds 17 1011 89 10000 0.45 209 19:22 04.01.2022
6068 Clouds 17 1011 89 10000 0.45 128 18:19 04.01.2022
6069 Clouds 17 1010 89 10000 0.89 166 16:53 04.01.2022
6070 Clouds 17 1010 88 10000 5.14 220 16:30 04.01.2022
6071 Clouds 17 1010 87 10000 4.12 220 14:54 04.01.2022
6072 Clouds 17 1011 87 10000 4.63 210 14:36 04.01.2022
6073 Clouds 18 1011 86 10000 3.6 230 13:40 04.01.2022
6074 Clouds 18 1011 83 10000 4.12 230 10:52 04.01.2022
6075 Clouds 18 1011 81 10000 5.66 220 09:47 04.01.2022
6076 Clouds 19 1011 79 10000 0.45 257 08:35 04.01.2022
6077 Clouds 23 1011 59 10000 4.12 200 03:39 04.01.2022
6078 Clouds 22 1013 69 10000 4.12 180 00:42 04.01.2022
6079 Clouds 21 1013 71 10000 3.6 180 23:41 03.01.2022
6080 Clouds 22 1013 72 10000 0.45 223 22:21 03.01.2022
6081 Clouds 21 1013 74 10000 1.03 290 21:35 03.01.2022
6082 Clouds 19 1013 80 10000 1.03 360 20:28 03.01.2022
6083 Clouds 16 1013 89 10000 1.03 40 18:54 03.01.2022
6084 Clouds 16 1013 89 10000 1.03 240 18:28 03.01.2022
6085 Clouds 16 1013 89 10000 2.57 170 17:18 03.01.2022
6086 Clouds 17 1013 87 10000 1.03 110 15:50 03.01.2022
6087 Clouds 18 1014 84 10000 0.45 295 14:31 03.01.2022
6088 Clouds 18 1015 80 10000 3.09 360 12:49 03.01.2022
6089 Clouds 19 1015 77 10000 2.57 350 11:50 03.01.2022
6090 Clouds 20 1015 76 10000 0.45 258 10:37 03.01.2022
6091 Clouds 21 1014 67 10000 0.45 269 08:54 03.01.2022
6092 Clouds 23 1014 64 10000 8.23 360 07:51 03.01.2022
6093 Clouds 25 1017 61 10000 8.75 360 01:55 03.01.2022
6094 Clouds 23 1018 60 10000 8.75 10 23:22 02.01.2022
6095 Clouds 22 1018 67 10000 0.89 143 22:55 02.01.2022
6096 Clouds 22 1018 71 10000 0.45 38 21:52 02.01.2022
6097 Clouds 21 1018 73 10000 0.45 185 20:45 02.01.2022
6098 Clouds 21 1018 78 10000 1.34 86 20:24 02.01.2022
6099 Clouds 20 1018 79 10000 0.45 186 19:31 02.01.2022
6100 Clouds 19 1018 83 10000 0.45 173 18:51 02.01.2022
6101 Clouds 18 1018 87 10000 0.45 155 17:56 02.01.2022
6102 Clouds 18 1018 84 10000 0.45 152 17:37 02.01.2022
6103 Clouds 18 1018 84 10000 0.45 228 17:18 02.01.2022
6104 Clouds 18 1019 80 10000 6.69 10 16:27 02.01.2022
6105 Clouds 19 1019 75 10000 6.17 20 14:38 02.01.2022
6106 Clouds 19 1020 72 10000 5.14 20 12:57 02.01.2022
6107 Clouds 19 1020 72 10000 3.6 10 12:25 02.01.2022
6108 Clouds 20 1020 70 10000 5.14 20 11:33 02.01.2022
6109 Clouds 20 1021 69 10000 4.63 20 10:50 02.01.2022
6110 Clouds 21 1020 66 10000 5.14 30 09:52 02.01.2022
6111 Rain 24 1020 60 10000 5.14 10 07:26 02.01.2022
6112 Clouds 28 1021 30 10000 5.66 350 02:19 02.01.2022
6113 Clouds 21 1021 68 10000 2.06 200 23:40 01.01.2022
6114 Clouds 21 1022 64 10000 1.54 200 22:58 01.01.2022
6115 Clouds 22 1021 69 10000 0.89 356 22:23 01.01.2022
6116 Clouds 21 1021 76 10000 1.03 310 21:44 01.01.2022
6117 Clouds 20 1021 73 10000 2.57 360 20:56 01.01.2022
6118 Clouds 17 1021 82 10000 2.57 20 19:59 01.01.2022
6119 Clouds 16 1020 85 10000 2.57 30 19:30 01.01.2022
6120 Clouds 14 1021 87 10000 2.06 10 18:20 01.01.2022
6121 Clouds 15 1020 87 10000 1.54 320 16:43 01.01.2022
6122 Clear 14 1020 89 10000 1.54 320 16:20 01.01.2022
6123 Clouds 14 1020 88 10000 1.54 150 15:27 01.01.2022
6124 Clear 15 1020 89 10000 0.51 280 14:21 01.01.2022
6125 Clear 15 1020 87 10000 0 0 12:50 01.01.2022
6126 Clear 16 1020 84 10000 2.06 170 11:58 01.01.2022
6127 Clear 17 1019 81 10000 1.03 100 11:23 01.01.2022
6128 Clear 17 1019 78 10000 1.03 230 10:42 01.01.2022
6129 Clear 18 1018 75 10000 3.09 210 09:47 01.01.2022
6130 Clear 19 1018 70 10000 0.45 199 08:26 01.01.2022
6131 Clear 21 1018 60 10000 6.69 210 07:55 01.01.2022
6132 Clear 21 1018 56 10000 5.66 200 07:34 01.01.2022
6133 Clear 22 1018 50 10000 6.17 220 06:41 01.01.2022
6134 Clear 22 1017 53 10000 5.14 220 04:38 01.01.2022
6135 Clear 22 1017 59 10000 3.6 170 02:54 01.01.2022
6136 Clear 23 1016 55 10000 4.63 360 23:52 31.12.2021
6137 Clear 21 1014 67 10000 1.34 317 21:54 31.12.2021
6138 Clear 19 1014 73 10000 0.45 28 20:41 31.12.2021
6139 Clear 17 1013 79 10000 4.63 360 19:31 31.12.2021
6140 Clouds 16 1013 77 10000 4.12 360 18:44 31.12.2021
6141 Clouds 16 1011 79 10000 5.14 20 17:45 31.12.2021
6142 Clouds 16 1011 79 10000 5.14 10 17:19 31.12.2021
6143 Clouds 16 1011 80 10000 0.45 272 16:44 31.12.2021
6144 Clouds 16 1011 79 10000 0.45 148 15:58 31.12.2021
6145 Clouds 16 1011 78 10000 0.45 231 15:40 31.12.2021
6146 Clouds 16 1011 77 10000 0.45 70 15:19 31.12.2021
6147 Clouds 16 1011 79 10000 0.45 219 14:33 31.12.2021
6148 Clouds 17 1011 78 10000 0.45 322 13:44 31.12.2021
6149 Rain 17 1011 77 10000 0.45 348 12:49 31.12.2021
6150 Clouds 17 1012 77 10000 0.45 154 12:19 31.12.2021
6151 Clouds 17 1012 78 10000 0.89 119 11:33 31.12.2021
6152 Clouds 17 1012 77 10000 0.45 217 10:41 31.12.2021
6153 Clouds 17 1012 75 10000 0.89 194 10:23 31.12.2021
6154 Clouds 18 1012 74 10000 0.45 55 09:33 31.12.2021
6155 Clouds 18 1011 70 10000 0.45 343 08:49 31.12.2021
6156 Clouds 19 1011 70 10000 0.45 202 07:49 31.12.2021
6157 Rain 22 1012 56 10000 5.66 330 01:38 31.12.2021
6158 Clouds 19 1012 76 10000 0.89 202 22:54 30.12.2021
6159 Clouds 19 1012 77 10000 0.89 166 22:27 30.12.2021
6160 Clouds 17 1012 81 10000 0.51 330 21:38 30.12.2021
6161 Clouds 18 1012 82 10000 0.45 211 20:58 30.12.2021
6162 Clouds 17 1011 83 10000 2.57 20 20:35 30.12.2021
6163 Clouds 15 1010 88 10000 3.09 40 19:50 30.12.2021
6164 Clouds 15 1010 90 10000 2.06 70 19:24 30.12.2021
6165 Clouds 15 1010 87 10000 2.57 200 18:26 30.12.2021
6166 Clouds 15 1009 85 10000 2.57 170 16:39 30.12.2021
6167 Clouds 15 1009 85 10000 1.54 250 15:53 30.12.2021
6168 Clouds 15 1009 85 10000 1.54 250 15:53 30.12.2021
6169 Clouds 15 1008 83 10000 3.09 340 14:54 30.12.2021
6170 Clouds 15 1008 85 10000 2.57 10 14:35 30.12.2021
6171 Clouds 16 1008 82 10000 4.12 350 13:24 30.12.2021
6172 Clouds 16 1007 79 10000 0.45 255 11:53 30.12.2021
6173 Clouds 17 1006 78 10000 5.66 10 10:28 30.12.2021
6174 Clouds 17 1005 74 10000 0.45 107 09:44 30.12.2021
6175 Clouds 19 1004 65 10000 0.45 292 06:56 30.12.2021
6176 Clear 21 1004 60 10000 8.23 350 05:20 30.12.2021
6177 Clear 21 1005 56 10000 7.72 350 03:40 30.12.2021
6178 Clouds 21 1005 55 10000 9.26 350 02:27 30.12.2021
6179 Clouds 20 1004 62 10000 7.72 350 23:37 29.12.2021
6180 Clouds 20 1003 70 10000 0.89 68 22:35 29.12.2021
6181 Clouds 19 1003 74 10000 0.45 47 21:55 29.12.2021
6182 Clouds 18 1004 77 10000 0.89 19 20:57 29.12.2021
6183 Clouds 17 1004 78 10000 0.89 36 20:29 29.12.2021
6184 Clouds 15 1004 84 10000 1.34 59 19:31 29.12.2021
6185 Clouds 14 1004 90 10000 3.09 30 18:42 29.12.2021
6186 Clouds 14 1003 89 10000 3.09 20 17:49 29.12.2021
6187 Clear 13 1003 89 10000 3.09 10 17:26 29.12.2021
6188 Clouds 13 1004 87 10000 2.06 10 16:21 29.12.2021
6189 Clouds 13 1004 87 10000 0.51 10 15:21 29.12.2021
6190 Clouds 14 1005 83 10000 3.6 30 13:31 29.12.2021
6191 Clouds 15 1005 80 10000 4.12 350 12:35 29.12.2021
6192 Clouds 15 1005 78 10000 3.6 350 11:23 29.12.2021
6193 Clouds 15 1004 76 10000 2.06 60 09:35 29.12.2021
6194 Clouds 19 1002 69 10000 0.45 199 07:45 29.12.2021
6195 Clouds 17 1002 66 10000 1.34 220 06:34 29.12.2021
6196 Clouds 18 1002 63 10000 1.34 220 05:56 29.12.2021
6197 Clouds 18 1002 60 10000 0.89 287 05:27 29.12.2021
6198 Clouds 17 1003 71 10000 1.79 196 00:45 29.12.2021
6199 Clouds 18 1003 73 10000 1.34 149 23:59 28.12.2021
6200 Clouds 17 1002 78 10000 2.24 103 22:57 28.12.2021
6201 Clouds 17 1002 78 10000 2.24 103 22:57 28.12.2021
6202 Clouds 16 1002 82 10000 1.79 176 22:25 28.12.2021
6203 Clouds 16 1003 81 10000 1.34 100 21:54 28.12.2021
6204 Clouds 17 1003 80 10000 1.79 136 21:35 28.12.2021
6205 Clouds 15 1003 86 10000 1.34 254 20:32 28.12.2021
6206 Clouds 14 1002 93 10000 0.89 196 18:54 28.12.2021
6207 Clouds 14 1001 95 10000 0.89 86 18:28 28.12.2021
6208 Clouds 14 1001 95 10000 2.24 280 17:42 28.12.2021
6209 Clouds 14 1001 95 10000 0.45 214 16:25 28.12.2021
6210 Clouds 14 1001 95 10000 0.45 175 15:41 28.12.2021
6211 Clouds 15 1001 96 9000 0.45 221 14:57 28.12.2021
6212 Clouds 15 1001 96 10000 0.45 209 14:38 28.12.2021
6213 Clouds 15 1001 96 10000 0.45 126 14:20 28.12.2021
6214 Clouds 15 1002 96 10000 4.12 180 13:38 28.12.2021
6215 Clouds 15 1002 96 10000 1.34 254 12:56 28.12.2021
6216 Clouds 15 1002 96 10000 0.89 139 12:29 28.12.2021
6217 Rain 16 1002 94 3500 5.14 170 10:51 28.12.2021
6218 Rain 17 1000 91 10000 0.45 246 07:39 28.12.2021
6219 Rain 18 1000 90 10000 0.45 329 06:40 28.12.2021
6220 Clouds 19 1005 86 10000 0.45 72 23:42 27.12.2021
6221 Clouds 20 1004 86 10000 0.89 282 22:31 27.12.2021
6222 Clouds 20 1004 86 10000 0.89 282 21:32 27.12.2021
6223 Clouds 20 1004 87 10000 0.45 175 20:40 27.12.2021
6224 Clouds 19 1005 88 10000 0.89 301 19:56 27.12.2021
6225 Clouds 19 1005 88 10000 0.45 167 19:38 27.12.2021
6226 Clouds 18 1005 89 10000 0.45 112 17:55 27.12.2021
6227 Clouds 18 1005 88 10000 0.89 19 17:29 27.12.2021
6228 Clouds 19 1005 86 10000 0.89 145 16:32 27.12.2021
6229 Clouds 19 1006 85 10000 0.45 89 15:50 27.12.2021
6230 Clouds 19 1007 84 10000 0.45 239 14:29 27.12.2021
6231 Clouds 19 1007 85 10000 0.89 79 13:32 27.12.2021
6232 Clouds 19 1008 83 10000 0.45 53 11:41 27.12.2021
6233 Clouds 19 1009 81 10000 0.45 64 10:28 27.12.2021
6234 Clouds 19 1008 80 10000 0.45 69 09:38 27.12.2021
6235 Clouds 21 1008 72 10000 1.34 10 07:35 27.12.2021
6236 Clouds 21 1008 72 10000 0.89 227 06:30 27.12.2021
6237 Clouds 21 1010 76 10000 0.89 139 01:59 27.12.2021
6238 Clouds 21 1010 77 10000 0.89 39 23:52 26.12.2021
6239 Clouds 21 1010 77 10000 1.79 167 23:34 26.12.2021
6240 Clouds 20 1011 81 10000 0.45 131 21:48 26.12.2021
6241 Clouds 19 1011 85 10000 1.34 159 20:31 26.12.2021
6242 Clouds 19 1010 87 10000 0.45 326 19:31 26.12.2021
6243 Clouds 18 1010 89 10000 0.45 131 18:23 26.12.2021
6244 Clouds 18 1010 89 10000 1.34 79 15:56 26.12.2021
6245 Clouds 18 1011 88 10000 1.34 128 13:52 26.12.2021
6246 Clouds 18 1011 88 10000 0.45 55 13:32 26.12.2021
6247 Clouds 18 1012 86 10000 0.89 164 12:39 26.12.2021
6248 Clouds 18 1012 87 10000 0.45 73 11:58 26.12.2021
6249 Clouds 18 1013 84 10000 1.79 100 09:52 26.12.2021
6250 Clouds 18 1012 85 10000 0.89 99 09:18 26.12.2021
6251 Clouds 18 1012 81 10000 0.45 358 08:39 26.12.2021
6252 Clouds 20 1013 71 10000 0.45 93 06:47 26.12.2021
6253 Clear 21 1015 64 10000 10.8 360 00:59 26.12.2021
6254 Clear 21 1015 62 10000 0.89 94 23:51 25.12.2021
6255 Clear 21 1015 62 10000 0.45 232 23:26 25.12.2021
6256 Clear 20 1015 68 10000 0.89 347 22:23 25.12.2021
6257 Clear 18 1015 75 10000 0.89 15 20:48 25.12.2021
6258 Clear 15 1015 80 10000 0.45 138 19:22 25.12.2021
6259 Clear 15 1014 83 10000 0.45 244 18:54 25.12.2021
6260 Clear 12 1014 85 10000 4.12 30 17:29 25.12.2021
6261 Clear 13 1015 85 10000 4.12 10 16:35 25.12.2021
6262 Clear 12 1016 87 10000 2.06 360 14:38 25.12.2021
6263 Clouds 13 1017 85 10000 1.54 10 12:49 25.12.2021
6264 Clouds 15 1017 79 10000 0.51 20 11:45 25.12.2021
6265 Clouds 15 1018 78 10000 3.09 180 09:50 25.12.2021
6266 Clouds 16 1018 74 10000 3.09 170 08:38 25.12.2021
6267 Clouds 17 1021 70 10000 2.24 213 02:59 25.12.2021
6268 Clouds 17 1022 71 10000 2.68 140 00:33 25.12.2021
6269 Clouds 18 1020 72 10000 2.68 171 23:39 24.12.2021
6270 Rain 15 1021 80 10000 1.79 94 19:40 24.12.2021
6271 Rain 15 1021 80 10000 2.24 124 19:22 24.12.2021
6272 Clouds 15 1019 83 10000 3.13 89 16:53 24.12.2021
6273 Clouds 15 1019 86 10000 2.68 152 16:21 24.12.2021
6274 Clouds 15 1019 85 10000 2.24 150 15:48 24.12.2021
6275 Clouds 16 1019 85 10000 2.24 50 14:47 24.12.2021
6276 Clouds 16 1019 82 10000 2.24 149 14:24 24.12.2021
6277 Clouds 16 1019 83 10000 1.34 156 13:39 24.12.2021
6278 Clouds 16 1018 81 10000 2.24 143 12:48 24.12.2021
6279 Clouds 16 1018 83 10000 1.79 157 11:58 24.12.2021
6280 Clouds 16 1017 83 10000 1.34 90 11:27 24.12.2021
6281 Clouds 16 1017 85 10000 1.34 107 10:53 24.12.2021
6282 Clouds 17 1017 86 10000 1.34 155 10:22 24.12.2021
6283 Clouds 17 1015 80 10000 1.34 161 08:26 24.12.2021
6284 Clouds 17 1015 81 10000 0.89 252 07:50 24.12.2021
6285 Clouds 21 1013 65 10000 3.6 190 03:21 24.12.2021
6286 Clouds 20 1012 68 10000 0.45 138 00:19 24.12.2021
6287 Clouds 20 1013 67 10000 0.45 214 23:23 23.12.2021
6288 Clouds 20 1012 68 10000 0.89 312 22:40 23.12.2021
6289 Clouds 19 1012 70 10000 0.89 235 22:20 23.12.2021
6290 Clouds 18 1012 72 10000 0.45 26 21:34 23.12.2021
6291 Clouds 17 1012 76 10000 2.57 40 20:21 23.12.2021
6292 Clouds 16 1011 82 10000 2.06 30 18:53 23.12.2021
6293 Clouds 15 1010 83 10000 0.45 227 17:57 23.12.2021
6294 Clouds 16 1009 82 10000 0.45 78 16:57 23.12.2021
6295 Clouds 16 1009 81 10000 4.63 30 16:25 23.12.2021
6296 Clouds 16 1009 81 10000 0.45 293 15:32 23.12.2021
6297 Clouds 17 1009 82 10000 0.45 131 14:55 23.12.2021
6298 Clouds 17 1009 81 10000 0.45 43 14:37 23.12.2021
6299 Clouds 17 1010 81 10000 0.45 21 13:22 23.12.2021
6300 Clouds 18 1010 79 10000 0.45 299 10:54 23.12.2021
6301 Clouds 18 1010 79 10000 0.45 299 10:54 23.12.2021
6302 Clouds 18 1009 78 10000 0.45 134 09:49 23.12.2021
6303 Clouds 18 1009 79 10000 0.89 318 09:26 23.12.2021
6304 Clouds 19 1008 76 10000 0.89 22 08:25 23.12.2021
6305 Clouds 21 1008 70 10000 0.45 172 04:36 23.12.2021
6306 Clouds 21 1008 70 10000 10.29 360 23:33 22.12.2021
6307 Clouds 21 1007 73 10000 0.45 337 22:49 22.12.2021
6308 Clouds 21 1007 75 10000 0.45 134 21:57 22.12.2021
6309 Clouds 21 1007 77 10000 0.89 296 21:29 22.12.2021
6310 Clouds 20 1007 79 10000 0.45 284 20:51 22.12.2021
6311 Clouds 19 1006 82 10000 0.45 78 20:33 22.12.2021
6312 Clouds 18 1006 86 10000 0.45 131 19:35 22.12.2021
6313 Clouds 18 1005 89 10000 0.45 24 18:18 22.12.2021
6314 Clouds 18 1005 89 10000 0.45 198 17:35 22.12.2021
6315 Clouds 18 1005 86 10000 0.45 43 15:46 22.12.2021
6316 Clouds 18 1006 85 10000 0.89 29 13:44 22.12.2021
6317 Clear 18 1006 85 10000 1.34 283 12:44 22.12.2021
6318 Clear 18 1006 82 10000 0.89 171 10:48 22.12.2021
6319 Clear 18 1006 79 10000 0.45 48 09:40 22.12.2021
6320 Clear 20 1005 76 10000 0.89 258 07:48 22.12.2021
6321 Clear 22 1005 64 10000 0.89 332 05:51 22.12.2021
6322 Clear 22 1006 58 10000 11.32 20 05:28 22.12.2021
6323 Clear 22 1005 58 10000 1.79 53 04:54 22.12.2021
6324 Clear 22 1006 57 10000 12.35 10 04:30 22.12.2021
6325 Clear 22 1005 59 10000 14.4 360 03:34 22.12.2021
6326 Clear 22 1006 61 10000 1.79 181 01:37 22.12.2021
6327 Clouds 21 1007 69 10000 0.89 188 23:33 21.12.2021
6328 Clear 21 1006 73 10000 0.89 325 22:29 21.12.2021
6329 Clouds 20 1006 74 10000 0.89 258 21:51 21.12.2021
6330 Clear 20 1006 75 10000 1.34 152 21:24 21.12.2021
6331 Clear 18 1006 78 10000 0.89 131 20:23 21.12.2021
6332 Clear 18 1005 80 10000 0.89 350 19:46 21.12.2021
6333 Clouds 17 1005 80 10000 0.89 287 19:19 21.12.2021
6334 Clear 16 1005 85 10000 0.89 188 18:22 21.12.2021
6335 Clear 16 1005 83 10000 0.45 37 17:47 21.12.2021
6336 Clouds 16 1005 82 10000 0.89 77 16:39 21.12.2021
6337 Clear 16 1005 82 10000 1.79 61 15:29 21.12.2021
6338 Clear 16 1006 80 10000 1.79 131 13:51 21.12.2021
6339 Clear 16 1006 80 10000 1.34 211 13:31 21.12.2021
6340 Clear 16 1006 80 10000 1.79 349 11:57 21.12.2021
6341 Clear 17 1006 79 10000 1.79 43 10:25 21.12.2021
6342 Clear 17 1005 78 10000 1.34 185 09:33 21.12.2021
6343 Clear 18 1004 74 10000 1.34 206 08:28 21.12.2021
6344 Clear 19 1004 72 10000 1.34 216 07:32 21.12.2021
6345 Clear 19 1004 69 10000 1.34 310 06:50 21.12.2021
6346 Clouds 20 1004 72 10000 1.79 293 03:20 21.12.2021
6347 Clouds 20 1004 67 10000 2.24 45 00:46 21.12.2021
6348 Clouds 20 1005 69 10000 1.79 236 23:34 20.12.2021
6349 Clouds 20 1004 78 10000 1.79 317 22:33 20.12.2021
6350 Clouds 18 1004 85 10000 1.79 95 21:48 20.12.2021
6351 Clouds 18 1004 87 10000 2.24 153 21:24 20.12.2021
6352 Clouds 18 1004 90 10000 2.68 118 20:48 20.12.2021
6353 Clouds 17 1005 90 10000 2.68 142 19:54 20.12.2021
6354 Clouds 17 1005 91 10000 2.68 103 19:31 20.12.2021
6355 Clouds 17 1005 90 10000 2.68 322 18:54 20.12.2021
6356 Clouds 17 1005 86 10000 2.68 158 17:55 20.12.2021
6357 Clouds 17 1006 86 10000 3.13 260 17:25 20.12.2021
6358 Clouds 17 1006 85 10000 2.68 85 16:42 20.12.2021
6359 Clouds 18 1006 82 10000 3.13 250 15:51 20.12.2021
6360 Clouds 18 1007 82 10000 2.68 52 14:53 20.12.2021
6361 Clouds 18 1007 82 10000 3.13 72 13:18 20.12.2021
6362 Clouds 18 1009 80 10000 1.79 124 11:23 20.12.2021
6363 Clouds 18 1009 79 10000 2.68 53 09:51 20.12.2021
6364 Clouds 18 1009 79 10000 2.24 52 09:31 20.12.2021
6365 Clouds 18 1008 78 10000 2.24 356 08:42 20.12.2021
6366 Clouds 18 1008 77 10000 3.13 275 07:55 20.12.2021
6367 Clouds 18 1009 76 10000 2.24 105 07:30 20.12.2021
6368 Clouds 18 1009 78 10000 1.79 156 04:36 20.12.2021
6369 Clouds 20 1013 71 10000 2.24 185 00:18 20.12.2021
6370 Clouds 20 1013 72 10000 1.34 150 22:53 19.12.2021
6371 Clouds 18 1014 76 10000 1.34 17 21:55 19.12.2021
6372 Clouds 18 1014 77 10000 1.34 55 21:30 19.12.2021
6373 Clouds 18 1014 79 10000 0.89 236 20:34 19.12.2021
6374 Clouds 17 1014 81 10000 1.79 131 19:52 19.12.2021
6375 Clouds 17 1015 82 10000 1.34 71 19:27 19.12.2021
6376 Clouds 17 1015 84 10000 1.34 112 18:30 19.12.2021
6377 Clouds 16 1015 85 10000 0.89 142 17:53 19.12.2021
6378 Clouds 16 1015 85 10000 0.89 119 17:20 19.12.2021
6379 Clouds 17 1015 84 10000 1.79 33 16:26 19.12.2021
6380 Clouds 17 1015 84 10000 0.89 140 15:43 19.12.2021
6381 Clouds 16 1015 84 10000 1.34 46 15:20 19.12.2021
6382 Clouds 17 1016 83 10000 1.79 42 14:42 19.12.2021
6383 Clouds 17 1016 82 10000 1.34 78 13:22 19.12.2021
6384 Clouds 17 1016 81 10000 1.34 229 12:42 19.12.2021
6385 Clouds 17 1016 81 10000 1.34 157 12:18 19.12.2021
6386 Clouds 17 1016 82 10000 1.34 132 11:21 19.12.2021
6387 Clouds 17 1016 80 10000 1.34 201 10:26 19.12.2021
6388 Clouds 17 1015 80 10000 1.34 30 09:42 19.12.2021
6389 Clouds 17 1016 77 10000 0.89 256 08:35 19.12.2021
6390 Clear 21 1016 60 10000 11.83 10 04:45 19.12.2021
6391 Clouds 20 1016 61 10000 13.38 10 01:22 19.12.2021
6392 Clouds 20 1016 61 10000 12.86 360 00:52 19.12.2021
6393 Clouds 20 1016 60 10000 1.34 10 22:37 18.12.2021
6394 Clouds 20 1015 68 10000 0.89 288 21:57 18.12.2021
6395 Clouds 20 1014 70 10000 0.89 121 21:35 18.12.2021
6396 Clouds 18 1014 76 10000 0.89 145 20:44 18.12.2021
6397 Clouds 18 1014 78 10000 1.34 263 20:18 18.12.2021
6398 Clouds 16 1015 81 10000 0.45 218 19:20 18.12.2021
6399 Clouds 16 1015 83 10000 0.45 108 18:21 18.12.2021
6400 Clouds 15 1014 79 10000 0.45 100 17:48 18.12.2021
6401 Clouds 15 1014 75 10000 0.45 17 16:26 18.12.2021
6402 Clouds 15 1014 75 10000 0.45 17 16:26 18.12.2021
6403 Clear 15 1014 83 10000 0.45 56 15:27 18.12.2021
6404 Clear 15 1014 81 10000 0.45 49 14:38 18.12.2021
6405 Clear 15 1014 81 10000 0.89 202 13:21 18.12.2021
6406 Clouds 16 1013 79 10000 0.45 54 11:22 18.12.2021
6407 Clouds 17 1012 73 10000 0.45 54 09:40 18.12.2021
6408 Clouds 17 1011 71 10000 0.45 73 08:47 18.12.2021
6409 Clouds 18 1011 65 10000 0.45 331 08:23 18.12.2021
6410 Clear 21 1010 46 10000 8.75 360 03:42 18.12.2021
6411 Clouds 18 1009 59 10000 3.09 190 00:29 18.12.2021
6412 Clouds 18 1009 63 10000 0.45 36 23:44 17.12.2021
6413 Clouds 16 1007 75 10000 0.45 166 21:57 17.12.2021
6414 Clouds 16 1007 73 10000 0.45 169 21:19 17.12.2021
6415 Clouds 15 1006 75 10000 0.45 93 20:40 17.12.2021
6416 Clouds 13 1004 78 10000 1.34 199 19:24 17.12.2021
6417 Clouds 12 1004 85 10000 1.54 30 18:38 17.12.2021
6418 Clear 11 1002 86 10000 2.06 30 17:31 17.12.2021
6419 Clear 12 1002 86 10000 1.03 70 16:46 17.12.2021
6420 Clear 12 1002 85 10000 1.03 40 16:22 17.12.2021
6421 Clear 13 1002 79 10000 1.03 210 15:25 17.12.2021
6422 Clear 13 1001 82 10000 1.79 185 14:40 17.12.2021
6423 Clouds 13 1000 88 10000 1.54 10 12:47 17.12.2021
6424 Clouds 13 999 87 10000 2.06 350 11:46 17.12.2021
6425 Clouds 13 999 86 10000 0.51 270 10:37 17.12.2021
6426 Clouds 14 999 85 10000 1.54 240 09:33 17.12.2021
6427 Clouds 15 998 81 10000 3.09 180 08:30 17.12.2021
6428 Clouds 15 997 85 10000 0.89 230 06:22 17.12.2021
6429 Clouds 21 995 68 10000 0.89 202 02:53 17.12.2021
6430 Clouds 20 995 74 10000 1.79 207 23:25 16.12.2021
6431 Clouds 20 993 77 10000 1.34 249 22:24 16.12.2021
6432 Clouds 19 994 80 10000 0.45 356 21:50 16.12.2021
6433 Clouds 18 994 83 10000 0.45 47 21:25 16.12.2021
6434 Clouds 17 993 88 10000 0.45 166 20:30 16.12.2021
6435 Clouds 17 993 89 10000 0.89 321 19:42 16.12.2021
6436 Clouds 16 993 91 10000 0.89 28 18:38 16.12.2021
6437 Rain 16 993 93 10000 0.89 213 17:56 16.12.2021
6438 Rain 15 993 94 10000 0.45 75 17:30 16.12.2021
6439 Clouds 15 994 93 10000 2.57 10 16:21 16.12.2021
6440 Clouds 14 994 91 10000 2.57 30 14:50 16.12.2021
6441 Clouds 15 995 88 10000 1.54 310 13:25 16.12.2021
6442 Clouds 15 995 89 10000 1.03 260 11:20 16.12.2021
6443 Clouds 15 995 87 8000 2.06 190 10:58 16.12.2021
6444 Clouds 15 995 86 10000 2.06 210 10:20 16.12.2021
6445 Clouds 16 993 82 10000 3.6 170 07:48 16.12.2021
6446 Clouds 17 991 79 10000 0.45 235 06:21 16.12.2021
6447 Clouds 15 990 87 10000 0.45 137 00:54 16.12.2021
6448 Clouds 16 991 86 10000 0.45 204 23:25 15.12.2021
6449 Rain 15 991 87 10000 3.6 140 22:41 15.12.2021
6450 Clouds 15 991 88 10000 3.09 140 21:55 15.12.2021
6451 Rain 15 991 89 10000 0.45 129 21:26 15.12.2021
6452 Rain 15 991 91 8000 2.57 170 20:18 15.12.2021
6453 Rain 15 990 91 10000 2.57 160 19:45 15.12.2021
6454 Clouds 14 991 92 7000 4.63 170 18:37 15.12.2021
6455 Clouds 14 991 94 6000 5.14 160 17:53 15.12.2021
6456 Rain 14 991 94 5000 1.03 210 17:34 15.12.2021
6457 Rain 14 991 93 10000 0.51 90 16:28 15.12.2021
6458 Clouds 13 991 93 10000 1.03 90 15:46 15.12.2021
6459 Clouds 13 992 91 10000 1.03 90 15:27 15.12.2021
6460 Clouds 14 992 90 10000 1.03 70 14:18 15.12.2021
6461 Clouds 15 994 86 10000 3.09 170 12:37 15.12.2021
6462 Clouds 16 994 87 10000 0.45 139 10:27 15.12.2021
6463 Clouds 17 993 87 9000 4.12 230 08:55 15.12.2021
6464 Clouds 18 993 88 9000 0.89 234 07:25 15.12.2021
6465 Clouds 26 994 65 10000 5.14 40 01:20 15.12.2021
6466 Clouds 22 997 73 10000 5.14 40 23:42 14.12.2021
6467 Clouds 21 994 89 10000 0.45 107 22:49 14.12.2021
6468 Clouds 20 994 87 10000 0.89 175 22:19 14.12.2021
6469 Clouds 18 997 93 10000 1.34 121 20:29 14.12.2021
6470 Clouds 17 999 93 10000 1.34 171 19:43 14.12.2021
6471 Clouds 16 999 96 8000 0.89 135 18:53 14.12.2021
6472 Clouds 16 999 98 4600 0.89 138 18:25 14.12.2021
6473 Rain 16 1001 98 4700 1.34 136 17:30 14.12.2021
6474 Rain 16 1002 98 3200 1.79 239 16:39 14.12.2021
6475 Rain 15 1003 98 1000 1.34 119 15:35 14.12.2021
6476 Rain 14 1005 98 3900 1.34 178 13:31 14.12.2021
6477 Rain 14 1008 98 3100 0.89 121 11:59 14.12.2021
6478 Rain 14 1008 98 4200 1.79 128 11:24 14.12.2021
6479 Rain 14 1008 98 2800 1.34 204 09:57 14.12.2021
6480 Mist 14 1008 98 3100 1.34 85 09:35 14.12.2021
6481 Rain 14 1008 97 2700 1.79 154 08:27 14.12.2021
6482 Rain 14 1008 97 6000 2.24 96 07:43 14.12.2021
6483 Rain 15 1009 97 6000 0.89 166 02:37 14.12.2021
6484 Rain 15 1010 97 5000 1.34 264 22:56 13.12.2021
6485 Rain 15 1010 97 2600 0.45 141 21:53 13.12.2021
6486 Rain 15 1010 97 7000 5.66 170 21:32 13.12.2021
6487 Rain 15 1010 97 5000 0.89 152 20:42 13.12.2021
6488 Rain 15 1009 97 7000 1.34 55 19:52 13.12.2021
6489 Rain 15 1009 96 10000 0.45 220 18:33 13.12.2021
6490 Rain 15 1009 95 10000 0.45 51 17:26 13.12.2021
6491 Rain 15 1009 91 10000 6.17 190 15:54 13.12.2021
6492 Clouds 15 1010 90 10000 5.66 190 15:32 13.12.2021
6493 Clouds 16 1011 88 10000 0.45 209 13:45 13.12.2021
6494 Clouds 16 1011 89 10000 4.63 200 12:49 13.12.2021
6495 Rain 16 1012 89 10000 4.63 200 11:59 13.12.2021
6496 Rain 16 1012 88 10000 4.12 210 11:35 13.12.2021
6497 Rain 16 1012 90 10000 3.6 220 10:47 13.12.2021
6498 Clouds 17 1011 88 10000 5.14 200 09:32 13.12.2021
6499 Clouds 20 1012 84 10000 1.03 340 07:53 13.12.2021
6500 Clouds 19 1012 80 10000 0.45 127 05:36 13.12.2021
6501 Clouds 21 1012 78 10000 0.45 254 03:30 13.12.2021
6502 Clouds 17 1017 82 10000 0.45 227 23:26 12.12.2021
6503 Clouds 15 1018 86 10000 1.54 230 21:41 12.12.2021
6504 Clouds 14 1018 89 10000 2.57 210 20:18 12.12.2021
6505 Clouds 13 1018 91 10000 2.57 240 18:43 12.12.2021
6506 Clouds 13 1018 91 10000 2.57 230 17:45 12.12.2021
6507 Clouds 13 1019 91 10000 1.54 240 16:28 12.12.2021
6508 Clouds 13 1019 91 10000 1.03 220 15:50 12.12.2021
6509 Clouds 13 1019 90 10000 1.03 220 15:25 12.12.2021
6510 Clouds 13 1020 89 10000 2.06 250 14:36 12.12.2021
6511 Clouds 13 1020 90 10000 0.51 100 13:26 12.12.2021
6512 Clouds 12 1019 90 10000 1.03 140 12:32 12.12.2021
6513 Clouds 13 1021 88 10000 1.03 330 11:44 12.12.2021
6514 Clouds 12 1019 87 10000 1.54 120 11:24 12.12.2021
6515 Clouds 13 1020 83 10000 0.45 126 10:28 12.12.2021
6516 Clouds 14 1020 80 10000 0.89 339 09:38 12.12.2021
6517 Clouds 14 1019 79 10000 0.45 185 08:34 12.12.2021
6518 Clouds 15 1018 76 10000 0.89 149 06:20 12.12.2021
6519 Clouds 15 1019 78 10000 1.34 97 04:56 12.12.2021
6520 Clouds 14 1019 77 10000 1.79 120 03:57 12.12.2021
6521 Rain 12 1019 88 10000 1.34 157 23:48 11.12.2021
6522 Rain 12 1019 94 6000 0.89 95 22:24 11.12.2021
6523 Rain 12 1019 93 9000 2.68 256 21:52 11.12.2021
6524 Rain 12 1019 95 7000 1.79 141 21:18 11.12.2021
6525 Rain 12 1018 93 5000 1.79 158 19:31 11.12.2021
6526 Rain 12 1018 95 4500 2.24 167 18:53 11.12.2021
6527 Haze 13 1017 95 5000 0.89 126 18:26 11.12.2021
6528 Rain 12 1016 96 6000 1.79 216 17:24 11.12.2021
6529 Rain 13 1015 97 7000 2.24 187 15:55 11.12.2021
6530 Rain 13 1015 97 4900 0.89 145 15:30 11.12.2021
6531 Rain 14 1014 96 3700 1.79 231 13:21 11.12.2021
6532 Rain 15 1014 96 1900 0.89 149 11:46 11.12.2021
6533 Clouds 18 1011 91 10000 0.89 182 09:47 11.12.2021
6534 Rain 18 1011 91 10000 0.89 21 09:18 11.12.2021
6535 Clouds 21 1011 72 10000 1.34 116 02:40 11.12.2021
6536 Clouds 22 1011 77 10000 2.24 43 00:42 11.12.2021
6537 Rain 20 1010 84 10000 0.89 50 23:24 10.12.2021
6538 Rain 20 1011 82 10000 1.34 46 21:57 10.12.2021
6539 Rain 20 1011 87 10000 1.79 101 21:37 10.12.2021
6540 Rain 19 1012 87 10000 1.34 39 19:22 10.12.2021
6541 Rain 18 1012 89 10000 1.34 54 18:57 10.12.2021
6542 Clouds 18 1012 85 10000 0.89 317 17:21 10.12.2021
6543 Clouds 18 1012 85 10000 0.89 74 16:30 10.12.2021
6544 Clouds 18 1013 87 10000 0.89 9 15:42 10.12.2021
6545 Clouds 18 1013 88 10000 0.89 85 15:22 10.12.2021
6546 Clouds 18 1013 88 10000 1.34 354 13:52 10.12.2021
6547 Clouds 18 1013 88 10000 1.34 140 13:27 10.12.2021
6548 Clouds 18 1013 89 10000 0.45 194 12:47 10.12.2021
6549 Clouds 18 1014 89 10000 0.45 137 11:34 10.12.2021
6550 Clouds 18 1014 89 10000 0.89 251 10:50 10.12.2021
6551 Clouds 18 1014 87 10000 0.89 241 09:30 10.12.2021
6552 Clouds 19 1013 80 10000 0.45 137 07:21 10.12.2021
6553 Clouds 19 1015 85 10000 5.14 20 02:51 10.12.2021
6554 Rain 18 1015 92 10000 0.45 28 01:32 10.12.2021
6555 Clouds 17 1015 92 10000 1.54 150 23:38 09.12.2021
6556 Clouds 16 1016 92 6000 2.57 170 22:41 09.12.2021
6557 Clouds 16 1015 93 6000 2.57 170 22:20 09.12.2021
6558 Mist 16 1016 95 4400 4.12 180 21:20 09.12.2021
6559 Clouds 16 1015 94 7000 0.45 343 20:34 09.12.2021
6560 Clouds 18 1013 92 10000 4.12 20 19:22 09.12.2021
6561 Clouds 18 1013 92 10000 0.45 152 18:53 09.12.2021
6562 Clouds 17 1013 93 10000 0.45 166 17:57 09.12.2021
6563 Clouds 17 1013 93 10000 0.45 144 17:28 09.12.2021
6564 Clouds 17 1013 93 10000 0.45 144 16:57 09.12.2021
6565 Clouds 18 1013 92 9000 0.89 217 16:20 09.12.2021
6566 Clouds 18 1013 91 10000 0.45 43 14:58 09.12.2021
6567 Clouds 18 1013 91 10000 0.89 193 13:51 09.12.2021
6568 Clouds 18 1013 91 10000 0.45 236 12:47 09.12.2021
6569 Clouds 18 1013 92 10000 0.89 101 11:25 09.12.2021
6570 Clouds 18 1013 90 10000 0.45 141 10:19 09.12.2021
6571 Clouds 19 1013 87 10000 1.34 43 06:53 09.12.2021
6572 Clouds 19 1014 87 10000 0.89 278 03:50 09.12.2021
6573 Clouds 19 1015 89 10000 0.89 165 00:24 09.12.2021
6574 Clouds 18 1014 92 7000 0.89 83 23:32 08.12.2021
6575 Clouds 18 1015 93 8000 0.45 158 22:56 08.12.2021
6576 Clouds 18 1015 90 10000 0.89 133 21:50 08.12.2021
6577 Clouds 19 1015 91 10000 0.89 40 21:31 08.12.2021
6578 Clouds 18 1015 91 10000 0.89 100 20:30 08.12.2021
6579 Clouds 18 1015 92 10000 0.89 149 19:48 08.12.2021
6580 Clouds 17 1015 94 10000 0.89 140 18:57 08.12.2021
6581 Clouds 17 1014 94 10000 0.89 261 18:22 08.12.2021
6582 Clouds 17 1014 92 10000 0.89 274 16:44 08.12.2021
6583 Clouds 17 1015 91 10000 0.45 36 15:40 08.12.2021
6584 Clouds 17 1015 91 10000 0.45 78 15:21 08.12.2021
6585 Rain 17 1016 91 10000 0.89 88 13:21 08.12.2021
6586 Rain 17 1016 86 10000 0.45 191 10:42 08.12.2021
6587 Clouds 17 1016 84 10000 0.45 168 09:32 08.12.2021
6588 Clouds 18 1016 79 10000 0.89 209 07:50 08.12.2021
6589 Clear 20 1014 74 10000 0.89 109 05:22 08.12.2021
6590 Clouds 19 1018 73 10000 1.34 247 00:27 08.12.2021
6591 Clouds 19 1019 76 10000 0.89 220 22:52 07.12.2021
6592 Clouds 17 1019 84 10000 0.45 209 21:25 07.12.2021
6593 Clouds 17 1019 84 10000 0.45 209 21:25 07.12.2021
6594 Clouds 16 1019 93 10000 0.45 190 20:25 07.12.2021
6595 Clouds 15 1020 97 10000 1.54 200 18:59 07.12.2021
6596 Clouds 14 1019 97 10000 1.54 170 18:21 07.12.2021
6597 Clouds 15 1019 97 7000 2.06 170 17:24 07.12.2021
6598 Mist 15 1018 97 5000 2.57 190 16:42 07.12.2021
6599 Clouds 15 1019 97 10000 2.06 190 15:59 07.12.2021
6600 Clouds 15 1019 96 10000 0.45 214 14:37 07.12.2021
6601 Clouds 17 1019 95 10000 0.45 278 13:38 07.12.2021
6602 Clouds 16 1019 95 7000 0.45 229 12:22 07.12.2021
6603 Clouds 16 1019 95 10000 0.45 17 10:56 07.12.2021
6604 Clouds 17 1018 95 10000 0.45 296 09:20 07.12.2021
6605 Clouds 16 1018 96 10000 0.45 60 06:50 07.12.2021
6606 Clouds 15 1019 97 10000 2.06 230 05:51 07.12.2021
6607 Clouds 14 1020 99 10000 2.06 200 03:25 07.12.2021
6608 Rain 13 1021 98 2400 6.69 200 23:23 06.12.2021
6609 Drizzle 13 1021 97 2500 0.45 147 22:40 06.12.2021
6610 Rain 13 1021 98 3400 7.72 200 21:59 06.12.2021
6611 Rain 13 1021 98 3000 0.45 128 21:31 06.12.2021
6612 Rain 13 1021 98 5000 7.72 200 20:32 06.12.2021
6613 Rain 13 1021 98 5000 7.72 200 20:32 06.12.2021
6614 Mist 13 1021 98 2100 8.75 200 19:24 06.12.2021
6615 Drizzle 13 1021 98 3700 8.23 200 18:40 06.12.2021
6616 Mist 13 1021 98 1600 8.75 200 17:54 06.12.2021
6617 Mist 13 1021 98 3500 9.26 200 17:33 06.12.2021
6618 Rain 13 1022 98 3100 8.23 200 15:51 06.12.2021
6619 Rain 13 1022 98 5000 7.2 180 14:38 06.12.2021
6620 Rain 13 1022 98 5000 7.2 170 13:23 06.12.2021
6621 Rain 13 1023 96 6000 7.2 180 12:37 06.12.2021
6622 Rain 13 1022 98 3600 0.89 119 09:56 06.12.2021
6623 Rain 12 1021 96 3200 1.79 166 07:38 06.12.2021
6624 Rain 12 1022 95 3700 1.34 173 02:26 06.12.2021
6625 Rain 12 1021 97 2500 1.79 183 22:25 05.12.2021
6626 Rain 12 1020 97 5000 1.79 281 21:25 05.12.2021
6627 Rain 12 1020 95 6000 1.79 187 20:43 05.12.2021
6628 Rain 12 1020 97 2300 1.79 138 20:18 05.12.2021
6629 Rain 13 1019 96 4000 1.79 199 19:23 05.12.2021
6630 Rain 13 1019 96 2100 0.89 213 18:28 05.12.2021
6631 Rain 13 1018 96 2800 0.45 101 17:49 05.12.2021
6632 Rain 14 1017 95 1600 0.89 191 17:18 05.12.2021
6633 Clouds 18 1015 93 10000 0.89 67 16:28 05.12.2021
6634 Clouds 19 1015 92 10000 1.34 64 15:59 05.12.2021
6635 Cloud